# Wetter Temperatur Luftdruck Luftfeuchtigkeit Sichtweite Windgeschwindigkeit Windrichtung Zeit
1 Clouds 6 1011 78 10000 10.56 270 13:43 01.02.2023
2 Clouds 6 1011 79 10000 9.52 275 13:19 01.02.2023
3 Clouds 6 1011 79 10000 9.52 275 13:19 01.02.2023
4 Rain 6 1012 82 10000 9.81 277 12:26 01.02.2023
5 Clouds 4 1012 90 10000 9.82 278 10:35 01.02.2023
6 Clouds 4 1012 87 10000 8.86 262 06:54 01.02.2023
7 Clouds 5 1015 80 10000 9.07 280 22:41 31.01.2023
8 Clouds 6 1014 85 10000 9.93 287 20:53 31.01.2023
9 Clouds 6 1013 84 10000 10.4 270 19:24 31.01.2023
10 Clouds 6 1013 85 10000 10.68 271 17:37 31.01.2023
11 Clouds 6 1014 87 10000 9.7 267 15:36 31.01.2023
12 Clouds 6 1014 87 10000 9.2 262 15:18 31.01.2023
13 Clouds 5 1015 85 9605 8.33 253 13:19 31.01.2023
14 Rain 6 1018 79 10000 8.06 256 11:28 31.01.2023
15 Clouds 5 1018 82 10000 6.54 252 10:18 31.01.2023
16 Clouds 4 1018 84 10000 6.54 252 09:44 31.01.2023
17 Clouds 4 1019 85 10000 6.3 262 08:36 31.01.2023
18 Clouds 3 1019 90 10000 7.32 279 06:25 31.01.2023
19 Clouds 4 1018 84 10000 7.91 292 01:54 31.01.2023
20 Rain 4 1016 84 10000 8.35 293 23:27 30.01.2023
21 Clouds 4 1016 86 10000 8.35 293 22:50 30.01.2023
22 Clouds 4 1016 90 10000 8.46 296 21:43 30.01.2023
23 Rain 4 1015 87 10000 9.15 300 20:44 30.01.2023
24 Clouds 4 1011 87 10000 10.63 296 18:26 30.01.2023
25 Rain 4 1010 87 10000 10.68 291 17:25 30.01.2023
26 Rain 5 1008 87 10000 11.09 282 14:47 30.01.2023
27 Rain 6 1008 77 10000 11.01 274 13:55 30.01.2023
28 Clouds 6 1009 80 10000 10.32 281 12:18 30.01.2023
29 Clouds 5 1008 86 10000 8.78 278 10:24 30.01.2023
30 Clouds 5 1008 87 10000 8.78 278 09:53 30.01.2023
31 Clouds 4 1008 87 10000 9.61 271 08:30 30.01.2023
32 Rain 3 1009 86 6065 9.18 260 06:23 30.01.2023
33 Clouds 1 1015 85 10000 6.49 240 00:55 30.01.2023
34 Clouds 0 1017 87 10000 6.09 235 23:32 29.01.2023
35 Clouds 0 1017 86 10000 5.87 230 22:36 29.01.2023
36 Clouds 2 1019 78 10000 5.23 229 20:54 29.01.2023
37 Clouds 2 1020 79 10000 5.07 232 20:22 29.01.2023
38 Clouds 2 1020 79 10000 5.09 234 19:33 29.01.2023
39 Clouds 3 1021 82 10000 4.43 242 18:26 29.01.2023
40 Clouds 3 1022 80 10000 4.12 247 16:50 29.01.2023
41 Clouds 3 1022 78 10000 3.88 251 16:20 29.01.2023
42 Clouds 3 1022 78 10000 3.88 251 16:20 29.01.2023
43 Clouds 3 1023 75 10000 5.35 262 14:20 29.01.2023
44 Clouds 3 1024 74 10000 4.87 254 13:18 29.01.2023
45 Clouds 3 1024 74 10000 4.88 254 12:38 29.01.2023
46 Clouds 3 1025 75 10000 4.67 255 12:19 29.01.2023
47 Clouds 2 1025 75 10000 4.67 255 11:37 29.01.2023
48 Clouds 2 1026 78 10000 4.4 253 10:53 29.01.2023
49 Clouds 1 1026 80 10000 4.43 254 08:54 29.01.2023
50 Snow -1 1027 81 10000 3.31 247 04:49 29.01.2023
51 Clouds -1 1029 86 10000 2.9 239 23:51 28.01.2023
52 Clouds -2 1029 86 10000 2.59 253 21:30 28.01.2023
53 Clouds 1 1029 83 10000 2.66 258 19:59 28.01.2023
54 Clouds 1 1029 80 10000 2.43 253 19:25 28.01.2023
55 Clouds 2 1029 80 10000 2.23 278 17:49 28.01.2023
56 Clouds 2 1029 73 10000 2.33 294 16:57 28.01.2023
57 Clouds 2 1028 69 10000 2.06 298 16:19 28.01.2023
58 Clouds 2 1028 69 10000 2.06 298 15:37 28.01.2023
59 Clouds 2 1028 69 10000 1.74 316 13:57 28.01.2023
60 Clouds 2 1028 72 10000 2.09 328 12:46 28.01.2023
61 Clouds 2 1029 80 10000 2.05 337 11:25 28.01.2023
62 Clouds 1 1029 80 10000 2.05 337 10:33 28.01.2023
63 Clouds -3 1028 95 10000 2.08 350 06:35 28.01.2023
64 Clouds 0 1028 93 10000 2.62 18 01:35 28.01.2023
65 Clouds 2 1028 92 10000 2.98 16 00:23 28.01.2023
66 Clouds 3 1027 90 10000 3.57 23 20:57 27.01.2023
67 Clouds 3 1026 89 10000 3.63 24 18:25 27.01.2023
68 Clouds 3 1026 89 10000 3.63 24 17:54 27.01.2023
69 Clouds 3 1025 88 10000 4.04 31 17:18 27.01.2023
70 Clouds 3 1025 88 10000 4.04 31 16:34 27.01.2023
71 Clouds 4 1025 92 10000 4.54 31 14:53 27.01.2023
72 Clouds 4 1025 94 10000 4.53 26 14:24 27.01.2023
73 Clouds 3 1025 97 2795 4.26 29 12:49 27.01.2023
74 Snow 1 1024 98 26 2.76 22 08:41 27.01.2023
75 Clouds 1 1023 97 7374 1.91 4 04:55 27.01.2023
76 Clouds 0 1022 95 10000 1.45 339 22:55 26.01.2023
77 Clouds 0 1022 94 10000 1.53 333 21:40 26.01.2023
78 Clouds 1 1022 93 10000 1.53 327 20:36 26.01.2023
79 Clouds 1 1022 93 4869 1.5 305 19:21 26.01.2023
80 Clouds 1 1022 91 10000 1.92 306 17:42 26.01.2023
81 Clouds 1 1022 83 10000 2.16 327 16:27 26.01.2023
82 Clouds 0 1022 83 10000 2.16 327 15:56 26.01.2023
83 Clouds 0 1022 83 10000 2.16 327 15:32 26.01.2023
84 Clouds 0 1021 79 10000 2.65 332 14:59 26.01.2023
85 Clouds 0 1021 78 10000 2.39 328 13:32 26.01.2023
86 Clouds 0 1023 74 10000 2.44 313 11:53 26.01.2023
87 Clouds 0 1023 76 10000 2.35 305 10:33 26.01.2023
88 Clouds 0 1023 80 10000 2.23 298 09:44 26.01.2023
89 Clouds 0 1023 87 10000 1.44 301 08:26 26.01.2023
90 Clouds 0 1023 86 10000 2.05 312 06:27 26.01.2023
91 Clouds 1 1025 93 10000 1.82 315 23:40 25.01.2023
92 Clouds 2 1025 93 10000 1.6 306 22:36 25.01.2023
93 Clouds 2 1026 92 10000 1.22 262 21:25 25.01.2023
94 Clouds 2 1026 92 10000 1.22 262 20:59 25.01.2023
95 Clouds -1 1027 98 10000 2.09 187 18:24 25.01.2023
96 Clouds -1 1028 98 10000 2.04 177 15:58 25.01.2023
97 Clouds 2 1029 72 10000 2.38 176 14:30 25.01.2023
98 Clouds 2 1033 69 10000 2.67 191 12:29 25.01.2023
99 Clouds 0 1034 98 10000 2.09 176 09:53 25.01.2023
100 Clouds 0 1035 98 10000 2.18 178 09:20 25.01.2023
101 Clouds 0 1035 96 10000 1.69 155 06:26 25.01.2023
102 Clouds 0 1038 96 10000 1.05 98 00:31 25.01.2023
103 Clear 0 1039 95 10000 1.28 134 21:56 24.01.2023
104 Clear 0 1039 94 10000 1.35 103 21:28 24.01.2023
105 Clear 0 1039 94 10000 1.58 74 19:38 24.01.2023
106 Clouds 0 1039 94 10000 1.61 58 18:30 24.01.2023
107 Clouds 0 1039 94 10000 1.84 55 17:19 24.01.2023
108 Clouds 0 1039 93 10000 1.84 55 16:52 24.01.2023
109 Clouds 0 1039 92 10000 2.13 69 14:49 24.01.2023
110 Clouds 0 1040 93 10000 2.35 80 12:29 24.01.2023
111 Clouds 0 1040 93 10000 2.31 70 11:20 24.01.2023
112 Clouds 0 1040 96 10000 1.8 90 08:21 24.01.2023
113 Clouds 0 1040 96 10000 1.8 90 07:50 24.01.2023
114 Clouds 0 1039 96 10000 1.96 69 05:22 24.01.2023
115 Clear 1 1039 96 10000 1.81 74 00:46 24.01.2023
116 Clear 1 1039 97 10000 2.18 65 23:43 23.01.2023
117 Clear 1 1039 96 10000 2.19 59 21:50 23.01.2023
118 Clear 1 1038 97 10000 2.41 62 19:45 23.01.2023
119 Clouds 1 1038 97 10000 2.72 38 17:59 23.01.2023
120 Clouds 1 1037 97 10000 2.7 42 15:35 23.01.2023
121 Clouds 1 1037 98 10000 2.89 65 14:22 23.01.2023
122 Clouds 1 1037 98 10000 2.9 67 13:23 23.01.2023
123 Clouds 1 1037 98 10000 2.9 67 12:54 23.01.2023
124 Clouds 1 1038 99 10000 2.79 70 11:44 23.01.2023
125 Clouds 1 1037 98 10000 2.03 40 08:49 23.01.2023
126 Clouds 1 1035 98 10000 1.73 68 06:29 23.01.2023
127 Clouds 1 1033 98 971 2.89 41 23:31 22.01.2023
128 Clouds 1 1033 98 392 3.2 28 21:48 22.01.2023
129 Clouds 1 1033 98 138 3.22 29 20:53 22.01.2023
130 Clouds 1 1032 98 143 3.24 34 19:53 22.01.2023
131 Clouds 1 1032 98 112 3.17 36 19:20 22.01.2023
132 Clouds 1 1032 98 118 3.16 37 18:22 22.01.2023
133 Clouds 1 1032 98 118 3.16 37 17:44 22.01.2023
134 Clouds 1 1031 97 140 3.08 32 17:21 22.01.2023
135 Clouds 1 1030 96 302 2.84 43 14:56 22.01.2023
136 Clouds 1 1030 96 114 2.89 41 13:50 22.01.2023
137 Clouds 1 1030 97 1456 3.22 42 13:25 22.01.2023
138 Clouds 1 1030 97 50 3.05 37 12:26 22.01.2023
139 Clouds 0 1030 98 75 3.75 46 09:56 22.01.2023
140 Snow 0 1029 98 46 4.38 42 08:44 22.01.2023
141 Snow 0 1027 98 24 4.83 36 02:56 22.01.2023
142 Snow 0 1027 97 31 6.34 21 23:43 21.01.2023
143 Snow 0 1027 96 55 6.84 14 22:48 21.01.2023
144 Snow 1 1027 96 4188 7.75 7 21:28 21.01.2023
145 Snow 1 1027 85 10000 7.21 3 18:50 21.01.2023
146 Clouds 1 1028 88 10000 6.29 3 15:36 21.01.2023
147 Clouds 1 1028 89 10000 6.07 6 13:32 21.01.2023
148 Clouds 1 1028 89 10000 5.7 7 12:52 21.01.2023
149 Clouds 0 1028 89 10000 5.56 10 11:37 21.01.2023
150 Clouds 0 1029 90 10000 5.09 6 10:48 21.01.2023
151 Clouds -2 1028 95 10000 3.6 353 08:31 21.01.2023
152 Clouds -3 1026 96 10000 2.3 15 02:18 21.01.2023
153 Clouds -1 1023 88 10000 1.83 15 22:27 20.01.2023
154 Clouds 0 1023 89 10000 1.83 15 21:36 20.01.2023
155 Clouds 0 1023 88 10000 1.73 13 20:42 20.01.2023
156 Clouds 1 1021 81 10000 0.67 46 18:36 20.01.2023
157 Clouds 1 1019 85 10000 0.69 63 15:53 20.01.2023
158 Clouds 2 1018 78 10000 0.38 21 14:41 20.01.2023
159 Clouds 1 1017 81 10000 1.62 281 12:50 20.01.2023
160 Clouds -1 1016 86 10000 1.69 264 09:48 20.01.2023
161 Clouds -2 1014 88 10000 1.58 239 08:22 20.01.2023
162 Clouds 0 1011 85 10000 2.68 250 03:33 20.01.2023
163 Clouds -1 1010 90 10000 2.66 236 02:28 20.01.2023
164 Clouds 0 1009 90 10000 2.96 258 22:32 19.01.2023
165 Clouds 1 1007 94 10000 4.9 281 20:25 19.01.2023
166 Clouds 1 1006 96 10000 4.14 262 19:23 19.01.2023
167 Snow 1 1005 85 9489 3.88 230 16:25 19.01.2023
168 Clouds 2 1004 79 10000 5.47 239 12:50 19.01.2023
169 Clear -1 1004 84 10000 5.05 207 08:59 19.01.2023
170 Clouds -2 1002 83 10000 3.39 195 00:45 19.01.2023
171 Clouds -2 1001 88 10000 2.55 216 21:22 18.01.2023
172 Clouds -1 1000 87 10000 2.28 240 20:20 18.01.2023
173 Clouds 0 1000 84 10000 2.28 240 19:37 18.01.2023
174 Clouds 0 999 87 10000 2.5 292 17:51 18.01.2023
175 Clouds 0 998 90 10000 2.28 309 15:48 18.01.2023
176 Clouds 1 996 88 10000 3.08 318 13:30 18.01.2023
177 Clouds 0 994 90 10000 2.8 342 11:25 18.01.2023
178 Clouds -2 994 92 10000 1.77 1 08:47 18.01.2023
179 Clouds -1 991 88 10000 0.87 54 02:29 18.01.2023
180 Clouds 0 991 85 10000 0.93 322 00:19 18.01.2023
181 Clear 1 990 78 10000 1.16 261 20:40 17.01.2023
182 Clear 1 990 81 10000 1.37 262 19:35 17.01.2023
183 Clouds 2 989 78 10000 2.31 217 18:41 17.01.2023
184 Clouds 2 989 73 10000 2.18 226 17:31 17.01.2023
185 Clear 3 988 75 10000 4.44 258 15:20 17.01.2023
186 Clear 4 987 72 10000 5.25 261 14:25 17.01.2023
187 Clear 4 987 70 10000 5.25 261 13:31 17.01.2023
188 Clouds 4 986 78 10000 6.13 256 11:44 17.01.2023
189 Rain 2 985 91 10000 6.91 255 09:35 17.01.2023
190 Clouds 3 983 85 10000 8.16 264 08:20 17.01.2023
191 Clouds 4 981 86 7046 7.24 239 05:53 17.01.2023
192 Clouds 4 980 82 10000 7.36 190 00:58 17.01.2023
193 Clouds 4 980 79 10000 8.09 187 23:57 16.01.2023
194 Clouds 5 981 73 10000 8.4 167 22:29 16.01.2023
195 Clouds 5 981 72 10000 7.94 151 20:50 16.01.2023
196 Clouds 4 983 77 10000 8.64 152 19:45 16.01.2023
197 Clouds 5 984 76 10000 7.17 150 18:56 16.01.2023
198 Clouds 5 985 76 10000 5.81 149 18:28 16.01.2023
199 Clouds 5 985 77 10000 5.81 149 17:59 16.01.2023
200 Clouds 5 986 74 10000 5.85 167 17:20 16.01.2023
201 Clouds 5 989 77 10000 7.22 166 13:47 16.01.2023
202 Clouds 5 990 77 10000 7.31 153 13:29 16.01.2023
203 Clouds 4 994 83 10000 5.31 162 10:22 16.01.2023
204 Clouds 2 996 89 10000 5.13 182 08:20 16.01.2023
205 Clouds 4 1002 80 10000 6.68 232 22:44 15.01.2023
206 Clouds 5 1001 73 10000 8.52 232 21:23 15.01.2023
207 Clouds 5 1001 73 10000 8.31 235 20:26 15.01.2023
208 Clouds 6 1001 72 10000 8.5 235 18:57 15.01.2023
209 Clouds 6 1001 72 10000 9.57 239 17:24 15.01.2023
210 Clouds 6 1000 74 10000 8.77 237 13:46 15.01.2023
211 Clouds 6 1000 78 10000 8.08 233 12:21 15.01.2023
212 Clouds 6 1000 79 10000 7.45 234 11:28 15.01.2023
213 Clouds 6 1000 79 10000 7.45 234 11:28 15.01.2023
214 Clouds 6 999 77 10000 6.72 234 10:21 15.01.2023
215 Clouds 6 999 78 10000 5.34 242 07:56 15.01.2023
216 Clouds 9 998 89 10000 9.92 212 23:39 14.01.2023
217 Clouds 9 999 89 10000 10.5 218 22:43 14.01.2023
218 Clouds 8 999 91 10000 10.37 217 21:36 14.01.2023
219 Clouds 8 999 91 10000 10.04 213 21:18 14.01.2023
220 Clouds 8 999 91 10000 10.04 213 20:56 14.01.2023
221 Rain 8 1000 92 10000 9.48 207 20:26 14.01.2023
222 Rain 7 1002 91 9151 9.4 199 17:53 14.01.2023
223 Rain 7 1005 86 10000 9.03 191 15:41 14.01.2023
224 Rain 7 1006 86 10000 8.49 190 15:23 14.01.2023
225 Rain 8 1008 81 10000 7.69 191 14:19 14.01.2023
226 Rain 7 1010 81 10000 7.66 195 13:25 14.01.2023
227 Clouds 6 1013 83 10000 6.93 205 10:50 14.01.2023
228 Clouds 5 1014 86 10000 4.53 217 09:23 14.01.2023
229 Clouds 7 1014 80 10000 7.59 253 02:39 14.01.2023
230 Clouds 7 1011 79 10000 8.04 250 23:20 13.01.2023
231 Clouds 8 1011 75 10000 8.04 250 22:41 13.01.2023
232 Clouds 7 1011 80 10000 7.92 246 21:58 13.01.2023
233 Clouds 6 1010 81 10000 7.99 246 20:49 13.01.2023
234 Clouds 7 1009 79 10000 8.02 242 19:28 13.01.2023
235 Clouds 8 1008 79 10000 7.63 244 17:43 13.01.2023
236 Clouds 8 1007 76 10000 8.21 242 16:22 13.01.2023
237 Clouds 10 1005 71 10000 7.52 248 12:36 13.01.2023
238 Clouds 9 1005 74 10000 6.93 241 12:18 13.01.2023
239 Clouds 8 1005 79 10000 6.11 221 10:23 13.01.2023
240 Clouds 8 1005 80 10000 6.11 221 09:45 13.01.2023
241 Clouds 8 1005 80 10000 5.55 223 08:52 13.01.2023
242 Clouds 9 1004 82 10000 5.47 231 07:49 13.01.2023
243 Rain 9 1004 90 10000 6.91 246 06:52 13.01.2023
244 Clouds 9 1004 88 10000 7.3 231 03:26 13.01.2023
245 Rain 10 1005 87 10000 9.6 234 23:47 12.01.2023
246 Rain 10 1005 87 10000 9.54 231 22:40 12.01.2023
247 Rain 10 1006 86 10000 8.7 225 20:55 12.01.2023
248 Rain 10 1006 83 10000 8.96 229 18:53 12.01.2023
249 Clouds 10 1006 84 10000 8.59 224 17:34 12.01.2023
250 Clouds 10 1006 84 10000 8.26 225 16:18 12.01.2023
251 Clouds 10 1006 82 10000 9.19 230 14:44 12.01.2023
252 Clouds 10 1006 82 10000 9.89 231 14:22 12.01.2023
253 Clouds 9 1007 82 10000 10.16 229 12:48 12.01.2023
254 Rain 9 1007 82 10000 10.51 216 10:36 12.01.2023
255 Clouds 8 1008 84 10000 9.1 211 08:31 12.01.2023
256 Clouds 7 1011 85 10000 8.46 227 03:58 12.01.2023
257 Clouds 6 1013 86 10000 5.71 211 23:59 11.01.2023
258 Clouds 6 1013 86 10000 5.71 211 23:40 11.01.2023
259 Clouds 5 1013 88 10000 4.95 215 23:21 11.01.2023
260 Clouds 7 1013 81 10000 5 232 21:46 11.01.2023
261 Clouds 8 1013 80 10000 4.76 251 20:26 11.01.2023
262 Clouds 8 1012 84 10000 4.99 262 18:39 11.01.2023
263 Clouds 9 1011 89 10000 4.43 256 16:49 11.01.2023
264 Rain 9 1009 91 10000 4.95 229 15:20 11.01.2023
265 Rain 9 1009 93 10000 5.77 225 13:44 11.01.2023
266 Rain 8 1009 93 10000 6.06 216 11:55 11.01.2023
267 Rain 7 1010 92 10000 6.38 210 10:43 11.01.2023
268 Clouds 6 1010 89 10000 7.46 206 08:21 11.01.2023
269 Clouds 6 1010 88 10000 6.98 204 07:25 11.01.2023
270 Rain 5 1014 90 10000 7.55 194 01:25 11.01.2023
271 Rain 4 1016 84 10000 6.75 193 22:46 10.01.2023
272 Clouds 5 1017 86 10000 6.38 195 21:36 10.01.2023
273 Clouds 4 1017 89 10000 5.99 194 20:43 10.01.2023
274 Clouds 5 1018 84 10000 5.44 198 19:40 10.01.2023
275 Clouds 5 1018 86 10000 4.94 202 18:48 10.01.2023
276 Clouds 5 1019 86 10000 4.38 206 17:59 10.01.2023
277 Clouds 6 1019 85 10000 4.22 216 16:42 10.01.2023
278 Clouds 7 1019 82 10000 4.64 228 15:31 10.01.2023
279 Clouds 7 1019 82 10000 4.55 233 14:33 10.01.2023
280 Clouds 7 1018 80 10000 4.58 240 12:25 10.01.2023
281 Clouds 5 1017 90 10000 3.38 266 09:29 10.01.2023
282 Clouds 5 1017 91 10000 3.38 266 08:35 10.01.2023
283 Clouds 5 1016 93 10000 4.7 281 07:34 10.01.2023
284 Clouds 5 1012 90 10000 5.88 267 04:58 10.01.2023
285 Clouds 6 1007 87 10000 4.86 264 23:50 09.01.2023
286 Clouds 6 1005 86 10000 5.61 253 21:53 09.01.2023
287 Clouds 5 1004 88 10000 5.2 249 20:46 09.01.2023
288 Clouds 5 1003 89 10000 4.5 243 19:41 09.01.2023
289 Clouds 6 1002 88 10000 5.44 220 17:55 09.01.2023
290 Clouds 7 1002 86 10000 5.44 220 17:31 09.01.2023
291 Clouds 7 1001 85 10000 5.45 210 16:33 09.01.2023
292 Clouds 8 1001 81 10000 4.94 213 15:31 09.01.2023
293 Clouds 8 1000 81 10000 5.42 226 14:53 09.01.2023
294 Clouds 10 1000 75 10000 6.3 230 14:20 09.01.2023
295 Clouds 8 999 80 10000 5.46 235 12:49 09.01.2023
296 Clouds 6 999 87 10000 4.73 245 11:45 09.01.2023
297 Clouds 7 999 85 10000 5.03 250 11:19 09.01.2023
298 Clouds 5 996 97 10000 6.1 173 06:53 09.01.2023
299 Rain 5 998 93 10000 3.52 160 02:55 09.01.2023
300 Clouds 5 999 93 10000 3.24 168 00:50 09.01.2023
301 Clouds 6 1001 90 10000 4.28 183 21:50 08.01.2023
302 Clouds 6 1002 90 10000 4.65 193 21:21 08.01.2023
303 Clouds 7 1002 89 10000 4.52 191 20:33 08.01.2023
304 Clouds 8 1003 87 10000 5.1 191 18:45 08.01.2023
305 Clouds 9 1004 86 10000 5.2 191 17:21 08.01.2023
306 Clouds 9 1004 88 10000 5.2 191 16:37 08.01.2023
307 Clouds 9 1005 90 10000 4.73 197 15:34 08.01.2023
308 Rain 9 1005 90 10000 4.7 202 13:58 08.01.2023
309 Rain 9 1005 92 10000 4.7 202 13:30 08.01.2023
310 Rain 9 1006 90 10000 5.28 206 12:46 08.01.2023
311 Rain 8 1006 93 10000 5.32 198 10:28 08.01.2023
312 Rain 8 1006 89 10000 5.32 198 09:36 08.01.2023
313 Rain 8 1006 87 10000 4.07 203 07:47 08.01.2023
314 Clouds 6 1010 89 10000 5.48 189 00:24 08.01.2023
315 Clouds 7 1010 84 10000 4.98 176 22:48 07.01.2023
316 Clouds 6 1010 86 10000 4.79 177 22:24 07.01.2023
317 Clouds 6 1010 87 10000 4.8 177 21:47 07.01.2023
318 Clouds 8 1011 86 10000 4.63 179 20:46 07.01.2023
319 Clouds 8 1011 85 10000 4.74 174 20:22 07.01.2023
320 Clouds 9 1012 84 10000 5.11 170 18:45 07.01.2023
321 Clouds 9 1012 86 10000 4.42 167 17:51 07.01.2023
322 Clouds 9 1012 85 10000 4.42 167 17:33 07.01.2023
323 Clouds 9 1013 84 10000 4.11 167 16:37 07.01.2023
324 Clouds 10 1013 83 10000 4.33 174 15:49 07.01.2023
325 Clouds 10 1014 83 10000 4.63 179 15:27 07.01.2023
326 Clouds 11 1014 78 10000 4.63 179 14:30 07.01.2023
327 Clouds 10 1015 80 10000 4.5 185 13:54 07.01.2023
328 Clouds 10 1015 84 10000 4.35 190 13:26 07.01.2023
329 Clouds 11 1016 85 10000 3.92 188 12:23 07.01.2023
330 Clouds 11 1016 84 10000 3.92 188 11:51 07.01.2023
331 Clouds 9 1017 89 10000 3.35 187 10:25 07.01.2023
332 Clouds 7 1017 93 10000 3.29 190 08:38 07.01.2023
333 Clouds 8 1017 92 10000 3.17 197 07:45 07.01.2023
334 Clouds 8 1017 92 10000 2.71 198 07:20 07.01.2023
335 Clouds 8 1018 93 10000 2.93 212 04:49 07.01.2023
336 Clouds 8 1019 88 10000 2.91 232 22:38 06.01.2023
337 Clouds 8 1019 88 10000 2.88 238 22:19 06.01.2023
338 Clouds 8 1019 87 10000 3.34 240 21:27 06.01.2023
339 Clouds 8 1019 87 10000 3.63 248 19:58 06.01.2023
340 Clouds 8 1019 86 10000 3.64 248 19:40 06.01.2023
341 Clouds 8 1018 84 10000 4.25 262 19:22 06.01.2023
342 Clouds 8 1018 85 10000 4.22 259 18:43 06.01.2023
343 Clouds 9 1018 85 10000 4.67 266 17:23 06.01.2023
344 Clouds 10 1018 84 10000 4.67 266 16:36 06.01.2023
345 Clouds 10 1017 84 10000 6.01 266 15:57 06.01.2023
346 Clouds 10 1017 84 10000 6.01 266 15:39 06.01.2023
347 Clouds 11 1017 83 10000 6.58 258 14:54 06.01.2023
348 Clouds 11 1016 84 10000 7.29 241 12:50 06.01.2023
349 Clouds 9 1016 93 10000 5.85 219 10:59 06.01.2023
350 Clouds 8 1016 96 10000 4.48 208 09:27 06.01.2023
351 Clouds 8 1017 96 10000 3.86 209 07:46 06.01.2023
352 Clouds 6 1020 98 10000 2.29 180 01:45 06.01.2023
353 Clouds 6 1021 96 10000 1.43 244 22:55 05.01.2023
354 Clouds 7 1020 93 10000 1.82 266 21:54 05.01.2023
355 Clouds 6 1020 94 10000 3.15 276 19:46 05.01.2023
356 Clouds 8 1019 91 10000 4.64 284 17:28 05.01.2023
357 Clouds 8 1018 90 10000 5.58 294 16:28 05.01.2023
358 Clouds 8 1018 85 10000 5.58 294 15:47 05.01.2023
359 Clouds 8 1017 85 10000 6.73 298 14:51 05.01.2023
360 Clouds 8 1016 86 10000 8.53 293 12:44 05.01.2023
361 Clouds 10 1015 86 10000 8.84 287 11:54 05.01.2023
362 Clouds 9 1013 88 10000 9.56 279 09:55 05.01.2023
363 Clouds 9 1013 87 10000 9.97 283 08:41 05.01.2023
364 Clouds 9 1011 86 10000 10.54 278 07:20 05.01.2023
365 Clouds 9 1011 87 10000 10.31 278 06:36 05.01.2023
366 Clouds 11 1009 84 10000 11.29 264 23:26 04.01.2023
367 Rain 11 1010 83 10000 10.48 259 21:33 04.01.2023
368 Clouds 11 1009 81 10000 10.17 255 20:58 04.01.2023
369 Clouds 11 1010 84 10000 9.06 257 19:57 04.01.2023
370 Clouds 11 1010 85 10000 9.06 257 19:33 04.01.2023
371 Clouds 11 1010 85 10000 9 252 18:37 04.01.2023
372 Clouds 10 1012 87 10000 8.83 241 16:32 04.01.2023
373 Clouds 10 1012 87 10000 8.83 241 16:32 04.01.2023
374 Clouds 10 1012 87 10000 9.09 237 15:56 04.01.2023
375 Clouds 10 1012 84 10000 9.83 238 14:47 04.01.2023
376 Rain 8 1014 88 10000 8.97 228 11:45 04.01.2023
377 Rain 8 1015 87 10000 8.68 216 11:22 04.01.2023
378 Clouds 8 1015 87 10000 8.68 216 10:43 04.01.2023
379 Clouds 8 1016 87 9852 9.43 219 10:23 04.01.2023
380 Rain 7 1016 89 10000 9.63 213 08:55 04.01.2023
381 Clouds 6 1020 86 10000 8.03 203 05:36 04.01.2023
382 Clouds 4 1026 91 10000 4.8 190 00:39 04.01.2023
383 Clouds 4 1027 89 10000 4.23 190 23:36 03.01.2023
384 Clouds 5 1027 89 10000 3.89 188 22:55 03.01.2023
385 Clouds 6 1028 87 10000 4.46 209 21:21 03.01.2023
386 Clouds 6 1028 85 10000 4.78 213 19:51 03.01.2023
387 Clouds 4 1017 80 10000 2.91 197 17:57 03.01.2023
388 Clouds 6 1028 76 10000 2.22 200 16:39 03.01.2023
389 Clear 8 1028 71 10000 3.6 263 13:59 03.01.2023
390 Clear 8 1028 74 10000 3.36 261 13:31 03.01.2023
391 Clear 8 1028 74 10000 3.36 261 13:31 03.01.2023
392 Clear 8 1028 74 10000 3.36 261 13:31 03.01.2023
393 Clouds 6 1018 73 10000 5.36 265 12:58 03.01.2023
394 Clouds 6 1018 73 10000 5.36 265 12:58 03.01.2023
395 Clouds 6 1018 75 10000 2.68 300 12:31 03.01.2023
396 Clouds 8 1029 77 10000 4.25 269 11:41 03.01.2023
397 Clouds 5 1027 89 10000 3.79 274 07:55 03.01.2023
398 Clouds 5 1015 83 10000 1.34 313 04:23 03.01.2023
399 Clouds 5 1015 84 10000 1.34 296 03:45 03.01.2023
400 Clouds 7 1025 87 10000 3.74 273 03:26 03.01.2023
401 Clouds 9 1022 86 10000 5.53 260 22:46 02.01.2023
402 Clouds 8 1021 88 10000 4.67 257 22:24 02.01.2023
403 Rain 10 1021 85 10000 5.17 264 20:46 02.01.2023
404 Clouds 10 1020 89 10000 4.76 265 20:26 02.01.2023
405 Clouds 10 1020 83 10000 5.03 262 18:40 02.01.2023
406 Clouds 10 1006 75 10000 1.79 248 15:43 02.01.2023
407 Clouds 15 1015 66 10000 9.24 235 13:39 02.01.2023
408 Clouds 14 1015 73 10000 7.51 221 12:19 02.01.2023
409 Clouds 13 1015 73 10000 7.14 212 10:57 02.01.2023
410 Clouds 11 1014 79 10000 6.75 207 08:38 02.01.2023
411 Clouds 12 1013 79 10000 6.53 202 03:32 02.01.2023
412 Clouds 11 1017 83 10000 4.77 195 23:18 01.01.2023
413 Clouds 10 1007 77 10000 0.89 156 21:46 01.01.2023
414 Clouds 11 1007 76 10000 0.89 221 20:49 01.01.2023
415 Clouds 11 1007 77 10000 2.68 182 20:18 01.01.2023
416 Clouds 13 1018 78 10000 4.12 205 18:47 01.01.2023
417 Clouds 13 1018 78 10000 4.2 230 17:23 01.01.2023
418 Clouds 13 1017 74 10000 4.95 229 16:34 01.01.2023
419 Clouds 14 1016 76 10000 5.5 232 15:28 01.01.2023
420 Clouds 14 1017 73 10000 6.31 238 13:48 01.01.2023
421 Clouds 14 1016 72 10000 6.66 237 12:46 01.01.2023
422 Clouds 14 1016 72 10000 7.5 236 11:40 01.01.2023
423 Clouds 14 1016 74 10000 7.96 231 11:21 01.01.2023
424 Clouds 12 1014 78 10000 7.92 224 09:29 01.01.2023
425 Clouds 11 1013 78 10000 8.01 219 08:25 01.01.2023
426 Clouds 13 1013 73 10000 8.01 219 07:57 01.01.2023
427 Clouds 13 1014 72 10000 7.64 224 06:42 01.01.2023
428 Clouds 14 1011 73 10000 8.33 226 23:46 31.12.2022
429 Clouds 14 1011 74 10000 8.37 217 23:21 31.12.2022
430 Clouds 14 1011 77 10000 8.12 214 22:22 31.12.2022
431 Clouds 14 1010 78 10000 7.81 215 21:24 31.12.2022
432 Clouds 14 1010 79 10000 7.94 216 20:24 31.12.2022
433 Clouds 15 1010 80 10000 7.89 218 18:57 31.12.2022
434 Clouds 15 1010 80 10000 7.89 218 18:38 31.12.2022
435 Clouds 15 1010 79 10000 8.04 231 17:57 31.12.2022
436 Clouds 15 1010 80 10000 8.04 231 17:32 31.12.2022
437 Clouds 16 1009 77 10000 8.34 229 16:32 31.12.2022
438 Clouds 16 1009 75 10000 8.52 232 15:36 31.12.2022
439 Clouds 17 1008 76 10000 9.61 238 13:59 31.12.2022
440 Clouds 17 1008 74 10000 10.02 235 13:27 31.12.2022
441 Clouds 16 1008 78 10000 9.93 232 12:24 31.12.2022
442 Clouds 16 1008 79 10000 9.93 232 11:55 31.12.2022
443 Clouds 16 1008 78 10000 9.93 232 11:37 31.12.2022
444 Clouds 15 1007 81 10000 9.11 222 09:57 31.12.2022
445 Clouds 15 1007 81 10000 9.11 222 09:39 31.12.2022
446 Clouds 14 1006 84 10000 9.33 229 08:22 31.12.2022
447 Rain 11 1008 91 10000 5.27 214 04:52 31.12.2022
448 Clouds 10 1007 89 10000 7.28 224 00:33 31.12.2022
449 Clouds 9 1006 88 10000 8.45 215 23:20 30.12.2022
450 Clouds 9 1006 88 10000 9.82 212 22:18 30.12.2022
451 Clouds 8 1006 89 10000 9.82 212 21:38 30.12.2022
452 Clouds 8 1006 88 10000 9.52 194 21:19 30.12.2022
453 Rain 7 1008 82 10000 8.2 170 18:28 30.12.2022
454 Clouds 7 1008 83 10000 8.2 170 17:35 30.12.2022
455 Clouds 7 1008 82 10000 7.86 163 16:48 30.12.2022
456 Clouds 8 1011 80 10000 6.66 176 14:55 30.12.2022
457 Clouds 8 1011 80 10000 6.66 176 14:55 30.12.2022
458 Clouds 8 1013 79 10000 6.01 190 12:56 30.12.2022
459 Clouds 4 1014 85 10000 4.1 217 08:24 30.12.2022
460 Clouds 7 1012 74 10000 5.55 248 03:58 30.12.2022
461 Clouds 8 1010 75 10000 5.71 238 02:27 30.12.2022
462 Clouds 7 1009 81 10000 6.1 248 23:46 29.12.2022
463 Clouds 8 1008 82 10000 4.84 229 21:56 29.12.2022
464 Clouds 9 1008 80 10000 5.12 226 21:28 29.12.2022
465 Clouds 9 1008 80 10000 5.12 226 20:53 29.12.2022
466 Clouds 9 1007 81 10000 5.99 241 19:22 29.12.2022
467 Clouds 10 1006 81 10000 5.69 242 17:53 29.12.2022
468 Clouds 10 1006 79 10000 7.06 242 17:26 29.12.2022
469 Clouds 10 1006 76 10000 7.06 242 16:54 29.12.2022
470 Clouds 11 1005 70 10000 7.74 235 15:57 29.12.2022
471 Clouds 11 1004 84 10000 8 234 13:42 29.12.2022
472 Rain 9 1005 89 10000 9.71 227 11:57 29.12.2022
473 Clouds 13 1004 79 10000 9.48 217 10:19 29.12.2022
474 Clouds 9 1005 86 10000 8 210 05:20 29.12.2022
475 Rain 8 1008 83 10000 7.08 208 23:29 28.12.2022
476 Clouds 8 1008 85 10000 7.09 213 22:20 28.12.2022
477 Clouds 7 1009 87 10000 7.06 209 21:20 28.12.2022
478 Rain 8 1010 87 10000 6.6 206 20:20 28.12.2022
479 Rain 8 1011 87 10000 6.06 217 18:47 28.12.2022
480 Clouds 8 1012 86 10000 6.51 220 16:22 28.12.2022
481 Clouds 9 1012 86 10000 7.08 221 14:27 28.12.2022
482 Clouds 8 1013 84 10000 7.19 224 12:49 28.12.2022
483 Clouds 8 1013 87 10000 7.54 227 11:34 28.12.2022
484 Clouds 6 1014 88 10000 7.87 221 10:26 28.12.2022
485 Clouds 4 1014 90 10000 7.75 210 07:48 28.12.2022
486 Rain 4 1016 89 10000 7.5 209 06:47 28.12.2022
487 Clouds 4 1021 84 10000 5.54 202 01:25 28.12.2022
488 Clouds 4 1022 89 10000 4.83 201 22:33 27.12.2022
489 Clouds 4 1023 87 10000 4.51 215 19:52 27.12.2022
490 Clouds 4 1024 87 10000 3.83 213 18:59 27.12.2022
491 Clouds 4 1024 87 10000 3.89 243 17:20 27.12.2022
492 Clouds 4 1024 86 10000 3.89 243 16:33 27.12.2022
493 Clouds 6 1024 79 10000 5.87 256 14:53 27.12.2022
494 Clouds 5 1024 81 10000 6.89 256 12:27 27.12.2022
495 Clouds 3 1013 86 10000 3.13 224 10:31 27.12.2022
496 Clouds 3 1013 88 10000 1.34 263 10:31 27.12.2022
497 Clouds 3 1013 88 10000 4.02 261 09:44 27.12.2022
498 Clouds 3 1013 87 10000 0.89 201 09:22 27.12.2022
499 Clear 3 1021 84 10000 6.64 253 04:59 27.12.2022
500 Clouds 3 1008 86 10000 1.79 285 00:23 27.12.2022
501 Clouds 4 1006 86 10000 2.24 327 21:53 26.12.2022
502 Clouds 4 1005 82 10000 3.13 306 20:45 26.12.2022
503 Clouds 6 1016 86 10000 5.62 273 19:56 26.12.2022
504 Clouds 8 1015 89 10000 6.13 284 18:42 26.12.2022
505 Clouds 9 1012 83 10000 7.02 266 17:25 26.12.2022
506 Clouds 10 1012 85 10000 5.98 253 15:40 26.12.2022
507 Clouds 10 1012 86 10000 5.01 249 12:59 26.12.2022
508 Clouds 10 1012 90 10000 5.54 246 11:45 26.12.2022
509 Clouds 8 1000 94 10000 3.58 218 05:47 26.12.2022
510 Clouds 10 1010 93 10000 7.18 241 23:43 25.12.2022
511 Clouds 10 1010 93 10000 6.67 224 22:56 25.12.2022
512 Clouds 9 1010 94 10000 6.69 216 22:26 25.12.2022
513 Rain 8 1010 99 10000 5.95 193 19:58 25.12.2022
514 Rain 7 1002 99 10000 1.79 98 17:59 25.12.2022
515 Rain 7 1002 99 10000 3.58 115 17:41 25.12.2022
516 Rain 7 1002 99 10000 2.24 128 17:23 25.12.2022
517 Rain 7 1015 98 10000 3.1 145 14:29 25.12.2022
518 Clouds 6 1016 96 10000 3.11 158 11:48 25.12.2022
519 Clouds 5 1018 96 10000 2.44 174 06:18 25.12.2022
520 Clouds 6 1017 89 10000 2.81 252 22:56 24.12.2022
521 Clouds 6 1015 92 10000 3.35 242 19:54 24.12.2022
522 Rain 8 1014 95 10000 3.73 250 17:40 24.12.2022
523 Clouds 8 1013 92 10000 4.16 263 15:45 24.12.2022
524 Rain 9 1012 93 10000 5.37 266 14:35 24.12.2022
525 Clouds 10 1011 86 10000 7.22 271 12:34 24.12.2022
526 Clouds 9 1009 83 10000 7.48 265 10:27 24.12.2022
527 Clouds 9 1009 83 10000 7.48 265 09:47 24.12.2022
528 Clouds 9 1008 84 10000 7.18 264 09:19 24.12.2022
529 Rain 5 1005 99 10000 2.01 285 03:52 24.12.2022
530 Clouds 8 1002 99 10000 2.51 254 00:43 24.12.2022
531 Clouds 7 1002 99 10000 1.54 120 23:22 23.12.2022
532 Clouds 7 1002 99 10000 1.69 120 21:44 23.12.2022
533 Rain 7 1002 99 5045 1.68 145 20:20 23.12.2022
534 Rain 7 1002 99 5045 1.68 145 19:39 23.12.2022
535 Rain 7 1003 99 5275 2.37 126 19:21 23.12.2022
536 Rain 6 993 98 6915 2.44 132 18:38 23.12.2022
537 Rain 6 993 98 10000 1.79 142 18:18 23.12.2022
538 Clouds 5 995 97 10000 1.47 142 15:55 23.12.2022
539 Clouds 7 995 95 10000 1.13 171 14:37 23.12.2022
540 Clouds 8 1006 99 10000 1.94 289 10:34 23.12.2022
541 Clouds 8 1005 98 10000 2 294 09:36 23.12.2022
542 Clouds 8 1004 95 10000 3.9 284 07:45 23.12.2022
543 Rain 9 1003 94 10000 5.16 268 06:50 23.12.2022
544 Clouds 9 1003 93 10000 4.25 248 05:19 23.12.2022
545 Clouds 6 1005 93 10000 2.88 191 23:20 22.12.2022
546 Rain 6 1006 89 10000 2.85 195 21:56 22.12.2022
547 Clouds 6 1006 92 10000 3.2 231 20:25 22.12.2022
548 Clouds 6 1006 93 10000 2.96 241 19:22 22.12.2022
549 Clouds 6 1006 96 10000 4.29 272 18:25 22.12.2022
550 Clouds 8 1006 94 10000 6.66 279 16:54 22.12.2022
551 Clouds 8 1006 95 10000 6.66 279 16:30 22.12.2022
552 Clouds 8 1004 99 10000 5.64 287 15:30 22.12.2022
553 Clouds 9 1004 98 10000 5.64 287 14:45 22.12.2022
554 Clouds 9 992 94 10000 4.46 284 13:31 22.12.2022
555 Rain 9 992 95 10000 2.97 262 12:32 22.12.2022
556 Rain 8 993 96 10000 3.67 189 10:32 22.12.2022
557 Rain 8 993 97 10000 0.89 95 09:59 22.12.2022
558 Rain 7 994 97 10000 0.45 81 09:19 22.12.2022
559 Rain 6 994 97 10000 4.14 190 07:54 22.12.2022
560 Clouds 6 1001 95 10000 2.24 135 04:19 22.12.2022
561 Rain 6 1004 95 10000 1.34 180 00:51 22.12.2022
562 Clouds 5 1000 95 10000 1.34 170 22:56 21.12.2022
563 Clouds 5 1000 95 10000 3.36 201 21:53 21.12.2022
564 Clouds 5 1000 96 10000 3.04 215 21:21 21.12.2022
565 Clouds 6 1000 96 10000 3.04 215 20:45 21.12.2022
566 Clouds 7 1005 96 10000 0.45 180 19:58 21.12.2022
567 Clouds 7 1005 96 10000 0.89 166 19:40 21.12.2022
568 Clouds 8 1005 96 10000 1.34 158 19:21 21.12.2022
569 Clouds 8 1006 95 10000 1.34 180 18:44 21.12.2022
570 Clouds 8 1005 95 10000 0.45 203 17:35 21.12.2022
571 Clouds 9 1000 92 10000 0.89 159 14:32 21.12.2022
572 Clouds 9 1001 93 10000 0.89 151 12:49 21.12.2022
573 Clouds 8 1001 93 10000 2.69 224 11:41 21.12.2022
574 Clouds 8 1001 94 10000 2.4 219 11:19 21.12.2022
575 Clouds 8 1001 94 10000 2.39 219 11:19 21.12.2022
576 Clouds 7 1002 95 10000 1.34 197 08:53 21.12.2022
577 Clouds 7 1001 95 10000 0.45 158 06:59 21.12.2022
578 Clouds 7 1002 88 10000 2.24 186 00:48 21.12.2022
579 Rain 6 1002 89 10000 0.45 146 22:42 20.12.2022
580 Clouds 6 1002 88 10000 0.89 83 21:19 20.12.2022
581 Clouds 6 1003 89 10000 0.45 121 20:22 20.12.2022
582 Rain 6 1003 90 10000 3.13 143 18:49 20.12.2022
583 Rain 6 1003 89 10000 0.89 182 18:28 20.12.2022
584 Clouds 6 1003 89 10000 2.68 80 17:51 20.12.2022
585 Clouds 6 1003 89 10000 0.89 94 17:32 20.12.2022
586 Clouds 6 1003 90 10000 3.13 121 16:32 20.12.2022
587 Clouds 6 1004 90 10000 3.58 149 15:29 20.12.2022
588 Clouds 7 1004 89 10000 2.24 176 14:37 20.12.2022
589 Clouds 7 1005 89 10000 0.89 112 13:58 20.12.2022
590 Clouds 6 1005 90 10000 2.68 115 12:44 20.12.2022
591 Clouds 7 1006 88 10000 2.24 132 12:23 20.12.2022
592 Rain 7 1006 90 10000 1.34 124 11:28 20.12.2022
593 Rain 6 1007 93 10000 2.68 149 08:27 20.12.2022
594 Clouds 5 1008 88 10000 0.89 122 00:32 20.12.2022
595 Clouds 5 1009 91 10000 2.24 165 22:36 19.12.2022
596 Clouds 5 1009 91 10000 4.02 190 21:41 19.12.2022
597 Clouds 4 1009 93 10000 4.02 141 19:55 19.12.2022
598 Clouds 4 1009 93 10000 2.24 208 19:37 19.12.2022
599 Clouds 4 1009 94 10000 1.79 101 18:24 19.12.2022
600 Rain 3 1010 93 10000 2.68 175 16:35 19.12.2022
601 Rain 2 1010 93 10000 4.02 163 13:26 19.12.2022
602 Snow 1 1011 93 8640 2.68 162 11:55 19.12.2022
603 Snow 1 1013 92 10000 6.71 166 10:34 19.12.2022
604 Clouds 0 1014 86 10000 2.24 148 07:40 19.12.2022
605 Snow -3 1015 90 10000 4.02 149 03:31 19.12.2022
606 Clouds -4 1018 92 10000 3.13 104 22:33 18.12.2022
607 Clouds -4 1019 93 10000 4.47 103 21:43 18.12.2022
608 Clouds -5 1019 93 10000 4.02 86 21:21 18.12.2022
609 Clouds -5 1020 94 10000 1.79 183 19:52 18.12.2022
610 Clouds -5 1020 94 10000 1.79 74 19:34 18.12.2022
611 Clouds -5 1020 94 10000 5.36 177 17:53 18.12.2022
612 Clouds -5 1021 94 10000 2.24 103 16:32 18.12.2022
613 Clouds -5 1020 94 10000 0.45 43 15:40 18.12.2022
614 Clouds -5 1020 94 10000 0.45 43 15:40 18.12.2022
615 Clouds -5 1021 92 10000 0.89 189 15:19 18.12.2022
616 Clear -4 1023 91 10000 0.89 101 13:40 18.12.2022
617 Clouds -5 1023 89 10000 2.68 52 12:53 18.12.2022
618 Clear -4 1023 89 10000 1.34 122 12:20 18.12.2022
619 Clear -7 1023 90 10000 2.24 359 10:38 18.12.2022
620 Clear -7 1022 91 10000 3.13 132 08:47 18.12.2022
621 Clear -8 1024 92 10000 2.24 129 07:43 18.12.2022
622 Clouds -7 1023 92 10000 1.79 110 06:21 18.12.2022
623 Clouds -6 1023 92 10000 0.45 105 03:40 18.12.2022
624 Clear -5 1022 92 10000 2.4 166 00:45 18.12.2022
625 Clear -5 1021 93 10000 1.34 64 22:21 17.12.2022
626 Clear -4 1020 94 10000 2.24 105 19:42 17.12.2022
627 Clouds -4 1019 95 10000 0.45 135 17:18 17.12.2022
628 Clouds -2 1018 92 10000 1.31 191 14:44 17.12.2022
629 Clouds -2 1018 91 10000 1.43 267 12:28 17.12.2022
630 Clouds -2 1017 92 10000 1.63 280 10:50 17.12.2022
631 Clouds -3 1017 93 10000 1.75 290 09:48 17.12.2022
632 Clouds -3 1016 94 10000 1.86 302 08:34 17.12.2022
633 Clouds -4 1015 95 10000 0.45 323 06:46 17.12.2022
634 Clouds -2 1012 94 1698 0.98 303 23:59 16.12.2022
635 Clouds -3 1021 95 10000 0.85 305 21:38 16.12.2022
636 Clouds -4 1020 95 10000 1.03 320 20:24 16.12.2022
637 Clouds -7 1017 94 10000 1.36 344 17:20 16.12.2022
638 Clouds -2 1007 90 10000 1.34 326 14:51 16.12.2022
639 Clouds -2 1006 90 10000 0.89 352 13:50 16.12.2022
640 Clouds -3 1005 91 10000 1.16 10 12:21 16.12.2022
641 Clouds -4 1005 90 10000 1.34 310 10:47 16.12.2022
642 Clouds -6 1005 91 10000 0.94 32 09:39 16.12.2022
643 Clouds -8 1004 91 10000 1.06 4 08:26 16.12.2022
644 Clouds -9 1004 91 10000 0.89 25 07:54 16.12.2022
645 Clouds -7 1001 89 10000 0.93 125 00:18 16.12.2022
646 Clear -8 1001 91 10000 0.95 169 22:33 15.12.2022
647 Clear -8 1001 91 10000 0.32 126 22:33 15.12.2022
648 Clear -7 1001 91 10000 1.34 169 21:24 15.12.2022
649 Clear -6 1001 91 10000 1.73 166 19:41 15.12.2022
650 Clear -5 1001 91 10000 1.67 179 18:34 15.12.2022
651 Clear -5 1000 91 10000 1.27 170 17:27 15.12.2022
652 Clear -4 1000 91 10000 1.84 181 15:41 15.12.2022
653 Clear -3 1000 89 10000 0.45 64 14:38 15.12.2022
654 Clear -3 1000 89 10000 1.73 204 12:48 15.12.2022
655 Clear -4 1009 70 10000 2.11 206 11:41 15.12.2022
656 Clear -9 999 91 10000 2.23 207 08:55 15.12.2022
657 Clear -9 999 91 10000 1.99 203 08:18 15.12.2022
658 Clear -11 998 89 10000 2 223 05:43 15.12.2022
659 Clouds -9 995 91 10000 1.12 246 22:40 14.12.2022
660 Clear -9 994 90 10000 0.45 248 21:24 14.12.2022
661 Clear -9 994 91 10000 0.45 248 20:44 14.12.2022
662 Clear -9 994 90 10000 0.22 156 19:51 14.12.2022
663 Clouds -7 993 93 10000 1.39 103 16:58 14.12.2022
664 Clouds -7 993 93 10000 1.39 103 16:38 14.12.2022
665 Clouds -5 994 91 10000 1.9 99 14:55 14.12.2022
666 Clouds -5 994 88 10000 2.43 131 13:19 14.12.2022
667 Clouds -6 996 89 10000 2.77 137 10:46 14.12.2022
668 Clouds -6 996 91 10000 2.54 131 10:23 14.12.2022
669 Clouds -9 997 91 10000 2.43 142 07:44 14.12.2022
670 Clouds -8 1001 92 10000 2.93 157 22:19 13.12.2022
671 Clouds -8 1001 92 10000 2.93 157 21:37 13.12.2022
672 Clouds -8 1002 92 10000 3 162 20:47 13.12.2022
673 Clear -7 1002 92 10000 2.22 157 19:25 13.12.2022
674 Clear -6 1002 90 10000 2.1 155 16:40 13.12.2022
675 Clear -4 1003 87 10000 0.45 160 14:59 13.12.2022
676 Clear -4 1003 87 10000 1.79 170 13:37 13.12.2022
677 Clouds -6 1004 89 10000 1.35 201 10:54 13.12.2022
678 Clouds -7 1004 89 10000 1.35 213 10:27 13.12.2022
679 Clouds -6 1004 90 10000 1.35 213 10:27 13.12.2022
680 Clouds -9 1004 91 10000 1.45 217 08:31 13.12.2022
681 -273 0 0 0 0 0 08:31 13.12.2022
682 Clouds -5 1004 93 10000 1.34 251 22:42 12.12.2022
683 Clouds -5 1004 92 10000 1.53 247 21:59 12.12.2022
684 Clouds -4 1004 92 10000 1.49 262 20:41 12.12.2022
685 Clouds -4 1004 92 10000 1.49 262 20:41 12.12.2022
686 Clouds -2 1004 89 10000 1.74 272 18:31 12.12.2022
687 Clouds -1 1004 88 10000 1.34 338 15:46 12.12.2022
688 Clouds -1 1003 87 10000 1.79 314 14:26 12.12.2022
689 Clouds -1 1003 87 10000 1.79 314 14:26 12.12.2022
690 Clouds -2 1004 91 10000 0.45 309 10:19 12.12.2022
691 Clouds -3 1003 93 10000 3.13 319 09:18 12.12.2022
692 Snow -2 1001 93 5306 1.34 280 04:53 12.12.2022
693 Snow -2 1001 90 4432 0.89 289 01:52 12.12.2022
694 Clouds -2 1001 89 316 2.3 298 22:19 11.12.2022
695 Clouds -2 1000 90 3963 1.34 282 20:41 11.12.2022
696 Clouds -2 1001 88 217 2.96 301 19:41 11.12.2022
697 Clouds -2 1001 87 774 2.44 305 18:55 11.12.2022
698 Clouds -2 1001 87 774 2.44 305 18:55 11.12.2022
699 Clouds -2 1000 87 10000 0.89 275 17:57 11.12.2022
700 Clouds -2 999 87 10000 0.45 11 17:29 11.12.2022
701 Clouds -2 1001 84 10000 1.34 290 16:49 11.12.2022
702 Clouds -2 999 82 10000 1.34 295 15:46 11.12.2022
703 Clouds -1 1001 80 10000 0.89 286 13:55 11.12.2022
704 Clouds -1 1001 80 10000 0.89 316 12:43 11.12.2022
705 Clouds -2 1001 82 10000 2.68 351 11:29 11.12.2022
706 Clouds -2 1002 84 10000 0.45 348 04:54 11.12.2022
707 Clouds -2 1002 79 10000 1.54 339 00:32 11.12.2022
708 Clouds -1 1002 82 10000 0.45 328 22:51 10.12.2022
709 Clouds -1 1002 82 10000 1.79 297 22:32 10.12.2022
710 Clouds -1 1002 83 10000 1.19 32 22:32 10.12.2022
711 Clouds -1 1002 86 10000 1.79 324 21:19 10.12.2022
712 Clouds -1 1002 85 10000 0.45 297 20:24 10.12.2022
713 Clouds -1 1002 86 10000 1.65 39 18:33 10.12.2022
714 Clouds -1 1001 87 10000 0.45 359 16:47 10.12.2022
715 Clouds -1 1001 87 10000 1.51 40 15:57 10.12.2022
716 Clouds -1 1001 87 10000 3.58 26 15:35 10.12.2022
717 Clouds 0 999 89 10000 2.68 39 13:59 10.12.2022
718 Clouds -1 1000 91 10000 1.34 302 12:49 10.12.2022
719 Clouds -1 1001 92 10000 2.24 358 11:28 10.12.2022
720 Clouds -1 1001 92 10000 1.79 4 10:34 10.12.2022
721 Clouds -1 1000 95 10000 1.34 73 08:37 10.12.2022
722 Clouds -1 1000 95 10000 3.13 359 07:19 10.12.2022
723 Clouds 0 999 95 10000 2.68 33 23:56 09.12.2022
724 Clouds 0 999 95 10000 2.62 55 22:44 09.12.2022
725 Clouds 0 998 94 10000 0.89 23 21:48 09.12.2022
726 Clouds 0 998 94 10000 1.34 12 21:21 09.12.2022
727 Clouds 0 998 95 10000 0.89 319 20:41 09.12.2022
728 Clouds 0 998 96 10000 1.34 359 18:40 09.12.2022
729 Clouds 0 997 95 10000 1.79 77 17:45 09.12.2022
730 Clouds 1 997 95 10000 2.24 338 16:30 09.12.2022
731 Clouds 1 997 95 10000 1.34 22 15:33 09.12.2022
732 Clouds 2 997 92 10000 0.45 0 14:25 09.12.2022
733 Clouds 2 998 97 10000 2.48 142 11:29 09.12.2022
734 Clouds 2 999 97 10000 2.48 142 10:32 09.12.2022
735 Clouds 1 998 98 10000 1.46 149 08:24 09.12.2022
736 Clouds 1 999 98 10000 0.59 197 03:19 09.12.2022
737 Clouds 2 998 97 10000 1.37 248 00:18 09.12.2022
738 Clouds 2 997 97 10000 2.12 250 21:23 08.12.2022
739 Clouds 2 997 96 10000 2.37 244 20:21 08.12.2022
740 Clouds 3 997 95 10000 2.27 245 17:32 08.12.2022
741 Clouds 4 996 93 6935 0.45 244 14:52 08.12.2022
742 Clouds 4 996 93 6832 1.34 256 14:24 08.12.2022
743 Clouds 3 997 93 10000 2.24 183 11:18 08.12.2022
744 Clouds 2 997 94 10000 2.68 156 09:51 08.12.2022
745 Clouds 2 997 95 10000 1.34 175 09:21 08.12.2022
746 Clouds 1 1000 97 2813 1.96 278 23:56 07.12.2022
747 Clouds 1 1000 98 2914 1.79 292 22:19 07.12.2022
748 Snow 2 1001 98 2914 2.68 262 21:48 07.12.2022
749 Clouds 1 1001 97 2930 2.24 282 20:36 07.12.2022
750 Clouds 1 1001 97 1913 4.37 271 19:24 07.12.2022
751 Rain 3 1001 89 7998 4.92 276 17:22 07.12.2022
752 Rain 4 1001 88 10000 2.68 320 14:41 07.12.2022
753 Clouds 5 1002 94 54 1.34 272 11:41 07.12.2022
754 Clouds 4 1003 95 2593 2.24 259 10:39 07.12.2022
755 Clouds 4 1002 96 10000 5.22 283 09:41 07.12.2022
756 Clouds 3 1002 98 10000 3.58 300 08:46 07.12.2022
757 Clouds 3 1002 98 10000 2.24 278 06:46 07.12.2022
758 Clouds 3 1002 98 10000 1.34 225 04:44 07.12.2022
759 Clouds 3 1005 94 10000 0.45 303 22:39 06.12.2022
760 Clouds 3 1005 97 10000 1.79 292 20:35 06.12.2022
761 Clouds 3 1005 98 37 0.45 238 18:21 06.12.2022
762 Clouds 3 1005 98 42 0.45 287 16:41 06.12.2022
763 Clouds 3 1005 98 65 4.08 288 15:52 06.12.2022
764 Rain 3 1005 98 122 3.98 297 15:33 06.12.2022
765 Rain 3 1005 97 53 0.89 293 14:28 06.12.2022
766 Rain 3 1006 97 42 1.34 282 12:58 06.12.2022
767 Rain 3 1006 97 40 1.34 282 12:40 06.12.2022
768 Clouds 2 1007 98 24 3.18 267 08:44 06.12.2022
769 Clouds 2 1007 98 1247 3.46 276 06:32 06.12.2022
770 Clouds 2 1008 98 10000 2.24 261 01:26 06.12.2022
771 Clouds 2 1009 98 10000 1.6 289 22:36 05.12.2022
772 Rain 2 1009 98 10000 1.35 271 20:56 05.12.2022
773 Clouds 2 1009 98 10000 1.35 271 20:36 05.12.2022
774 Clouds 2 1009 99 10000 1.59 296 19:45 05.12.2022
775 Clouds 2 1008 99 393 0.89 282 18:37 05.12.2022
776 Clouds 3 1008 99 81 1.78 282 16:48 05.12.2022
777 Clouds 3 1008 99 61 1.45 273 15:22 05.12.2022
778 Clouds 3 1008 99 268 0.45 179 13:27 05.12.2022
779 Clouds 3 1008 99 268 0.47 289 12:52 05.12.2022
780 Rain 3 1008 99 265 0.46 290 12:34 05.12.2022
781 Rain 3 1008 99 5577 0.92 42 10:58 05.12.2022
782 Snow 2 1008 99 10000 0.89 26 04:52 05.12.2022
783 Clouds 2 1008 97 10000 3.5 35 23:25 04.12.2022
784 Clouds 2 1008 97 10000 4.92 9 22:37 04.12.2022
785 Clouds 2 1008 97 10000 1.79 11 22:18 04.12.2022
786 Clouds 2 1008 97 10000 3.55 37 21:29 04.12.2022
787 Clouds 1 1008 97 10000 2.24 345 19:48 04.12.2022
788 Clouds 1 1008 97 10000 3.13 32 19:22 04.12.2022
789 Clouds 1 1008 97 10000 3.13 2 17:40 04.12.2022
790 Clouds 1 1008 97 10000 1.34 8 17:21 04.12.2022
791 Clouds 1 1009 97 10000 3.13 39 16:36 04.12.2022
792 Clouds 1 1008 97 10000 1.34 320 16:18 04.12.2022
793 Clouds 1 1009 97 10000 0.89 285 14:50 04.12.2022
794 Clouds 1 1009 96 10000 2.68 52 13:44 04.12.2022
795 Clouds 1 1009 96 10000 3.85 34 12:45 04.12.2022
796 Clouds 1 1010 96 10000 0.45 1 11:59 04.12.2022
797 Clouds 1 1010 96 10000 0.45 19 10:48 04.12.2022
798 Clouds 0 1010 96 10000 2.24 57 07:34 04.12.2022
799 Clouds 0 1011 95 10000 0.45 12 02:24 04.12.2022
800 Clouds 0 1011 96 10000 3.13 14 23:43 03.12.2022
801 Clouds 0 1011 96 10000 1.34 341 22:24 03.12.2022
802 Clouds 0 1011 96 10000 1.34 26 21:41 03.12.2022
803 Clouds 0 1012 96 10000 1.79 47 20:35 03.12.2022
804 Clouds 0 1012 95 10000 2.68 29 18:40 03.12.2022
805 Clouds 0 1012 93 4893 2.68 81 17:30 03.12.2022
806 Clouds 0 1012 91 3301 0.89 36 15:49 03.12.2022
807 Snow 0 1013 89 4598 2.24 350 13:19 03.12.2022
808 Snow 0 1013 90 4598 1.79 62 12:41 03.12.2022
809 Clouds -1 1014 89 2602 1.34 63 11:21 03.12.2022
810 Clouds -1 1015 93 577 0.89 42 07:59 03.12.2022
811 Clouds 0 1015 94 10000 2.68 67 01:32 03.12.2022
812 Clouds 0 1015 94 10000 2.68 67 01:32 03.12.2022
813 Clouds 0 1016 91 10000 4.47 70 23:32 02.12.2022
814 Clouds 0 1015 92 10000 4.02 69 21:42 02.12.2022
815 Clouds 1 1015 94 10000 2.68 114 19:45 02.12.2022
816 Snow 1 1015 97 10000 3.58 0 16:26 02.12.2022
817 Snow 1 1015 97 10000 2.24 59 15:53 02.12.2022
818 Clouds 1 1015 97 6367 4.22 67 14:28 02.12.2022
819 Snow 1 1015 96 6367 2.24 42 13:43 02.12.2022
820 Snow 2 1015 93 487 4.05 64 11:49 02.12.2022
821 Snow 1 1016 97 214 3.91 70 10:30 02.12.2022
822 Clouds 1 1016 97 67 3.5 65 07:50 02.12.2022
823 Snow 1 1016 97 65 3.41 66 07:22 02.12.2022
824 Snow 1 1018 96 98 1.71 43 22:50 01.12.2022
825 Snow 1 1018 96 121 1.38 53 21:41 01.12.2022
826 Snow 1 1018 96 153 1.38 67 20:37 01.12.2022
827 Snow 1 1018 96 2607 2.35 70 18:59 01.12.2022
828 Snow 2 1018 94 5658 0.45 16 17:21 01.12.2022
829 Clouds 2 1018 91 10000 2.24 77 14:39 01.12.2022
830 Clouds 2 1018 90 10000 1.34 104 11:20 01.12.2022
831 Clouds 2 1019 92 10000 2.68 40 09:54 01.12.2022
832 Clouds 2 1019 92 10000 0.45 255 09:36 01.12.2022
833 Clouds 1 1027 97 10000 2.11 47 06:38 01.12.2022
834 Clouds 2 1017 93 10000 1.79 131 22:44 30.11.2022
835 Clouds 2 1017 93 10000 2.24 86 21:46 30.11.2022
836 Clouds 2 1017 92 10000 2.68 94 21:19 30.11.2022
837 Clouds 3 1016 91 10000 1.34 141 20:23 30.11.2022
838 Clouds 4 1016 91 10000 1.34 73 19:28 30.11.2022
839 Clouds 5 1015 91 10000 0.89 53 18:32 30.11.2022
840 Clouds 5 1015 90 10000 0.45 57 16:53 30.11.2022
841 Clouds 5 1015 88 10000 1.34 86 14:46 30.11.2022
842 Clouds 5 1014 87 10000 0.89 81 14:26 30.11.2022
843 Clouds 5 1014 88 10000 2.47 97 12:21 30.11.2022
844 Clouds 5 1014 95 10000 2.43 94 09:44 30.11.2022
845 Clouds 5 1014 96 10000 2.33 98 08:30 30.11.2022
846 Clouds 5 1013 97 10000 0.45 67 06:43 30.11.2022
847 Clouds 5 1012 97 10000 1.72 91 23:30 29.11.2022
848 Clouds 5 1011 97 10000 1.61 85 22:19 29.11.2022
849 Clouds 5 1011 97 10000 1.53 80 20:52 29.11.2022
850 Clouds 5 1011 97 10000 1.61 83 20:28 29.11.2022
851 Clouds 5 1010 97 10000 0.45 0 18:44 29.11.2022
852 Clouds 5 1009 97 10000 1.76 81 16:57 29.11.2022
853 Clouds 5 1009 97 10000 2.24 359 16:20 29.11.2022
854 Clouds 6 1009 97 10000 0.89 31 14:49 29.11.2022
855 Clouds 6 1009 96 10000 1.97 110 12:43 29.11.2022
856 Clouds 5 1009 95 10000 2.02 107 11:31 29.11.2022
857 Clouds 5 1008 96 10000 2.02 109 10:41 29.11.2022
858 Clouds 5 1008 96 10000 0.89 86 09:28 29.11.2022
859 Rain 5 1007 96 10000 0.45 57 07:46 29.11.2022
860 Clouds 4 1005 90 10000 0.45 97 00:35 29.11.2022
861 Clouds 4 1005 90 10000 0.45 97 00:35 29.11.2022
862 Clouds 4 1005 90 10000 0.45 81 23:29 28.11.2022
863 Clouds 5 1005 89 10000 2.57 126 22:28 28.11.2022
864 Rain 5 1005 88 10000 0.89 167 21:43 28.11.2022
865 Rain 5 1005 87 10000 0.89 122 20:33 28.11.2022
866 Rain 5 1004 86 10000 2.68 90 19:38 28.11.2022
867 Rain 5 1004 85 10000 2.68 81 18:29 28.11.2022
868 Rain 5 1004 86 10000 0.89 23 17:44 28.11.2022
869 Clouds 6 1004 83 10000 3.58 90 15:22 28.11.2022
870 Clouds 6 1005 82 10000 4.02 66 14:24 28.11.2022
871 Clouds 6 1005 83 10000 3.58 55 13:46 28.11.2022
872 Clouds 6 1005 79 10000 1.34 103 11:53 28.11.2022
873 Clouds 4 1005 84 10000 2.24 88 09:27 28.11.2022
874 Rain 4 1006 87 10000 2.68 131 05:49 28.11.2022
875 Rain 4 1006 87 10000 3.58 175 04:41 28.11.2022
876 Clouds 5 1007 87 10000 4.02 76 03:23 28.11.2022
877 Rain 5 1009 86 10000 1.34 57 00:43 28.11.2022
878 Rain 5 1009 86 10000 3.13 142 22:35 27.11.2022
879 Clouds 5 1010 86 10000 4.92 110 21:27 27.11.2022
880 Rain 5 1011 89 10000 3.13 193 19:28 27.11.2022
881 Clouds 5 1012 92 10000 3.58 156 16:45 27.11.2022
882 Clouds 6 1015 89 10000 2.68 139 14:30 27.11.2022
883 Clouds 6 1016 89 10000 1.79 131 12:32 27.11.2022
884 Clouds 4 1017 95 10000 1.34 49 10:40 27.11.2022
885 Clouds 1 1018 97 10000 3.29 167 07:57 27.11.2022
886 Clouds 1 1018 97 10000 3.29 167 07:57 27.11.2022
887 Clouds 3 1020 94 10000 2.19 172 00:36 27.11.2022
888 Clouds 4 1020 95 10000 2.08 194 21:58 26.11.2022
889 Clouds 5 1020 93 10000 1.83 207 20:51 26.11.2022
890 Clear 7 1020 92 10000 1.71 261 19:22 26.11.2022
891 Clear 8 1019 93 10000 2.22 279 16:59 26.11.2022
892 Clear 9 1019 88 10000 2.26 281 15:38 26.11.2022
893 Clear 10 1020 85 10000 0.45 208 13:31 26.11.2022
894 Clear 9 1019 88 10000 2.24 293 11:24 26.11.2022
895 Clear 8 1019 95 10000 3.35 271 09:45 26.11.2022
896 Clear 6 1028 96 10000 2.73 265 08:49 26.11.2022
897 Clouds 8 1013 97 10000 3.97 268 01:30 26.11.2022
898 Clouds 6 1011 95 10000 3.59 271 21:42 25.11.2022
899 Clouds 7 1010 96 10000 0.45 241 21:20 25.11.2022
900 Clouds 8 1009 96 10000 2.83 264 19:48 25.11.2022
901 Rain 8 1008 97 10000 2.13 261 16:46 25.11.2022
902 Rain 9 1007 91 10000 0.45 141 13:50 25.11.2022
903 Clouds 3 1006 96 10000 1.34 107 09:21 25.11.2022
904 Clouds 3 1006 94 10000 3.36 173 08:40 25.11.2022
905 Clouds 2 1005 96 10000 3.15 173 06:53 25.11.2022
906 Clouds 3 1005 96 10000 2.97 169 05:40 25.11.2022
907 Clouds 6 1005 93 10000 1.92 215 23:53 24.11.2022
908 Clouds 6 1005 94 10000 1.95 231 22:50 24.11.2022
909 Clouds 6 1005 92 10000 1.97 228 21:58 24.11.2022
910 Clouds 6 1004 93 10000 1.84 217 20:19 24.11.2022
911 Clouds 6 1003 91 10000 1.82 237 18:19 24.11.2022
912 Clouds 7 1003 92 10000 1.82 237 17:38 24.11.2022
913 Clouds 8 1003 94 10000 2.02 252 17:20 24.11.2022
914 Clouds 9 1002 91 10000 1.95 263 14:37 24.11.2022
915 Clouds 9 1002 91 10000 2.24 273 13:45 24.11.2022
916 Clouds 7 1002 94 10000 3.28 250 11:54 24.11.2022
917 Clouds 6 1001 95 10000 2.89 237 10:35 24.11.2022
918 Clouds 4 1000 95 10000 2.4 205 07:53 24.11.2022
919 Rain 3 997 94 10000 2.68 153 03:22 24.11.2022
920 Clear 2 996 94 10000 0.45 170 23:45 23.11.2022
921 Clear 2 995 95 10000 3.58 158 21:56 23.11.2022
922 Clear 3 995 94 10000 3.53 156 21:23 23.11.2022
923 Clear 4 994 95 10000 3.58 158 19:59 23.11.2022
924 Clear 4 994 94 10000 2.24 148 18:58 23.11.2022
925 Clear 5 993 93 10000 1.79 103 18:35 23.11.2022
926 Clear 6 992 89 10000 3.44 154 16:33 23.11.2022
927 Clear 9 994 82 10000 1.79 90 13:39 23.11.2022
928 Clouds 9 994 83 10000 1.79 214 13:19 23.11.2022
929 Clouds 8 994 88 10000 3.13 158 11:59 23.11.2022
930 Clouds 8 994 90 10000 0.89 62 11:41 23.11.2022
931 Clouds 6 994 94 10000 3.75 179 10:42 23.11.2022
932 Clouds 5 994 95 10000 0.45 87 09:42 23.11.2022
933 Clouds 4 994 95 10000 3.22 170 09:24 23.11.2022
934 Clouds 3 994 95 10000 3.22 170 08:37 23.11.2022
935 Clouds 2 993 95 10000 1.79 200 05:22 23.11.2022
936 Clouds 2 993 95 10000 0.89 180 04:23 23.11.2022
937 Clouds 2 992 96 10000 3.31 175 22:59 22.11.2022
938 Clouds 2 992 96 10000 1.34 124 22:33 22.11.2022
939 Clouds 1 991 96 10000 3.35 167 21:34 22.11.2022
940 Clouds 1 991 96 10000 1.34 177 20:45 22.11.2022
941 Clouds 1 991 96 10000 1.34 177 20:45 22.11.2022
942 Clouds 1 991 96 10000 0.45 162 19:54 22.11.2022
943 Clouds 2 991 95 10000 0.89 107 17:56 22.11.2022
944 Clouds 2 990 94 10000 2.94 163 17:21 22.11.2022
945 Clouds 2 990 94 10000 2.94 163 17:21 22.11.2022
946 Clouds 2 990 94 10000 2.94 163 17:21 22.11.2022
947 Clouds 3 990 92 10000 1.79 111 15:51 22.11.2022
948 Clouds 3 990 86 10000 2.24 97 13:44 22.11.2022
949 Clouds 2 991 90 10000 3.58 103 11:40 22.11.2022
950 Clouds 0 990 93 10000 0.45 132 09:20 22.11.2022
951 Snow 0 990 94 10000 1.79 97 07:55 22.11.2022
952 Clouds 0 990 95 10000 0.45 201 01:49 22.11.2022
953 Clouds 0 992 96 10000 0.89 125 23:41 21.11.2022
954 Clouds 0 992 95 10000 3.58 128 22:49 21.11.2022
955 Clouds -1 992 95 10000 1.79 121 21:59 21.11.2022
956 Clouds -1 992 95 10000 3.22 126 20:53 21.11.2022
957 Clouds 0 992 94 10000 3.13 107 19:42 21.11.2022
958 Clear -1 993 94 10000 0.45 119 18:54 21.11.2022
959 Clear -1 993 92 10000 2.24 124 18:25 21.11.2022
960 Clear 0 1004 100 10000 2.68 117 16:56 21.11.2022
961 Clear 0 1004 100 10000 2.68 117 16:56 21.11.2022
962 Clear 0 1004 100 10000 3.13 127 16:37 21.11.2022
963 Clear 0 995 87 10000 1.79 115 15:50 21.11.2022
964 Clear 0 995 87 10000 1.79 115 15:50 21.11.2022
965 Clear 1 995 84 10000 2.24 173 14:55 21.11.2022
966 Clear 2 996 82 10000 0.89 182 13:44 21.11.2022
967 Clouds 0 997 89 10000 1.79 220 11:38 21.11.2022
968 Clouds -1 996 93 10000 1.34 239 09:18 21.11.2022
969 Clouds -1 1005 96 10000 2.22 297 07:42 21.11.2022
970 Clouds -1 996 92 10000 2.14 158 22:43 20.11.2022
971 Clouds -1 997 91 10000 0.94 199 21:36 20.11.2022
972 Clouds -1 997 91 10000 0.94 199 21:36 20.11.2022
973 Clouds -2 998 90 10000 0.94 199 20:33 20.11.2022
974 Clouds 0 998 90 10000 2.03 263 18:46 20.11.2022
975 Clouds 0 998 86 10000 2.94 273 16:46 20.11.2022
976 Clouds 2 999 82 10000 0.45 299 15:30 20.11.2022
977 Clouds 2 1000 80 10000 1.34 225 14:54 20.11.2022
978 Clouds 2 1000 76 10000 1.79 330 13:34 20.11.2022
979 Clouds 2 1000 73 10000 0.45 232 12:51 20.11.2022
980 Clouds 0 1001 81 10000 0.89 278 11:38 20.11.2022
981 Clouds 0 1001 82 10000 0.45 29 10:56 20.11.2022
982 Clouds -1 1002 87 10000 1.34 149 09:42 20.11.2022
983 Clouds -3 1001 90 10000 2.07 233 08:49 20.11.2022
984 Clouds -3 1002 88 10000 1.87 245 07:30 20.11.2022
985 Clouds -3 1002 89 10000 0.89 165 06:43 20.11.2022
986 Clouds -2 1003 89 10000 2.84 261 01:24 20.11.2022
987 Clouds -3 1003 89 10000 2.84 261 00:44 20.11.2022
988 Clouds -3 1003 89 10000 2.94 256 00:25 20.11.2022
989 Clouds -2 1003 88 10000 2.94 256 23:56 19.11.2022
990 Clouds -2 1004 88 10000 3.05 257 23:26 19.11.2022
991 Clouds -2 1004 88 10000 3.05 257 22:42 19.11.2022
992 Clouds -1 1004 89 10000 2.97 262 21:39 19.11.2022
993 Clouds -1 1004 88 10000 2.92 268 21:20 19.11.2022
994 Clouds -1 1003 88 10000 3.01 264 20:40 19.11.2022
995 Clouds -2 1003 89 10000 2.68 289 19:35 19.11.2022
996 Clouds -1 1002 90 10000 3.06 269 17:43 19.11.2022
997 Clouds -1 1001 90 10000 0.89 285 17:25 19.11.2022
998 Clouds -1 1002 89 10000 0.45 249 16:51 19.11.2022
999 Clouds 0 1005 83 10000 2.84 284 14:43 19.11.2022
1000 Clouds 0 1005 86 10000 0.89 191 12:54 19.11.2022
1001 Clouds -1 1006 89 10000 1.34 201 11:52 19.11.2022
1002 Clouds -4 1006 92 10000 1.05 256 09:45 19.11.2022
1003 Clouds -5 1006 92 10000 0.35 170 07:52 19.11.2022
1004 Clear -5 1005 92 10000 0.98 91 04:44 19.11.2022
1005 Clouds -4 1004 92 10000 2.23 63 00:43 19.11.2022
1006 Clouds -3 1003 93 10000 2.19 66 23:30 18.11.2022
1007 Clouds -3 1003 93 10000 2.19 66 23:30 18.11.2022
1008 Clouds -3 1003 91 10000 1.34 33 22:22 18.11.2022
1009 Clouds -2 1002 88 10000 2.45 66 21:35 18.11.2022
1010 Clouds -2 1002 89 10000 1.79 5 20:57 18.11.2022
1011 Clouds -2 1002 87 10000 1.79 9 20:21 18.11.2022
1012 Clouds -1 1001 86 10000 3.58 101 19:36 18.11.2022
1013 Snow 0 999 87 10000 3.13 77 17:45 18.11.2022
1014 Snow 0 999 88 10000 1.34 127 15:59 18.11.2022
1015 Snow 1 997 96 165 1.79 1 11:52 18.11.2022
1016 Clouds 1 996 94 2608 1.79 348 10:22 18.11.2022
1017 Clouds 1 996 94 2608 1.79 348 10:22 18.11.2022
1018 Clouds 2 994 96 10000 2.68 18 07:52 18.11.2022
1019 Clouds 3 993 96 10000 1.34 76 05:27 18.11.2022
1020 Clouds 4 991 96 10000 1.79 38 02:40 18.11.2022
1021 Clouds 4 990 96 10000 2.68 121 23:29 17.11.2022
1022 Rain 5 989 97 10000 2.24 55 20:48 17.11.2022
1023 Clouds 5 988 96 10000 3.58 108 19:54 17.11.2022
1024 Clouds 5 988 96 10000 3.58 108 19:54 17.11.2022
1025 Clouds 5 988 96 10000 4.92 52 19:25 17.11.2022
1026 Rain 5 988 97 10000 5.36 90 18:29 17.11.2022
1027 Rain 5 989 97 10000 2.68 103 17:30 17.11.2022
1028 Rain 5 988 96 10000 6.71 108 16:31 17.11.2022
1029 Rain 5 989 96 10000 4.02 107 12:20 17.11.2022
1030 Rain 5 990 95 10000 6.26 127 10:35 17.11.2022
1031 Clouds 4 991 91 10000 3.58 23 07:35 17.11.2022
1032 Clouds 5 994 97 1351 3.13 139 01:30 17.11.2022
1033 Clouds 5 995 96 10000 4.47 73 23:31 16.11.2022
1034 Clouds 5 995 97 10000 1.34 81 22:19 16.11.2022
1035 Rain 6 994 98 10000 4.92 69 20:32 16.11.2022
1036 Rain 6 994 98 10000 1.79 55 18:49 16.11.2022
1037 Rain 6 995 98 10000 6.26 35 18:49 16.11.2022
1038 Rain 6 995 98 10000 1.79 79 18:49 16.11.2022
1039 Rain 6 995 98 10000 0.89 12 18:30 16.11.2022
1040 Rain 7 995 98 10000 4.38 101 15:58 16.11.2022
1041 Rain 8 996 87 10000 3.13 103 11:54 16.11.2022
1042 Clouds 6 996 92 10000 1.79 26 07:45 16.11.2022
1043 Clouds 7 996 91 10000 3.58 57 01:46 16.11.2022
1044 Clouds 9 997 90 10000 3.11 121 23:47 15.11.2022
1045 Clouds 9 998 90 10000 1.34 112 21:44 15.11.2022
1046 Clouds 9 998 87 10000 3.09 129 20:19 15.11.2022
1047 Clouds 9 999 84 10000 2.86 135 18:56 15.11.2022
1048 Clouds 11 999 80 10000 0.45 100 17:37 15.11.2022
1049 Clouds 12 1000 77 10000 1.34 156 16:22 15.11.2022
1050 Clouds 13 1001 75 10000 2.85 147 15:40 15.11.2022
1051 Clouds 13 1001 76 10000 0.89 93 14:41 15.11.2022
1052 Clouds 13 1002 77 10000 0.45 121 12:58 15.11.2022
1053 Clear 11 1003 81 10000 2.24 125 11:22 15.11.2022
1054 Clear 11 1012 75 10000 2.97 181 09:53 15.11.2022
1055 Clear 5 1004 94 10000 2.24 173 03:48 15.11.2022
1056 Clear 5 1004 92 10000 2.68 74 00:26 15.11.2022
1057 Clear 6 1004 92 10000 0.45 169 22:52 14.11.2022
1058 Clear 7 1004 91 10000 3.58 143 20:53 14.11.2022
1059 Clear 7 1004 92 10000 2.24 93 20:30 14.11.2022
1060 Clear 7 1005 90 10000 3.65 139 18:28 14.11.2022
1061 Clear 10 1007 78 10000 1.79 176 14:59 14.11.2022
1062 Clear 9 1008 86 10000 1.79 91 11:49 14.11.2022
1063 Clear 8 1008 88 10000 4.47 160 11:28 14.11.2022
1064 Clear 5 1009 97 10000 4.1 124 08:48 14.11.2022
1065 Clear 5 1010 97 10000 3.62 115 07:53 14.11.2022
1066 Clear 5 1010 97 10000 3.32 107 05:46 14.11.2022
1067 Clouds 4 1022 98 10000 3.34 99 23:24 13.11.2022
1068 Clouds 5 1013 97 10000 0.45 38 21:43 13.11.2022
1069 Clouds 5 1013 97 10000 0.45 38 21:43 13.11.2022
1070 Clouds 5 1013 97 10000 3.39 94 20:55 13.11.2022
1071 Clouds 4 1014 95 10000 3.27 89 19:24 13.11.2022
1072 Clouds 6 1015 94 10000 3.26 86 17:51 13.11.2022
1073 Clouds 6 1015 93 10000 3.33 84 17:00 13.11.2022
1074 Clouds 12 1024 65 10000 3.66 91 14:58 13.11.2022
1075 Clouds 12 1025 66 10000 3.81 97 13:26 13.11.2022
1076 Clouds 12 1025 66 10000 3.81 97 12:34 13.11.2022
1077 Clouds 7 1027 78 10000 3.64 105 10:51 13.11.2022
1078 Clouds 4 1019 97 10000 2.69 111 07:39 13.11.2022
1079 Clouds 5 1030 95 10000 2.69 130 00:44 13.11.2022
1080 Clouds 6 1031 93 10000 2.61 131 21:59 12.11.2022
1081 Clouds 7 1031 92 10000 2.66 126 21:24 12.11.2022
1082 Clouds 7 1031 93 10000 2.59 121 19:55 12.11.2022
1083 Clouds 9 1031 85 10000 2.06 119 17:56 12.11.2022
1084 Clouds 9 1031 82 10000 2.08 108 16:22 12.11.2022
1085 Clouds 11 1031 50 10000 1.8 108 15:18 12.11.2022
1086 Clouds 14 1033 44 10000 1.88 163 11:59 12.11.2022
1087 Clouds 6 1033 77 10000 1.72 186 08:47 12.11.2022
1088 Clouds 8 1032 69 10000 0.81 288 01:59 12.11.2022
1089 Clouds 9 1032 66 10000 2 221 21:46 11.11.2022
1090 Clouds 7 1021 82 10000 0.45 208 20:45 11.11.2022
1091 Clouds 9 1021 77 10000 2 208 19:39 11.11.2022
1092 Clouds 8 1021 86 10000 2.04 226 19:19 11.11.2022
1093 Clouds 10 1021 74 10000 2.15 238 17:54 11.11.2022
1094 Clouds 13 1020 71 10000 1.92 237 16:20 11.11.2022
1095 Clouds 15 1030 63 10000 2.69 245 14:20 11.11.2022
1096 Clouds 14 1030 68 10000 3.24 237 13:28 11.11.2022
1097 Clouds 9 1030 81 10000 3.07 224 09:48 11.11.2022
1098 Clouds 8 1029 85 10000 3.4 218 08:27 11.11.2022
1099 Clouds 7 1028 86 10000 3.22 217 05:28 11.11.2022
1100 Clouds 8 1028 86 10000 3.34 219 23:22 10.11.2022
1101 Clouds 8 1027 87 10000 3.62 216 22:35 10.11.2022
1102 Clouds 8 1027 86 10000 3.75 229 21:33 10.11.2022
1103 Clouds 9 1027 85 10000 3.75 229 20:52 10.11.2022
1104 Clouds 9 1027 83 10000 3.83 232 20:22 10.11.2022
1105 Clouds 9 1027 82 10000 3.83 232 19:43 10.11.2022
1106 Clouds 11 1026 76 10000 3.84 225 18:32 10.11.2022
1107 Clouds 13 1025 63 10000 3.98 255 16:26 10.11.2022
1108 Clouds 15 1024 57 10000 5.64 253 13:59 10.11.2022
1109 Clouds 14 1023 57 10000 5.92 255 12:50 10.11.2022
1110 Clouds 9 1021 75 10000 3.86 245 08:50 10.11.2022
1111 Clouds 11 1018 82 10000 4.77 254 04:39 10.11.2022
1112 Clouds 12 1015 76 10000 4.77 244 00:31 10.11.2022
1113 Clouds 13 1014 71 10000 4.52 247 22:45 09.11.2022
1114 Clouds 13 1013 70 10000 4.71 236 20:50 09.11.2022
1115 Clouds 13 1012 71 10000 4.81 231 20:31 09.11.2022
1116 Clouds 13 1012 71 10000 4.81 231 19:48 09.11.2022
1117 Clouds 13 1012 71 10000 4.89 227 19:24 09.11.2022
1118 Clouds 14 1011 70 10000 4.89 223 16:57 09.11.2022
1119 Clouds 16 1010 65 10000 5.86 225 14:51 09.11.2022
1120 Clouds 16 1010 63 10000 6.15 233 14:26 09.11.2022
1121 Clouds 16 1010 63 10000 6.15 233 14:26 09.11.2022
1122 Clouds 15 1010 62 10000 6.89 233 13:34 09.11.2022
1123 Clouds 15 1011 63 10000 6.37 226 12:51 09.11.2022
1124 Clouds 12 1011 79 10000 6.66 204 09:28 09.11.2022
1125 Clouds 12 1010 79 10000 6.29 206 07:47 09.11.2022
1126 Clouds 12 1009 60 10000 5.7 220 02:33 09.11.2022
1127 Rain 12 1010 60 10000 4.49 200 22:35 08.11.2022
1128 Rain 12 1010 61 10000 4.55 197 21:37 08.11.2022
1129 Clouds 13 1010 60 10000 4.58 186 20:47 08.11.2022
1130 Rain 14 1010 60 10000 4.66 189 20:18 08.11.2022
1131 Clouds 12 1010 61 10000 4.64 187 19:24 08.11.2022
1132 Clouds 12 1010 59 10000 4.66 189 17:35 08.11.2022
1133 Clouds 15 1010 49 10000 6.01 189 15:22 08.11.2022
1134 Clouds 14 1010 49 10000 6.01 189 14:31 08.11.2022
1135 Clouds 14 1010 49 10000 6.01 189 14:31 08.11.2022
1136 Clouds 14 1011 52 10000 6.7 193 13:28 08.11.2022
1137 Clouds 11 1012 63 10000 6.02 197 10:58 08.11.2022
1138 Clear 8 1013 92 10000 3.64 197 07:39 08.11.2022
1139 Clouds 9 1013 92 10000 3.44 202 05:27 08.11.2022
1140 Clouds 11 1013 80 10000 3.69 205 22:58 07.11.2022
1141 Clouds 11 1013 81 10000 3.7 205 21:42 07.11.2022
1142 Clouds 12 1013 78 10000 4.19 213 20:48 07.11.2022
1143 Clouds 12 1013 75 10000 4.96 220 19:42 07.11.2022
1144 Clouds 12 1013 76 10000 4.82 219 17:43 07.11.2022
1145 Clouds 13 1013 68 10000 6.42 229 15:40 07.11.2022
1146 Clouds 14 1013 65 10000 6.4 230 14:57 07.11.2022
1147 Clouds 13 1013 65 10000 5.88 227 13:45 07.11.2022
1148 Clouds 14 1013 63 10000 6.35 235 12:30 07.11.2022
1149 Clouds 14 1013 62 10000 6.68 229 10:45 07.11.2022
1150 Clouds 10 1013 73 10000 5.18 227 09:18 07.11.2022
1151 Clouds 8 1011 80 10000 4.74 226 06:54 07.11.2022
1152 Clouds 10 1011 66 10000 5.82 220 01:49 07.11.2022
1153 Clouds 9 1010 70 10000 6.02 195 23:49 06.11.2022
1154 Rain 9 1011 64 10000 5.84 187 21:43 06.11.2022
1155 Clouds 8 1011 65 10000 5.65 180 21:18 06.11.2022
1156 Clouds 8 1011 63 10000 5.18 178 19:57 06.11.2022
1157 Clouds 8 1012 62 10000 4.52 173 19:28 06.11.2022
1158 Clouds 8 1012 62 10000 3.94 167 18:20 06.11.2022
1159 Clouds 8 1012 62 10000 3.94 167 17:45 06.11.2022
1160 Clouds 9 1012 59 10000 3.76 163 17:19 06.11.2022
1161 Clouds 11 1012 51 10000 4.37 173 16:20 06.11.2022
1162 Clouds 11 1013 48 10000 5.15 182 15:26 06.11.2022
1163 Clouds 12 1014 49 10000 6.19 186 12:47 06.11.2022
1164 Clouds 9 1015 52 10000 6.12 197 11:41 06.11.2022
1165 Clouds 7 1016 57 10000 5.88 200 10:34 06.11.2022
1166 Clear 5 1016 82 10000 4.37 185 07:44 06.11.2022
1167 Clouds 6 1019 73 10000 3.46 208 23:26 05.11.2022
1168 Clouds 6 1019 73 10000 3.46 208 22:35 05.11.2022
1169 Clouds 7 1018 71 10000 2.48 240 19:18 05.11.2022
1170 Clear 10 1018 68 10000 2.75 261 16:57 05.11.2022
1171 Clouds 12 1017 55 10000 3.83 269 15:20 05.11.2022
1172 Clear 12 1017 53 10000 4.27 271 13:51 05.11.2022
1173 Clouds 12 1017 54 10000 4.21 271 12:30 05.11.2022
1174 Clouds 8 1017 73 10000 4.35 280 09:33 05.11.2022
1175 Clouds 7 1015 90 10000 3.78 283 07:23 05.11.2022
1176 Clouds 8 1015 90 10000 3.78 283 06:56 05.11.2022
1177 Clouds 9 1011 86 10000 3.39 292 00:46 05.11.2022
1178 Clouds 10 1011 82 10000 3.27 291 23:32 04.11.2022
1179 Clouds 10 1010 75 10000 2.89 285 21:40 04.11.2022
1180 Clouds 11 1009 77 10000 3.37 292 19:40 04.11.2022
1181 Clouds 11 1008 75 10000 3.19 304 17:44 04.11.2022
1182 Clouds 12 1007 69 10000 3.16 302 15:27 04.11.2022
1183 Clouds 11 1007 70 10000 4.57 293 13:19 04.11.2022
1184 Clouds 12 1006 73 10000 4.64 292 12:19 04.11.2022
1185 Clouds 11 1006 76 10000 4.08 280 09:31 04.11.2022
1186 Clouds 11 1005 88 10000 2.54 244 08:20 04.11.2022
1187 Rain 11 1005 93 10000 1.61 202 06:51 04.11.2022
1188 Rain 9 1003 70 10000 3.66 159 00:56 04.11.2022
1189 Clouds 9 1005 74 10000 3.85 154 21:48 03.11.2022
1190 Clouds 9 1005 70 10000 4.02 148 20:47 03.11.2022
1191 Clouds 11 1006 67 10000 4.36 143 19:42 03.11.2022
1192 Clouds 11 1008 64 10000 4.43 135 18:27 03.11.2022
1193 Clouds 11 1008 64 10000 4.42 135 17:37 03.11.2022
1194 Clouds 13 1010 57 10000 4.57 155 15:27 03.11.2022
1195 Clouds 13 1011 59 10000 4.7 165 13:37 03.11.2022
1196 Clouds 13 1013 59 10000 5.3 172 12:35 03.11.2022
1197 Clouds 12 1014 60 10000 5.39 169 11:41 03.11.2022
1198 Clouds 5 1017 76 10000 4.27 165 07:49 03.11.2022
1199 Clouds 7 1021 72 10000 3.19 190 22:43 02.11.2022
1200 Clouds 8 1022 70 10000 2.93 215 20:56 02.11.2022
1201 Clouds 8 1022 70 10000 2.92 215 20:32 02.11.2022
1202 Clear 9 1021 69 10000 3.04 223 18:45 02.11.2022
1203 Clear 15 1020 54 10000 5.94 265 16:29 02.11.2022
1204 Clear 16 1020 54 10000 5.94 265 15:35 02.11.2022
1205 Clouds 15 1020 54 10000 7.28 262 13:26 02.11.2022
1206 Clouds 15 1020 54 10000 7.28 262 13:26 02.11.2022
1207 Clouds 14 1020 54 10000 7.28 262 12:35 02.11.2022
1208 Clouds 13 1019 64 10000 6.93 237 10:25 02.11.2022
1209 Clouds 10 1019 72 10000 6.16 233 08:41 02.11.2022
1210 Clouds 8 1018 72 10000 3.61 198 03:32 02.11.2022
1211 Clouds 10 1019 63 10000 3.43 215 22:53 01.11.2022
1212 Clouds 10 1019 63 10000 3.37 213 22:18 01.11.2022
1213 Clouds 11 1019 63 10000 3.24 209 21:20 01.11.2022
1214 Clouds 11 1019 62 10000 3.13 214 20:23 01.11.2022
1215 Clouds 12 1019 62 10000 3.13 214 19:41 01.11.2022
1216 Clouds 13 1019 59 10000 2.86 215 18:30 01.11.2022
1217 Clouds 16 1018 57 10000 2.6 275 16:53 01.11.2022
1218 Clouds 17 1017 50 10000 4.98 277 15:19 01.11.2022
1219 Clouds 17 1016 58 10000 6.37 266 13:24 01.11.2022
1220 Clouds 16 1016 65 10000 5.4 251 12:26 01.11.2022
1221 Clouds 15 1015 75 10000 3.96 252 11:21 01.11.2022
1222 Rain 13 1014 72 10000 5.38 235 09:37 01.11.2022
1223 Rain 12 1013 75 10000 3.91 195 08:26 01.11.2022
1224 Rain 11 1013 76 10000 3.14 200 07:29 01.11.2022
1225 Rain 11 1013 76 10000 3.14 200 06:46 01.11.2022
1226 Clouds 11 1013 78 10000 3.18 175 05:52 01.11.2022
1227 Clouds 13 1016 87 10000 3.14 133 23:47 31.10.2022
1228 Clouds 12 1017 85 10000 3.46 143 21:34 31.10.2022
1229 Clouds 13 1018 87 10000 2.67 128 20:18 31.10.2022
1230 Clouds 13 1018 84 10000 2.56 129 18:45 31.10.2022
1231 Clouds 16 1019 77 10000 2.25 114 16:45 31.10.2022
1232 Clouds 16 1019 77 10000 2.25 114 16:45 31.10.2022
1233 Clouds 14 1019 72 10000 2.05 114 15:52 31.10.2022
1234 Clouds 19 1020 61 10000 0.86 81 13:22 31.10.2022
1235 Clouds 16 1021 77 10000 2.53 311 09:53 31.10.2022
1236 Clouds 13 1021 92 10000 2.6 290 08:24 31.10.2022
1237 Clouds 14 1020 81 10000 3.17 278 02:51 31.10.2022
1238 Clouds 14 1020 79 10000 3.05 277 01:49 31.10.2022
1239 Clouds 15 1019 69 10000 2.78 271 22:59 30.10.2022
1240 Clouds 16 1018 69 10000 2.43 254 20:46 30.10.2022
1241 Clouds 14 1018 70 10000 1.49 258 19:54 30.10.2022
1242 Clouds 16 1017 65 10000 1.51 176 17:53 30.10.2022
1243 Clouds 20 1017 50 10000 1.08 150 15:29 30.10.2022
1244 Clouds 23 1017 45 10000 1.09 198 13:52 30.10.2022
1245 Clouds 23 1018 46 10000 1.85 224 12:52 30.10.2022
1246 Clouds 21 1018 52 10000 2.4 257 11:24 30.10.2022
1247 Clouds 19 1018 58 10000 2.31 267 09:37 30.10.2022
1248 Clouds 16 1018 70 10000 1.98 312 08:25 30.10.2022
1249 Clouds 13 1018 71 10000 2.18 155 01:47 30.10.2022
1250 Clouds 14 1019 72 10000 1.92 163 00:27 30.10.2022
1251 Clouds 14 1019 72 10000 1.92 163 23:44 29.10.2022
1252 Clouds 14 1019 73 10000 1.77 211 21:25 29.10.2022
1253 Clouds 18 1019 74 10000 0.8 168 17:47 29.10.2022
1254 Clouds 19 1019 69 10000 0.71 182 17:18 29.10.2022
1255 Clouds 21 1019 64 10000 0.91 218 15:37 29.10.2022
1256 Clouds 19 1020 62 10000 1.64 208 14:47 29.10.2022
1257 Clouds 17 1021 66 10000 1.89 203 12:34 29.10.2022
1258 Clouds 16 1022 77 10000 1.33 179 10:46 29.10.2022
1259 Clouds 13 1022 88 10000 1.73 226 07:37 29.10.2022
1260 Clouds 13 1021 87 10000 2.02 233 05:56 29.10.2022
1261 Clouds 13 1021 85 10000 2.37 265 03:59 29.10.2022
1262 Clouds 15 1020 66 10000 4.12 260 23:32 28.10.2022
1263 Clouds 16 1019 64 10000 3.42 233 20:47 28.10.2022
1264 Clouds 16 1018 65 10000 3.53 209 19:26 28.10.2022
1265 Clouds 17 1018 63 10000 3.56 205 18:31 28.10.2022
1266 Clouds 23 1018 49 10000 4.43 212 15:37 28.10.2022
1267 Clouds 24 1018 45 10000 5.19 218 14:43 28.10.2022
1268 Clouds 24 1020 48 10000 4.48 211 12:58 28.10.2022
1269 Clouds 18 1020 55 10000 4.17 203 11:53 28.10.2022
1270 Clouds 18 1020 65 10000 3.63 177 11:25 28.10.2022
1271 Clouds 16 1020 75 10000 3.14 164 09:49 28.10.2022
1272 Clouds 13 1020 80 10000 2.86 175 08:40 28.10.2022
1273 Clouds 13 1020 82 10000 2.86 185 05:40 28.10.2022
1274 Clouds 13 1022 80 10000 3.83 182 23:50 27.10.2022
1275 Clouds 13 1022 82 10000 3.56 178 23:22 27.10.2022
1276 Clouds 15 1022 82 10000 3.44 178 21:56 27.10.2022
1277 Clouds 14 1023 79 10000 3.12 181 20:47 27.10.2022
1278 Clouds 17 1023 70 10000 2.79 160 18:23 27.10.2022
1279 Clouds 18 1023 64 10000 2.9 168 16:33 27.10.2022
1280 Clouds 14 1025 65 10000 3.69 167 11:34 27.10.2022
1281 Clouds 12 1025 89 10000 1.89 193 07:32 27.10.2022
1282 Clouds 11 1023 89 10000 2.7 246 00:26 27.10.2022
1283 Clouds 11 1023 89 10000 2.71 246 23:52 26.10.2022
1284 Clouds 12 1022 87 10000 2.69 234 22:40 26.10.2022
1285 Clouds 12 1020 83 10000 2.11 238 21:23 26.10.2022
1286 Clouds 15 1019 76 10000 2.95 200 17:46 26.10.2022
1287 Clouds 16 1018 58 10000 3.48 185 14:54 26.10.2022
1288 Clouds 14 1017 55 10000 2.8 184 13:31 26.10.2022
1289 Clouds 16 1018 65 10000 3.83 184 12:19 26.10.2022
1290 Clouds 8 1017 87 10000 2.74 157 09:19 26.10.2022
1291 Clouds 8 1017 87 10000 2.74 157 08:53 26.10.2022
1292 Clouds 9 1018 88 10000 2.02 193 00:57 26.10.2022
1293 Clouds 9 1018 88 10000 2.02 193 00:36 26.10.2022
1294 Clear 11 1018 85 10000 2.24 218 22:30 25.10.2022
1295 Clear 12 1018 83 10000 2.51 228 21:45 25.10.2022
1296 Clear 12 1018 84 10000 2.43 238 20:33 25.10.2022
1297 Clear 12 1018 84 10000 2.43 238 20:33 25.10.2022
1298 Clouds 13 1017 79 10000 2.73 255 18:56 25.10.2022
1299 Clouds 15 1017 74 10000 3.06 259 17:38 25.10.2022
1300 Clouds 16 1016 70 10000 5.62 261 12:55 25.10.2022
1301 Clouds 16 1016 69 10000 5.84 262 11:38 25.10.2022
1302 Clouds 16 1015 72 10000 5.51 254 10:36 25.10.2022
1303 Clouds 13 1014 83 10000 4.01 232 08:38 25.10.2022
1304 Clouds 12 1014 87 10000 4 233 08:18 25.10.2022
1305 Clouds 12 1014 87 10000 4 233 07:53 25.10.2022
1306 Rain 12 1013 87 10000 3.89 232 06:52 25.10.2022
1307 Rain 14 1012 84 10000 4.3 224 03:35 25.10.2022
1308 Clouds 14 1012 80 10000 3.95 221 00:33 25.10.2022
1309 Clouds 14 1011 78 10000 3.98 221 22:29 24.10.2022
1310 Clouds 15 1011 78 10000 3.97 221 21:50 24.10.2022
1311 Clouds 15 1011 78 10000 3.97 221 21:31 24.10.2022
1312 Clouds 17 1011 79 10000 3.74 219 20:40 24.10.2022
1313 Clouds 17 1010 74 10000 4.58 235 18:52 24.10.2022
1314 Clouds 18 1009 64 10000 6.64 223 16:59 24.10.2022
1315 Clouds 19 1009 65 10000 7.48 213 15:51 24.10.2022
1316 Clouds 18 1010 62 10000 7.73 209 14:21 24.10.2022
1317 Clouds 17 1010 63 10000 7.37 211 12:59 24.10.2022
1318 Clouds 16 1009 72 10000 6.6 206 10:40 24.10.2022
1319 Clouds 13 1009 82 10000 5.85 202 07:57 24.10.2022
1320 Rain 16 1011 92 10000 3.62 183 23:46 23.10.2022
1321 Clouds 15 1011 77 10000 3.65 172 20:42 23.10.2022
1322 Clouds 16 1011 75 10000 4.06 161 19:41 23.10.2022
1323 Clouds 18 1011 71 10000 3.78 141 17:30 23.10.2022
1324 Clouds 18 1012 66 10000 3.36 145 16:51 23.10.2022
1325 Clouds 18 1013 59 10000 4.34 160 15:19 23.10.2022
1326 Clouds 19 1015 56 10000 4.15 173 12:50 23.10.2022
1327 Clouds 16 1016 71 10000 3.36 171 10:58 23.10.2022
1328 Clouds 10 1016 90 10000 1.98 162 07:53 23.10.2022
1329 Clouds 13 1017 90 10000 2.37 250 23:37 22.10.2022
1330 Clear 13 1017 88 10000 3.01 263 22:31 22.10.2022
1331 Clear 14 1017 88 10000 3.02 263 21:41 22.10.2022
1332 Clouds 14 1016 86 10000 3.44 259 20:36 22.10.2022
1333 Rain 14 1016 86 10000 3.04 258 19:32 22.10.2022
1334 Clouds 16 1015 84 10000 3.08 263 18:46 22.10.2022
1335 Clouds 18 1014 77 10000 2.48 268 17:31 22.10.2022
1336 Clouds 18 1013 57 10000 4.37 263 15:26 22.10.2022
1337 Clouds 18 1013 57 10000 4.37 263 14:36 22.10.2022
1338 Clouds 17 1013 54 10000 4.3 257 13:33 22.10.2022
1339 Clouds 13 1012 85 10000 2.58 265 09:50 22.10.2022
1340 Clouds 12 1011 91 10000 2.57 258 09:18 22.10.2022
1341 Clouds 12 1011 93 10000 2.07 255 06:59 22.10.2022
1342 Clouds 12 1011 92 10000 2.17 218 01:54 22.10.2022
1343 Clouds 13 1010 91 10000 1.99 223 23:44 21.10.2022
1344 Clouds 14 1010 94 10000 3.07 217 21:34 21.10.2022
1345 Clouds 14 1010 94 10000 3.07 217 20:56 21.10.2022
1346 Rain 14 1010 96 10000 2.63 225 18:55 21.10.2022
1347 Rain 15 1009 89 10000 3.71 199 16:51 21.10.2022
1348 Clouds 16 1009 70 10000 4.15 201 13:56 21.10.2022
1349 Clouds 16 1010 61 10000 5.24 196 12:39 21.10.2022
1350 Clouds 14 1010 74 10000 3.72 148 10:28 21.10.2022
1351 Clouds 12 1010 74 10000 3.72 148 09:42 21.10.2022
1352 Rain 11 1010 81 10000 3.33 152 08:37 21.10.2022
1353 Clouds 11 1011 82 10000 3.56 173 06:46 21.10.2022
1354 Clouds 11 1015 75 10000 3.15 156 00:24 21.10.2022
1355 Rain 11 1015 64 10000 3.79 148 21:51 20.10.2022
1356 Clouds 11 1015 63 10000 4.13 137 20:35 20.10.2022
1357 Clouds 11 1017 64 10000 3.71 138 19:33 20.10.2022
1358 Clouds 13 1017 64 10000 3.46 131 17:52 20.10.2022
1359 Clouds 14 1017 55 10000 4.6 133 16:30 20.10.2022
1360 Clouds 10 1020 53 10000 5.75 138 12:36 20.10.2022
1361 Clouds 9 1020 59 10000 5.78 132 12:18 20.10.2022
1362 Clouds 8 1021 68 10000 5.48 128 10:57 20.10.2022
1363 Clouds 7 1022 78 10000 5.17 128 10:27 20.10.2022
1364 Clouds 5 1023 95 10000 3.85 116 07:45 20.10.2022
1365 Clouds 5 1024 92 10000 3.56 122 04:58 20.10.2022
1366 Clouds 6 1026 86 10000 2.79 125 00:58 20.10.2022
1367 Clouds 7 1027 83 10000 2.61 122 22:45 19.10.2022
1368 Clouds 7 1027 82 10000 1.92 129 21:55 19.10.2022
1369 Clouds 8 1027 80 10000 1.69 130 20:52 19.10.2022
1370 Clear 13 1027 73 10000 1.38 150 18:36 19.10.2022
1371 Clear 11 1027 68 10000 1.12 151 17:37 19.10.2022
1372 Clouds 14 1027 54 10000 1.43 75 15:41 19.10.2022
1373 Clouds 13 1029 59 10000 1.88 26 12:58 19.10.2022
1374 Clouds 11 1028 72 10000 3.36 350 09:34 19.10.2022
1375 Clouds 11 1027 84 10000 2.98 307 08:28 19.10.2022
1376 Clear 11 1027 95 10000 3.02 280 05:19 19.10.2022
1377 Clear 10 1027 92 10000 3.23 289 01:25 19.10.2022
1378 Clear 12 1027 85 10000 3.29 287 22:57 18.10.2022
1379 Clear 12 1027 81 10000 3.12 283 21:38 18.10.2022
1380 Clear 11 1026 79 10000 3.11 292 20:59 18.10.2022
1381 Clouds 14 1026 77 10000 3.32 295 19:51 18.10.2022
1382 Clouds 17 1025 73 10000 3.18 291 17:44 18.10.2022
1383 Clouds 17 1025 66 10000 4.09 295 16:49 18.10.2022
1384 Clouds 17 1025 80 10000 2.98 283 14:26 18.10.2022
1385 Rain 16 1025 93 10000 2.53 297 12:33 18.10.2022
1386 Rain 16 1025 97 6025 1.81 295 11:22 18.10.2022
1387 Rain 16 1025 98 4128 1.52 260 09:45 18.10.2022
1388 Rain 16 1024 98 6947 0.93 274 07:57 18.10.2022
1389 Rain 18 1025 94 10000 2.77 309 03:45 18.10.2022
1390 Clouds 17 1024 83 10000 3.03 279 22:37 17.10.2022
1391 Clouds 18 1023 69 10000 3.31 229 20:55 17.10.2022
1392 Clouds 19 1023 69 10000 3.31 229 20:32 17.10.2022
1393 Clouds 19 1023 66 10000 3.43 221 19:52 17.10.2022
1394 Clouds 20 1022 62 10000 2.9 221 19:18 17.10.2022
1395 Clouds 24 1021 49 10000 5.11 243 17:28 17.10.2022
1396 Clouds 25 1021 45 10000 5.75 231 15:46 17.10.2022
1397 Clouds 24 1021 47 10000 5.92 232 14:35 17.10.2022
1398 Clouds 21 1021 51 10000 6.31 200 11:55 17.10.2022
1399 Clouds 13 1020 93 10000 3.5 162 06:42 17.10.2022
1400 Clouds 13 1022 72 10000 2.25 118 23:35 16.10.2022
1401 Clouds 13 1021 73 10000 0.68 71 22:21 16.10.2022
1402 Clouds 14 1020 71 10000 0.67 285 20:59 16.10.2022
1403 Clouds 15 1020 67 10000 1.31 286 19:47 16.10.2022
1404 Clouds 19 1018 59 10000 2.26 280 17:58 16.10.2022
1405 Clouds 19 1018 59 10000 2.26 280 17:39 16.10.2022
1406 Clouds 20 1017 46 10000 4.96 263 15:58 16.10.2022
1407 Clouds 19 1017 47 10000 5.5 262 14:45 16.10.2022
1408 Clouds 19 1016 53 10000 5.6 240 12:23 16.10.2022
1409 Clouds 16 1014 73 10000 4.36 225 10:28 16.10.2022
1410 Clouds 14 1014 85 10000 3.41 225 09:26 16.10.2022
1411 Clouds 14 1012 92 10000 2.84 222 03:22 16.10.2022
1412 Clouds 16 1011 86 10000 4.31 218 23:41 15.10.2022
1413 Clouds 17 1009 77 10000 4.94 205 21:29 15.10.2022
1414 Clouds 16 1009 77 10000 4.94 205 20:57 15.10.2022
1415 Clouds 17 1009 81 10000 4.28 203 19:30 15.10.2022
1416 Clouds 19 1008 58 10000 4.38 220 16:18 15.10.2022
1417 Clouds 19 1008 58 10000 4.38 220 15:43 15.10.2022
1418 Clouds 18 1009 66 10000 2.41 208 13:21 15.10.2022
1419 Clouds 17 1009 72 10000 1.45 210 11:40 15.10.2022
1420 Clouds 14 1008 88 10000 1.4 282 09:26 15.10.2022
1421 Clouds 13 1007 91 10000 2.05 226 06:35 15.10.2022
1422 Clouds 14 1008 88 10000 3.77 196 00:40 15.10.2022
1423 Clouds 15 1009 87 10000 4.05 171 22:36 14.10.2022
1424 Clouds 15 1010 85 10000 3.92 169 22:18 14.10.2022
1425 Clouds 16 1010 80 10000 3.88 183 20:33 14.10.2022
1426 Clouds 16 1011 73 10000 3.28 183 18:39 14.10.2022
1427 Clouds 18 1012 53 10000 2.2 177 15:32 14.10.2022
1428 Clouds 16 1014 59 10000 1.74 203 12:47 14.10.2022
1429 Clouds 14 1015 69 10000 1.61 222 11:25 14.10.2022
1430 Rain 10 1015 80 10000 1.37 202 08:26 14.10.2022
1431 Clouds 11 1015 85 10000 1.92 201 06:46 14.10.2022
1432 Rain 11 1016 85 10000 1.75 197 06:18 14.10.2022
1433 Clouds 11 1016 85 10000 1.75 197 05:42 14.10.2022
1434 Clouds 10 1016 88 10000 2.15 259 02:26 14.10.2022
1435 Clouds 10 1017 76 10000 2.61 228 23:23 13.10.2022
1436 Clouds 12 1016 73 10000 2.61 216 21:39 13.10.2022
1437 Clouds 12 1016 71 10000 2.54 212 20:44 13.10.2022
1438 Clouds 13 1017 67 10000 1.35 213 19:42 13.10.2022
1439 Clouds 16 1017 64 10000 1.02 242 18:52 13.10.2022
1440 Clouds 16 1017 61 10000 1.23 255 18:21 13.10.2022
1441 Clouds 17 1017 49 10000 2.55 246 15:49 13.10.2022
1442 Clouds 17 1017 50 10000 2.84 237 15:28 13.10.2022
1443 Clouds 17 1017 52 10000 2.9 230 13:53 13.10.2022
1444 Clouds 16 1018 55 10000 2.91 214 12:42 13.10.2022
1445 Clouds 14 1019 67 10000 2.29 190 10:58 13.10.2022
1446 Clouds 8 1019 82 10000 1.69 205 08:34 13.10.2022
1447 Clouds 7 1020 90 10000 1.55 226 07:37 13.10.2022
1448 Clouds 6 1020 83 10000 2.36 187 04:25 13.10.2022
1449 Clouds 7 1022 78 10000 2.61 176 01:40 13.10.2022
1450 Clouds 7 1022 79 10000 2.73 170 00:34 13.10.2022
1451 Clouds 8 1022 76 10000 2.81 165 22:45 12.10.2022
1452 Clouds 9 1023 74 10000 2.74 156 21:46 12.10.2022
1453 Clouds 9 1023 73 10000 2.66 147 21:19 12.10.2022
1454 Clouds 9 1023 73 10000 2.66 147 20:33 12.10.2022
1455 Clear 12 1023 63 10000 2.68 131 19:22 12.10.2022
1456 Clear 14 1023 57 10000 2.29 136 17:57 12.10.2022
1457 Clear 15 1023 48 10000 2.33 155 16:59 12.10.2022
1458 Clouds 14 1024 44 10000 3.47 148 14:27 12.10.2022
1459 Clouds 13 1024 44 10000 3.46 149 13:53 12.10.2022
1460 Clouds 14 1025 53 10000 3.38 146 11:54 12.10.2022
1461 Clouds 10 1026 67 10000 2.67 151 09:36 12.10.2022
1462 Clear 6 1026 85 10000 1.76 161 07:42 12.10.2022
1463 Clear 3 1026 86 10000 1.43 155 06:44 12.10.2022
1464 Clear 6 1026 85 10000 1.08 164 05:32 12.10.2022
1465 Clouds 6 1027 76 10000 1.03 240 00:32 12.10.2022
1466 Clouds 8 1026 69 10000 1.69 304 21:25 11.10.2022
1467 Clouds 9 1026 69 10000 1.69 304 20:32 11.10.2022
1468 Clouds 14 1026 59 10000 2.4 304 18:27 11.10.2022
1469 Clouds 15 1025 47 10000 3.45 301 16:27 11.10.2022
1470 Clouds 14 1026 48 10000 3.57 299 13:52 11.10.2022
1471 Clouds 13 1026 56 10000 3.64 296 11:45 11.10.2022
1472 Clear 11 1026 69 10000 4.04 290 10:28 11.10.2022
1473 Clear 8 1025 82 10000 3.41 281 09:25 11.10.2022
1474 Clear 9 1023 94 10000 3.53 281 05:26 11.10.2022
1475 Clouds 13 1021 92 10000 3.72 289 01:55 11.10.2022
1476 Clouds 14 1020 84 10000 6.13 293 00:24 11.10.2022
1477 Clouds 13 1017 68 10000 4.72 269 21:23 10.10.2022
1478 Clouds 15 1016 73 10000 3.63 248 19:45 10.10.2022
1479 Clouds 17 1015 59 10000 3.3 261 18:25 10.10.2022
1480 Clouds 18 1014 47 10000 4.47 265 16:48 10.10.2022
1481 Clear 17 1014 40 10000 4.3 239 14:48 10.10.2022
1482 Clouds 14 1015 49 10000 4.68 208 12:38 10.10.2022
1483 Clouds 15 1016 51 10000 4.88 187 11:26 10.10.2022
1484 Clouds 9 1016 65 10000 3.78 154 08:33 10.10.2022
1485 Clear 6 1018 79 10000 3.46 145 05:41 10.10.2022
1486 Clear 7 1019 78 10000 3.44 145 03:48 10.10.2022
1487 Clouds 8 1021 75 10000 3.68 136 00:29 10.10.2022
1488 Clouds 10 1022 73 10000 3.97 130 22:37 09.10.2022
1489 Clouds 10 1022 71 10000 3.65 125 22:18 09.10.2022
1490 Clouds 11 1022 70 10000 3.58 124 21:21 09.10.2022
1491 Clouds 12 1022 65 10000 3.54 120 19:59 09.10.2022
1492 Clouds 12 1022 65 10000 3.54 120 19:34 09.10.2022
1493 Clouds 13 1023 60 10000 3.38 120 18:43 09.10.2022
1494 Clouds 15 1023 45 10000 3.42 140 16:56 09.10.2022
1495 Clouds 15 1023 45 10000 3.42 140 16:33 09.10.2022
1496 Clouds 15 1023 43 10000 3.74 154 15:38 09.10.2022
1497 Clouds 15 1025 46 10000 3.81 167 14:31 09.10.2022
1498 Clear 14 1025 50 10000 3.57 166 13:23 09.10.2022
1499 Clear 14 1026 55 10000 2.83 164 12:29 09.10.2022
1500 Clear 13 1027 61 10000 2.15 169 10:48 09.10.2022
1501 Clear 4 1026 77 10000 1.32 218 08:30 09.10.2022
1502 Clear 4 1026 77 10000 1.32 218 08:30 09.10.2022
1503 Clear 4 1026 77 10000 1.32 218 08:30 09.10.2022
1504 Clear 6 1025 90 10000 2.65 266 03:40 09.10.2022
1505 Clear 7 1025 89 10000 2.89 265 02:52 09.10.2022
1506 Clear 8 1025 85 10000 3.34 267 00:38 09.10.2022
1507 Clear 9 1024 81 10000 3.46 270 22:58 08.10.2022
1508 Clear 9 1023 79 10000 3.57 272 22:19 08.10.2022
1509 Clouds 11 1021 73 10000 3.49 280 20:29 08.10.2022
1510 Clouds 13 1021 67 10000 4.3 286 18:57 08.10.2022
1511 Clouds 16 1020 60 10000 5.57 288 17:33 08.10.2022
1512 Clouds 16 1018 48 10000 7.07 274 15:26 08.10.2022
1513 Clouds 15 1018 56 10000 7.13 274 13:31 08.10.2022
1514 Clouds 13 1017 65 10000 5.38 254 10:48 08.10.2022
1515 Clouds 12 1017 63 10000 5.41 258 10:24 08.10.2022
1516 Clouds 10 1016 68 10000 3.7 239 09:19 08.10.2022
1517 Clouds 10 1016 79 10000 2.81 233 05:31 08.10.2022
1518 Clouds 9 1017 70 10000 2.7 226 00:59 08.10.2022
1519 Clouds 11 1018 67 10000 2.86 223 23:39 07.10.2022
1520 Clouds 11 1018 62 10000 3.04 215 23:20 07.10.2022
1521 Clouds 11 1019 59 10000 3.02 213 21:48 07.10.2022
1522 Clouds 13 1019 56 10000 2.26 222 19:56 07.10.2022
1523 Clouds 17 1019 47 10000 2.16 232 17:54 07.10.2022
1524 Clouds 18 1019 38 10000 2.96 234 16:50 07.10.2022
1525 Clouds 17 1021 35 10000 3.46 236 15:26 07.10.2022
1526 Clouds 17 1022 37 10000 3.46 234 14:22 07.10.2022
1527 Clouds 17 1024 44 10000 3.06 218 11:38 07.10.2022
1528 Clouds 10 1026 70 10000 2.38 196 09:25 07.10.2022
1529 Clear 8 1026 79 10000 2.64 191 08:23 07.10.2022
1530 Clear 7 1028 71 10000 1.78 192 02:55 07.10.2022
1531 Clear 8 1030 68 10000 2.21 233 23:52 06.10.2022
1532 Clear 9 1030 67 10000 2.48 244 22:50 06.10.2022
1533 Clear 11 1030 65 10000 2.56 249 21:39 06.10.2022
1534 Clear 12 1030 63 10000 2.68 251 20:41 06.10.2022
1535 Clear 15 1029 57 10000 2.61 265 18:58 06.10.2022
1536 Clear 16 1029 57 10000 2.62 265 18:32 06.10.2022
1537 Clear 18 1028 41 10000 5.73 274 15:47 06.10.2022
1538 Clear 17 1028 42 10000 6.34 271 13:49 06.10.2022
1539 Clouds 16 1028 59 10000 7.01 276 10:43 06.10.2022
1540 Clouds 16 1020 71 10000 6.63 256 05:20 06.10.2022
1541 Clear 15 1018 73 10000 5.43 235 02:38 06.10.2022
1542 Clear 15 1017 65 10000 5.52 218 22:29 05.10.2022
1543 Clouds 16 1016 63 10000 5.22 208 19:54 05.10.2022
1544 Clouds 18 1015 53 10000 4.93 209 17:50 05.10.2022
1545 Clouds 18 1015 45 10000 5.41 217 17:29 05.10.2022
1546 Clouds 18 1015 41 10000 5.73 220 15:46 05.10.2022
1547 Clouds 19 1016 38 10000 6.2 217 14:38 05.10.2022
1548 Clouds 17 1016 37 10000 5.61 218 13:39 05.10.2022
1549 Clouds 16 1017 48 10000 4.34 217 12:19 05.10.2022
1550 Clouds 11 1018 71 10000 3.41 201 08:45 05.10.2022
1551 Clouds 9 1017 77 10000 3.39 193 07:23 05.10.2022
1552 Clouds 9 1018 77 10000 3.01 207 05:35 05.10.2022
1553 Clouds 10 1019 74 10000 2.97 202 02:42 05.10.2022
1554 Clouds 11 1019 77 10000 3.17 200 00:41 05.10.2022
1555 Clouds 12 1020 77 10000 3.27 204 00:23 05.10.2022
1556 Clouds 12 1020 74 10000 3.31 210 21:48 04.10.2022
1557 Clouds 13 1020 69 10000 2.8 214 20:22 04.10.2022
1558 Clouds 16 1020 64 10000 2.82 201 18:57 04.10.2022
1559 Clouds 14 1020 64 10000 2.82 201 18:35 04.10.2022
1560 Clouds 18 1020 58 10000 2.27 204 17:41 04.10.2022
1561 Clouds 18 1020 46 10000 3.04 215 16:26 04.10.2022
1562 Clouds 17 1022 56 10000 2.39 242 12:24 04.10.2022
1563 Clouds 11 1022 79 10000 2.37 259 08:42 04.10.2022
1564 Clouds 10 1022 94 10000 2.8 278 06:28 04.10.2022
1565 Clouds 12 1023 93 10000 4.07 286 01:28 04.10.2022
1566 Clouds 13 1023 93 10000 4.29 284 23:37 03.10.2022
1567 Clouds 13 1023 90 10000 4.75 287 21:52 03.10.2022
1568 Clear 13 1023 86 10000 4.31 291 20:52 03.10.2022
1569 Clouds 14 1023 72 10000 5.21 297 18:57 03.10.2022
1570 Clouds 16 1023 67 10000 5.48 296 17:53 03.10.2022
1571 Rain 17 1023 64 10000 5.28 296 16:43 03.10.2022
1572 Clouds 16 1023 61 10000 5.56 298 15:27 03.10.2022
1573 Clouds 16 1023 61 10000 6.66 299 13:44 03.10.2022
1574 Clouds 14 1023 63 10000 7.18 305 12:22 03.10.2022
1575 Clouds 13 1023 68 10000 7.23 302 10:38 03.10.2022
1576 Clouds 12 1023 77 10000 6.94 296 09:35 03.10.2022
1577 Clouds 11 1022 94 10000 5.94 288 05:44 03.10.2022
1578 Clear 11 1021 92 10000 6.18 287 02:51 03.10.2022
1579 Clear 12 1018 84 10000 5.59 292 22:29 02.10.2022
1580 Clear 13 1018 81 10000 5.69 293 20:42 02.10.2022
1581 Clouds 14 1005 77 10000 0.89 357 18:42 02.10.2022
1582 Clouds 15 1005 77 10000 1.34 269 17:38 02.10.2022
1583 Clouds 14 1005 85 10000 6.91 296 16:33 02.10.2022
1584 Rain 14 1005 84 10000 1.79 303 15:50 02.10.2022
1585 Clouds 17 1004 63 10000 4.02 286 13:51 02.10.2022
1586 Clouds 17 1004 67 10000 7.58 280 13:21 02.10.2022
1587 Clouds 17 1004 70 10000 2.68 316 12:28 02.10.2022
1588 Clouds 16 1004 79 10000 4.47 251 11:37 02.10.2022
1589 Clouds 15 1004 86 10000 1.34 230 10:59 02.10.2022
1590 Clouds 12 1004 97 10000 5.88 251 09:27 02.10.2022
1591 Clear 9 1004 96 10000 4.63 240 07:39 02.10.2022
1592 Clear 10 1003 93 10000 3.58 268 02:55 02.10.2022
1593 Clear 11 1002 93 10000 1.34 231 00:46 02.10.2022
1594 Clear 11 1001 93 10000 1.79 177 00:21 02.10.2022
1595 Clear 11 1000 93 10000 1.79 155 22:43 01.10.2022
1596 Clear 11 998 91 10000 1.34 201 20:36 01.10.2022
1597 Rain 12 996 86 10000 0.45 162 18:50 01.10.2022
1598 Clouds 16 993 70 10000 3.58 263 16:36 01.10.2022
1599 Clouds 15 995 75 10000 1.34 84 14:41 01.10.2022
1600 Clouds 13 995 81 10000 2.68 199 13:31 01.10.2022
1601 Clouds 12 995 88 10000 1.79 176 12:33 01.10.2022
1602 Rain 11 995 91 7929 4.02 199 11:21 01.10.2022
1603 Rain 11 996 89 7929 5.81 207 10:32 01.10.2022
1604 Rain 10 996 87 10000 2.68 121 09:28 01.10.2022
1605 Rain 10 997 84 10000 2.68 173 08:58 01.10.2022
1606 Clouds 8 999 85 10000 1.34 169 05:47 01.10.2022
1607 Clouds 8 1000 85 10000 0.45 180 03:34 01.10.2022
1608 Clear 7 1001 83 10000 3.62 202 00:29 01.10.2022
1609 Clear 9 1001 78 10000 0.45 163 22:55 30.09.2022
1610 Clear 9 1002 80 10000 3.41 201 21:31 30.09.2022
1611 Clear 10 1001 77 10000 3.09 211 20:44 30.09.2022
1612 Clouds 11 1001 75 10000 2.32 210 20:18 30.09.2022
1613 Clouds 15 1000 54 10000 0.45 156 17:38 30.09.2022
1614 Clear 17 1001 48 10000 1.79 159 16:25 30.09.2022
1615 Clear 17 1002 51 10000 0.89 239 13:40 30.09.2022
1616 Clear 14 1002 64 10000 2.87 176 11:59 30.09.2022
1617 Clear 14 1002 67 10000 1.79 180 11:31 30.09.2022
1618 Clear 11 1001 77 10000 1.36 187 08:37 30.09.2022
1619 Clouds 4 1009 75 10000 2.03 193 06:27 30.09.2022
1620 Clouds 6 1008 68 10000 1.94 199 02:45 30.09.2022
1621 Clouds 8 998 91 10000 2.11 167 23:47 29.09.2022
1622 Clouds 11 996 84 10000 1.66 131 21:29 29.09.2022
1623 Clouds 11 996 83 10000 1.66 131 20:59 29.09.2022
1624 Clouds 12 995 72 10000 0.45 235 18:45 29.09.2022
1625 Clouds 14 994 59 10000 0.87 302 17:45 29.09.2022
1626 Clouds 16 994 52 10000 1.39 250 16:28 29.09.2022
1627 Clouds 16 994 52 10000 2.68 117 15:36 29.09.2022
1628 Clouds 16 994 51 10000 0.89 158 14:54 29.09.2022
1629 Clear 13 993 71 10000 0.89 217 11:48 29.09.2022
1630 Clouds 7 992 95 10000 1 223 07:31 29.09.2022
1631 Clouds 8 991 96 10000 1.49 252 02:55 29.09.2022
1632 Clouds 7 990 95 10000 1.78 270 00:28 29.09.2022
1633 Clouds 7 990 95 10000 0.89 173 23:19 28.09.2022
1634 Clouds 7 989 93 10000 2.08 270 21:30 28.09.2022
1635 Clouds 9 989 94 10000 1.81 265 20:31 28.09.2022
1636 Clouds 11 988 88 10000 2.04 277 18:53 28.09.2022
1637 Rain 9 997 82 10000 1.63 231 15:46 28.09.2022
1638 Rain 8 996 88 10000 2.21 207 13:28 28.09.2022
1639 Rain 8 996 90 10000 2.77 191 11:34 28.09.2022
1640 Rain 9 986 92 10000 1.34 196 09:26 28.09.2022
1641 Rain 8 986 95 10000 0.45 176 07:41 28.09.2022
1642 Clouds 7 986 93 10000 0.45 141 05:31 28.09.2022
1643 Clouds 10 988 88 10000 3.34 225 01:40 28.09.2022
1644 Clouds 10 988 88 10000 0.89 179 23:31 27.09.2022
1645 Clouds 10 988 88 10000 2.83 227 22:32 27.09.2022
1646 Clouds 10 988 84 10000 3.58 245 20:56 27.09.2022
1647 Clouds 10 988 82 10000 4.24 256 20:26 27.09.2022
1648 Clouds 11 988 76 10000 1.79 241 19:37 27.09.2022
1649 Clouds 12 987 72 10000 0.89 314 17:46 27.09.2022
1650 Clouds 14 986 69 10000 6.65 267 16:25 27.09.2022
1651 Clouds 15 986 66 10000 0.89 265 15:18 27.09.2022
1652 Clouds 14 986 79 10000 1.79 247 13:36 27.09.2022
1653 Rain 12 985 86 10000 2.24 235 12:36 27.09.2022
1654 Rain 13 994 83 10000 6.52 261 09:54 27.09.2022
1655 Clouds 11 984 90 10000 0.45 170 07:51 27.09.2022
1656 Rain 12 984 86 10000 1.34 196 04:28 27.09.2022
1657 Rain 13 986 73 10000 1.79 169 01:37 27.09.2022
1658 Clouds 13 987 66 10000 1.79 46 23:52 26.09.2022
1659 Clouds 13 988 63 10000 5.36 201 23:24 26.09.2022
1660 Clouds 13 989 68 10000 0.89 190 21:20 26.09.2022
1661 Clouds 14 990 62 10000 1.34 166 19:44 26.09.2022
1662 Clouds 16 990 52 10000 0.89 282 18:39 26.09.2022
1663 Clouds 17 990 44 10000 1.79 200 17:24 26.09.2022
1664 Clouds 19 992 36 10000 4.92 186 15:23 26.09.2022
1665 Clouds 17 994 56 10000 1.34 175 12:31 26.09.2022
1666 Clouds 15 995 61 10000 2.24 169 10:43 26.09.2022
1667 Clouds 14 995 64 10000 1.34 204 10:23 26.09.2022
1668 Clouds 14 995 68 10000 0.45 114 09:57 26.09.2022
1669 Clouds 13 996 71 10000 0.89 80 09:27 26.09.2022
1670 Clouds 12 996 78 10000 1.34 182 08:59 26.09.2022
1671 Clouds 9 997 90 10000 2.28 235 05:30 26.09.2022
1672 Clouds 12 999 83 10000 3.13 252 02:28 26.09.2022
1673 Clouds 13 1000 79 10000 2.76 300 23:24 25.09.2022
1674 Clouds 13 1001 75 10000 3.31 308 21:44 25.09.2022
1675 Clouds 14 1001 77 10000 1.79 331 20:59 25.09.2022
1676 Clouds 14 1001 78 10000 3.58 305 20:35 25.09.2022
1677 Clouds 14 1001 73 10000 3.63 287 18:55 25.09.2022
1678 Clouds 16 1001 70 10000 0.45 129 18:24 25.09.2022
1679 Clouds 16 1001 67 10000 1.79 324 17:23 25.09.2022
1680 Clouds 18 1001 61 10000 2.24 283 16:21 25.09.2022
1681 Clouds 18 1002 59 10000 1.79 303 14:49 25.09.2022
1682 Clouds 18 1002 60 10000 1.34 256 14:18 25.09.2022
1683 Clouds 18 1003 63 10000 0.89 297 11:34 25.09.2022
1684 Clouds 16 1003 68 10000 0.89 248 09:44 25.09.2022
1685 Clouds 12 1003 87 10000 1.26 277 07:42 25.09.2022
1686 Clouds 12 1003 86 10000 0.36 242 05:25 25.09.2022
1687 Clouds 13 1004 81 10000 3.26 55 23:37 24.09.2022
1688 Rain 14 1004 78 10000 3.73 355 21:25 24.09.2022
1689 Rain 15 1004 68 10000 0.45 345 20:32 24.09.2022
1690 Clouds 16 1003 62 10000 1.34 304 19:20 24.09.2022
1691 Clouds 18 1003 56 10000 1.79 18 16:56 24.09.2022
1692 Clouds 20 1003 44 10000 1.34 359 15:29 24.09.2022
1693 Clouds 20 1003 44 10000 2.24 324 14:47 24.09.2022
1694 Clouds 19 1003 52 10000 3.58 343 13:22 24.09.2022
1695 Rain 18 1004 56 10000 1.34 32 12:25 24.09.2022
1696 Rain 13 1003 78 10000 1.09 95 09:59 24.09.2022
1697 Rain 13 1003 81 10000 0.53 55 09:21 24.09.2022
1698 Rain 12 1004 83 10000 0.53 55 08:40 24.09.2022
1699 Clouds 12 1003 82 10000 1.42 203 04:55 24.09.2022
1700 Clouds 12 1004 82 10000 1.55 185 04:25 24.09.2022
1701 Clouds 13 1005 71 10000 2.39 190 23:25 23.09.2022
1702 Clouds 13 1005 69 10000 2.52 191 21:41 23.09.2022
1703 Clouds 13 1005 69 10000 2.55 189 21:22 23.09.2022
1704 Clouds 13 1005 68 10000 2.55 189 20:54 23.09.2022
1705 Clouds 15 1005 57 10000 2.4 183 19:20 23.09.2022
1706 Clouds 18 1006 45 10000 1.34 183 17:42 23.09.2022
1707 Clouds 18 1008 48 10000 3.13 117 13:40 23.09.2022
1708 Clouds 13 1010 69 10000 0.89 111 10:22 23.09.2022
1709 Clouds 7 1010 94 10000 2.86 155 07:30 23.09.2022
1710 Clouds 9 1012 81 10000 0.45 88 02:25 23.09.2022
1711 Clear 9 1013 80 10000 2.81 148 23:29 22.09.2022
1712 Clear 9 1013 80 10000 2.89 137 22:28 22.09.2022
1713 Clear 10 1013 76 10000 2.89 137 21:35 22.09.2022
1714 Clouds 11 1013 67 10000 0.45 98 20:23 22.09.2022
1715 Clouds 14 1013 50 10000 0.89 107 18:57 22.09.2022
1716 Clouds 18 1014 39 10000 1.83 58 15:39 22.09.2022
1717 Clouds 14 1016 69 10000 0.89 244 10:51 22.09.2022
1718 Clouds 12 1016 76 10000 2.13 103 10:19 22.09.2022
1719 Clouds 12 1016 76 10000 2.13 103 10:19 22.09.2022
1720 Clouds 8 1016 89 10000 1.98 76 08:20 22.09.2022
1721 Clouds 12 1025 68 10000 1.57 6 05:22 22.09.2022
1722 Clouds 12 1025 65 10000 1.81 359 01:19 22.09.2022
1723 Clouds 13 1026 60 10000 1.76 317 22:29 21.09.2022
1724 Clouds 13 1026 59 10000 1.78 327 21:24 21.09.2022
1725 Clouds 14 1016 62 10000 2.19 4 18:51 21.09.2022
1726 Clouds 16 1015 55 10000 1.79 352 17:45 21.09.2022
1727 Clouds 19 1016 43 10000 0.45 118 15:47 21.09.2022
1728 Clouds 18 1017 46 10000 2.24 300 13:54 21.09.2022
1729 Clouds 15 1017 69 10000 2.24 310 11:43 21.09.2022
1730 Clouds 14 1017 68 10000 0.89 84 11:21 21.09.2022
1731 Clouds 14 1017 66 10000 0.45 223 09:40 21.09.2022
1732 Clouds 10 1026 77 10000 2.71 308 08:50 21.09.2022
1733 Clouds 6 1015 94 10000 2.66 300 04:57 21.09.2022
1734 Clouds 7 1015 93 10000 2.52 300 02:40 21.09.2022
1735 Clouds 7 1015 93 10000 2.24 307 01:58 21.09.2022
1736 Clouds 8 1015 91 10000 2.43 308 00:20 21.09.2022
1737 Clouds 9 1014 87 10000 2.73 301 21:53 20.09.2022
1738 Clouds 11 1013 83 10000 2.66 303 20:34 20.09.2022
1739 Clouds 13 1012 67 10000 2.5 338 19:18 20.09.2022
1740 Clouds 16 1011 54 10000 1.79 296 15:57 20.09.2022
1741 Clear 16 1011 58 10000 4.36 327 14:29 20.09.2022
1742 Clear 14 1011 76 10000 2.24 359 12:41 20.09.2022
1743 Clouds 11 1010 97 10000 4.6 306 08:51 20.09.2022
1744 Clouds 11 1009 97 10000 3.96 295 08:24 20.09.2022
1745 Clouds 9 1008 96 10000 4.34 289 04:40 20.09.2022
1746 Clouds 9 1008 22 10000 0.45 309 02:37 20.09.2022
1747 Clouds 11 1007 5 10000 4.91 294 22:50 19.09.2022
1748 Clouds 12 1006 81 10000 1.34 249 21:38 19.09.2022
1749 Clouds 13 1006 81 10000 0.89 210 20:45 19.09.2022
1750 Clouds 13 1006 77 10000 3.91 286 19:27 19.09.2022
1751 Clouds 14 1003 66 10000 1.34 276 17:39 19.09.2022
1752 Clouds 18 1004 58 10000 3.58 272 13:56 19.09.2022
1753 Clouds 16 1005 70 10000 1.34 279 12:48 19.09.2022
1754 Clouds 13 1004 83 10000 2.24 290 10:47 19.09.2022
1755 Clouds 11 1003 97 10000 1.34 297 08:51 19.09.2022
1756 Rain 11 1001 87 10000 2.68 320 05:42 19.09.2022
1757 Clouds 10 999 90 10000 5.36 321 01:53 19.09.2022
1758 Rain 10 998 92 10000 1.34 218 23:22 18.09.2022
1759 Clouds 9 998 90 10000 2.68 280 21:34 18.09.2022
1760 Clouds 9 998 85 10000 1.34 211 20:23 18.09.2022
1761 Clouds 12 998 80 10000 2.24 227 17:54 18.09.2022
1762 Clouds 12 998 80 10000 2.24 210 17:35 18.09.2022
1763 Rain 14 1008 62 10000 8.17 276 15:36 18.09.2022
1764 Clouds 16 998 54 10000 2.24 230 13:47 18.09.2022
1765 Clouds 16 999 57 10000 4.02 230 12:35 18.09.2022
1766 Clouds 14 1000 64 10000 1.34 293 10:55 18.09.2022
1767 Clouds 10 999 86 10000 3.13 11 03:42 18.09.2022
1768 Rain 11 997 91 10000 0.89 321 01:24 18.09.2022
1769 Clouds 11 997 89 8144 2.24 303 00:23 18.09.2022
1770 Clouds 11 997 88 10000 1.34 223 21:40 17.09.2022
1771 Clouds 11 996 87 10000 1.34 218 19:43 17.09.2022
1772 Clouds 11 996 87 10000 1.34 218 19:43 17.09.2022
1773 Clouds 12 996 84 10000 3.13 215 18:57 17.09.2022
1774 Rain 12 996 83 10000 1.34 263 18:57 17.09.2022
1775 Rain 14 997 54 10000 8.58 273 16:18 17.09.2022
1776 Clouds 18 997 44 10000 3.13 241 13:56 17.09.2022
1777 Clouds 16 997 56 10000 1.34 271 11:31 17.09.2022
1778 Clouds 13 997 74 10000 5.81 303 09:27 17.09.2022
1779 Clouds 12 996 87 10000 1.79 194 06:25 17.09.2022
1780 Clouds 13 995 73 10000 2.68 271 00:20 17.09.2022
1781 Clouds 13 994 67 10000 4.47 224 22:52 16.09.2022
1782 Clouds 13 994 63 10000 2.24 283 21:23 16.09.2022
1783 Clouds 14 994 59 10000 6.71 248 19:51 16.09.2022
1784 Clouds 18 994 45 10000 2.68 273 16:56 16.09.2022
1785 Clouds 17 1005 44 10000 7.12 272 15:26 16.09.2022
1786 Rain 17 1005 46 10000 7.18 274 13:57 16.09.2022
1787 Clouds 17 996 51 10000 0.45 117 11:42 16.09.2022
1788 Clouds 13 996 81 10000 1.34 259 08:26 16.09.2022
1789 Clouds 11 996 89 10000 0.45 228 07:19 16.09.2022
1790 Clouds 11 996 90 10000 0.45 206 06:47 16.09.2022
1791 Clear 11 996 91 10000 2.68 245 02:52 16.09.2022
1792 Clouds 13 996 86 10000 5.16 272 22:56 15.09.2022
1793 Clouds 15 995 71 10000 1.79 259 21:18 15.09.2022
1794 Rain 16 995 70 10000 5.12 280 19:57 15.09.2022
1795 Clouds 17 995 60 10000 5.99 286 18:30 15.09.2022
1796 Clouds 18 994 54 10000 2.24 269 17:33 15.09.2022
1797 Clouds 19 994 50 10000 1.34 258 16:43 15.09.2022
1798 Clouds 20 995 50 10000 1.34 348 14:36 15.09.2022
1799 Clouds 18 995 64 10000 2.68 176 12:29 15.09.2022
1800 Clouds 17 995 74 10000 0.89 248 10:21 15.09.2022
1801 Clouds 14 994 89 10000 4.23 267 07:51 15.09.2022
1802 Clouds 13 994 95 10000 1.34 237 03:56 15.09.2022
1803 Clouds 13 994 94 10000 2.57 267 01:26 15.09.2022
1804 Clouds 14 993 92 10000 2 231 21:54 14.09.2022
1805 Rain 16 993 87 10000 2.19 229 19:55 14.09.2022
1806 Rain 16 993 84 10000 2.83 227 19:20 14.09.2022
1807 Rain 18 994 69 10000 1.7 255 17:25 14.09.2022
1808 Rain 18 994 61 10000 2.18 266 15:49 14.09.2022
1809 Clouds 20 995 56 10000 1.96 269 14:33 14.09.2022
1810 Clouds 18 996 62 10000 1.93 261 11:40 14.09.2022
1811 Clouds 17 996 72 10000 1.84 276 09:48 14.09.2022
1812 Clouds 12 1002 92 10000 1.5 294 07:38 14.09.2022
1813 Clouds 12 1002 92 10000 2.23 286 06:47 14.09.2022
1814 Clouds 12 1003 90 10000 0.45 210 04:33 14.09.2022
1815 Clouds 14 1004 89 10000 2.3 287 01:48 14.09.2022
1816 Clouds 14 1004 89 10000 2.18 302 01:27 14.09.2022
1817 Clouds 14 1004 88 10000 2.18 302 00:50 14.09.2022
1818 Clouds 15 1004 88 10000 2.25 316 23:54 13.09.2022
1819 Clouds 15 1003 90 10000 2.25 316 23:36 13.09.2022
1820 Clouds 15 1003 91 10000 2.92 301 23:18 13.09.2022
1821 Clouds 16 1003 90 10000 2.99 286 22:20 13.09.2022
1822 Clouds 19 1003 79 10000 0.45 49 19:52 13.09.2022
1823 Clouds 21 997 69 10000 4.76 299 18:20 13.09.2022
1824 Clouds 22 997 61 10000 0.45 2 15:55 13.09.2022
1825 Clouds 22 998 59 10000 0.89 316 14:36 13.09.2022
1826 Clouds 22 998 58 10000 2.68 286 13:20 13.09.2022
1827 Clouds 17 998 84 10000 0.45 170 09:23 13.09.2022
1828 Rain 14 999 86 10000 0.45 230 06:59 13.09.2022
1829 Clouds 14 1002 82 10000 3.24 168 00:23 13.09.2022
1830 Clouds 16 1003 76 10000 0.89 114 22:50 12.09.2022
1831 Clouds 16 1003 74 10000 2.24 169 22:18 12.09.2022
1832 Clouds 17 1003 66 10000 0.45 111 20:39 12.09.2022
1833 Clouds 20 1004 51 10000 2.34 107 18:51 12.09.2022
1834 Clouds 22 1010 48 10000 0.45 79 17:25 12.09.2022
1835 Clouds 22 1012 51 10000 1.79 279 14:39 12.09.2022
1836 Clouds 20 1007 63 10000 0.45 197 11:31 12.09.2022
1837 Clouds 19 1007 65 10000 0.45 33 09:57 12.09.2022
1838 Clouds 15 1017 76 10000 0.67 249 04:57 12.09.2022
1839 Clouds 13 1007 90 10000 0.42 267 04:27 12.09.2022
1840 Clouds 14 1007 88 10000 1.49 329 23:58 11.09.2022
1841 Clouds 16 1007 83 10000 1.68 328 22:43 11.09.2022
1842 Clouds 16 1007 81 10000 2.18 314 20:53 11.09.2022
1843 Clouds 16 1007 79 10000 2.49 347 20:21 11.09.2022
1844 Clouds 18 1006 72 10000 3.2 332 19:26 11.09.2022
1845 Clouds 19 1006 66 10000 2.24 297 18:37 11.09.2022
1846 Clouds 21 1007 60 10000 2.68 272 16:56 11.09.2022
1847 Clouds 22 1007 53 10000 0.45 254 15:22 11.09.2022
1848 Clouds 20 1007 61 10000 1.34 313 12:54 11.09.2022
1849 Clouds 15 1012 92 10000 2.68 352 09:45 11.09.2022
1850 Clouds 14 1011 95 10000 1.34 314 07:43 11.09.2022
1851 Clouds 15 1009 89 10000 0.45 354 03:34 11.09.2022
1852 Rain 16 1008 84 10000 2.69 278 23:45 10.09.2022
1853 Clouds 16 1008 81 10000 2.35 310 21:35 10.09.2022
1854 Clouds 18 1001 70 10000 2.84 290 19:58 10.09.2022
1855 Clouds 19 1001 68 10000 2.84 290 19:40 10.09.2022
1856 Clouds 19 1001 64 10000 2.76 285 19:20 10.09.2022
1857 Clouds 22 1000 53 10000 3.13 254 16:58 10.09.2022
1858 Rain 21 1001 63 10000 2.35 246 15:32 10.09.2022
1859 Clouds 23 1001 48 10000 0.45 33 12:55 10.09.2022
1860 Clouds 22 1001 51 10000 2.26 227 12:26 10.09.2022
1861 Clouds 19 1007 69 10000 2.24 276 10:26 10.09.2022
1862 Clouds 16 1007 81 10000 0.89 165 08:37 10.09.2022
1863 Clouds 14 1012 90 10000 1.52 233 08:18 10.09.2022
1864 Clouds 13 1006 88 10000 2.63 222 03:42 10.09.2022
1865 Clouds 16 1006 80 10000 0.89 163 23:35 09.09.2022
1866 Clouds 16 1006 80 10000 3.01 203 22:22 09.09.2022
1867 Clouds 17 999 76 10000 3.08 203 20:49 09.09.2022
1868 Clouds 18 999 72 10000 3.2 203 19:52 09.09.2022
1869 Clouds 19 999 67 10000 0.45 187 19:22 09.09.2022
1870 Clouds 24 999 44 10000 4.02 167 16:52 09.09.2022
1871 Clouds 24 1000 47 10000 1.34 186 14:42 09.09.2022
1872 Clouds 24 1000 50 10000 4.92 138 13:18 09.09.2022
1873 Clouds 21 1000 68 10000 1.34 179 10:41 09.09.2022
1874 Clouds 16 999 97 10000 3.22 188 07:25 09.09.2022
1875 Clear 13 999 95 10000 2.95 198 03:31 09.09.2022
1876 Clouds 16 999 96 10000 0.45 228 22:33 08.09.2022
1877 Clouds 15 999 94 10000 2.86 227 21:51 08.09.2022
1878 Clouds 16 998 94 10000 2.61 251 20:46 08.09.2022
1879 Clouds 17 998 93 10000 0.45 263 20:24 08.09.2022
1880 Clouds 18 997 90 10000 1.79 227 18:34 08.09.2022
1881 Clouds 18 1008 95 10000 0.89 177 16:49 08.09.2022
1882 Rain 18 996 97 10000 3.21 204 15:18 08.09.2022
1883 Rain 18 996 97 8743 1.24 223 13:28 08.09.2022
1884 Rain 18 997 97 8743 1.24 223 12:39 08.09.2022
1885 Rain 17 997 96 9656 1.79 94 11:22 08.09.2022
1886 Rain 17 997 94 10000 2.86 114 09:26 08.09.2022
1887 Clouds 16 997 94 10000 2.2 64 06:53 08.09.2022
1888 Clouds 17 999 94 10000 0.89 69 03:37 08.09.2022
1889 Clouds 17 999 92 10000 0.99 38 02:36 08.09.2022
1890 Clouds 17 999 92 10000 1.38 16 02:18 08.09.2022
1891 Clouds 19 1000 92 10000 0.31 241 22:58 07.09.2022
1892 Clouds 19 1000 94 10000 1.08 48 21:45 07.09.2022
1893 Clouds 21 1001 88 8615 1.96 26 21:21 07.09.2022
1894 Clouds 21 1001 88 8615 1.96 26 21:21 07.09.2022
1895 Clouds 22 1000 60 7451 0.45 25 20:28 07.09.2022
1896 Rain 24 1000 52 10000 0.45 19 18:54 07.09.2022
1897 Clouds 27 1001 42 10000 2.68 12 16:18 07.09.2022
1898 Clouds 19 1003 65 10000 2.24 83 10:52 07.09.2022
1899 Clouds 19 1003 64 10000 1.34 76 10:32 07.09.2022
1900 Clouds 16 1009 73 10000 0.92 195 08:26 07.09.2022
1901 Clouds 14 1009 85 10000 2.91 117 05:46 07.09.2022
1902 Clouds 18 1011 74 10000 1.79 107 00:31 07.09.2022
1903 Clouds 19 1016 76 10000 4.39 91 21:51 06.09.2022
1904 Clouds 19 1016 76 10000 4.39 91 21:51 06.09.2022
1905 Clouds 20 1016 76 10000 4.39 91 21:32 06.09.2022
1906 Clouds 19 1016 72 10000 3.37 109 19:39 06.09.2022
1907 Clouds 24 1005 50 10000 3.58 90 18:39 06.09.2022
1908 Clouds 25 1005 46 10000 1.34 63 17:39 06.09.2022
1909 Clouds 26 1005 43 10000 0.89 71 16:47 06.09.2022
1910 Clouds 26 1005 42 10000 3.13 64 16:24 06.09.2022
1911 Clouds 22 1019 51 10000 4.2 120 14:27 06.09.2022
1912 Clouds 24 1007 42 10000 4.47 18 13:44 06.09.2022
1913 Clouds 22 1019 57 10000 4.43 104 13:18 06.09.2022
1914 Clouds 20 1008 48 10000 2.68 114 10:55 06.09.2022
1915 Clouds 18 1008 50 10000 4.21 97 09:22 06.09.2022
1916 Clouds 16 1014 60 10000 3.13 52 07:53 06.09.2022
1917 Clouds 16 1014 66 10000 2.24 42 06:20 06.09.2022
1918 Clouds 19 1015 62 10000 3.62 97 01:20 06.09.2022
1919 Clouds 21 1016 60 10000 3.13 97 22:54 05.09.2022
1920 Clouds 22 1016 56 10000 0.89 69 21:38 05.09.2022
1921 Clouds 23 1016 50 10000 4.47 66 20:30 05.09.2022
1922 Clouds 24 1009 41 10000 3.13 112 18:53 05.09.2022
1923 Clouds 25 1010 41 10000 4.47 87 18:26 05.09.2022
1924 Clouds 26 1009 39 10000 3.58 36 17:53 05.09.2022
1925 Clouds 27 1010 34 10000 1.79 129 15:54 05.09.2022
1926 Clouds 27 1011 34 10000 3.13 128 14:48 05.09.2022
1927 Clouds 26 1011 42 10000 2.24 105 12:53 05.09.2022
1928 Clouds 23 1012 51 10000 5.36 136 11:21 05.09.2022
1929 Clouds 18 1024 61 10000 4.55 98 08:58 05.09.2022
1930 Clouds 17 1011 63 10000 1.79 67 05:20 05.09.2022
1931 Clouds 18 1011 56 10000 3.49 96 01:35 05.09.2022
1932 Clouds 19 1011 52 10000 0.45 91 22:29 04.09.2022
1933 Clouds 19 1011 51 10000 4.36 92 21:59 04.09.2022
1934 Clouds 21 1010 47 10000 1.34 23 20:35 04.09.2022
1935 Clouds 24 1009 41 10000 1.79 23 18:39 04.09.2022
1936 Clouds 24 1009 40 10000 1.79 145 17:43 04.09.2022
1937 Clouds 26 1009 36 10000 2.24 153 16:28 04.09.2022
1938 Clouds 24 1009 40 10000 1.79 158 14:25 04.09.2022
1939 Clouds 24 1015 47 10000 1.79 117 12:52 04.09.2022
1940 Clouds 22 1015 51 10000 0.89 77 11:37 04.09.2022
1941 Clouds 19 1015 54 10000 4.02 125 09:39 04.09.2022
1942 Clouds 12 1013 78 10000 2.7 75 06:40 04.09.2022
1943 Clouds 13 1013 71 10000 2.88 76 03:30 04.09.2022
1944 Clouds 16 1012 58 10000 3.47 85 23:33 03.09.2022
1945 Clouds 17 1011 54 10000 3.66 77 22:20 03.09.2022
1946 Clouds 18 1011 50 10000 3.74 75 21:22 03.09.2022
1947 Clear 22 1004 37 10000 2.68 50 18:58 03.09.2022
1948 Clear 23 1004 31 10000 2.24 145 17:25 03.09.2022
1949 Clear 24 1004 29 10000 1.79 43 16:26 03.09.2022
1950 Clear 24 1011 32 10000 3.58 103 14:44 03.09.2022
1951 Clear 23 1011 33 10000 6.26 98 13:50 03.09.2022
1952 Clear 21 1012 42 10000 3.13 88 11:37 03.09.2022
1953 Clear 19 1013 49 10000 3.58 115 09:56 03.09.2022
1954 Clear 10 1018 78 10000 3.78 108 07:57 03.09.2022
1955 Clear 13 1012 66 10000 3.2 106 04:57 03.09.2022
1956 Clear 14 1012 64 10000 3.2 106 04:31 03.09.2022
1957 Clear 17 1007 50 10000 0.89 87 23:49 02.09.2022
1958 Clouds 17 1018 54 10000 3.59 99 22:39 02.09.2022
1959 Clear 16 1018 46 10000 3.48 99 20:59 02.09.2022
1960 Clouds 16 1018 50 10000 3.54 89 20:59 02.09.2022
1961 Clouds 20 1006 42 10000 1.79 46 20:27 02.09.2022
1962 Clouds 21 1006 36 10000 2.68 80 19:00 02.09.2022
1963 Clouds 22 1005 35 10000 2.24 103 18:28 02.09.2022
1964 Clouds 22 1006 35 10000 1.79 35 17:43 02.09.2022
1965 Clear 23 1007 31 10000 4.92 105 16:46 02.09.2022
1966 Clouds 24 1008 30 10000 4.02 112 13:55 02.09.2022
1967 Clouds 22 1009 36 10000 3.58 95 12:24 02.09.2022
1968 Clouds 19 1010 51 10000 2.24 141 10:19 02.09.2022
1969 Clouds 16 1021 51 10000 4.15 96 09:39 02.09.2022
1970 Clouds 14 1010 72 10000 0.89 7 07:30 02.09.2022
1971 Clouds 14 1010 72 10000 0.89 7 07:30 02.09.2022
1972 Clouds 15 1021 61 10000 2.84 90 06:36 02.09.2022
1973 Clouds 14 1010 72 10000 2.97 87 02:37 02.09.2022
1974 Clear 16 1010 58 10000 0.45 43 22:30 01.09.2022
1975 Clear 17 1010 55 10000 0.89 7 21:43 01.09.2022
1976 Clear 17 1010 54 10000 0.45 350 21:25 01.09.2022
1977 Clouds 18 1010 51 10000 0.89 29 20:43 01.09.2022
1978 Clear 21 1010 40 10000 0.45 0 18:54 01.09.2022
1979 Clear 22 1010 33 10000 1.79 8 17:21 01.09.2022
1980 Clear 23 1017 37 10000 5.81 12 15:47 01.09.2022
1981 Clouds 23 1011 30 10000 3.58 36 14:22 01.09.2022
1982 Clouds 22 1012 31 10000 1.79 35 12:58 01.09.2022
1983 Clouds 21 1012 40 10000 4.47 0 11:52 01.09.2022
1984 Clouds 21 1012 41 10000 0.89 59 11:31 01.09.2022
1985 Clouds 18 1023 56 10000 3.42 59 10:23 01.09.2022
1986 Clouds 16 1018 68 10000 2.24 5 07:51 01.09.2022
1987 Clouds 15 1017 77 10000 1.34 320 06:22 01.09.2022
1988 Clouds 14 1018 77 10000 0.45 21 01:32 01.09.2022
1989 Clouds 14 1018 77 10000 0.45 21 01:32 01.09.2022
1990 Clouds 14 1018 77 10000 0.45 21 01:32 01.09.2022
1991 Clouds 14 1018 77 10000 0.45 21 01:32 01.09.2022
1992 Clouds 16 1017 68 10000 3.13 48 23:29 31.08.2022
1993 Clouds 17 1017 55 10000 2.68 1 21:32 31.08.2022
1994 Clouds 20 1011 42 10000 1.34 71 19:50 31.08.2022
1995 Clouds 22 1011 38 10000 2.68 347 18:18 31.08.2022
1996 Clouds 24 1017 37 10000 4.92 55 15:56 31.08.2022
1997 Clouds 23 1017 38 10000 3.13 100 14:27 31.08.2022
1998 Clouds 20 1018 58 10000 2.68 63 12:22 31.08.2022
1999 Clouds 20 1025 66 10000 3.45 66 11:22 31.08.2022
2000 Clouds 16 1023 73 10000 3.63 44 08:36 31.08.2022
2001 Clouds 16 1011 75 10000 0.89 2 04:47 31.08.2022
2002 Clouds 18 1010 73 10000 1.34 340 23:20 30.08.2022
2003 Clouds 18 1010 69 10000 4.08 46 21:41 30.08.2022
2004 Clouds 19 1010 67 10000 1.79 359 20:57 30.08.2022
2005 Clouds 23 1009 45 10000 1.79 19 18:23 30.08.2022
2006 Clouds 24 1016 48 10000 2.71 23 15:23 30.08.2022
2007 Clouds 22 1011 56 10000 1.34 73 13:24 30.08.2022
2008 Clouds 21 1011 60 10000 0.89 14 11:21 30.08.2022
2009 Clouds 19 1011 65 10000 1.34 327 10:40 30.08.2022
2010 Clouds 16 1017 89 10000 2.68 40 07:42 30.08.2022
2011 Clouds 17 1015 83 10000 1.45 31 02:32 30.08.2022
2012 Clouds 18 1015 72 10000 0.45 24 23:20 29.08.2022
2013 Clouds 19 1015 64 10000 2.24 359 22:24 29.08.2022
2014 Clouds 19 1008 62 10000 1.79 350 21:26 29.08.2022
2015 Clouds 21 1008 55 10000 1.7 303 19:54 29.08.2022
2016 Clouds 24 1014 49 10000 0.89 4 17:54 29.08.2022
2017 Clouds 24 1014 48 10000 3.13 8 17:25 29.08.2022
2018 Clouds 24 1014 47 10000 1.34 331 16:40 29.08.2022
2019 Clouds 25 1009 43 10000 5.36 331 14:47 29.08.2022
2020 Clouds 24 1009 45 10000 3.76 303 13:21 29.08.2022
2021 Clouds 22 1009 54 10000 1.34 297 11:20 29.08.2022
2022 Clouds 17 1020 63 10000 3.94 292 09:49 29.08.2022
2023 Clouds 17 1015 73 10000 4.03 287 08:37 29.08.2022
2024 Clear 13 1014 79 10000 1.79 207 05:35 29.08.2022
2025 Clear 16 1014 64 10000 3.22 287 00:22 29.08.2022
2026 Clear 17 1007 56 10000 3.37 305 22:47 28.08.2022
2027 Clear 18 1007 53 10000 3.41 311 21:44 28.08.2022
2028 Clear 19 1006 48 10000 1.34 299 20:55 28.08.2022
2029 Clear 22 1005 43 10000 2.68 300 19:29 28.08.2022
2030 Clear 23 1005 41 10000 1.79 256 18:21 28.08.2022
2031 Clear 24 1005 38 10000 2.68 309 17:22 28.08.2022
2032 Clear 24 1006 39 10000 4.47 324 16:28 28.08.2022
2033 Clear 23 1006 42 10000 3.13 343 14:42 28.08.2022
2034 Clouds 22 1006 46 10000 4.02 278 12:48 28.08.2022
2035 Clouds 19 1012 65 10000 0.89 81 10:43 28.08.2022
2036 Clouds 17 1018 78 10000 0.45 79 09:54 28.08.2022
2037 Clouds 17 1012 71 10000 1.34 307 08:37 28.08.2022
2038 Clouds 16 1011 78 10000 1.34 320 07:45 28.08.2022
2039 Clouds 17 1011 78 10000 3.58 297 02:59 28.08.2022
2040 Clouds 18 1004 77 10000 0.89 343 00:29 28.08.2022
2041 Clouds 20 1010 80 10000 0.45 332 22:37 27.08.2022
2042 Clouds 20 1010 78 10000 5.36 303 21:40 27.08.2022
2043 Clouds 21 1009 77 10000 1.79 306 19:57 27.08.2022
2044 Clouds 22 1003 71 10000 2.68 359 18:27 27.08.2022
2045 Clouds 24 1014 79 10000 5.31 313 15:53 27.08.2022
2046 Clouds 21 1013 80 10000 5.22 309 15:25 27.08.2022
2047 Clouds 23 1002 68 10000 0.89 15 12:30 27.08.2022
2048 Clouds 21 1013 86 10000 4.32 304 11:47 27.08.2022
2049 Clouds 21 1008 84 10000 2.24 333 09:50 27.08.2022
2050 Clouds 21 1001 82 10000 3.58 299 08:45 27.08.2022
2051 Clouds 20 1000 82 10000 0.89 326 03:58 27.08.2022
2052 Clouds 21 1007 83 10000 2.2 302 23:58 26.08.2022
2053 Clouds 22 1007 82 10000 1.34 319 23:23 26.08.2022
2054 Clouds 22 1000 71 10000 2.02 302 21:39 26.08.2022
2055 Clouds 24 999 61 10000 0.89 97 19:24 26.08.2022
2056 Rain 30 1010 38 10000 2.38 20 17:25 26.08.2022
2057 Clouds 31 1011 36 10000 2.5 16 15:35 26.08.2022
2058 Clouds 32 999 37 10000 1.34 323 14:42 26.08.2022
2059 Clouds 29 1000 46 10000 1.34 230 12:54 26.08.2022
2060 Clouds 28 1001 52 10000 1.79 347 11:37 26.08.2022
2061 Clouds 27 1002 57 10000 1.58 70 10:47 26.08.2022
2062 Clouds 21 1002 79 10000 1.78 112 07:37 26.08.2022
2063 Clouds 20 1003 79 10000 1.7 88 02:43 26.08.2022
2064 Clouds 23 1003 70 10000 2.73 70 23:45 25.08.2022
2065 Clouds 24 1003 64 10000 2.98 65 21:46 25.08.2022
2066 Clouds 25 1003 60 10000 2.73 69 20:51 25.08.2022
2067 Clouds 27 1003 51 10000 2.1 78 19:25 25.08.2022
2068 Clouds 29 1010 51 10000 2.58 91 18:28 25.08.2022
2069 Clouds 29 1003 44 10000 2.24 105 17:31 25.08.2022
2070 Clouds 29 1004 43 10000 3.58 141 16:27 25.08.2022
2071 Clouds 28 1005 47 10000 4.92 35 15:28 25.08.2022
2072 Clouds 28 1006 48 10000 2.68 83 12:56 25.08.2022
2073 Clouds 25 1007 62 10000 2.24 9 10:49 25.08.2022
2074 Clouds 26 1008 54 10000 3.08 82 09:44 25.08.2022
2075 Clouds 20 1008 85 10000 1.69 62 07:31 25.08.2022
2076 Clouds 19 1008 78 10000 1.99 75 02:29 25.08.2022
2077 Clouds 21 1008 67 10000 2.77 81 23:29 24.08.2022
2078 Clouds 21 1008 64 10000 2.77 81 22:46 24.08.2022
2079 Clouds 22 1008 57 10000 3.07 69 21:39 24.08.2022
2080 Clouds 23 1008 55 10000 3.35 75 21:20 24.08.2022
2081 Clouds 26 1007 44 10000 2.45 69 19:43 24.08.2022
2082 Clouds 29 1014 37 10000 2.24 2 16:51 24.08.2022
2083 Clouds 29 1014 36 10000 4.47 114 15:53 24.08.2022
2084 Clouds 29 1015 34 10000 0.45 208 14:58 24.08.2022
2085 Clear 26 1008 44 10000 2.46 84 12:28 24.08.2022
2086 Clear 25 1009 51 10000 2.32 80 11:18 24.08.2022
2087 Clouds 19 1021 68 10000 1.49 83 08:45 24.08.2022
2088 Clouds 15 1014 86 10000 1.55 112 05:26 24.08.2022
2089 Clouds 17 1014 73 10000 2.56 145 00:53 24.08.2022
2090 Clouds 20 1014 64 10000 2.85 143 22:38 23.08.2022
2091 Clouds 21 1014 58 10000 2.78 143 21:55 23.08.2022
2092 Clouds 23 1013 50 10000 2.69 127 20:43 23.08.2022
2093 Clear 26 1012 41 10000 1.34 9 19:18 23.08.2022
2094 Clear 27 1012 36 10000 0.89 177 17:59 23.08.2022
2095 Clear 29 1012 35 10000 4.92 28 17:22 23.08.2022
2096 Clear 29 1012 33 10000 0.89 345 16:24 23.08.2022
2097 Clear 27 1013 38 10000 2.7 80 14:30 23.08.2022
2098 Clear 26 1007 40 10000 1.79 15 12:46 23.08.2022
2099 Clear 23 1007 51 10000 2.81 94 10:58 23.08.2022
2100 Clear 23 1007 52 10000 1.79 46 10:33 23.08.2022
2101 Clear 19 1019 55 10000 2.81 107 09:32 23.08.2022
2102 Clear 18 1019 62 10000 2.09 111 08:46 23.08.2022
2103 Clouds 15 1019 66 10000 2.06 147 08:19 23.08.2022
2104 Clouds 16 1007 82 10000 2.06 147 07:33 23.08.2022
2105 Clouds 14 1006 84 10000 2.39 142 06:23 23.08.2022
2106 Clouds 17 1006 71 10000 2.9 146 01:49 23.08.2022
2107 Clouds 18 1005 67 10000 3.25 136 00:27 23.08.2022
2108 Clouds 19 1005 63 10000 3.25 136 23:32 22.08.2022
2109 Clouds 20 1005 55 10000 3.23 122 22:25 22.08.2022
2110 Clouds 22 1005 48 10000 3.03 107 20:53 22.08.2022
2111 Clouds 24 1004 41 10000 3.13 110 19:46 22.08.2022
2112 Clouds 25 1004 38 10000 3.13 8 18:37 22.08.2022
2113 Clouds 26 1010 40 10000 2.24 80 16:23 22.08.2022
2114 Clouds 27 1010 38 10000 2.24 112 15:22 22.08.2022
2115 Clouds 27 1005 33 10000 0.45 350 12:55 22.08.2022
2116 Clouds 19 1017 53 10000 1.94 115 09:57 22.08.2022
2117 Clear 14 1011 89 10000 0.72 289 07:21 22.08.2022
2118 Clear 15 1010 82 10000 1.01 213 02:50 22.08.2022
2119 Clear 17 1010 73 10000 1.32 296 00:37 22.08.2022
2120 Clear 18 1010 67 10000 0.33 291 23:43 21.08.2022
2121 Clear 20 1010 59 10000 1.09 345 21:57 21.08.2022
2122 Clear 21 1010 56 10000 1.8 322 21:21 21.08.2022
2123 Clouds 23 1009 47 10000 0.89 231 20:26 21.08.2022
2124 Clouds 25 1009 43 10000 0.89 23 19:18 21.08.2022
2125 Clouds 27 1003 33 10000 4.02 320 16:52 21.08.2022
2126 Clouds 28 1003 31 10000 2.68 275 15:53 21.08.2022
2127 Clouds 29 1003 29 10000 0.89 273 15:18 21.08.2022
2128 Clouds 25 1010 40 10000 3.13 132 13:51 21.08.2022
2129 Clouds 25 1010 43 10000 0.45 220 12:57 21.08.2022
2130 Clouds 22 1011 53 10000 1.34 156 10:49 21.08.2022
2131 Clouds 18 1017 70 10000 1.06 238 09:24 21.08.2022
2132 Clouds 17 1017 75 10000 1.06 238 08:56 21.08.2022
2133 Clouds 17 1017 77 10000 0.51 205 08:38 21.08.2022
2134 Clouds 16 1011 81 10000 0.94 311 07:26 21.08.2022
2135 Clouds 18 1004 71 10000 2.25 2 03:24 21.08.2022
2136 Clouds 18 1011 84 10000 2.44 345 23:45 20.08.2022
2137 Clouds 19 1011 82 10000 1.91 359 22:24 20.08.2022
2138 Clouds 20 1004 78 10000 2.29 337 21:26 20.08.2022
2139 Clouds 22 1004 65 10000 1.34 286 19:58 20.08.2022
2140 Clouds 23 1004 64 10000 1.97 337 19:40 20.08.2022
2141 Clouds 23 1004 61 8117 1.79 341 18:27 20.08.2022
2142 Clouds 24 1003 58 8117 4.47 15 17:40 20.08.2022
2143 Clouds 23 1015 72 9172 3.49 334 16:49 20.08.2022
2144 Clouds 24 1010 61 10000 1.34 320 15:26 20.08.2022
2145 Clouds 24 1010 62 10000 2.68 8 12:52 20.08.2022
2146 Clouds 23 1009 65 10000 0.45 14 11:47 20.08.2022
2147 Clouds 21 1015 86 10000 2.21 286 09:34 20.08.2022
2148 Clouds 20 1009 86 10000 1.94 280 08:29 20.08.2022
2149 Clouds 19 1002 93 10000 2.12 278 05:51 20.08.2022
2150 Rain 20 1001 84 10000 1.95 267 00:59 20.08.2022
2151 Rain 20 1001 84 10000 1.95 267 00:59 20.08.2022
2152 Rain 20 1001 82 10000 1.95 267 00:34 20.08.2022
2153 Clouds 21 1001 80 10000 1.69 294 22:59 19.08.2022
2154 Clouds 21 1001 75 10000 0.48 301 21:40 19.08.2022
2155 Clouds 22 1000 69 10000 1.79 310 19:54 19.08.2022
2156 Clouds 23 1001 62 10000 2.68 311 17:19 19.08.2022
2157 Clouds 20 1012 84 10000 2.72 309 14:54 19.08.2022
2158 Clouds 22 1007 79 10000 0.89 116 12:49 19.08.2022
2159 Clouds 19 1001 97 10000 4.51 303 10:52 19.08.2022
2160 Clouds 19 1000 97 10000 4.2 314 10:19 19.08.2022
2161 Clouds 19 998 98 10000 4.02 335 05:58 19.08.2022
2162 Rain 21 999 85 10000 0.89 258 00:56 19.08.2022
2163 Clouds 21 998 85 10000 4.02 321 00:26 19.08.2022
2164 Clouds 21 998 96 10000 0.89 314 23:37 18.08.2022
2165 Clouds 22 1005 86 10000 0.45 223 22:38 18.08.2022
2166 Rain 23 1011 72 10000 3.58 320 21:55 18.08.2022
2167 Rain 24 1005 66 10000 4.02 334 21:26 18.08.2022
2168 Clouds 25 997 54 10000 2.24 338 19:56 18.08.2022
2169 Clouds 26 997 53 10000 1.34 293 19:26 18.08.2022
2170 Rain 26 1011 80 10000 4.16 322 17:49 18.08.2022
2171 Clouds 27 1012 54 10000 0.45 224 16:55 18.08.2022
2172 Clouds 27 1006 49 10000 1.79 170 14:42 18.08.2022
2173 Clouds 27 1012 56 10000 0.45 48 14:19 18.08.2022
2174 Clouds 27 1012 59 10000 0.45 359 12:55 18.08.2022
2175 Clouds 26 999 50 10000 3.13 272 11:31 18.08.2022
2176 Clouds 24 1000 58 10000 2.24 319 09:43 18.08.2022
2177 Clouds 22 999 68 10000 0.45 282 08:39 18.08.2022
2178 Clouds 20 1005 79 10000 1.79 237 07:19 18.08.2022
2179 Clouds 20 1004 75 10000 2.61 302 03:53 18.08.2022
2180 Clouds 24 997 52 10000 0.99 353 23:34 17.08.2022
2181 Clouds 26 1011 54 10000 0.9 28 21:40 17.08.2022
2182 Clouds 28 997 35 10000 0.37 276 20:18 17.08.2022
2183 Clouds 29 997 31 10000 1.96 124 19:28 17.08.2022
2184 Clouds 32 997 25 10000 2.3 118 17:35 17.08.2022
2185 Clouds 32 1005 30 10000 2.24 83 16:22 17.08.2022
2186 Clouds 32 1005 30 10000 2.24 83 16:22 17.08.2022
2187 Clouds 32 1005 31 10000 1.79 33 15:26 17.08.2022
2188 Clouds 32 999 27 10000 2.24 128 12:57 17.08.2022
2189 Clouds 30 999 33 10000 0.45 138 11:37 17.08.2022
2190 Clouds 23 1012 52 10000 1.68 72 09:31 17.08.2022
2191 Clouds 22 1012 59 10000 1.28 65 08:24 17.08.2022
2192 Clouds 19 998 78 10000 1.01 72 03:36 17.08.2022
2193 Clouds 21 998 68 10000 0.88 139 00:19 17.08.2022
2194 Clouds 23 998 61 10000 0.73 117 22:35 16.08.2022
2195 Clouds 26 997 50 10000 0.3 279 20:58 16.08.2022
2196 Clouds 26 997 47 10000 1.1 303 19:54 16.08.2022
2197 Clouds 28 996 37 10000 3.13 166 18:43 16.08.2022
2198 Clouds 30 996 32 10000 1.34 163 17:43 16.08.2022
2199 Clouds 31 996 32 10000 0.89 184 15:52 16.08.2022
2200 Clouds 30 1003 40 10000 0.89 147 14:55 16.08.2022
2201 Clouds 29 1003 42 10000 1.79 211 14:37 16.08.2022
2202 Clouds 29 1003 42 10000 1.79 197 13:40 16.08.2022
2203 Clear 27 997 49 10000 0.89 228 11:30 16.08.2022
2204 Clear 23 1008 53 10000 2.46 234 09:51 16.08.2022
2205 Clear 23 1008 63 10000 2.52 235 08:48 16.08.2022
2206 Clouds 19 1008 97 10000 2.07 231 08:18 16.08.2022
2207 Clouds 18 1001 95 10000 1.88 241 04:25 16.08.2022
2208 Clouds 20 1001 95 10000 3.39 268 22:55 15.08.2022
2209 Clouds 20 1000 95 10000 4.24 266 21:56 15.08.2022
2210 Clouds 20 1000 95 10000 4.24 265 21:36 15.08.2022
2211 Clouds 20 999 95 10000 2.66 223 20:29 15.08.2022
2212 Rain 21 992 97 10000 2.48 201 18:46 15.08.2022
2213 Rain 21 992 94 9207 1.79 296 17:56 15.08.2022
2214 Clouds 29 1002 31 10000 1.5 121 16:23 15.08.2022
2215 Clouds 30 1003 46 10000 0.89 41 14:40 15.08.2022
2216 Clear 31 991 34 10000 1.79 70 13:19 15.08.2022
2217 Clear 28 992 44 10000 2.24 122 10:36 15.08.2022
2218 Clouds 22 999 70 10000 1.79 110 08:54 15.08.2022
2219 Clouds 19 999 77 10000 0.45 359 06:49 15.08.2022
2220 Clear 19 1000 76 10000 2.42 129 03:56 15.08.2022
2221 Clouds 22 1001 63 10000 1.34 101 23:38 14.08.2022
2222 Clouds 25 1001 53 10000 3.84 93 21:48 14.08.2022
2223 Clouds 26 994 47 10000 3.25 71 20:54 14.08.2022
2224 Clouds 28 995 44 10000 4.59 76 19:45 14.08.2022
2225 Clouds 30 995 34 10000 3.58 166 18:32 14.08.2022
2226 Clouds 31 995 32 10000 2.68 9 17:41 14.08.2022
2227 Clouds 32 996 28 10000 4.47 18 16:26 14.08.2022
2228 Clouds 32 996 30 10000 2.24 138 15:43 14.08.2022
2229 Clouds 31 998 31 10000 2.24 359 13:52 14.08.2022
2230 Clouds 31 998 31 10000 6.26 95 13:34 14.08.2022
2231 Clouds 29 1012 48 10000 1.34 184 12:54 14.08.2022
2232 Clouds 28 1007 51 10000 3.13 101 11:31 14.08.2022
2233 Clouds 26 1007 60 10000 2.68 107 10:18 14.08.2022
2234 Clouds 20 1008 82 10000 2.84 100 08:20 14.08.2022
2235 Clouds 19 1008 87 10000 1.7 101 06:20 14.08.2022
2236 Clouds 20 1009 77 10000 1.5 93 02:35 14.08.2022
2237 Clouds 21 1010 73 10000 2.7 82 23:23 13.08.2022
2238 Clouds 22 1010 71 10000 3.27 76 22:28 13.08.2022
2239 Clouds 24 1010 60 10000 2.06 66 20:58 13.08.2022
2240 Clouds 26 1003 50 10000 2.24 359 20:19 13.08.2022
2241 Clouds 26 1003 50 10000 3.82 87 19:20 13.08.2022
2242 Clouds 25 1004 62 10000 1.34 348 17:36 13.08.2022
2243 Clouds 28 1005 39 10000 3.58 91 15:23 13.08.2022
2244 Clouds 27 1012 47 10000 4.47 119 14:24 13.08.2022
2245 Clouds 27 1013 48 10000 6.71 73 13:38 13.08.2022
2246 Clouds 28 1013 43 10000 3.58 53 11:51 13.08.2022
2247 Clear 24 1019 57 10000 3.02 91 09:57 13.08.2022
2248 Clouds 23 1006 48 10000 2.07 65 07:51 13.08.2022
2249 Clouds 18 1013 64 10000 1.94 36 04:21 13.08.2022
2250 Clear 21 1014 51 10000 1.35 110 23:47 12.08.2022
2251 Clear 23 1013 44 10000 2.59 128 21:42 12.08.2022
2252 Clear 26 1006 34 10000 3.45 126 20:40 12.08.2022
2253 Clouds 27 1013 30 10000 3.58 76 19:36 12.08.2022
2254 Clouds 28 1013 29 10000 2.68 153 18:46 12.08.2022
2255 Clouds 31 1014 24 10000 3.13 186 16:37 12.08.2022
2256 Clouds 31 1014 23 10000 4.92 93 15:40 12.08.2022
2257 Clear 30 1015 24 10000 2.24 156 14:27 12.08.2022
2258 Clear 29 1016 27 10000 4.92 112 12:53 12.08.2022
2259 Clear 29 1016 27 10000 4.92 112 12:53 12.08.2022
2260 Clear 23 1022 45 10000 3.22 116 09:52 12.08.2022
2261 Clear 19 1010 52 10000 1.73 124 07:47 12.08.2022
2262 Clear 15 1016 67 10000 1.51 127 06:38 12.08.2022
2263 Clear 18 1016 54 10000 1.82 127 02:33 12.08.2022
2264 Clouds 21 1016 48 10000 2.68 138 00:26 12.08.2022
2265 Clouds 21 1016 46 10000 2.68 138 23:35 11.08.2022
2266 Clouds 23 1015 40 10000 3.28 105 22:26 11.08.2022
2267 Clouds 24 1008 33 10000 3.28 105 21:43 11.08.2022
2268 Clouds 26 1008 29 10000 0.89 33 20:51 11.08.2022
2269 Clouds 27 1008 27 10000 0.45 29 20:19 11.08.2022
2270 Clouds 28 1008 26 10000 1.79 25 19:32 11.08.2022
2271 Clouds 30 1008 20 10000 2.24 79 17:48 11.08.2022
2272 Clouds 31 1009 19 10000 2.68 103 16:37 11.08.2022
2273 Clouds 31 1009 20 10000 2.24 57 15:24 11.08.2022
2274 Clouds 29 1011 23 10000 3.13 300 13:37 11.08.2022
2275 Clouds 26 1012 39 10000 2.41 71 10:58 11.08.2022
2276 Clear 19 1012 59 10000 1.34 355 07:47 11.08.2022
2277 Clear 17 1019 70 10000 1.36 47 03:54 11.08.2022
2278 Clear 18 1019 56 10000 2.64 50 00:50 11.08.2022
2279 Clear 21 1012 44 10000 2.2 51 22:36 10.08.2022
2280 Clear 23 1012 36 10000 2.31 38 21:34 10.08.2022
2281 Clear 24 1012 33 10000 0.45 11 20:55 10.08.2022
2282 Clouds 26 1012 26 10000 1.34 56 19:32 10.08.2022
2283 Clouds 27 1012 24 10000 0.89 335 18:42 10.08.2022
2284 Clouds 28 1012 22 10000 2.91 48 16:55 10.08.2022
2285 Clouds 27 1014 29 10000 0.89 129 13:36 10.08.2022
2286 Clouds 27 1015 30 10000 3.13 26 12:46 10.08.2022
2287 Clouds 22 1027 46 10000 2.99 49 09:56 10.08.2022
2288 Clouds 20 1028 53 10000 2.82 55 08:35 10.08.2022
2289 Clouds 17 1016 71 10000 2.15 31 07:21 10.08.2022
2290 Clear 16 1015 66 10000 1.85 44 03:35 10.08.2022
2291 Clouds 19 1015 52 10000 1.79 296 23:58 09.08.2022
2292 Clouds 19 1015 51 10000 3.8 51 23:25 09.08.2022
2293 Clouds 22 1015 42 10000 3.68 17 21:37 09.08.2022
2294 Clouds 24 1014 35 10000 1.79 348 20:42 09.08.2022
2295 Clouds 27 1014 30 10000 3.13 338 18:48 09.08.2022
2296 Clouds 28 1021 31 10000 4.92 326 17:31 09.08.2022
2297 Clouds 28 1021 32 10000 2.41 21 17:31 09.08.2022
2298 Clouds 28 1014 27 10000 2.24 12 16:42 09.08.2022
2299 Clouds 29 1014 26 10000 2.24 304 15:59 09.08.2022
2300 Clouds 28 1015 27 10000 2.94 21 14:30 09.08.2022
2301 Clouds 24 1016 45 10000 2.68 11 10:45 09.08.2022
2302 Clear 21 1016 53 10000 3.46 30 08:52 09.08.2022
2303 Clear 19 1015 59 10000 3.32 11 07:54 09.08.2022
2304 Clouds 17 1014 68 10000 0.89 11 04:43 09.08.2022
2305 Clear 19 1014 50 10000 1.79 328 23:58 08.08.2022
2306 Clear 21 1013 45 10000 1.79 355 22:58 08.08.2022
2307 Clear 21 1013 43 10000 1.79 0 22:38 08.08.2022
2308 Clear 22 1013 39 10000 1.79 327 21:40 08.08.2022
2309 Clouds 25 1012 30 10000 3.58 359 19:58 08.08.2022
2310 Clouds 26 1012 29 10000 3.58 317 19:34 08.08.2022
2311 Clouds 27 1011 24 10000 2.68 22 17:56 08.08.2022
2312 Clouds 28 1012 23 10000 2.24 22 15:47 08.08.2022
2313 Clouds 27 1012 24 10000 2.68 352 14:46 08.08.2022
2314 Clear 26 1013 28 10000 0.45 230 12:30 08.08.2022
2315 Clear 21 1024 39 10000 2.33 14 10:28 08.08.2022
2316 Clear 17 1024 51 10000 1.6 5 07:51 08.08.2022
2317 Clear 14 1012 68 10000 1.25 48 03:42 08.08.2022
2318 Clear 17 1017 54 10000 2.23 37 23:28 07.08.2022
2319 Clear 20 1017 46 10000 1.97 29 21:41 07.08.2022
2320 Clear 21 1017 40 10000 0.45 282 20:55 07.08.2022
2321 Clouds 22 1017 37 10000 1.79 326 20:18 07.08.2022
2322 Clouds 23 1017 35 10000 1.67 49 19:51 07.08.2022
2323 Clouds 24 1010 28 10000 1.74 29 18:49 07.08.2022
2324 Clouds 26 1011 25 10000 3.58 73 17:22 07.08.2022
2325 Clouds 26 1010 25 10000 1.34 328 16:51 07.08.2022
2326 Clouds 26 1012 24 10000 1.34 283 15:29 07.08.2022
2327 Clouds 24 1019 31 10000 2.24 93 13:55 07.08.2022
2328 Clouds 22 1014 34 10000 0.89 9 12:40 07.08.2022
2329 Clouds 21 1021 43 10000 0.4 85 10:48 07.08.2022
2330 Clouds 19 1026 54 10000 0.52 120 09:56 07.08.2022
2331 Clouds 12 1014 76 10000 0.7 24 04:37 07.08.2022
2332 Clear 13 1015 71 10000 1.52 359 02:18 07.08.2022
2333 Clear 16 1021 58 10000 2.25 11 22:34 06.08.2022
2334 Clear 18 1021 52 10000 2.61 2 21:52 06.08.2022
2335 Clouds 21 1014 39 10000 1.34 341 19:46 06.08.2022
2336 Clouds 22 1014 33 10000 3.58 343 18:38 06.08.2022
2337 Clouds 23 1014 30 10000 3.13 309 17:45 06.08.2022
2338 Clouds 23 1015 33 10000 1.79 23 16:24 06.08.2022
2339 Clouds 22 1015 37 10000 0.89 23 13:51 06.08.2022
2340 Clouds 21 1016 39 10000 1.79 320 12:27 06.08.2022
2341 Clear 21 1016 43 10000 2.68 358 11:21 06.08.2022
2342 Clear 17 1026 53 10000 3.8 322 09:41 06.08.2022
2343 Clouds 14 1014 79 10000 3.02 290 07:28 06.08.2022
2344 Clouds 15 1011 70 10000 1.34 347 01:47 06.08.2022
2345 Clouds 18 1008 74 10000 3.07 303 22:36 05.08.2022
2346 Clouds 19 1008 68 10000 1.34 256 21:34 05.08.2022
2347 Clouds 21 1006 61 10000 3.13 317 19:20 05.08.2022
2348 Clouds 21 1006 61 10000 4.92 331 18:44 05.08.2022
2349 Clouds 26 1014 59 10000 7.07 313 16:53 05.08.2022
2350 Rain 29 1013 47 10000 5.65 294 15:55 05.08.2022
2351 Clouds 28 1002 50 10000 3.58 317 15:19 05.08.2022
2352 Clouds 28 1002 52 10000 2.94 286 13:39 05.08.2022
2353 Clouds 27 1002 54 10000 0.45 204 13:20 05.08.2022
2354 Clouds 26 1001 58 10000 2.88 294 12:23 05.08.2022
2355 Clouds 23 1002 81 10000 1.34 279 10:25 05.08.2022
2356 Clouds 19 1000 93 10000 3.13 36 07:58 05.08.2022
2357 Clouds 22 999 71 10000 0.89 296 05:25 05.08.2022
2358 Clouds 27 999 45 10000 2.68 347 23:50 04.08.2022
2359 Clouds 29 999 36 10000 0.89 268 21:58 04.08.2022
2360 Clouds 30 1005 37 10000 1.79 354 21:25 04.08.2022
2361 Clouds 29 1010 44 10000 0.36 293 20:41 04.08.2022
2362 Clouds 33 997 22 10000 1.34 227 19:23 04.08.2022
2363 Clouds 35 998 20 10000 2.24 172 18:35 04.08.2022
2364 Clouds 37 998 17 10000 2.68 149 17:31 04.08.2022
2365 Clouds 36 1000 17 10000 3.58 169 13:44 04.08.2022
2366 Clouds 34 1000 18 10000 3.58 115 12:43 04.08.2022
2367 Clouds 32 1001 25 10000 1.79 111 10:50 04.08.2022
2368 Clear 28 1002 35 10000 1.97 153 07:52 04.08.2022
2369 Clear 19 1002 63 10000 1.83 173 04:43 04.08.2022
2370 Clouds 21 1002 56 10000 1.89 178 02:27 04.08.2022
2371 Clouds 24 1002 45 10000 1.13 144 23:44 03.08.2022
2372 Clouds 26 1002 39 10000 1.34 110 22:30 03.08.2022
2373 Clouds 28 1001 33 10000 1.49 67 20:45 03.08.2022
2374 Clouds 31 1001 26 10000 0.45 124 19:35 03.08.2022
2375 Clouds 33 1001 22 10000 1.12 286 18:23 03.08.2022
2376 Clouds 34 1002 21 10000 3.13 119 16:24 03.08.2022
2377 Clouds 33 1015 32 10000 1.34 10 14:51 03.08.2022
2378 Clouds 32 1003 25 10000 2.24 135 12:32 03.08.2022
2379 Clouds 24 1016 34 10000 2.99 185 08:54 03.08.2022
2380 Clear 19 1004 60 10000 2.58 189 04:47 03.08.2022
2381 Clear 19 1004 56 10000 2.55 184 03:37 03.08.2022
2382 Clouds 19 1005 53 10000 0.89 128 01:36 03.08.2022
2383 Clouds 20 1004 53 10000 0.38 261 23:27 02.08.2022
2384 Clouds 22 1011 48 10000 1.5 292 21:55 02.08.2022
2385 Clouds 24 1011 44 10000 1.5 292 21:33 02.08.2022
2386 Clouds 27 1004 31 10000 2.81 288 19:19 02.08.2022
2387 Clouds 29 1002 22 10000 0.45 266 16:42 02.08.2022
2388 Clouds 27 1006 37 10000 2.24 38 13:21 02.08.2022
2389 Clouds 21 1019 53 10000 1.87 178 09:53 02.08.2022
2390 Clouds 17 1020 62 10000 1.02 307 08:27 02.08.2022
2391 Clouds 18 1008 62 10000 1.39 305 07:50 02.08.2022
2392 Clouds 16 1007 71 10000 2.06 297 04:56 02.08.2022
2393 Clouds 17 1007 69 10000 0.45 326 01:58 02.08.2022
2394 Clouds 20 1006 62 10000 0.45 293 23:21 01.08.2022
2395 Clouds 21 1005 60 10000 2.75 291 21:19 01.08.2022
2396 Clouds 23 1005 51 10000 2.68 306 19:45 01.08.2022
2397 Clouds 24 1005 49 10000 1.79 259 18:53 01.08.2022
2398 Clouds 26 1004 43 10000 1.34 330 16:55 01.08.2022
2399 Clouds 26 1004 43 10000 1.34 330 16:55 01.08.2022
2400 Clouds 26 1004 43 10000 1.34 330 16:55 01.08.2022
2401 Clouds 26 1004 46 10000 4.92 287 16:29 01.08.2022
2402 Clouds 26 1004 47 10000 3.13 359 15:34 01.08.2022
2403 Clouds 26 1004 49 10000 3.58 328 14:44 01.08.2022
2404 Clouds 24 1004 53 10000 4.47 324 13:29 01.08.2022
2405 Clouds 22 1003 76 10000 0.45 218 10:48 01.08.2022
2406 Clouds 21 1003 73 10000 2.24 272 08:53 01.08.2022
2407 Clouds 20 1002 83 10000 1.79 251 06:51 01.08.2022
2408 Clouds 20 1001 79 10000 0.89 215 04:32 01.08.2022
2409 Clouds 20 1001 77 10000 1.34 232 01:23 01.08.2022
2410 Clouds 22 1002 63 10000 1.28 277 22:44 31.07.2022
2411 Rain 22 1002 58 10000 1.39 316 22:25 31.07.2022
2412 Clouds 24 1014 69 10000 1.6 334 20:39 31.07.2022
2413 Clouds 28 1001 33 10000 0.45 145 18:40 31.07.2022
2414 Clouds 30 1001 27 10000 0.89 309 16:55 31.07.2022
2415 Clouds 29 1003 31 10000 0.89 217 14:37 31.07.2022
2416 Clouds 27 1002 32 10000 2.24 210 12:58 31.07.2022
2417 Clouds 26 1005 41 10000 2.68 196 11:39 31.07.2022
2418 Clouds 22 1006 61 10000 3.04 290 08:47 31.07.2022
2419 Clouds 16 1005 90 10000 2.72 291 05:38 31.07.2022
2420 Clouds 17 1006 81 10000 0.99 251 01:21 31.07.2022
2421 Clouds 19 1006 70 10000 1.56 209 22:46 30.07.2022
2422 Clouds 21 1018 78 10000 0.96 236 21:52 30.07.2022
2423 Clouds 21 1018 78 10000 0.96 236 21:33 30.07.2022
2424 Clouds 21 1017 79 10000 1.65 294 20:38 30.07.2022
2425 Clouds 19 1017 76 10000 1.13 242 19:50 30.07.2022
2426 Clouds 18 1017 80 10000 4.4 296 18:19 30.07.2022
2427 Clouds 18 1017 85 10000 5.03 302 16:40 30.07.2022
2428 Clouds 22 1017 86 10000 3.98 295 15:33 30.07.2022
2429 Clouds 21 1017 81 10000 2.29 290 14:23 30.07.2022
2430 Clouds 21 1005 96 10000 0.89 101 12:32 30.07.2022
2431 Clouds 19 1005 97 10000 1.75 341 11:55 30.07.2022
2432 Rain 18 1005 97 10000 0.89 83 10:20 30.07.2022
2433 Rain 17 1004 96 10000 0.89 11 09:32 30.07.2022
2434 Rain 18 1005 84 10000 1.34 142 07:44 30.07.2022
2435 Clouds 17 1015 79 10000 2.52 45 02:34 30.07.2022
2436 Clouds 18 1016 71 10000 0.09 131 00:32 30.07.2022
2437 Clouds 24 1003 38 10000 0.89 292 21:39 29.07.2022
2438 Clouds 27 1015 37 10000 0.89 0 20:57 29.07.2022
2439 Clouds 28 1015 35 10000 1.34 359 19:48 29.07.2022
2440 Clouds 29 1009 26 10000 1.79 79 17:40 29.07.2022
2441 Clouds 29 1004 24 10000 1.79 189 14:53 29.07.2022
2442 Clouds 25 1011 38 10000 3.13 21 12:58 29.07.2022
2443 Clouds 21 1006 46 10000 3.07 63 09:35 29.07.2022
2444 Clouds 16 1018 68 10000 0.89 49 08:46 29.07.2022
2445 Clouds 16 1012 66 10000 1.79 40 07:39 29.07.2022
2446 Clouds 16 1008 58 10000 2.7 76 01:46 29.07.2022
2447 Clouds 20 1013 48 10000 1.79 304 21:57 28.07.2022
2448 Clouds 22 1018 44 10000 2.68 341 20:55 28.07.2022
2449 Clouds 22 1012 40 10000 3.36 41 20:22 28.07.2022
2450 Clouds 23 1006 34 10000 0.45 60 19:42 28.07.2022
2451 Clouds 24 1006 31 10000 2.68 15 18:27 28.07.2022
2452 Clouds 24 1006 30 10000 1.79 330 17:43 28.07.2022
2453 Clouds 24 1007 30 10000 1.79 134 16:41 28.07.2022
2454 Clear 23 1014 37 10000 1.34 37 14:58 28.07.2022
2455 Clouds 22 1009 39 10000 2.68 166 12:51 28.07.2022
2456 Clouds 18 1020 57 10000 2.26 22 09:45 28.07.2022
2457 Clouds 12 1009 76 10000 2.03 352 06:24 28.07.2022
2458 Clouds 11 1009 77 10000 2.01 349 05:26 28.07.2022
2459 Clear 14 1008 63 10000 2.67 342 00:45 28.07.2022
2460 Clear 16 1007 55 10000 3.64 347 22:34 27.07.2022
2461 Clouds 18 1007 48 10000 0.89 358 21:27 27.07.2022
2462 Clouds 21 1006 39 10000 1.79 316 19:37 27.07.2022
2463 Clouds 23 1006 33 10000 2.24 5 17:38 27.07.2022
2464 Clear 24 1006 29 10000 2.24 303 15:52 27.07.2022
2465 Clear 23 1007 32 10000 1.79 5 14:55 27.07.2022
2466 Clear 24 1007 30 10000 0.89 183 14:33 27.07.2022
2467 Clouds 21 1013 41 10000 1.34 215 12:49 27.07.2022
2468 Clouds 16 1018 68 10000 4.07 295 07:53 27.07.2022
2469 Clouds 16 1018 68 10000 4.07 295 07:53 27.07.2022
2470 Clouds 13 1006 74 10000 2.57 301 06:21 27.07.2022
2471 Clouds 16 1005 60 10000 0.89 285 01:35 27.07.2022
2472 Clouds 19 1004 55 10000 0.45 357 22:26 26.07.2022
2473 Clouds 21 1004 50 10000 1.79 341 21:20 26.07.2022
2474 Clouds 21 1010 53 10000 1.79 310 20:28 26.07.2022
2475 Clouds 22 1009 51 10000 0.89 235 18:43 26.07.2022
2476 Clouds 23 1009 53 10000 0.89 43 17:59 26.07.2022
2477 Clouds 22 1009 56 10000 2.68 287 16:31 26.07.2022
2478 Clouds 22 1009 60 10000 1.79 333 15:36 26.07.2022
2479 Clouds 22 1003 56 10000 3.58 21 13:46 26.07.2022
2480 Clouds 25 1007 53 10000 1.34 9 11:39 26.07.2022
2481 Clouds 23 1012 58 10000 6.54 278 09:32 26.07.2022
2482 Clouds 18 1000 83 10000 3.58 237 07:31 26.07.2022
2483 Clouds 20 998 91 10000 2.82 297 00:57 26.07.2022
2484 Clouds 20 997 92 10000 1.79 334 23:33 25.07.2022
2485 Rain 21 997 96 10000 1.34 338 22:33 25.07.2022
2486 Rain 20 1009 89 10000 4.11 283 21:43 25.07.2022
2487 Clouds 21 1008 84 10000 4.37 284 20:42 25.07.2022
2488 Clouds 24 1007 87 10000 4.76 318 19:51 25.07.2022
2489 Clouds 31 1004 29 10000 4.67 259 18:23 25.07.2022
2490 Rain 33 994 23 10000 3.58 295 17:33 25.07.2022
2491 Clouds 36 994 20 10000 3.58 166 15:37 25.07.2022
2492 Clear 34 996 24 10000 1.34 214 12:33 25.07.2022
2493 Clear 32 998 28 10000 4.02 155 10:38 25.07.2022
2494 Clouds 19 1000 61 10000 0.45 49 06:52 25.07.2022
2495 Clouds 21 1004 52 10000 3.5 148 23:57 24.07.2022
2496 Clouds 22 1004 49 10000 3.41 135 23:21 24.07.2022
2497 Clouds 23 1003 45 10000 0.89 64 22:41 24.07.2022
2498 Clouds 24 1003 40 10000 0.45 90 21:30 24.07.2022
2499 Clouds 26 1003 36 10000 0.45 55 20:57 24.07.2022
2500 Clouds 27 1003 34 10000 0.89 73 20:32 24.07.2022
2501 Clouds 28 1004 29 10000 1.1 139 18:59 24.07.2022
2502 Clouds 30 1001 24 10000 2.24 280 16:53 24.07.2022
2503 Clouds 29 1006 25 10000 1.79 149 15:53 24.07.2022
2504 Clouds 29 1007 27 10000 2.68 16 14:41 24.07.2022
2505 Clouds 28 1007 31 10000 3.13 160 13:43 24.07.2022
2506 Clouds 27 1008 34 10000 2.24 83 12:19 24.07.2022
2507 Clouds 26 1008 38 10000 0.45 86 11:29 24.07.2022
2508 Clouds 23 1020 45 10000 1.75 204 09:33 24.07.2022
2509 Clear 18 1021 61 10000 1.67 195 07:53 24.07.2022
2510 Clear 14 1009 79 10000 1.25 186 06:55 24.07.2022
2511 Clear 14 1009 75 10000 1.13 285 02:52 24.07.2022
2512 Clear 18 1008 61 10000 2.5 342 22:45 23.07.2022
2513 Clear 22 1007 45 10000 2.24 309 20:47 23.07.2022
2514 Clear 24 1006 38 10000 1.79 311 18:59 23.07.2022
2515 Clear 24 1006 37 10000 1.34 104 18:18 23.07.2022
2516 Clear 26 1006 34 10000 2.68 22 17:25 23.07.2022
2517 Clear 26 1006 34 10000 2.68 179 16:22 23.07.2022
2518 Clear 25 1006 38 10000 1.79 225 15:21 23.07.2022
2519 Clear 26 1006 38 10000 4.47 307 14:52 23.07.2022
2520 Clouds 25 1006 41 10000 1.79 319 14:21 23.07.2022
2521 Clouds 23 1006 48 10000 3.13 359 11:55 23.07.2022
2522 Clouds 18 1017 62 10000 2.67 285 10:37 23.07.2022
2523 Clouds 17 1017 75 10000 2.28 302 09:38 23.07.2022
2524 Rain 17 1005 90 10000 2.33 312 07:18 23.07.2022
2525 Rain 18 1006 72 10000 2.29 298 03:37 23.07.2022
2526 Clouds 18 1006 70 10000 2.28 324 00:37 23.07.2022
2527 Clouds 20 1006 63 10000 1.34 285 21:36 22.07.2022
2528 Clouds 21 1006 58 10000 2.24 258 20:31 22.07.2022
2529 Clouds 23 1005 52 10000 1.34 269 18:56 22.07.2022
2530 Clouds 24 1006 48 10000 1.34 319 17:40 22.07.2022
2531 Clouds 26 1006 45 10000 3.13 358 16:26 22.07.2022
2532 Clouds 24 1007 47 10000 4.47 21 13:24 22.07.2022
2533 Clouds 22 1019 67 10000 4.8 282 10:40 22.07.2022
2534 Clouds 21 1007 74 10000 4.02 287 09:25 22.07.2022
2535 Clouds 21 1007 75 10000 1.79 207 08:26 22.07.2022
2536 Clouds 19 1005 77 10000 0.89 309 04:24 22.07.2022
2537 Clouds 21 1005 77 10000 3.6 255 23:45 21.07.2022
2538 Rain 22 1012 71 10000 0.89 311 22:20 21.07.2022
2539 Rain 26 1017 71 10000 5.53 284 20:36 21.07.2022
2540 Clouds 27 1004 40 10000 1.34 255 18:54 21.07.2022
2541 Clouds 31 1004 33 10000 3.58 317 17:29 21.07.2022
2542 Clouds 29 1011 43 10000 2.24 338 16:53 21.07.2022
2543 Clouds 29 1004 43 10000 1.79 214 14:52 21.07.2022
2544 Clouds 28 1004 44 10000 1.79 184 14:22 21.07.2022
2545 Clouds 30 1005 38 10000 5.36 95 12:27 21.07.2022
2546 Clouds 29 1005 41 10000 0.89 169 10:39 21.07.2022
2547 Clouds 26 1017 60 10000 4.71 277 09:18 21.07.2022
2548 Clouds 24 1005 56 10000 0.89 249 08:45 21.07.2022
2549 Rain 24 1016 72 10000 5.15 263 07:23 21.07.2022
2550 Clouds 23 1002 45 10000 6.35 266 03:55 21.07.2022
2551 Clouds 26 1001 35 10000 0.45 100 00:24 21.07.2022
2552 Clouds 28 1001 28 10000 0.45 32 22:21 20.07.2022
2553 Clouds 32 1001 20 10000 0.89 136 20:51 20.07.2022
2554 Clouds 34 1001 14 10000 1.79 76 19:50 20.07.2022
2555 Clouds 35 1001 13 10000 3.13 105 19:20 20.07.2022
2556 Clouds 36 1001 13 10000 3.13 175 18:33 20.07.2022
2557 Clouds 37 1002 12 10000 4.02 69 17:55 20.07.2022
2558 Clouds 38 1002 10 10000 3.13 211 16:42 20.07.2022
2559 Clouds 37 1003 13 10000 4.47 151 15:31 20.07.2022
2560 Clouds 37 1004 14 10000 4.47 23 14:18 20.07.2022
2561 Clear 34 1005 21 10000 1.79 79 11:33 20.07.2022
2562 Clear 34 1005 20 10000 1.79 180 08:50 20.07.2022
2563 Clear 20 1005 52 10000 1.92 145 03:47 20.07.2022
2564 Clouds 23 1005 39 10000 2.81 137 00:49 20.07.2022
2565 Clouds 24 1005 34 10000 3.19 117 23:41 19.07.2022
2566 Clouds 27 1005 29 10000 3.51 105 22:33 19.07.2022
2567 Clouds 29 1005 24 10000 2.24 63 21:31 19.07.2022
2568 Clouds 31 1005 21 10000 3.04 71 20:28 19.07.2022
2569 Clouds 32 1005 15 10000 2.92 60 18:58 19.07.2022
2570 Clouds 34 1005 11 10000 2.26 49 18:28 19.07.2022
2571 Clouds 36 1018 17 10000 0.45 46 16:37 19.07.2022
2572 Clouds 34 1019 19 10000 3.13 1 14:53 19.07.2022
2573 Clouds 31 1008 21 10000 2.68 62 11:43 19.07.2022
2574 Clouds 31 1008 25 10000 4.02 50 10:55 19.07.2022
2575 Clouds 27 1020 35 10000 1.18 334 09:25 19.07.2022
2576 Clouds 27 1020 35 10000 1.18 334 08:39 19.07.2022
2577 Clear 18 1008 61 10000 1.78 308 07:19 19.07.2022
2578 Clear 16 1008 66 10000 1.94 295 05:30 19.07.2022
2579 Clear 16 1008 65 10000 2.01 271 04:56 19.07.2022
2580 Clouds 19 1008 51 10000 0.95 224 01:50 19.07.2022
2581 Clouds 22 1008 45 10000 1.49 204 23:49 18.07.2022
2582 Clouds 22 1008 41 10000 1.32 166 23:18 18.07.2022
2583 Clouds 24 1015 41 10000 0.45 121 22:22 18.07.2022
2584 Clouds 27 1008 30 10000 0.11 220 20:51 18.07.2022
2585 Clouds 30 1015 26 10000 2.24 135 19:33 18.07.2022
2586 Clouds 31 1016 24 10000 2.24 208 17:52 18.07.2022
2587 Clouds 31 1016 23 10000 1.79 191 16:28 18.07.2022
2588 Clouds 30 1017 25 10000 1.34 211 15:19 18.07.2022
2589 Clouds 29 1018 26 10000 0.89 236 13:31 18.07.2022
2590 Clouds 27 1013 29 10000 0.45 71 11:31 18.07.2022
2591 Clouds 23 1025 37 10000 1.29 184 09:54 18.07.2022
2592 Clouds 21 1025 49 10000 0.92 208 07:49 18.07.2022
2593 Clouds 14 1014 66 10000 0.92 291 02:51 18.07.2022
2594 Clouds 18 1020 52 10000 2.28 314 22:55 17.07.2022
2595 Clouds 19 1020 49 10000 2.02 312 22:29 17.07.2022
2596 Clouds 19 1014 46 10000 2.02 312 21:35 17.07.2022
2597 Clouds 22 1013 37 10000 0.89 340 20:45 17.07.2022
2598 Clouds 23 1019 37 10000 0.89 328 19:50 17.07.2022
2599 Clouds 23 1013 31 10000 0.45 272 19:21 17.07.2022
2600 Clouds 24 1014 28 10000 4.02 0 17:43 17.07.2022
2601 Clouds 25 1014 27 10000 0.89 331 17:25 17.07.2022
2602 Clouds 25 1015 30 10000 2.24 317 16:33 17.07.2022
2603 Clouds 24 1015 31 10000 1.34 62 15:50 17.07.2022
2604 Clouds 23 1016 36 10000 1.79 327 13:51 17.07.2022
2605 Clouds 22 1016 40 10000 4.92 326 12:43 17.07.2022
2606 Clouds 18 1027 53 10000 3.32 292 10:21 17.07.2022
2607 Clouds 17 1016 57 10000 0.45 191 07:31 17.07.2022
2608 Clouds 12 1015 70 10000 2.79 278 02:35 17.07.2022
2609 Clouds 15 1014 57 10000 3.84 314 23:28 16.07.2022
2610 Clouds 13 1025 61 10000 3.84 314 22:43 16.07.2022
2611 Clear 19 1012 40 10000 1.79 303 20:45 16.07.2022
2612 Clouds 22 1010 32 10000 3.58 300 18:58 16.07.2022
2613 Clouds 23 1009 28 10000 6.26 306 17:48 16.07.2022
2614 Clouds 24 1010 26 10000 7.28 311 16:22 16.07.2022
2615 Clouds 22 1009 43 10000 3.58 320 13:35 16.07.2022
2616 Clouds 19 1019 57 10000 7.71 310 10:34 16.07.2022
2617 Clouds 18 1019 79 10000 6.93 283 09:28 16.07.2022
2618 Clouds 18 1007 64 10000 4.47 343 08:41 16.07.2022
2619 Rain 18 1019 76 10000 6.1 278 07:41 16.07.2022
2620 Clouds 15 1007 65 10000 0.45 254 03:39 16.07.2022
2621 Clouds 16 1008 64 10000 2.88 235 01:39 16.07.2022
2622 Clouds 17 1009 57 10000 2.98 264 23:21 15.07.2022
2623 Clouds 17 1020 67 10000 2.98 264 22:37 15.07.2022
2624 Clouds 18 1008 52 10000 0.45 179 20:47 15.07.2022
2625 Clouds 19 1009 47 10000 1.34 1 19:49 15.07.2022
2626 Clouds 21 1009 42 10000 6.26 300 18:32 15.07.2022
2627 Clouds 22 1009 39 10000 2.24 117 17:25 15.07.2022
2628 Clouds 21 1020 42 10000 6.01 288 14:45 15.07.2022
2629 Clouds 21 1010 41 10000 1.79 279 12:48 15.07.2022
2630 Clouds 20 1010 43 10000 1.34 221 10:53 15.07.2022
2631 Clouds 19 1021 58 10000 5.71 290 08:49 15.07.2022
2632 Clear 13 1008 80 10000 0.45 239 05:55 15.07.2022
2633 Clouds 14 1007 64 10000 3.46 285 00:52 15.07.2022
2634 Clouds 13 1019 78 10000 3.43 291 23:36 14.07.2022
2635 Clouds 17 1007 52 10000 2.24 320 22:42 14.07.2022
2636 Clouds 18 1006 44 10000 10.28 319 21:43 14.07.2022
2637 Clouds 18 1006 49 10000 1.79 309 21:25 14.07.2022
2638 Clouds 19 1005 48 10000 4.02 5 20:43 14.07.2022
2639 Clouds 21 1005 39 10000 3.58 345 20:19 14.07.2022
2640 Clouds 23 1004 36 10000 4.47 359 18:42 14.07.2022
2641 Clouds 26 1004 24 10000 0.45 121 16:22 14.07.2022
2642 Clouds 26 1005 26 10000 3.13 14 15:29 14.07.2022
2643 Clouds 24 1005 30 10000 0.89 347 13:53 14.07.2022
2644 Clouds 24 1005 30 10000 0.89 347 13:53 14.07.2022
2645 Clouds 23 1006 35 10000 1.79 331 12:53 14.07.2022
2646 Clouds 22 1007 39 10000 2.24 295 11:47 14.07.2022
2647 Clouds 22 1007 39 10000 6.26 314 11:23 14.07.2022
2648 Clouds 19 1019 52 10000 3.11 312 09:54 14.07.2022
2649 Clouds 17 1020 68 10000 3.08 333 07:47 14.07.2022
2650 Clouds 16 1019 76 10000 3.33 314 01:25 14.07.2022
2651 Clouds 16 1019 76 10000 3.33 314 00:53 14.07.2022
2652 Clouds 25 1018 63 10000 4.32 336 22:33 13.07.2022
2653 Clouds 25 1005 47 10000 3.58 321 21:59 13.07.2022
2654 Clouds 27 1005 44 10000 1.79 2 21:18 13.07.2022
2655 Clouds 27 1016 53 10000 4.78 276 19:34 13.07.2022
2656 Clouds 27 1016 60 10000 5.98 280 17:52 13.07.2022
2657 Clouds 30 1004 28 10000 0.89 326 16:46 13.07.2022
2658 Clouds 29 1017 33 10000 5.56 265 15:26 13.07.2022
2659 Clouds 28 1018 34 10000 3.9 246 13:24 13.07.2022
2660 Clouds 28 1007 33 10000 1.34 200 10:46 13.07.2022
2661 Clouds 24 1019 52 10000 2.75 227 10:28 13.07.2022
2662 Clouds 24 1019 52 10000 2.75 227 10:28 13.07.2022
2663 Clouds 24 1008 50 10000 1.34 127 09:27 13.07.2022
2664 Clouds 21 1009 60 10000 0.45 191 07:53 13.07.2022
2665 Clouds 17 1010 67 10000 0.89 201 03:34 13.07.2022
2666 Clouds 18 1011 58 10000 2.59 292 00:24 13.07.2022
2667 Clouds 21 1011 49 10000 3.01 292 22:19 12.07.2022
2668 Clouds 22 1011 44 10000 3.01 292 21:36 12.07.2022
2669 Clouds 24 1011 36 10000 3.09 289 20:42 12.07.2022
2670 Clouds 26 1011 32 10000 3.13 309 19:42 12.07.2022
2671 Clouds 27 1011 29 10000 2.68 350 18:25 12.07.2022
2672 Clouds 28 1012 29 10000 3.13 348 16:20 12.07.2022
2673 Clear 26 1012 33 10000 2.68 359 14:31 12.07.2022
2674 Clear 26 1013 36 10000 4.02 320 13:34 12.07.2022
2675 Clear 23 1013 46 10000 2.68 297 11:48 12.07.2022
2676 Clear 21 1025 54 10000 3.04 319 10:25 12.07.2022
2677 Clear 21 1025 67 10000 3.4 312 08:40 12.07.2022
2678 Clouds 18 1024 79 10000 3.31 308 07:48 12.07.2022
2679 Clouds 13 1013 89 10000 2.6 304 05:45 12.07.2022
2680 Clouds 13 1012 88 10000 2.73 302 04:46 12.07.2022
2681 Clouds 17 1012 80 10000 3.39 308 00:20 12.07.2022
2682 Clouds 18 1011 75 10000 0.89 94 22:39 11.07.2022
2683 Clouds 21 1010 53 10000 1.79 340 20:56 11.07.2022
2684 Clouds 22 1010 49 10000 0.89 184 20:32 11.07.2022
2685 Clouds 23 1010 39 10000 1.79 292 18:50 11.07.2022
2686 Clear 23 1010 38 10000 1.79 310 18:28 11.07.2022
2687 Clear 24 1010 29 10000 2.24 211 16:26 11.07.2022
2688 Clouds 23 1010 33 10000 4.02 220 15:23 11.07.2022
2689 Clouds 22 1011 40 10000 4.47 326 13:19 11.07.2022
2690 Clouds 20 1011 47 10000 1.79 296 11:23 11.07.2022
2691 Clouds 18 1021 53 10000 4.28 318 09:55 11.07.2022
2692 Clouds 16 1021 60 10000 4.67 319 09:27 11.07.2022
2693 Clouds 14 1021 75 10000 4.06 317 08:32 11.07.2022
2694 Clouds 13 1011 75 10000 3.63 293 01:20 11.07.2022
2695 Clouds 11 1021 76 10000 3.78 295 23:54 10.07.2022
2696 Clouds 12 1021 71 10000 3.54 298 22:45 10.07.2022
2697 Clouds 18 1020 54 10000 0.45 37 20:56 10.07.2022
2698 Clouds 19 1020 54 10000 0.89 84 20:36 10.07.2022
2699 Clouds 19 1020 50 10000 4.02 282 19:38 10.07.2022
2700 Clouds 20 1009 43 10000 2.24 310 18:35 10.07.2022
2701 Clouds 19 1020 47 10000 6.65 301 17:35 10.07.2022
2702 Clouds 17 1021 54 10000 6.1 317 16:24 10.07.2022
2703 Clouds 17 1021 52 10000 6.49 318 14:47 10.07.2022
2704 Clouds 21 1010 42 10000 4.47 326 13:31 10.07.2022
2705 Clouds 19 1010 48 10000 2.24 12 12:26 10.07.2022
2706 Clouds 17 1011 65 10000 1.79 269 09:47 10.07.2022
2707 Clouds 15 1011 73 10000 1.79 234 08:44 10.07.2022
2708 Clouds 13 1011 87 10000 0.89 177 07:24 10.07.2022
2709 Clouds 14 1011 65 10000 0.45 146 01:23 10.07.2022
2710 Clouds 17 1012 56 10000 1.34 221 22:27 09.07.2022
2711 Clouds 17 1011 56 10000 6.71 326 21:56 09.07.2022
2712 Clouds 19 1010 57 10000 3.58 319 20:23 09.07.2022
2713 Clouds 22 1009 51 10000 1.34 151 18:35 09.07.2022
2714 Clouds 22 1010 53 10000 2.24 310 17:33 09.07.2022
2715 Clouds 22 1010 57 10000 0.89 248 16:44 09.07.2022
2716 Clouds 24 1010 37 10000 2.24 337 15:40 09.07.2022
2717 Clouds 23 1011 46 10000 2.68 310 14:27 09.07.2022
2718 Clouds 24 1012 46 10000 3.13 310 13:49 09.07.2022
2719 Clouds 21 1013 58 10000 1.34 307 12:45 09.07.2022
2720 Clouds 21 1013 57 10000 5.71 282 11:22 09.07.2022
2721 Clouds 17 1024 75 10000 4.99 276 10:22 09.07.2022
2722 Clouds 16 1014 79 10000 1.79 333 07:45 09.07.2022
2723 Clouds 13 1014 91 10000 3.33 288 04:57 09.07.2022
2724 Clouds 14 1015 89 10000 3.43 290 01:50 09.07.2022
2725 Clouds 16 1015 80 10000 1.34 244 22:54 08.07.2022
2726 Clouds 17 1015 71 10000 3.26 262 21:43 08.07.2022
2727 Clouds 19 1015 64 10000 1.34 280 20:40 08.07.2022
2728 Clouds 21 1015 53 10000 5.81 53 19:53 08.07.2022
2729 Clouds 22 1016 50 10000 1.34 248 18:24 08.07.2022
2730 Clouds 21 1016 54 10000 1.79 317 16:40 08.07.2022
2731 Clouds 19 1026 63 10000 6.71 319 14:53 08.07.2022
2732 Clouds 23 1017 41 10000 3.13 276 13:41 08.07.2022
2733 Clouds 21 1017 45 10000 5.36 344 11:51 08.07.2022
2734 Clouds 18 1027 57 10000 6.37 299 10:29 08.07.2022
2735 Clouds 17 1016 64 10000 0.89 286 08:33 08.07.2022
2736 Clouds 16 1015 72 10000 0.89 5 06:50 08.07.2022
2737 Clouds 16 1013 72 10000 1.79 295 01:31 08.07.2022
2738 Clouds 16 1012 67 10000 3.58 256 23:22 07.07.2022
2739 Clouds 16 1011 68 10000 1.79 327 22:35 07.07.2022
2740 Clouds 17 1009 66 10000 0.89 103 20:36 07.07.2022
2741 Clouds 19 1007 69 10000 0.89 223 18:20 07.07.2022
2742 Clouds 20 1006 77 10000 3.58 245 16:57 07.07.2022
2743 Clouds 21 1005 69 10000 0.45 235 14:56 07.07.2022
2744 Clouds 18 1015 79 10000 5.77 272 13:25 07.07.2022
2745 Clouds 15 1015 90 10000 5.14 239 12:24 07.07.2022
2746 Clouds 15 1015 90 10000 5.14 239 11:46 07.07.2022
2747 Clouds 15 1015 94 10000 5.29 232 11:27 07.07.2022
2748 Rain 17 1005 85 10000 5.29 232 10:42 07.07.2022
2749 Rain 16 1005 86 5305 0.45 210 10:24 07.07.2022
2750 Rain 14 1005 89 10000 0.89 201 07:22 07.07.2022
2751 Rain 12 1019 91 10000 3.1 219 02:55 07.07.2022
2752 Clouds 16 1009 61 10000 3.2 220 23:37 06.07.2022
2753 Clouds 16 1009 58 10000 0.89 251 23:18 06.07.2022
2754 Clouds 16 1009 58 10000 2.4 226 22:56 06.07.2022
2755 Clouds 16 1009 56 10000 0.45 173 22:38 06.07.2022
2756 Clouds 16 1021 52 10000 2.07 297 20:54 06.07.2022
2757 Clouds 22 1010 37 10000 2.68 203 19:35 06.07.2022
2758 Clouds 22 1011 35 10000 3.58 287 17:32 06.07.2022
2759 Clouds 20 1022 41 10000 5.16 279 16:19 06.07.2022
2760 Clouds 19 1022 43 10000 5.47 301 14:46 06.07.2022
2761 Clouds 22 1011 39 10000 2.68 273 12:35 06.07.2022
2762 Clouds 21 1012 43 10000 0.45 64 11:49 06.07.2022
2763 Clouds 19 1012 46 10000 3.58 341 10:18 06.07.2022
2764 Clouds 15 1023 69 10000 5.47 290 07:46 06.07.2022
2765 Clouds 13 1022 79 10000 4.38 288 07:23 06.07.2022
2766 Clouds 17 1010 62 10000 2.24 341 03:24 06.07.2022
2767 Clouds 19 1009 43 10000 0.89 19 22:45 05.07.2022
2768 Clouds 17 1020 50 10000 3.29 316 21:39 05.07.2022
2769 Clouds 22 1008 34 10000 1.34 335 20:38 05.07.2022
2770 Clouds 23 1008 32 10000 2.24 1 19:41 05.07.2022
2771 Clouds 23 1008 32 10000 1.34 324 19:22 05.07.2022
2772 Clouds 25 1008 29 10000 2.24 359 17:47 05.07.2022
2773 Clouds 26 1008 29 10000 0.45 29 16:54 05.07.2022
2774 Clouds 25 1008 34 10000 1.34 328 15:25 05.07.2022
2775 Clouds 23 1020 37 10000 4.67 279 13:59 05.07.2022
2776 Clouds 24 1009 38 10000 0.89 263 12:43 05.07.2022
2777 Clouds 23 1009 42 10000 1.34 316 11:33 05.07.2022
2778 Clouds 22 1020 47 10000 3.08 297 10:40 05.07.2022
2779 Clear 20 1021 57 10000 2.75 319 09:22 05.07.2022
2780 Clear 18 1021 63 10000 2.48 318 07:47 05.07.2022
2781 Clear 14 1008 77 10000 2.07 343 04:51 05.07.2022
2782 Clear 15 1008 75 10000 1.79 343 04:23 05.07.2022
2783 Clouds 17 1007 62 10000 1.85 331 23:56 04.07.2022
2784 Clouds 18 1007 60 10000 2.78 342 23:26 04.07.2022
2785 Clouds 19 1006 54 10000 4.27 325 22:27 04.07.2022
2786 Clouds 20 1006 49 10000 4.27 325 21:41 04.07.2022
2787 Clouds 22 1006 40 10000 3.24 282 20:53 04.07.2022
2788 Clouds 23 1006 36 10000 2.24 285 20:33 04.07.2022
2789 Clear 24 1006 32 10000 1.79 307 19:54 04.07.2022
2790 Clear 24 1006 32 10000 1.79 29 19:35 04.07.2022
2791 Clear 25 1006 29 10000 0.45 172 17:58 04.07.2022
2792 Clear 26 1006 29 10000 1.34 259 15:58 04.07.2022
2793 Clear 27 1006 28 10000 1.79 265 15:33 04.07.2022
2794 Clear 26 1007 33 10000 2.68 317 13:29 04.07.2022
2795 Clear 25 1008 36 10000 4.47 323 12:21 04.07.2022
2796 Clear 21 1019 44 10000 4.74 282 10:34 04.07.2022
2797 Clear 20 1019 51 10000 4.93 288 09:41 04.07.2022
2798 Clouds 18 1008 66 10000 0.89 275 07:37 04.07.2022
2799 Clouds 16 1006 80 10000 0.89 231 04:48 04.07.2022
2800 Clouds 16 1016 79 10000 4.48 288 00:36 04.07.2022
2801 Clouds 18 1016 70 10000 3.09 327 22:59 03.07.2022
2802 Clouds 27 1002 36 10000 0.89 327 20:58 03.07.2022
2803 Clouds 23 1015 45 10000 5.77 319 20:31 03.07.2022
2804 Clouds 29 1002 29 10000 0.45 297 19:27 03.07.2022
2805 Clouds 30 1002 25 10000 0.89 45 18:43 03.07.2022
2806 Clouds 28 1014 35 10000 3.84 322 17:44 03.07.2022
2807 Clouds 30 1003 26 10000 1.79 258 15:54 03.07.2022
2808 Clouds 31 1003 22 10000 0.45 333 14:59 03.07.2022
2809 Clouds 32 1004 20 10000 1.34 230 14:20 03.07.2022
2810 Clear 31 1002 23 10000 2.68 146 13:48 03.07.2022
2811 Clear 29 1005 31 10000 3.13 100 12:33 03.07.2022
2812 Clear 28 1005 36 10000 1.34 104 11:29 03.07.2022
2813 Clear 30 1005 28 10000 2.68 90 10:39 03.07.2022
2814 Clear 26 1017 41 10000 4.17 164 09:42 03.07.2022
2815 Clear 21 1017 51 10000 4.23 156 07:35 03.07.2022
2816 Clear 21 1017 51 10000 4.23 156 07:35 03.07.2022
2817 Clear 17 1006 66 10000 1.79 187 04:22 03.07.2022
2818 Clear 18 1007 60 10000 3.21 147 00:22 03.07.2022
2819 Clear 20 1007 51 10000 0.89 359 22:34 02.07.2022
2820 Clear 22 1007 45 10000 0.45 93 21:38 02.07.2022
2821 Clear 26 1008 34 10000 3.58 182 19:52 02.07.2022
2822 Clear 26 1008 33 10000 1.79 131 19:23 02.07.2022
2823 Clear 27 1008 29 10000 2.68 145 17:51 02.07.2022
2824 Clear 27 1009 27 10000 1.34 193 17:33 02.07.2022
2825 Clear 27 1010 28 10000 1.34 83 15:28 02.07.2022
2826 Clear 26 1012 32 10000 1.34 175 12:22 02.07.2022
2827 Clear 25 1012 35 10000 2.57 222 11:27 02.07.2022
2828 Clear 23 1024 36 10000 2.57 222 10:46 02.07.2022
2829 Clear 22 1024 40 10000 1.98 214 09:37 02.07.2022
2830 Clear 20 1024 49 10000 2.03 231 08:36 02.07.2022
2831 Clear 17 1024 61 10000 1.73 254 08:18 02.07.2022
2832 Clear 12 1010 92 10000 0.45 91 02:52 02.07.2022
2833 Clouds 14 1010 90 10000 1.99 251 00:27 02.07.2022
2834 Clouds 15 1010 88 10000 0.89 176 22:59 01.07.2022
2835 Clouds 16 1009 86 10000 1.3 210 21:56 01.07.2022
2836 Clouds 17 1008 84 10000 1.3 210 21:37 01.07.2022
2837 Clouds 18 1008 77 10000 0.89 162 20:57 01.07.2022
2838 Clouds 14 1020 86 10000 1.27 258 19:47 01.07.2022
2839 Rain 14 1020 87 10000 2.49 279 18:42 01.07.2022
2840 Clouds 15 1018 87 10000 5.68 281 16:35 01.07.2022
2841 Clouds 19 1005 79 10000 0.45 287 13:55 01.07.2022
2842 Rain 17 1005 90 10000 3.58 231 13:22 01.07.2022
2843 Clouds 20 1016 68 10000 6.4 289 10:46 01.07.2022
2844 Rain 17 1003 90 10000 0.89 317 10:18 01.07.2022
2845 Rain 19 1000 92 10000 3.58 269 05:58 01.07.2022
2846 Clouds 19 1010 88 10000 2.93 134 01:30 01.07.2022
2847 Clouds 20 1010 81 10000 2.41 121 23:33 30.06.2022
2848 Clouds 21 1010 79 10000 1.86 107 22:47 30.06.2022
2849 Clouds 21 1010 76 10000 2.22 89 22:27 30.06.2022
2850 Clouds 21 1010 76 10000 2.22 89 21:51 30.06.2022
2851 Clouds 23 1010 70 10000 2.28 63 20:41 30.06.2022
2852 Clouds 23 1010 71 10000 0.41 125 19:55 30.06.2022
2853 Clouds 26 1010 56 10000 2.83 226 19:35 30.06.2022
2854 Clouds 26 1010 56 10000 2.81 226 18:49 30.06.2022
2855 Clouds 28 1010 47 10000 0.23 182 17:49 30.06.2022
2856 Clouds 32 998 31 10000 2.24 74 16:56 30.06.2022
2857 Clouds 31 998 32 10000 5.36 64 15:52 30.06.2022
2858 Clouds 30 999 36 10000 1.79 169 13:58 30.06.2022
2859 Clouds 30 999 36 10000 3.13 218 13:19 30.06.2022
2860 Clouds 29 1000 38 10000 1.79 173 12:33 30.06.2022
2861 Clouds 24 1013 55 10000 2.35 92 10:21 30.06.2022
2862 Clouds 24 1013 55 10000 2.35 92 09:41 30.06.2022
2863 Clouds 20 1013 66 10000 1.21 95 08:31 30.06.2022
2864 Clouds 20 1014 70 10000 1.97 76 07:41 30.06.2022
2865 Clouds 18 1001 67 10000 1.5 68 05:45 30.06.2022
2866 Clouds 17 1014 74 10000 2.26 66 23:39 29.06.2022
2867 Clouds 21 1002 51 10000 0.89 60 22:42 29.06.2022
2868 Clouds 21 1002 50 10000 0.45 50 22:19 29.06.2022
2869 Clouds 23 1002 39 10000 0.45 57 20:54 29.06.2022
2870 Clouds 24 1002 41 10000 3.13 25 20:32 29.06.2022
2871 Clouds 25 1002 37 10000 1.34 125 19:31 29.06.2022
2872 Clouds 26 1003 34 10000 2.24 142 17:39 29.06.2022
2873 Clouds 26 1004 36 10000 2.68 32 16:31 29.06.2022
2874 Rain 23 1005 48 10000 3.13 117 13:58 29.06.2022
2875 Rain 20 1017 71 10000 2.84 97 12:38 29.06.2022
2876 Clouds 23 1005 55 10000 4.02 69 10:19 29.06.2022
2877 Clouds 23 1006 54 10000 5.36 67 09:31 29.06.2022
2878 Clouds 17 1018 72 10000 3.36 93 07:23 29.06.2022
2879 Clouds 16 1005 70 10000 0.45 309 04:48 29.06.2022
2880 Clouds 18 1006 54 10000 3.06 67 00:55 29.06.2022
2881 Clouds 18 1006 53 10000 0.89 327 00:35 29.06.2022
2882 Clouds 20 1007 45 10000 2.59 33 22:53 28.06.2022
2883 Clouds 21 1007 39 10000 0.89 313 22:21 28.06.2022
2884 Clouds 19 1019 47 10000 2.95 9 21:50 28.06.2022
2885 Clouds 23 1006 35 10000 0.89 237 21:30 28.06.2022
2886 Clear 24 1006 32 10000 0.45 32 20:20 28.06.2022
2887 Clouds 25 1007 30 10000 2.68 81 19:32 28.06.2022
2888 Clouds 26 1007 28 10000 0.89 135 18:42 28.06.2022
2889 Clouds 27 1008 25 10000 2.24 152 17:37 28.06.2022
2890 Clouds 26 1008 27 10000 1.79 237 15:56 28.06.2022
2891 Clouds 26 1008 27 10000 1.79 237 15:56 28.06.2022
2892 Clouds 26 1009 29 10000 0.89 247 14:59 28.06.2022
2893 Clear 26 1010 30 10000 1.34 354 14:20 28.06.2022
2894 Clear 25 1010 32 10000 2.68 14 13:49 28.06.2022
2895 Clear 24 1010 37 10000 2.68 320 12:48 28.06.2022
2896 Clear 24 1010 46 10000 0.89 163 10:46 28.06.2022
2897 Clouds 19 1021 55 10000 4.89 297 09:25 28.06.2022
2898 Clouds 20 1010 65 10000 1.34 0 08:43 28.06.2022
2899 Clouds 18 1009 75 10000 1.34 23 07:26 28.06.2022
2900 Clouds 15 1021 91 10000 3.98 278 04:59 28.06.2022
2901 Clouds 20 1005 73 10000 4.6 280 23:59 27.06.2022
2902 Clouds 20 1005 71 10000 4.47 310 23:36 27.06.2022
2903 Clouds 17 1019 93 10000 4.55 273 22:51 27.06.2022
2904 Clouds 18 1018 93 10000 2.73 280 21:33 27.06.2022
2905 Clouds 19 1017 91 10000 4.55 289 20:48 27.06.2022
2906 Clouds 21 1015 89 8158 6.89 293 18:58 27.06.2022
2907 Clouds 24 1014 78 10000 8.2 286 18:19 27.06.2022
2908 Rain 29 1001 46 10000 3.58 223 16:19 27.06.2022
2909 Clouds 32 1000 38 10000 0.89 98 14:45 27.06.2022
2910 Clouds 32 1000 35 10000 2.24 275 13:35 27.06.2022
2911 Clouds 31 1000 39 10000 2.24 278 12:52 27.06.2022
2912 Clouds 25 1013 63 10000 0.88 18 10:23 27.06.2022
2913 Clouds 23 1013 73 10000 1.76 350 09:18 27.06.2022
2914 Clouds 19 1014 90 10000 2.65 351 08:19 27.06.2022
2915 Clouds 18 1014 92 10000 3.99 293 06:38 27.06.2022
2916 Clouds 17 1014 93 10000 0.88 29 02:28 27.06.2022
2917 Clouds 17 1015 95 10000 2.06 314 23:55 26.06.2022
2918 Clouds 19 1015 83 10000 5.27 353 21:59 26.06.2022
2919 Clouds 20 1015 76 10000 5.83 330 20:44 26.06.2022
2920 Clouds 23 1014 61 10000 5.85 316 19:40 26.06.2022
2921 Clouds 27 1013 43 10000 2.61 350 18:31 26.06.2022
2922 Clouds 33 1001 23 10000 0.89 142 16:45 26.06.2022
2923 Clouds 32 1001 25 10000 1.34 125 14:42 26.06.2022
2924 Clouds 31 1001 27 10000 0.45 255 13:41 26.06.2022
2925 Clouds 32 1001 26 10000 1.32 146 13:20 26.06.2022
2926 Clouds 31 1002 30 10000 1.25 186 11:26 26.06.2022
2927 Clouds 26 1014 47 10000 1.69 186 10:26 26.06.2022
2928 Clouds 26 1014 47 10000 1.69 186 09:34 26.06.2022
2929 Clouds 22 1014 62 10000 1.86 178 07:44 26.06.2022
2930 Clouds 21 1000 68 10000 0.52 7 01:55 26.06.2022
2931 Clouds 22 1000 62 10000 1.55 352 00:21 26.06.2022
2932 Clouds 23 1000 59 10000 1.55 352 23:49 25.06.2022
2933 Clouds 23 1000 57 10000 1.76 348 23:23 25.06.2022
2934 Clouds 24 1000 51 10000 1.92 334 22:27 25.06.2022
2935 Clouds 25 1000 49 10000 1.92 334 21:41 25.06.2022
2936 Clouds 26 999 47 10000 2.33 322 21:18 25.06.2022
2937 Clouds 27 999 38 10000 1.34 352 20:28 25.06.2022
2938 Clouds 24 1012 51 10000 3.21 319 19:42 25.06.2022
2939 Clouds 26 1011 46 10000 2.42 277 18:19 25.06.2022
2940 Clouds 27 1011 42 10000 2.01 275 17:24 25.06.2022
2941 Clouds 27 1011 41 10000 2.16 282 15:36 25.06.2022
2942 Clouds 28 1000 37 10000 2.43 273 13:48 25.06.2022
2943 Clouds 29 1000 36 10000 2.7 285 12:38 25.06.2022
2944 Clouds 27 1000 46 10000 4.02 285 10:58 25.06.2022
2945 Clouds 23 1012 59 10000 4.06 288 09:22 25.06.2022
2946 Clouds 26 1000 53 10000 0.89 230 08:46 25.06.2022
2947 Clouds 26 1000 53 10000 0.89 230 08:46 25.06.2022
2948 Clouds 22 1011 68 10000 3.76 282 08:19 25.06.2022
2949 Clouds 19 998 79 10000 0.89 300 05:23 25.06.2022
2950 Clouds 17 1010 92 10000 2.45 271 00:44 25.06.2022
2951 Clouds 17 1010 92 10000 2.45 271 00:44 25.06.2022
2952 Clouds 21 996 71 10000 3.12 280 23:18 24.06.2022
2953 Clouds 22 995 67 10000 3.11 263 21:57 24.06.2022
2954 Clouds 23 995 63 10000 3.23 236 21:19 24.06.2022
2955 Clouds 24 994 56 10000 3.4 217 20:20 24.06.2022
2956 Clouds 24 994 56 10000 3.4 217 20:20 24.06.2022
2957 Clouds 27 995 46 10000 0.89 74 19:22 24.06.2022
2958 Clouds 27 994 42 10000 4.47 142 18:50 24.06.2022
2959 Clouds 27 994 40 10000 3.13 162 18:30 24.06.2022
2960 Clouds 28 994 38 10000 2.68 214 17:46 24.06.2022
2961 Clouds 28 995 45 10000 6.6 186 15:56 24.06.2022
2962 Clouds 27 995 51 10000 1.34 29 14:29 24.06.2022
2963 Rain 25 995 55 10000 1.34 207 13:55 24.06.2022
2964 Clear 31 995 24 10000 3.58 182 12:26 24.06.2022
2965 Clear 31 995 22 10000 4.47 159 11:40 24.06.2022
2966 Clear 28 1008 36 10000 6.93 151 10:22 24.06.2022
2967 Clear 28 1008 36 10000 6.93 151 09:41 24.06.2022
2968 Clear 25 1009 44 10000 6.31 160 08:52 24.06.2022
2969 Clear 22 997 47 10000 3.58 138 07:20 24.06.2022
2970 Clear 19 997 60 10000 3.13 151 06:42 24.06.2022
2971 Clear 18 997 62 10000 1.79 155 06:18 24.06.2022
2972 Clear 19 998 56 10000 3.06 110 02:44 24.06.2022
2973 Clear 22 999 43 10000 3.14 89 22:58 23.06.2022
2974 Clear 23 999 41 10000 0.45 33 22:40 23.06.2022
2975 Clear 24 1011 43 10000 3.26 90 20:57 23.06.2022
2976 Clear 23 1012 45 10000 3.34 99 20:32 23.06.2022
2977 Clear 29 1000 22 10000 0.45 97 19:25 23.06.2022
2978 Clear 30 998 23 10000 1.79 153 17:52 23.06.2022
2979 Clouds 31 1000 22 10000 2.68 107 16:58 23.06.2022
2980 Clear 31 1001 20 10000 0.45 265 15:50 23.06.2022
2981 Clear 31 1001 22 10000 1.34 153 15:24 23.06.2022
2982 Clear 29 1002 25 10000 1.34 139 13:40 23.06.2022
2983 Clear 27 1003 38 10000 3.13 53 11:27 23.06.2022
2984 Clear 28 1004 32 10000 1.34 348 10:35 23.06.2022
2985 Clear 21 1015 56 10000 2.35 82 08:53 23.06.2022
2986 Clouds 16 1003 72 10000 1.33 19 03:39 23.06.2022
2987 Clear 18 1001 52 10000 3.07 40 00:26 23.06.2022
2988 Clear 16 1013 53 10000 3.07 40 23:41 22.06.2022
2989 Clear 17 1013 50 10000 2.65 28 22:41 22.06.2022
2990 Clear 22 1000 43 10000 2.21 355 21:22 22.06.2022
2991 Clear 20 1012 49 10000 2.21 355 20:43 22.06.2022
2992 Clouds 26 1000 26 10000 1.91 345 19:56 22.06.2022
2993 Clouds 26 1000 23 10000 0.45 303 18:47 22.06.2022
2994 Clouds 27 1000 20 10000 1.79 280 17:28 22.06.2022
2995 Clouds 28 1000 21 10000 2.24 28 16:33 22.06.2022
2996 Clouds 27 1001 24 10000 1.34 232 15:27 22.06.2022
2997 Clouds 27 1001 23 10000 1.79 302 14:21 22.06.2022
2998 Clouds 27 1002 23 10000 1.34 14 13:42 22.06.2022
2999 Clouds 27 1002 24 10000 1.79 276 13:23 22.06.2022
3000 Clouds 25 1002 30 10000 0.89 16 11:50 22.06.2022
3001 Clouds 24 1002 32 10000 0.89 40 11:50 22.06.2022
3002 Clouds 25 1002 30 10000 0.89 16 11:50 22.06.2022
3003 Clouds 25 1002 32 10000 1.5 348 10:57 22.06.2022
3004 Clear 21 1013 46 10000 2.29 356 10:19 22.06.2022
3005 Clear 20 1013 52 10000 2.56 345 08:48 22.06.2022
3006 Clouds 12 1001 86 10000 1.24 349 05:59 22.06.2022
3007 Clouds 14 1002 78 10000 1.58 241 01:49 22.06.2022
3008 Clouds 14 1002 75 10000 1.22 228 00:39 22.06.2022
3009 Clouds 17 1002 64 10000 1.28 273 22:37 21.06.2022
3010 Clouds 18 1013 50 10000 1.33 249 20:39 21.06.2022
3011 Clouds 24 1002 33 10000 1.66 277 18:53 21.06.2022
3012 Clouds 24 1002 32 10000 1.92 271 17:42 21.06.2022
3013 Clouds 24 1004 35 10000 2.39 283 15:21 21.06.2022
3014 Clouds 21 1005 49 10000 2.24 211 11:55 21.06.2022
3015 Clear 18 1016 53 10000 4.25 278 10:27 21.06.2022
3016 Clear 16 1016 61 10000 3.47 292 08:51 21.06.2022
3017 Clear 14 1016 73 10000 4.25 299 07:35 21.06.2022
3018 Clear 10 1004 91 10000 4.01 300 04:40 21.06.2022
3019 Clear 14 1003 66 10000 4.02 344 23:27 20.06.2022
3020 Clouds 15 1002 63 10000 5.77 299 21:59 20.06.2022
3021 Clouds 16 1002 60 10000 0.45 300 21:32 20.06.2022
3022 Clouds 18 1002 51 10000 2.68 271 20:25 20.06.2022
3023 Clouds 19 1001 57 10000 7.13 303 18:56 20.06.2022
3024 Clouds 19 1001 53 10000 0.45 341 18:25 20.06.2022
3025 Clouds 21 1001 57 10000 0.89 276 17:44 20.06.2022
3026 Clouds 19 1002 81 10000 0.45 239 16:24 20.06.2022
3027 Rain 17 1002 93 10000 0.45 263 14:36 20.06.2022
3028 Rain 14 1002 95 6201 2.68 324 11:47 20.06.2022
3029 Rain 15 1000 95 9960 0.89 316 09:55 20.06.2022
3030 Rain 15 999 95 10000 0.89 347 08:46 20.06.2022
3031 Clouds 15 999 88 10000 0.89 354 07:36 20.06.2022
3032 Clouds 15 999 60 10000 1.73 8 04:56 20.06.2022
3033 Clouds 16 999 57 10000 0.45 249 01:32 20.06.2022
3034 Clouds 15 1012 93 10000 1.9 359 23:48 19.06.2022
3035 Clouds 19 999 60 10000 2.24 323 22:25 19.06.2022
3036 Clouds 20 998 58 10000 5.81 304 21:42 19.06.2022
3037 Clear 21 999 54 10000 4.47 242 20:55 19.06.2022
3038 Clouds 22 998 49 10000 3.58 223 20:25 19.06.2022
3039 Clouds 24 997 44 10000 8.05 319 19:45 19.06.2022
3040 Clouds 27 996 43 10000 3.13 319 18:33 19.06.2022
3041 Clouds 27 996 41 10000 3.58 5 17:48 19.06.2022
3042 Clouds 27 996 42 10000 3.13 282 17:21 19.06.2022
3043 Clouds 28 995 40 10000 3.58 266 16:34 19.06.2022
3044 Clouds 29 995 35 10000 3.13 358 15:37 19.06.2022
3045 Clouds 30 995 34 10000 4.02 314 14:51 19.06.2022
3046 Clear 31 995 34 10000 3.58 303 13:54 19.06.2022
3047 Clear 32 994 33 10000 3.13 352 12:39 19.06.2022
3048 Clear 34 993 20 10000 1.34 155 10:54 19.06.2022
3049 Clear 31 1006 37 10000 6.27 227 09:40 19.06.2022
3050 Clear 29 1006 40 10000 5.76 215 08:47 19.06.2022
3051 Clouds 25 1007 54 10000 2.99 189 07:48 19.06.2022
3052 Clouds 20 996 72 10000 1.31 93 04:45 19.06.2022
3053 Clouds 19 1013 80 10000 2.97 60 01:29 19.06.2022
3054 Clouds 20 1013 74 10000 3.17 45 00:24 19.06.2022
3055 Clouds 20 1013 74 10000 3.17 44 23:35 18.06.2022
3056 Clouds 22 1013 67 10000 3.65 30 22:36 18.06.2022
3057 Clear 28 1001 40 10000 2.17 324 20:56 18.06.2022
3058 Clear 26 1013 60 10000 2.17 324 20:38 18.06.2022
3059 Clouds 31 1001 32 10000 2.24 319 19:38 18.06.2022
3060 Clouds 32 1001 28 10000 3.79 286 18:45 18.06.2022
3061 Clouds 33 1002 27 10000 0.45 258 17:34 18.06.2022
3062 Clouds 34 1002 24 10000 2.24 314 16:47 18.06.2022
3063 Clouds 34 1003 25 10000 3.13 348 15:31 18.06.2022
3064 Clouds 34 1003 24 10000 0.89 11 14:44 18.06.2022
3065 Clear 33 1004 24 10000 1.79 303 13:23 18.06.2022
3066 Clear 31 1004 29 10000 2.68 335 11:45 18.06.2022
3067 Clear 32 1004 28 10000 2.24 285 10:47 18.06.2022
3068 Clear 27 1016 44 10000 4.84 257 09:23 18.06.2022
3069 Clear 27 1016 44 10000 4.84 257 08:30 18.06.2022
3070 Clear 27 1016 44 10000 4.84 257 08:30 18.06.2022
3071 Clouds 18 1006 62 10000 0.45 166 06:49 18.06.2022
3072 Clouds 16 1007 65 10000 3.34 186 03:45 18.06.2022
3073 Clouds 18 1008 58 10000 3.24 170 01:26 18.06.2022
3074 Clouds 18 1008 58 10000 3.24 170 01:26 18.06.2022
3075 Clouds 18 1008 58 10000 3.24 170 01:26 18.06.2022
3076 Clouds 18 1008 58 10000 3.24 170 00:48 18.06.2022
3077 Clouds 19 1009 53 10000 2.76 168 23:58 17.06.2022
3078 Clouds 21 1009 50 10000 2.41 162 23:24 17.06.2022
3079 Clouds 23 1010 40 10000 1.3 72 21:27 17.06.2022
3080 Clouds 20 1022 49 10000 0.65 28 20:24 17.06.2022
3081 Clouds 22 1023 48 10000 2.2 328 18:49 17.06.2022
3082 Clouds 22 1022 46 10000 2.4 317 17:46 17.06.2022
3083 Clouds 24 1023 38 10000 3.38 295 16:43 17.06.2022
3084 Clouds 26 1023 32 10000 3.25 277 16:18 17.06.2022
3085 Clouds 26 1023 32 10000 3.25 277 15:34 17.06.2022
3086 Clouds 27 1012 25 10000 2.24 187 14:21 17.06.2022
3087 Clouds 27 1012 26 10000 2.59 259 13:48 17.06.2022
3088 Clouds 27 1013 27 10000 0.89 217 13:26 17.06.2022
3089 Clouds 24 1013 33 10000 2.45 278 11:58 17.06.2022
3090 Clouds 24 1013 32 10000 1.34 287 11:39 17.06.2022
3091 Clouds 23 1014 35 10000 2.68 293 11:21 17.06.2022
3092 Clouds 18 1024 59 10000 2.11 285 08:33 17.06.2022
3093 Clouds 16 1025 65 10000 2.15 295 07:51 17.06.2022
3094 Clouds 13 1013 74 10000 0.45 180 06:32 17.06.2022
3095 Clouds 14 1012 68 10000 1.04 329 03:24 17.06.2022
3096 Clouds 14 1024 67 10000 1.73 333 00:46 17.06.2022
3097 Clouds 14 1024 65 10000 2.33 335 23:30 16.06.2022
3098 Clouds 15 1023 63 10000 2.34 330 22:38 16.06.2022
3099 Clouds 15 1023 63 10000 2.34 330 22:38 16.06.2022
3100 Clear 21 1009 37 10000 3.13 286 21:19 16.06.2022
3101 Clear 18 1021 54 10000 2.66 349 20:50 16.06.2022
3102 Clouds 23 1009 31 10000 2.68 344 19:59 16.06.2022
3103 Clouds 23 1009 31 10000 3.13 323 18:51 16.06.2022
3104 Clouds 24 1008 29 10000 0.89 22 17:49 16.06.2022
3105 Clouds 24 1008 29 10000 0.89 22 17:49 16.06.2022
3106 Clouds 24 1008 32 10000 3.13 359 17:27 16.06.2022
3107 Clear 26 1008 30 10000 5.81 280 16:20 16.06.2022
3108 Clear 26 1008 29 10000 5.81 317 15:21 16.06.2022
3109 Clouds 24 1008 34 10000 2.68 327 14:27 16.06.2022
3110 Clouds 22 1019 52 10000 1.34 19 12:53 16.06.2022
3111 Clouds 22 1019 52 10000 2.68 330 12:34 16.06.2022
3112 Clouds 22 1019 52 10000 2.68 5 11:48 16.06.2022
3113 Clouds 22 1008 43 10000 3.58 303 10:41 16.06.2022
3114 Clouds 22 1008 44 10000 0.45 38 09:43 16.06.2022
3115 Clouds 21 1007 44 10000 2.24 326 09:19 16.06.2022
3116 Clouds 18 1006 57 10000 3.58 12 07:42 16.06.2022
3117 Clouds 16 1006 66 10000 4.47 299 06:49 16.06.2022
3118 Clouds 12 1017 86 10000 3.03 337 04:27 16.06.2022
3119 Clouds 13 1017 77 10000 2.51 337 01:53 16.06.2022
3120 Clouds 13 1017 77 10000 2.51 337 01:32 16.06.2022
3121 Clouds 14 1017 74 10000 2 8 00:31 16.06.2022
3122 Clouds 16 1017 63 10000 2.49 11 22:59 15.06.2022
3123 Clouds 18 1017 60 10000 2.85 1 21:59 15.06.2022
3124 Clouds 22 1005 38 10000 2.91 347 21:20 15.06.2022
3125 Clouds 20 1017 58 10000 2.91 347 20:38 15.06.2022
3126 Clear 26 1005 30 10000 1.34 335 20:18 15.06.2022
3127 Clouds 27 1005 25 10000 2.24 60 18:48 15.06.2022
3128 Clouds 28 1005 24 10000 0.89 131 17:54 15.06.2022
3129 Clouds 28 1006 22 10000 1.79 252 16:37 15.06.2022
3130 Clouds 28 1006 23 10000 1.79 156 15:26 15.06.2022
3131 Clouds 26 1007 27 10000 1.79 57 13:43 15.06.2022
3132 Clouds 23 1020 39 10000 2.68 71 12:53 15.06.2022
3133 Clouds 23 1020 41 10000 2.24 87 11:42 15.06.2022
3134 Clear 20 1020 51 10000 2.55 131 10:23 15.06.2022
3135 Clear 18 1020 56 10000 2.55 131 09:37 15.06.2022
3136 Clouds 15 1019 60 10000 2.37 118 08:27 15.06.2022
3137 Clouds 10 1021 87 10000 0.89 355 06:33 15.06.2022
3138 Clear 12 1009 76 10000 1.78 133 03:30 15.06.2022
3139 Clouds 13 1010 69 10000 1.33 150 01:38 15.06.2022
3140 Clouds 14 1010 67 10000 1.31 145 00:50 15.06.2022
3141 Clouds 11 1021 74 10000 1.11 139 23:39 14.06.2022
3142 Clouds 12 1021 72 10000 0.73 108 22:56 14.06.2022
3143 Clouds 13 1021 68 10000 0.38 14 22:18 14.06.2022
3144 Clouds 18 1021 55 10000 1.79 9 21:28 14.06.2022
3145 Clouds 15 1021 63 10000 1.01 322 20:48 14.06.2022
3146 Clouds 20 1009 43 10000 1.79 16 20:28 14.06.2022
3147 Clouds 21 1009 38 10000 2.06 312 18:45 14.06.2022
3148 Clouds 22 1009 35 10000 0.45 321 17:39 14.06.2022
3149 Clouds 22 1010 34 10000 2.68 341 16:43 14.06.2022
3150 Clouds 21 1023 41 10000 3.58 5 15:50 14.06.2022
3151 Clouds 22 1011 34 10000 4.47 293 14:57 14.06.2022
3152 Clouds 22 1011 34 10000 4.47 215 14:30 14.06.2022
3153 Clouds 21 1011 37 10000 1.79 343 13:40 14.06.2022
3154 Clouds 18 1023 50 10000 4.47 285 12:30 14.06.2022
3155 Clouds 20 1012 38 10000 4.02 311 11:31 14.06.2022
3156 Clouds 17 1023 51 10000 4.66 285 10:44 14.06.2022
3157 Clouds 16 1023 58 10000 4.5 284 09:48 14.06.2022
3158 Clouds 14 1023 66 10000 4.11 282 08:46 14.06.2022
3159 Clouds 12 1023 78 10000 0.89 208 07:31 14.06.2022
3160 Clouds 10 1023 79 10000 2.99 280 05:19 14.06.2022
3161 Clouds 11 1011 77 10000 2.86 285 02:49 14.06.2022
3162 Clouds 10 1022 79 10000 3.38 297 00:28 14.06.2022
3163 Clouds 13 1010 71 10000 3.45 294 23:27 13.06.2022
3164 Clouds 14 1010 70 10000 3.54 289 22:26 13.06.2022
3165 Clouds 17 1021 56 10000 0.45 215 21:49 13.06.2022
3166 Clouds 17 1009 60 10000 5.24 298 20:31 13.06.2022
3167 Clouds 18 1008 58 10000 1.79 207 19:34 13.06.2022
3168 Clouds 19 1020 53 10000 0.45 58 18:25 13.06.2022
3169 Clouds 18 1020 51 10000 4.02 306 17:46 13.06.2022
3170 Clouds 18 1020 53 10000 5.81 350 16:52 13.06.2022
3171 Clouds 19 1020 49 10000 0.89 29 15:39 13.06.2022
3172 Clouds 19 1008 46 10000 0.89 293 14:47 13.06.2022
3173 Clouds 20 1019 47 10000 1.34 30 13:54 13.06.2022
3174 Clouds 19 1019 47 10000 1.34 61 12:48 13.06.2022
3175 Clouds 19 1019 47 10000 1.34 61 12:48 13.06.2022
3176 Clouds 18 1019 58 10000 2.68 173 11:34 13.06.2022
3177 Clouds 18 1018 47 10000 4.71 297 10:27 13.06.2022
3178 Clouds 17 1018 47 10000 4.71 297 09:39 13.06.2022
3179 Clouds 16 1007 58 10000 3.13 321 07:53 13.06.2022
3180 Clouds 16 1007 63 10000 4.56 304 06:33 13.06.2022
3181 Clouds 16 1006 59 10000 1.34 347 03:28 13.06.2022
3182 Clouds 14 1018 80 10000 2.86 320 01:38 13.06.2022
3183 Clouds 15 1018 75 10000 2.69 342 00:22 13.06.2022
3184 Clouds 15 1018 72 10000 3.1 332 23:29 12.06.2022
3185 Clouds 16 1018 67 10000 3.32 314 22:23 12.06.2022
3186 Clouds 16 1018 67 10000 3.32 314 21:39 12.06.2022
3187 Clouds 18 1018 60 10000 3.53 321 20:39 12.06.2022
3188 Clouds 20 1018 51 10000 3.76 299 19:38 12.06.2022
3189 Clouds 22 1018 43 10000 4.85 302 18:43 12.06.2022
3190 Clouds 27 1019 36 10000 1.34 314 16:42 12.06.2022
3191 Clouds 27 1019 38 10000 0.89 302 15:32 12.06.2022
3192 Clouds 27 1008 31 10000 4.85 290 14:33 12.06.2022
3193 Clouds 26 1008 35 10000 1.79 227 13:57 12.06.2022
3194 Clouds 24 1021 49 10000 2.68 326 13:38 12.06.2022
3195 Clouds 23 1021 51 10000 1.34 56 11:58 12.06.2022
3196 Clouds 23 1020 54 10000 3.76 297 10:46 12.06.2022
3197 Clouds 21 1021 60 10000 2.83 311 09:36 12.06.2022
3198 Clouds 20 1021 69 10000 2.3 305 08:49 12.06.2022
3199 Clouds 19 1009 66 10000 2.54 300 07:49 12.06.2022
3200 Clouds 18 1009 71 10000 2.07 274 06:21 12.06.2022
3201 Clouds 17 1009 72 10000 1.45 273 03:38 12.06.2022
3202 Clouds 17 1022 75 10000 1.55 291 01:49 12.06.2022
3203 Clouds 17 1022 75 10000 2.43 270 01:23 12.06.2022
3204 Clouds 18 1009 66 10000 2.43 270 00:43 12.06.2022
3205 Clouds 18 1009 65 10000 2.32 265 00:18 12.06.2022
3206 Clouds 19 1009 60 10000 2.64 269 22:58 11.06.2022
3207 Clouds 20 1009 58 10000 2.64 269 22:31 11.06.2022
3208 Clouds 22 1009 50 10000 3.08 281 21:18 11.06.2022
3209 Clouds 24 1009 43 10000 3.28 284 20:26 11.06.2022
3210 Clouds 22 1021 63 10000 3.89 279 19:33 11.06.2022
3211 Clouds 22 1021 63 10000 3.89 279 19:33 11.06.2022
3212 Clouds 23 1021 55 10000 4.16 285 18:43 11.06.2022
3213 Clouds 26 1009 37 10000 4.52 284 18:25 11.06.2022
3214 Clouds 24 1021 51 10000 4.52 284 17:47 11.06.2022
3215 Clouds 23 1021 55 10000 4.06 277 17:25 11.06.2022
3216 Clouds 23 1021 55 10000 4.06 277 16:42 11.06.2022
3217 Clouds 23 1021 55 10000 4.28 278 15:57 11.06.2022
3218 Clouds 24 1021 49 10000 4.69 276 14:43 11.06.2022
3219 Clouds 24 1021 53 10000 4.39 272 13:50 11.06.2022
3220 Clouds 22 1022 59 10000 4.26 280 11:55 11.06.2022
3221 Clouds 21 1022 59 10000 3.67 259 10:30 11.06.2022
3222 Clouds 21 1021 63 10000 2.63 234 09:41 11.06.2022
3223 Clouds 20 1021 66 10000 2.1 214 08:37 11.06.2022
3224 Clouds 18 1010 66 10000 0.45 132 06:33 11.06.2022
3225 Clouds 17 1010 70 10000 0.45 155 05:33 11.06.2022
3226 Clouds 17 1010 72 10000 1.68 229 02:55 11.06.2022
3227 Clouds 15 1022 82 10000 1.45 240 01:41 11.06.2022
3228 Clouds 19 1010 63 10000 1.61 257 00:55 11.06.2022
3229 Clouds 21 1010 57 10000 2.09 277 23:25 10.06.2022
3230 Clouds 18 1022 71 10000 2.25 289 22:20 10.06.2022
3231 Clouds 19 1021 71 10000 2.78 293 21:27 10.06.2022
3232 Clouds 19 1021 71 10000 2.78 293 20:37 10.06.2022
3233 Clouds 23 1010 43 10000 1.34 344 20:19 10.06.2022
3234 Clouds 23 1022 47 10000 0.89 48 19:19 10.06.2022
3235 Clouds 24 1021 41 10000 3.13 278 18:30 10.06.2022
3236 Clouds 25 1021 39 10000 0.45 226 17:43 10.06.2022
3237 Clouds 26 1021 38 10000 0.89 247 17:21 10.06.2022
3238 Clouds 25 1021 38 10000 0.45 159 16:25 10.06.2022
3239 Clouds 26 1022 34 10000 0.45 27 15:38 10.06.2022
3240 Clouds 24 1022 38 10000 1.34 350 13:58 10.06.2022
3241 Clear 23 1023 42 10000 3.13 208 12:51 10.06.2022
3242 Clear 24 1011 35 10000 1.79 328 11:59 10.06.2022
3243 Clear 19 1023 59 10000 0.45 245 10:45 10.06.2022
3244 Clear 19 1023 68 10000 3.01 266 09:55 10.06.2022
3245 Clear 18 1022 65 10000 2.48 271 08:47 10.06.2022
3246 Clear 16 1022 73 10000 2.42 285 07:31 10.06.2022
3247 Clear 14 1011 82 10000 2.37 286 06:45 10.06.2022
3248 Clear 13 1011 83 10000 2.43 283 06:26 10.06.2022
3249 Clear 12 1009 83 10000 2.81 285 04:37 10.06.2022
3250 Clouds 11 1020 95 10000 3 301 01:42 10.06.2022
3251 Clouds 12 1020 93 10000 3.19 301 00:40 10.06.2022
3252 Clouds 13 1019 90 10000 3.32 298 23:57 09.06.2022
3253 Clouds 14 1017 82 10000 3.35 289 22:22 09.06.2022
3254 Clouds 17 1016 73 10000 3.79 292 21:37 09.06.2022
3255 Clouds 17 1016 73 10000 3.79 292 20:58 09.06.2022
3256 Clouds 21 1016 56 10000 0.45 28 20:26 09.06.2022
3257 Clouds 22 1015 53 10000 0.45 156 19:31 09.06.2022
3258 Clouds 22 1014 50 10000 4.02 9 18:34 09.06.2022
3259 Clouds 22 1014 55 10000 4.47 292 17:18 09.06.2022
3260 Clouds 21 1013 52 10000 6.39 288 16:21 09.06.2022
3261 Clouds 23 1002 45 10000 1.34 49 14:39 09.06.2022
3262 Clouds 23 1001 44 10000 1.79 21 13:55 09.06.2022
3263 Clouds 24 1001 45 10000 0.89 271 13:29 09.06.2022
3264 Clouds 22 1001 51 10000 1.79 357 12:21 09.06.2022
3265 Clouds 22 1000 54 10000 1.79 247 11:19 09.06.2022
3266 Clouds 19 1010 63 10000 5.34 276 09:50 09.06.2022
3267 Clouds 19 1010 63 10000 5.34 276 09:31 09.06.2022
3268 Clouds 17 1010 77 10000 3.8 266 08:21 09.06.2022
3269 Clouds 17 998 80 10000 2.23 250 06:55 09.06.2022
3270 Rain 16 996 84 10000 2.53 225 03:28 09.06.2022
3271 Clouds 14 1008 89 10000 2.24 278 23:55 08.06.2022
3272 Clouds 15 1008 86 10000 3.94 288 22:59 08.06.2022
3273 Clouds 18 996 72 10000 5.8 279 22:27 08.06.2022
3274 Clouds 19 995 81 10000 5.8 279 21:57 08.06.2022
3275 Clouds 19 995 79 10000 5.8 279 21:31 08.06.2022
3276 Clouds 21 995 69 10000 1.34 90 20:24 08.06.2022
3277 Clouds 21 995 73 10000 2.04 248 19:39 08.06.2022
3278 Clouds 22 995 64 10000 0.45 306 18:48 08.06.2022
3279 Rain 20 995 76 10000 0.89 343 17:35 08.06.2022
3280 Clouds 26 995 34 10000 3.61 207 15:53 08.06.2022
3281 Clouds 24 1007 42 10000 3.21 199 14:31 08.06.2022
3282 Clouds 22 1008 55 10000 3.18 206 12:46 08.06.2022
3283 Clouds 21 1010 64 10000 0.45 233 11:35 08.06.2022
3284 Clouds 21 1010 65 10000 2.4 205 10:46 08.06.2022
3285 Clear 19 1010 69 10000 1.42 204 09:28 08.06.2022
3286 Clear 19 1010 69 10000 1.42 204 08:52 08.06.2022
3287 Clouds 17 999 73 10000 1.22 180 06:43 08.06.2022
3288 Clouds 12 1010 91 10000 1.01 208 04:35 08.06.2022
3289 Clouds 13 1012 89 10000 2.17 246 00:58 08.06.2022
3290 Clouds 13 1012 87 10000 2.45 267 23:32 07.06.2022
3291 Clouds 14 1012 82 10000 2.68 272 22:51 07.06.2022
3292 Clouds 14 1012 82 10000 2.68 272 22:33 07.06.2022
3293 Clouds 15 1012 76 10000 2.32 263 21:37 07.06.2022
3294 Clouds 17 1012 69 10000 2.1 260 21:18 07.06.2022
3295 Clouds 17 1012 69 10000 2.1 260 20:37 07.06.2022
3296 Clouds 19 1011 62 10000 2.56 246 19:51 07.06.2022
3297 Clouds 21 1011 50 10000 3.14 264 18:25 07.06.2022
3298 Clouds 22 1011 43 10000 3.76 246 17:31 07.06.2022
3299 Clouds 22 1011 43 10000 3.77 246 16:44 07.06.2022
3300 Clouds 21 1011 46 10000 4.4 252 15:58 07.06.2022
3301 Clouds 21 1011 46 10000 4.4 252 15:36 07.06.2022
3302 Clouds 22 1012 44 10000 4.24 257 15:18 07.06.2022
3303 Clouds 22 1012 44 10000 4.24 257 14:42 07.06.2022
3304 Clouds 26 1001 27 10000 3.13 313 13:34 07.06.2022
3305 Clouds 22 1013 43 10000 4.47 287 12:54 07.06.2022
3306 Clouds 22 1013 43 10000 0.89 205 11:55 07.06.2022
3307 Clouds 21 1013 46 10000 5.67 244 10:48 07.06.2022
3308 Clear 19 1013 59 10000 3.98 219 08:58 07.06.2022
3309 Clouds 16 1014 70 10000 2.92 231 07:54 07.06.2022
3310 Clouds 14 1002 75 10000 1.92 239 06:42 07.06.2022
3311 Clouds 14 1003 77 10000 0.45 151 04:47 07.06.2022
3312 Clear 14 1003 75 10000 0.89 167 01:28 07.06.2022
3313 Clear 15 1003 72 10000 0.89 196 23:59 06.06.2022
3314 Clear 16 1003 68 10000 1.3 212 22:56 06.06.2022
3315 Clear 17 1003 66 10000 1.3 212 22:30 06.06.2022
3316 Clear 19 1002 56 10000 1.13 282 21:18 06.06.2022
3317 Clouds 23 1002 45 10000 2.24 357 19:29 06.06.2022
3318 Clouds 22 1002 44 10000 2.24 258 18:53 06.06.2022
3319 Clouds 23 1002 42 10000 0.45 271 18:32 06.06.2022
3320 Clouds 20 1014 59 10000 3.9 257 17:27 06.06.2022
3321 Rain 23 1003 48 10000 1.34 252 16:21 06.06.2022
3322 Rain 24 1002 38 10000 0.89 276 15:33 06.06.2022
3323 Clouds 23 1014 46 10000 5.35 258 14:36 06.06.2022
3324 Clouds 21 1014 60 10000 4.64 249 13:26 06.06.2022
3325 Clouds 21 1014 60 10000 4.64 249 12:36 06.06.2022
3326 Clouds 21 1015 58 10000 3.32 239 11:53 06.06.2022
3327 Clouds 20 1015 64 10000 3.28 256 10:41 06.06.2022
3328 Clouds 19 1015 69 10000 3.76 270 09:40 06.06.2022
3329 Clouds 19 1015 74 10000 4.27 252 08:33 06.06.2022
3330 Clouds 16 1014 90 10000 2.75 216 07:28 06.06.2022
3331 Clouds 18 1002 78 10000 2.39 210 05:28 06.06.2022
3332 Clouds 16 1013 93 10000 2.5 207 03:44 06.06.2022
3333 Clouds 17 1013 93 10000 4.34 179 01:23 06.06.2022
3334 Clouds 17 1013 93 10000 4.34 179 00:39 06.06.2022
3335 Rain 17 1013 94 10000 3.14 159 23:43 05.06.2022
3336 Clouds 18 1013 94 10000 2.85 173 22:47 05.06.2022
3337 Rain 19 1012 80 10000 3.61 121 20:59 05.06.2022
3338 Rain 26 1001 43 10000 4.25 108 19:50 05.06.2022
3339 Clouds 26 1002 37 10000 4.56 111 18:30 05.06.2022
3340 Clouds 26 1002 37 10000 4.56 111 18:30 05.06.2022
3341 Rain 27 1002 37 10000 2.24 132 17:55 05.06.2022
3342 Rain 27 1002 34 10000 2.68 115 17:27 05.06.2022
3343 Rain 27 1002 32 10000 4.92 100 16:57 05.06.2022
3344 Clouds 27 1003 31 10000 4.47 149 16:37 05.06.2022
3345 Clouds 28 1004 30 10000 4.02 125 14:34 05.06.2022
3346 Clouds 27 1006 36 10000 4.02 86 12:59 05.06.2022
3347 Clouds 26 1007 37 10000 3.13 163 11:49 05.06.2022
3348 Clouds 24 1008 39 10000 3.58 39 10:42 05.06.2022
3349 Clouds 20 1019 56 10000 3.97 100 10:22 05.06.2022
3350 Clouds 18 1019 61 10000 3.63 103 08:41 05.06.2022
3351 Clear 16 1020 66 10000 3.65 102 08:20 05.06.2022
3352 Clear 13 1010 75 10000 2.64 90 05:23 05.06.2022
3353 Clear 13 1010 73 10000 0.89 8 04:30 05.06.2022
3354 Clear 12 1022 84 10000 2.78 78 01:45 05.06.2022
3355 Clear 13 1022 83 10000 3.12 67 01:22 05.06.2022
3356 Clear 15 1021 71 10000 3.47 37 22:44 04.06.2022
3357 Clear 17 1020 67 10000 3.46 19 20:55 04.06.2022
3358 Clouds 24 1008 34 10000 4.47 347 18:53 04.06.2022
3359 Clouds 23 1020 47 10000 3.61 5 16:47 04.06.2022
3360 Clouds 26 1009 29 10000 0.45 127 16:19 04.06.2022
3361 Clouds 24 1020 41 10000 3.13 319 15:22 04.06.2022
3362 Clouds 23 1020 45 10000 4.02 354 13:46 04.06.2022
3363 Clouds 19 1021 58 10000 3.82 29 11:23 04.06.2022
3364 Clouds 19 1021 58 10000 3.82 29 10:52 04.06.2022
3365 Clouds 17 1020 63 10000 3.57 24 09:46 04.06.2022
3366 Clouds 15 1020 68 10000 3.41 18 08:44 04.06.2022
3367 Clouds 14 1020 71 10000 3.18 11 07:59 04.06.2022
3368 Clouds 16 1008 65 10000 1.79 359 06:20 04.06.2022
3369 Rain 14 1018 73 10000 2.53 14 02:36 04.06.2022
3370 Clouds 16 1017 61 10000 3.94 28 00:20 04.06.2022
3371 Clouds 17 1017 59 10000 4.12 26 22:49 03.06.2022
3372 Clouds 18 1017 60 10000 3.73 26 21:43 03.06.2022
3373 Clouds 18 1017 62 10000 3.51 18 20:40 03.06.2022
3374 Clouds 25 1006 30 10000 0.89 59 19:19 03.06.2022
3375 Clouds 24 1017 41 10000 2.36 97 16:54 03.06.2022
3376 Clouds 26 1007 27 10000 2.24 105 15:51 03.06.2022
3377 Clouds 25 1009 28 10000 1.79 2 13:51 03.06.2022
3378 Clear 22 1010 34 10000 3.13 166 11:51 03.06.2022
3379 Clear 18 1021 54 10000 3.24 94 09:56 03.06.2022
3380 Clear 16 1021 61 10000 3.05 90 09:29 03.06.2022
3381 Clear 16 1021 61 10000 3.05 90 09:29 03.06.2022
3382 Clear 13 1022 68 10000 2.52 91 07:43 03.06.2022
3383 Clear 11 1012 82 10000 1.75 89 06:46 03.06.2022
3384 Clear 9 1012 84 10000 1.34 114 06:27 03.06.2022
3385 Clear 9 1012 80 10000 1.51 113 02:50 03.06.2022
3386 Clouds 12 1012 71 10000 0.41 25 23:39 02.06.2022
3387 Clouds 11 1022 77 10000 1.63 4 21:58 02.06.2022
3388 Clouds 13 1022 74 10000 2.12 348 20:34 02.06.2022
3389 Clouds 15 1022 67 10000 2.42 332 19:55 02.06.2022
3390 Clouds 15 1022 67 10000 2.42 332 19:37 02.06.2022
3391 Clouds 19 1011 39 10000 1.79 311 18:39 02.06.2022
3392 Clouds 21 1011 34 10000 4.46 292 16:28 02.06.2022
3393 Clouds 18 1021 47 10000 4.46 292 15:46 02.06.2022
3394 Clouds 18 1022 49 10000 1.79 293 13:31 02.06.2022
3395 Clouds 21 1011 38 10000 3.13 272 12:49 02.06.2022
3396 Clear 14 1021 69 10000 1.34 63 10:36 02.06.2022
3397 Clear 13 1021 70 10000 4.14 284 09:30 02.06.2022
3398 Clear 13 1021 70 10000 4.14 284 08:44 02.06.2022
3399 Clear 11 1020 78 10000 4 286 08:23 02.06.2022
3400 Clear 9 1009 87 10000 0.89 146 06:21 02.06.2022
3401 Clear 9 1008 87 10000 1.34 268 03:50 02.06.2022
3402 Clouds 11 1006 79 10000 0.45 175 00:55 02.06.2022
3403 Clouds 13 1016 74 10000 1.79 146 22:58 01.06.2022
3404 Clouds 13 1016 71 10000 2.68 227 22:18 01.06.2022
3405 Clouds 14 1016 63 10000 0.45 210 21:24 01.06.2022
3406 Clouds 15 1005 59 10000 0.89 282 20:38 01.06.2022
3407 Rain 16 1005 54 10000 0.45 199 19:52 01.06.2022
3408 Clouds 17 1005 65 10000 2.24 180 18:37 01.06.2022
3409 Clouds 21 1004 40 10000 9.39 287 16:58 01.06.2022
3410 Clouds 17 1013 52 10000 5.87 281 15:45 01.06.2022
3411 Clouds 17 1013 52 10000 5.92 278 14:50 01.06.2022
3412 Clouds 17 1013 52 10000 0.45 212 13:26 01.06.2022
3413 Clouds 15 1014 64 10000 4.32 261 10:48 01.06.2022
3414 Clouds 12 1014 83 10000 4.09 294 09:30 01.06.2022
3415 Clouds 11 1014 85 10000 3.88 268 08:19 01.06.2022
3416 Rain 11 1003 85 10000 3.32 278 07:20 01.06.2022
3417 Clouds 8 1003 90 10000 1.66 270 04:53 01.06.2022
3418 Clouds 8 1013 91 10000 2.32 196 23:50 31.05.2022
3419 Clouds 9 1013 88 10000 2.69 201 22:43 31.05.2022
3420 Clouds 12 1004 76 10000 2.4 182 22:25 31.05.2022
3421 Clouds 10 1013 84 10000 2.4 182 21:44 31.05.2022
3422 Clouds 11 1013 86 10000 1.72 198 20:44 31.05.2022
3423 Clouds 11 1013 86 10000 1.72 198 20:44 31.05.2022
3424 Clouds 11 1013 86 10000 1.72 198 20:44 31.05.2022
3425 Clouds 11 1012 88 10000 2.52 177 19:46 31.05.2022
3426 Rain 14 1012 76 10000 5.02 197 18:33 31.05.2022
3427 Rain 20 1002 35 10000 0.89 38 17:46 31.05.2022
3428 Clouds 21 1002 32 10000 1.97 212 16:21 31.05.2022
3429 Clouds 20 1013 37 10000 0.45 229 15:37 31.05.2022
3430 Clouds 18 1014 44 10000 1.76 181 13:37 31.05.2022
3431 Clouds 18 1004 44 10000 3.58 180 12:19 31.05.2022
3432 Clouds 15 1015 54 10000 2.54 168 10:52 31.05.2022
3433 Clouds 12 1016 66 10000 2.08 159 08:35 31.05.2022
3434 Clouds 8 1006 82 10000 1.43 168 06:52 31.05.2022
3435 Clouds 7 1006 86 10000 1.36 207 04:34 31.05.2022
3436 Clouds 10 1005 77 10000 1.96 246 23:49 30.05.2022
3437 Clouds 8 1015 81 10000 1.76 262 23:25 30.05.2022
3438 Clouds 8 1015 81 10000 1.76 262 22:44 30.05.2022
3439 Clouds 13 1015 65 10000 0.45 37 21:47 30.05.2022
3440 Clouds 13 1015 65 10000 0.45 37 21:29 30.05.2022
3441 Clouds 13 1014 64 10000 2.68 304 19:51 30.05.2022
3442 Clouds 13 1014 57 10000 3.08 296 18:34 30.05.2022
3443 Clouds 13 1014 57 10000 3.44 295 17:23 30.05.2022
3444 Clouds 13 1014 57 10000 3.44 295 16:36 30.05.2022
3445 Clouds 12 1013 63 10000 4.44 305 13:44 30.05.2022
3446 Clouds 13 1013 66 10000 1.34 32 12:19 30.05.2022
3447 Clouds 11 1013 75 10000 4.38 290 10:26 30.05.2022
3448 Clouds 10 1012 79 10000 4.21 291 09:19 30.05.2022
3449 Clouds 7 1012 92 10000 3.45 272 06:30 30.05.2022
3450 Clouds 6 1012 96 10000 3.09 268 05:47 30.05.2022
3451 Clouds 7 1011 95 10000 3.22 272 01:32 30.05.2022
3452 Clouds 7 1011 94 10000 3.39 270 22:50 29.05.2022
3453 Clouds 7 1011 94 10000 3.39 270 22:31 29.05.2022
3454 Clouds 9 1011 87 10000 3.09 267 20:53 29.05.2022
3455 Clouds 11 1010 81 10000 3.16 274 19:31 29.05.2022
3456 Clouds 15 1000 59 10000 3.25 277 18:37 29.05.2022
3457 Clouds 17 1000 50 10000 0.89 359 17:23 29.05.2022
3458 Clouds 17 1001 52 10000 1.34 207 15:48 29.05.2022
3459 Clouds 13 1012 67 10000 2.24 234 14:57 29.05.2022
3460 Clouds 14 1012 68 10000 0.89 56 13:52 29.05.2022
3461 Rain 12 1012 67 10000 4.9 277 11:41 29.05.2022
3462 Clouds 11 1012 71 10000 5.08 277 10:38 29.05.2022
3463 Clouds 11 1012 74 10000 5.08 272 08:51 29.05.2022
3464 Clouds 9 1003 84 10000 1.34 271 05:54 29.05.2022
3465 Clouds 6 1013 92 10000 3.76 259 04:45 29.05.2022
3466 Clouds 6 1013 94 10000 3.76 261 03:47 29.05.2022
3467 Clouds 10 1005 71 10000 1.34 214 23:50 28.05.2022
3468 Clouds 11 1005 71 10000 0.45 155 23:26 28.05.2022
3469 Clouds 11 1005 69 10000 0.89 203 22:36 28.05.2022
3470 Clouds 9 1015 69 10000 4.82 287 21:38 28.05.2022
3471 Clouds 15 1005 45 10000 2.68 280 19:49 28.05.2022
3472 Clouds 15 1005 43 10000 1.34 91 18:50 28.05.2022
3473 Clouds 16 1005 44 10000 7.66 282 17:37 28.05.2022
3474 Clouds 17 1005 42 10000 8.19 286 16:43 28.05.2022
3475 Clouds 16 1004 61 10000 3.58 359 15:43 28.05.2022
3476 Rain 15 1005 63 10000 4.47 40 14:26 28.05.2022
3477 Clouds 16 1005 49 10000 4.92 321 12:57 28.05.2022
3478 Rain 17 1005 48 10000 3.58 156 12:35 28.05.2022
3479 Clouds 17 1005 51 10000 2.68 160 11:22 28.05.2022
3480 Clouds 12 1015 61 10000 9.75 291 10:21 28.05.2022
3481 Clouds 13 1005 59 10000 0.45 290 09:22 28.05.2022
3482 Clouds 12 1004 69 10000 3.13 166 07:23 28.05.2022
3483 Clouds 9 1004 87 10000 3.13 252 05:48 28.05.2022
3484 Rain 10 1004 80 10000 0.89 237 03:48 28.05.2022
3485 Clouds 9 1016 77 10000 7.92 276 00:33 28.05.2022
3486 Clear 12 1006 74 10000 7.52 274 23:32 27.05.2022
3487 Clear 11 1017 67 10000 7.09 285 21:50 27.05.2022
3488 Clear 11 1017 67 10000 7.09 285 21:50 27.05.2022
3489 Clear 12 1016 65 10000 7.11 292 20:56 27.05.2022
3490 Clouds 15 1005 50 10000 7.53 292 20:25 27.05.2022
3491 Clouds 13 1016 62 10000 7.53 292 19:51 27.05.2022
3492 Clouds 13 1016 62 10000 7.38 289 19:32 27.05.2022
3493 Clouds 18 1005 41 10000 4.92 359 18:24 27.05.2022
3494 Clouds 19 1004 37 10000 4.02 225 16:42 27.05.2022
3495 Clouds 20 1004 41 10000 4.92 12 15:34 27.05.2022
3496 Clouds 20 1004 43 10000 10.17 287 14:44 27.05.2022
3497 Clouds 17 1015 50 10000 10.16 284 13:23 27.05.2022
3498 Clouds 19 1005 50 10000 1.34 359 11:41 27.05.2022
3499 Clouds 18 1005 50 10000 0.89 292 11:23 27.05.2022
3500 Clouds 15 1015 73 10000 6.88 289 10:32 27.05.2022
3501 Clouds 15 1015 73 10000 6.87 289 09:37 27.05.2022
3502 Clouds 14 1005 86 10000 2.24 238 08:19 27.05.2022
3503 Rain 13 1005 92 10000 5.26 296 06:45 27.05.2022
3504 Clouds 16 1005 84 10000 1.34 232 02:53 27.05.2022
3505 Clouds 18 1006 59 10000 1.79 167 00:37 27.05.2022
3506 Clouds 18 1006 57 10000 0.89 128 22:47 26.05.2022
3507 Clouds 18 1006 56 10000 2.68 167 21:42 26.05.2022
3508 Clouds 18 1006 55 10000 1.79 213 20:59 26.05.2022
3509 Clouds 19 1007 50 10000 1.79 330 19:27 26.05.2022
3510 Clouds 19 1007 51 10000 5.36 254 18:21 26.05.2022
3511 Clouds 18 1018 59 10000 7.04 275 16:56 26.05.2022
3512 Clouds 19 1018 53 10000 8.06 277 15:49 26.05.2022
3513 Clouds 22 1008 44 10000 6.26 263 14:48 26.05.2022
3514 Clouds 19 1019 62 10000 3.58 287 13:23 26.05.2022
3515 Clouds 19 1019 64 10000 0.89 245 11:36 26.05.2022
3516 Clouds 16 1017 75 10000 7.39 264 10:24 26.05.2022
3517 Clouds 16 1017 75 10000 7.39 264 09:35 26.05.2022
3518 Clouds 14 1017 79 10000 5.94 264 08:38 26.05.2022
3519 Clouds 14 1005 65 10000 1.34 251 05:24 26.05.2022
3520 Clouds 14 1005 63 10000 3.84 223 01:24 26.05.2022
3521 Clouds 12 1016 72 10000 3.23 234 23:40 25.05.2022
3522 Clouds 11 1016 74 10000 3.23 261 22:48 25.05.2022
3523 Clouds 12 1016 70 10000 3.26 269 21:37 25.05.2022
3524 Clouds 14 1015 68 10000 2.84 267 20:39 25.05.2022
3525 Clouds 21 1003 37 10000 1.79 335 19:31 25.05.2022
3526 Clouds 19 1014 53 10000 4.44 286 18:20 25.05.2022
3527 Clouds 18 1014 54 10000 3.59 277 16:41 25.05.2022
3528 Clouds 19 1014 49 10000 4.08 276 15:58 25.05.2022
3529 Clouds 19 1014 45 10000 4.39 274 14:56 25.05.2022
3530 Clouds 19 1014 45 10000 4.38 274 14:37 25.05.2022
3531 Clouds 19 1014 45 10000 5.05 271 14:19 25.05.2022
3532 Clouds 21 1004 42 10000 4.47 193 12:52 25.05.2022
3533 Clouds 17 1015 57 10000 4.71 264 11:31 25.05.2022
3534 Clouds 16 1014 61 10000 4.16 269 10:22 25.05.2022
3535 Clouds 15 1014 68 10000 3.35 274 08:53 25.05.2022
3536 Clouds 11 1014 83 10000 1.42 260 07:23 25.05.2022
3537 Clouds 11 1002 85 10000 1.6 238 05:27 25.05.2022
3538 Clouds 10 1012 90 10000 2.33 253 00:38 25.05.2022
3539 Clouds 10 1012 89 10000 2.31 267 23:48 24.05.2022
3540 Clouds 11 1011 87 10000 2.26 278 22:53 24.05.2022
3541 Clouds 12 1011 83 10000 2.58 286 21:46 24.05.2022
3542 Clouds 16 999 64 10000 2.81 286 21:23 24.05.2022
3543 Clouds 13 1010 79 10000 2.81 286 20:59 24.05.2022
3544 Clouds 19 1009 48 10000 0.89 50 19:20 24.05.2022
3545 Clouds 20 1008 50 10000 0.89 243 18:29 24.05.2022
3546 Clouds 21 1007 51 10000 0.89 122 16:36 24.05.2022
3547 Clouds 19 1006 58 10000 4.51 259 15:31 24.05.2022
3548 Clouds 18 1007 67 10000 1.34 128 14:37 24.05.2022
3549 Clouds 17 1006 75 10000 0.45 237 13:46 24.05.2022
3550 Clouds 20 1005 63 10000 0.45 217 12:19 24.05.2022
3551 Clouds 19 1003 63 10000 4.66 229 09:52 24.05.2022
3552 Clouds 17 1003 74 10000 4.35 237 08:51 24.05.2022
3553 Clouds 15 1003 85 10000 4.22 242 07:56 24.05.2022
3554 Clouds 17 991 72 10000 2.24 259 06:39 24.05.2022
3555 Clouds 17 988 86 10000 0.89 79 03:38 24.05.2022
3556 Rain 18 988 76 10000 0.89 172 01:46 24.05.2022
3557 Clouds 16 1000 96 10000 5.26 159 00:30 24.05.2022
3558 Clouds 16 1001 85 10000 5.29 147 22:24 23.05.2022
3559 Clouds 16 1001 85 10000 5.29 147 21:53 23.05.2022
3560 Clouds 17 1001 74 10000 5.57 141 20:49 23.05.2022
3561 Clouds 21 990 46 10000 9.83 84 19:55 23.05.2022
3562 Clouds 22 991 45 10000 5.81 151 19:27 23.05.2022
3563 Clouds 22 991 44 10000 3.58 145 18:41 23.05.2022
3564 Clouds 23 992 41 10000 2.24 136 17:56 23.05.2022
3565 Clouds 23 1005 46 10000 3.13 129 16:40 23.05.2022
3566 Clouds 23 995 38 10000 4.47 87 14:20 23.05.2022
3567 Clouds 20 1008 51 10000 2.68 119 11:57 23.05.2022
3568 Clouds 18 1009 57 10000 6.25 125 11:20 23.05.2022
3569 Clouds 17 1009 64 10000 3.58 110 09:48 23.05.2022
3570 Clouds 15 1010 68 10000 0.45 293 08:50 23.05.2022
3571 Clouds 13 1010 73 10000 4.34 131 07:41 23.05.2022
3572 Clouds 12 1000 77 10000 0.45 95 06:41 23.05.2022
3573 Clouds 10 1001 83 10000 3.05 136 04:40 23.05.2022
3574 Clouds 12 1002 76 10000 0.89 105 02:19 23.05.2022
3575 Clouds 12 1002 76 10000 2.94 129 01:34 23.05.2022
3576 Clouds 13 1002 67 10000 0.89 8 23:42 22.05.2022
3577 Clouds 13 1014 71 10000 2.93 107 22:35 22.05.2022
3578 Clouds 12 1014 77 10000 2.64 76 21:54 22.05.2022
3579 Clouds 13 1014 72 10000 1.63 57 20:51 22.05.2022
3580 Clouds 18 1014 53 10000 0.72 20 20:25 22.05.2022
3581 Clouds 18 1015 49 10000 0.72 20 19:54 22.05.2022
3582 Clouds 19 1015 46 10000 1.34 218 18:55 22.05.2022
3583 Clouds 19 1015 45 10000 0.89 258 18:24 22.05.2022
3584 Clouds 20 1015 46 10000 0.45 37 17:32 22.05.2022
3585 Clouds 20 1015 45 10000 2.24 29 16:25 22.05.2022
3586 Clouds 21 1005 41 10000 1.34 217 14:48 22.05.2022
3587 Clouds 20 1006 42 10000 2.24 324 13:45 22.05.2022
3588 Clouds 19 1006 44 10000 2.24 320 12:50 22.05.2022
3589 Clouds 15 1017 62 10000 1.34 25 11:42 22.05.2022
3590 Clouds 14 1018 71 10000 0.45 209 09:45 22.05.2022
3591 Clouds 13 1018 72 10000 3.05 295 08:37 22.05.2022
3592 Clouds 9 1018 88 10000 2.67 285 07:22 22.05.2022
3593 Clouds 8 1018 95 10000 2.58 278 06:23 22.05.2022
3594 Clouds 9 1019 95 10000 2.86 291 02:23 22.05.2022
3595 Clouds 9 1019 94 10000 3.04 284 00:44 22.05.2022
3596 Clouds 10 1019 92 10000 3.18 285 23:55 21.05.2022
3597 Clouds 13 1007 79 10000 3.44 282 23:21 21.05.2022
3598 Clouds 14 1007 73 10000 3.57 280 21:45 21.05.2022
3599 Clouds 15 1018 73 10000 1.34 235 21:25 21.05.2022
3600 Clouds 17 1007 64 10000 1.79 235 20:25 21.05.2022
3601 Clouds 15 1018 71 10000 6.19 291 19:37 21.05.2022
3602 Clouds 18 1007 64 10000 4.47 214 17:57 21.05.2022
3603 Clouds 19 1007 54 10000 8.17 283 16:53 21.05.2022
3604 Clouds 19 1018 61 10000 0.89 37 14:38 21.05.2022
3605 Clouds 16 1018 64 10000 9.18 274 13:53 21.05.2022
3606 Clouds 15 1018 70 10000 8.76 269 12:57 21.05.2022
3607 Clouds 15 1018 70 10000 8.76 269 12:37 21.05.2022
3608 Clouds 18 1007 57 10000 2.68 166 10:45 21.05.2022
3609 Clouds 18 1007 55 10000 2.68 166 09:49 21.05.2022
3610 Clear 17 1006 57 10000 4.02 248 08:58 21.05.2022
3611 Clear 14 1018 72 10000 6.82 262 08:34 21.05.2022
3612 Clouds 13 1006 75 10000 5.36 252 05:28 21.05.2022
3613 Clouds 13 1013 86 10000 10.49 268 01:24 21.05.2022
3614 Clouds 19 999 93 10000 3.13 234 23:29 20.05.2022
3615 Clouds 19 999 95 10000 4.46 220 22:24 20.05.2022
3616 Clouds 19 999 95 10000 4.46 220 21:55 20.05.2022
3617 Rain 20 1012 92 10000 2.88 224 20:58 20.05.2022
3618 Rain 20 1012 92 10000 2.87 224 20:58 20.05.2022
3619 Rain 20 1012 92 10000 1.51 215 20:29 20.05.2022
3620 Rain 21 1000 90 10000 0.89 310 19:45 20.05.2022
3621 Rain 20 1009 93 2154 2.25 143 18:48 20.05.2022
3622 Clouds 26 1001 50 10000 2.68 97 17:47 20.05.2022
3623 Clouds 23 1015 63 10000 2.14 139 16:21 20.05.2022
3624 Clouds 23 1015 63 10000 2.14 139 15:53 20.05.2022
3625 Clouds 22 1017 60 10000 1.42 188 14:31 20.05.2022
3626 Clouds 22 1018 58 10000 1.66 228 13:56 20.05.2022
3627 Clouds 20 1020 61 10000 2.35 272 11:51 20.05.2022
3628 Clouds 18 1021 66 10000 2.72 279 10:30 20.05.2022
3629 Clouds 16 1022 84 10000 3.93 293 08:58 20.05.2022
3630 Clouds 15 1022 88 10000 5.2 291 07:42 20.05.2022
3631 Clouds 17 1010 83 10000 4.57 288 06:39 20.05.2022
3632 Clouds 17 1009 85 10000 3.99 286 05:39 20.05.2022
3633 Clouds 18 1008 78 10000 3.2 253 01:29 20.05.2022
3634 Clouds 16 1019 94 10000 2.41 256 23:31 19.05.2022
3635 Clouds 16 1018 96 10000 4.27 263 22:34 19.05.2022
3636 Rain 17 1018 96 10000 3.42 268 21:49 19.05.2022
3637 Rain 17 1018 96 10000 3.42 268 21:49 19.05.2022
3638 Rain 21 1006 65 10000 1.34 139 21:23 19.05.2022
3639 Rain 18 1018 91 10000 8.01 291 20:43 19.05.2022
3640 Rain 24 1007 49 10000 8.05 283 19:54 19.05.2022
3641 Clouds 27 1005 40 10000 0.89 221 18:59 19.05.2022
3642 Clouds 25 1017 61 10000 3.67 187 17:36 19.05.2022
3643 Clouds 25 1019 51 10000 5.24 186 15:34 19.05.2022
3644 Clouds 25 1019 51 10000 5.24 186 14:39 19.05.2022
3645 Clouds 26 1019 49 10000 5.65 182 14:19 19.05.2022
3646 Clouds 24 1020 54 10000 4.87 180 11:53 19.05.2022
3647 Clouds 23 1021 59 10000 4.68 180 10:30 19.05.2022
3648 Clouds 21 1021 67 10000 3.87 177 08:39 19.05.2022
3649 Clouds 18 1010 70 10000 3.14 163 07:18 19.05.2022
3650 Clouds 16 1010 81 10000 2.7 170 03:41 19.05.2022
3651 Clouds 18 1011 69 10000 0.45 122 00:57 19.05.2022
3652 Clouds 19 1011 64 10000 0.89 83 23:35 18.05.2022
3653 Clouds 19 1011 63 10000 0.45 21 22:43 18.05.2022
3654 Clouds 20 1011 62 10000 3.15 156 21:42 18.05.2022
3655 Clear 21 1011 59 10000 3.02 157 21:20 18.05.2022
3656 Clouds 23 1011 52 10000 0.45 59 20:19 18.05.2022
3657 Clouds 25 1011 45 10000 1.34 166 18:53 18.05.2022
3658 Clouds 25 1011 45 10000 1.34 166 18:53 18.05.2022
3659 Clouds 26 1011 41 10000 3.58 101 17:42 18.05.2022
3660 Clouds 27 1011 40 10000 2.68 152 17:24 18.05.2022
3661 Clouds 27 1012 41 10000 5.36 173 16:53 18.05.2022
3662 Clouds 27 1012 41 10000 1.34 56 15:52 18.05.2022
3663 Clouds 27 1012 41 10000 1.34 159 15:33 18.05.2022
3664 Clouds 23 1024 56 10000 3.98 159 14:21 18.05.2022
3665 Clouds 25 1013 46 10000 2.24 176 12:54 18.05.2022
3666 Clouds 24 1013 47 10000 4.92 128 12:24 18.05.2022
3667 Clouds 23 1014 56 10000 4.02 184 11:33 18.05.2022
3668 Clouds 22 1014 59 10000 2.68 142 10:43 18.05.2022
3669 Clouds 15 1024 90 10000 4.09 133 08:19 18.05.2022
3670 Clouds 14 1024 94 10000 3.3 126 07:27 18.05.2022
3671 Clouds 14 1012 95 10000 2.8 126 03:59 18.05.2022
3672 Clouds 15 1011 91 10000 2.13 140 00:51 18.05.2022
3673 Clouds 15 1011 85 10000 1.95 147 23:41 17.05.2022
3674 Clouds 16 1010 88 10000 1.71 61 21:23 17.05.2022
3675 Clouds 17 1010 88 10000 1.71 61 20:44 17.05.2022
3676 Clouds 18 1010 88 10000 3.13 210 19:45 17.05.2022
3677 Clouds 18 1010 96 10000 3.13 153 19:24 17.05.2022
3678 Clouds 19 1010 95 10000 1.34 5 17:49 17.05.2022
3679 Clouds 18 1010 97 10000 3.58 87 16:57 17.05.2022
3680 Rain 18 1010 96 10000 2.24 83 16:24 17.05.2022
3681 Clouds 20 1020 77 7128 3.11 334 14:56 17.05.2022
3682 Clouds 22 1009 66 7897 3.13 93 14:29 17.05.2022
3683 Rain 21 1010 63 8427 1.34 227 13:30 17.05.2022
3684 Clouds 16 1021 93 10000 2.9 305 10:42 17.05.2022
3685 Clouds 18 1009 80 10000 3.22 309 08:53 17.05.2022
3686 Clouds 15 1019 94 10000 3.5 311 07:56 17.05.2022
3687 Clouds 16 1008 93 10000 4.86 301 06:27 17.05.2022
3688 Rain 17 1007 91 10000 3.13 217 01:59 17.05.2022
3689 Rain 18 1006 88 10000 0.45 297 23:59 16.05.2022
3690 Rain 15 1017 91 10000 1.23 189 22:40 16.05.2022
3691 Rain 16 1017 92 10000 3.45 119 21:31 16.05.2022
3692 Rain 17 1016 90 10000 3.18 110 20:43 16.05.2022
3693 Rain 20 1015 73 10000 1.28 128 19:19 16.05.2022
3694 Rain 21 1015 69 10000 0.54 246 17:34 16.05.2022
3695 Clouds 23 1016 52 10000 2.29 161 15:36 16.05.2022
3696 Clouds 23 1017 48 10000 3.95 147 13:48 16.05.2022
3697 Clouds 26 1006 29 10000 2.68 166 12:46 16.05.2022
3698 Clouds 22 1007 33 10000 3.13 173 10:47 16.05.2022
3699 Clouds 16 1018 62 10000 4.16 119 08:55 16.05.2022
3700 Clouds 11 1008 72 10000 2.4 116 06:33 16.05.2022
3701 Clouds 11 1008 72 10000 2.4 116 06:33 16.05.2022
3702 Clouds 12 1009 69 10000 2.24 105 02:33 16.05.2022
3703 Clouds 12 1020 78 10000 2.78 82 22:52 15.05.2022
3704 Clouds 13 1020 75 10000 3.12 66 22:28 15.05.2022
3705 Clouds 13 1020 75 10000 3.12 66 21:38 15.05.2022
3706 Clouds 14 1020 73 10000 2.78 49 20:53 15.05.2022
3707 Clear 22 1008 33 10000 2.68 35 19:24 15.05.2022
3708 Clear 23 1009 31 10000 0.89 74 17:48 15.05.2022
3709 Clear 23 1010 31 10000 1.5 83 15:45 15.05.2022
3710 Clear 22 1011 34 10000 0.87 85 13:50 15.05.2022
3711 Clear 20 1011 40 10000 1.37 96 12:23 15.05.2022
3712 Clear 19 1012 42 10000 2.68 201 11:38 15.05.2022
3713 Clear 16 1023 66 10000 1.68 83 10:23 15.05.2022
3714 Clear 14 1023 72 10000 1.47 89 08:32 15.05.2022
3715 Clouds 11 1012 74 10000 1.02 82 06:58 15.05.2022
3716 Clouds 8 1011 80 10000 0.8 56 05:33 15.05.2022
3717 Clear 8 1022 90 10000 1.7 334 00:49 15.05.2022
3718 Clear 9 1022 88 10000 1.8 329 23:38 14.05.2022
3719 Clear 10 1022 87 10000 1.95 338 22:47 14.05.2022
3720 Clear 12 1021 78 10000 2.49 351 21:29 14.05.2022
3721 Clear 12 1021 78 10000 2.49 351 20:51 14.05.2022
3722 Clouds 15 1020 69 10000 3.88 336 19:38 14.05.2022
3723 Clouds 20 1009 39 10000 3.13 289 19:19 14.05.2022
3724 Clouds 20 1009 39 10000 1.79 313 18:44 14.05.2022
3725 Clouds 20 1019 50 10000 6.22 295 16:46 14.05.2022
3726 Clouds 20 1019 48 10000 6.63 284 15:30 14.05.2022
3727 Clouds 22 1009 38 10000 0.89 255 14:34 14.05.2022
3728 Clouds 18 1020 60 10000 6.62 282 12:24 14.05.2022
3729 Clouds 18 1020 60 10000 6.62 282 11:35 14.05.2022
3730 Clouds 16 1020 68 10000 5.9 275 10:21 14.05.2022
3731 Clouds 16 1020 68 10000 5.9 275 09:53 14.05.2022
3732 Clouds 14 1020 73 10000 5.28 271 08:49 14.05.2022
3733 Clouds 12 1008 72 10000 0.45 143 06:41 14.05.2022
3734 Clouds 11 1008 73 10000 0.45 228 02:46 14.05.2022
3735 Clouds 12 1008 69 10000 0.89 225 23:44 13.05.2022
3736 Clouds 13 1008 67 10000 0.45 158 23:18 13.05.2022
3737 Clouds 13 1008 65 10000 3.15 246 22:43 13.05.2022
3738 Clouds 14 1008 63 10000 3.07 255 22:18 13.05.2022
3739 Clouds 12 1019 75 10000 3.49 270 20:46 13.05.2022
3740 Clouds 17 1007 51 10000 4.98 279 20:27 13.05.2022
3741 Clouds 14 1018 71 10000 4.98 279 19:34 13.05.2022
3742 Clouds 16 1018 63 10000 6.39 277 17:53 13.05.2022
3743 Clouds 17 1018 58 10000 7.24 281 17:29 13.05.2022
3744 Clouds 17 1017 53 10000 8.58 279 16:23 13.05.2022
3745 Clouds 17 1017 53 10000 8.58 279 15:39 13.05.2022
3746 Clouds 17 1017 53 10000 7.66 278 13:54 13.05.2022
3747 Clouds 17 1017 53 10000 7.99 274 12:32 13.05.2022
3748 Clouds 16 1017 61 10000 6.42 273 11:23 13.05.2022
3749 Clouds 15 1017 62 10000 6.23 276 09:43 13.05.2022
3750 Clouds 15 1017 66 10000 4.51 270 08:50 13.05.2022
3751 Clouds 13 1017 68 10000 3.15 269 07:49 13.05.2022
3752 Clear 11 1017 76 10000 2.68 268 06:35 13.05.2022
3753 Clear 10 1017 80 10000 2.58 240 04:22 13.05.2022
3754 Clouds 13 1006 67 10000 2.67 240 00:42 13.05.2022
3755 Clouds 15 1006 58 10000 2.62 248 22:47 12.05.2022
3756 Clouds 13 1017 67 10000 2.25 258 21:59 12.05.2022
3757 Clouds 13 1017 68 10000 2.1 270 20:38 12.05.2022
3758 Clouds 19 1006 40 10000 2.73 292 19:23 12.05.2022
3759 Clouds 17 1017 56 10000 3.68 291 17:59 12.05.2022
3760 Clouds 18 1017 47 10000 5.76 283 16:27 12.05.2022
3761 Clouds 21 1007 35 10000 5.36 254 14:51 12.05.2022
3762 Clouds 18 1018 48 10000 6.47 278 13:47 12.05.2022
3763 Clouds 16 1017 59 10000 6.63 279 11:25 12.05.2022
3764 Clouds 15 1017 65 10000 6.77 282 10:22 12.05.2022
3765 Clouds 13 1016 75 10000 6.62 289 08:52 12.05.2022
3766 Clouds 12 1015 86 10000 7.26 289 07:58 12.05.2022
3767 Clouds 15 1002 63 10000 4.02 225 06:58 12.05.2022
3768 Clouds 17 999 68 10000 2.68 259 03:46 12.05.2022
3769 Clouds 15 1009 88 10000 4.38 245 00:50 12.05.2022
3770 Clouds 16 1009 90 10000 3.38 241 22:53 11.05.2022
3771 Clouds 16 1009 89 10000 3.23 251 22:18 11.05.2022
3772 Clouds 18 1008 83 10000 3.1 259 21:24 11.05.2022
3773 Clouds 18 1008 83 10000 3.1 259 21:24 11.05.2022
3774 Clouds 20 1009 77 10000 2.93 276 19:57 11.05.2022
3775 Clouds 22 1009 68 10000 3.66 253 17:27 11.05.2022
3776 Clouds 23 1009 63 10000 4.45 253 16:19 11.05.2022
3777 Clouds 24 1009 57 10000 5.71 256 14:47 11.05.2022
3778 Clouds 25 1010 53 10000 7.04 255 14:24 11.05.2022
3779 Clouds 27 999 32 10000 1.79 86 12:39 11.05.2022
3780 Rain 23 1011 61 10000 5.89 241 11:47 11.05.2022
3781 Clouds 18 1012 80 10000 3.12 194 09:29 11.05.2022
3782 Clouds 17 1003 78 10000 1.86 187 06:30 11.05.2022
3783 Clouds 18 1003 68 10000 2.24 7 02:18 11.05.2022
3784 Clouds 19 1003 53 10000 3.65 223 22:58 10.05.2022
3785 Clouds 20 1003 54 10000 0.45 143 22:24 10.05.2022
3786 Clouds 17 1015 70 10000 3.76 211 21:40 10.05.2022
3787 Clouds 18 1014 70 10000 3.83 195 20:34 10.05.2022
3788 Clouds 21 1015 67 10000 3.91 201 18:49 10.05.2022
3789 Clouds 22 1015 62 10000 4.14 196 17:38 10.05.2022
3790 Clouds 22 1016 58 10000 3.92 192 16:35 10.05.2022
3791 Rain 24 1018 43 10000 4.91 214 13:31 10.05.2022
3792 Clouds 22 1019 53 10000 4.31 194 11:54 10.05.2022
3793 Clouds 22 1019 53 10000 4.31 194 11:34 10.05.2022
3794 Clouds 21 1019 59 10000 4.14 183 10:56 10.05.2022
3795 Clouds 19 1020 65 10000 3.92 173 09:47 10.05.2022
3796 Clouds 14 1020 77 10000 3.44 167 08:22 10.05.2022
3797 Clouds 11 1011 69 10000 0.89 143 06:20 10.05.2022
3798 Clear 11 1012 66 10000 2.87 170 02:23 10.05.2022
3799 Clear 13 1024 68 10000 2.73 166 23:53 09.05.2022
3800 Clear 14 1013 58 10000 2.58 151 22:41 09.05.2022
3801 Clear 16 1013 54 10000 2.3 137 21:42 09.05.2022
3802 Clear 18 1013 42 10000 1.15 173 20:21 09.05.2022
3803 Clear 21 1014 34 10000 3.13 148 18:26 09.05.2022
3804 Clear 20 1025 45 10000 2.45 154 17:27 09.05.2022
3805 Clear 20 1026 44 10000 2.49 151 16:19 09.05.2022
3806 Clear 20 1026 44 10000 2.49 151 15:47 09.05.2022
3807 Clear 22 1016 26 10000 1.34 97 14:41 09.05.2022
3808 Clouds 21 1016 28 10000 1.34 295 13:59 09.05.2022
3809 Clouds 21 1017 27 10000 2.24 127 13:23 09.05.2022
3810 Clouds 19 1018 38 10000 0.45 5 11:53 09.05.2022
3811 Clear 18 1018 46 10000 2.64 117 10:50 09.05.2022
3812 Clear 14 1028 59 10000 2.43 110 10:26 09.05.2022
3813 Clouds 10 1029 72 10000 2.06 100 07:57 09.05.2022
3814 Clouds 8 1018 81 10000 0.45 293 06:42 09.05.2022
3815 Clear 9 1018 69 10000 2 72 02:37 09.05.2022
3816 Clear 9 1018 69 10000 2 72 02:37 09.05.2022
3817 Clear 9 1018 69 10000 2 72 02:37 09.05.2022
3818 Clear 9 1018 69 10000 2 72 02:37 09.05.2022
3819 Clear 11 1017 57 10000 2.63 30 23:29 08.05.2022
3820 Clear 11 1017 55 10000 2.63 30 22:42 08.05.2022
3821 Clear 9 1027 71 10000 2.6 33 21:37 08.05.2022
3822 Clear 10 1027 67 10000 2.64 31 20:31 08.05.2022
3823 Clear 12 1026 63 10000 2.65 27 19:37 08.05.2022
3824 Clear 15 1026 55 10000 2.87 16 18:49 08.05.2022
3825 Clear 16 1025 46 10000 3.49 2 17:45 08.05.2022
3826 Clouds 19 1026 30 10000 0.89 27 16:30 08.05.2022
3827 Clouds 19 1026 36 10000 2.24 303 15:25 08.05.2022
3828 Clouds 17 1027 44 10000 2.24 330 14:23 08.05.2022
3829 Clouds 15 1027 54 10000 1.34 228 11:53 08.05.2022
3830 Clouds 11 1027 66 10000 3.02 326 10:27 08.05.2022
3831 Clouds 11 1027 66 10000 3.02 326 09:55 08.05.2022
3832 Clouds 9 1026 82 10000 3.34 340 08:37 08.05.2022
3833 Clouds 8 1025 91 10000 3.18 348 06:51 08.05.2022
3834 Clouds 9 1024 94 10000 3.06 350 03:25 08.05.2022
3835 Clouds 9 1024 93 10000 2.89 2 02:23 08.05.2022
3836 Clouds 14 1013 81 10000 1.34 303 00:20 08.05.2022
3837 Clouds 14 1012 78 10000 2.72 5 23:46 07.05.2022
3838 Clouds 16 1012 71 10000 0.45 283 22:46 07.05.2022
3839 Clouds 16 1012 70 10000 2.96 3 21:57 07.05.2022
3840 Clouds 13 1022 92 10000 2.95 3 21:33 07.05.2022
3841 Clouds 18 1022 64 10000 3.07 343 20:27 07.05.2022
3842 Clouds 19 1011 58 9525 0.45 162 18:59 07.05.2022
3843 Clouds 19 1021 67 10000 3.08 306 17:33 07.05.2022
3844 Clouds 20 1021 57 10000 2.8 293 15:34 07.05.2022
3845 Clouds 18 1022 60 10000 2.39 265 12:34 07.05.2022
3846 Clouds 16 1023 67 10000 1.37 308 10:33 07.05.2022
3847 Clouds 15 1022 68 10000 1.45 268 08:52 07.05.2022
3848 Clouds 14 1022 69 10000 1.19 254 07:43 07.05.2022
3849 Clouds 11 1012 76 10000 1.49 231 06:43 07.05.2022
3850 Clouds 11 1012 76 10000 1.58 221 04:35 07.05.2022
3851 Clouds 14 1013 66 10000 2.19 229 00:56 07.05.2022
3852 Clouds 15 1013 60 10000 2.09 230 23:28 06.05.2022
3853 Clouds 16 1013 57 10000 1.91 236 22:21 06.05.2022
3854 Clouds 16 1013 57 10000 1.91 236 21:36 06.05.2022
3855 Clouds 17 1013 51 10000 1.44 213 20:24 06.05.2022
3856 Clouds 19 1013 44 10000 1.1 277 19:29 06.05.2022
3857 Clouds 19 1013 44 10000 1.1 277 19:29 06.05.2022
3858 Clouds 19 1023 43 10000 1.1 277 18:56 06.05.2022
3859 Clouds 17 1023 59 10000 1.32 302 17:38 06.05.2022
3860 Clouds 17 1023 58 10000 1.29 309 15:56 06.05.2022
3861 Clouds 17 1023 58 10000 1.29 309 15:38 06.05.2022
3862 Clouds 17 1024 55 10000 1.31 294 14:33 06.05.2022
3863 Clouds 20 1015 38 10000 0.89 299 12:53 06.05.2022
3864 Clouds 20 1015 38 10000 0.89 282 12:31 06.05.2022
3865 Clouds 19 1015 41 10000 1.79 207 11:38 06.05.2022
3866 Clouds 15 1025 61 10000 0.74 350 10:26 06.05.2022
3867 Clouds 15 1025 61 10000 0.74 350 09:39 06.05.2022
3868 Clouds 11 1025 69 10000 0.46 22 07:59 06.05.2022
3869 Clouds 8 1014 78 10000 0.44 315 06:39 06.05.2022
3870 Clouds 7 1014 79 10000 0.45 115 04:51 06.05.2022
3871 Clouds 9 1014 73 10000 1.42 11 02:43 06.05.2022
3872 Clouds 8 1024 76 10000 2.02 16 23:36 05.05.2022
3873 Clouds 10 1023 72 10000 2.38 22 21:53 05.05.2022
3874 Clouds 11 1022 69 10000 2.78 23 21:19 05.05.2022
3875 Clouds 13 1022 65 10000 2.48 7 19:49 05.05.2022
3876 Clouds 19 1021 35 10000 2.68 213 16:57 05.05.2022
3877 Clouds 19 1021 34 10000 1.34 5 16:18 05.05.2022
3878 Clouds 20 1011 33 10000 2.24 355 14:43 05.05.2022
3879 Clouds 19 1011 42 10000 1.34 310 13:21 05.05.2022
3880 Clouds 18 1011 44 10000 2.68 196 12:24 05.05.2022
3881 Clouds 17 1011 54 10000 1.79 177 10:33 05.05.2022
3882 Clouds 13 1021 66 10000 3.11 326 09:39 05.05.2022
3883 Clouds 12 1010 72 10000 2.24 316 07:34 05.05.2022
3884 Clouds 12 1008 89 10000 1.34 330 04:28 05.05.2022
3885 Rain 13 1007 86 10000 0.45 314 01:50 05.05.2022
3886 Rain 13 1007 87 10000 1.79 1 01:22 05.05.2022
3887 Rain 11 1018 94 10000 1.17 46 23:34 04.05.2022
3888 Clouds 12 1017 91 10000 2.25 15 22:27 04.05.2022
3889 Clouds 12 1017 91 10000 2.25 15 21:49 04.05.2022
3890 Clouds 12 1017 86 10000 2.34 353 21:26 04.05.2022
3891 Clouds 14 1016 81 10000 2.92 357 20:22 04.05.2022
3892 Clouds 14 1016 81 10000 2.92 357 19:53 04.05.2022
3893 Clouds 19 1006 46 10000 2.52 1 18:54 04.05.2022
3894 Clouds 20 1006 41 10000 0.76 16 18:22 04.05.2022
3895 Clouds 20 1006 40 10000 1.79 283 17:38 04.05.2022
3896 Clouds 17 1016 59 10000 1.62 150 15:40 04.05.2022
3897 Clouds 17 1017 59 10000 1.82 140 15:22 04.05.2022
3898 Clouds 16 1017 60 10000 1.72 140 14:21 04.05.2022
3899 Clouds 19 1008 41 10000 1.75 170 13:33 04.05.2022
3900 Clouds 15 1018 60 10000 1.31 176 12:33 04.05.2022
3901 Clouds 16 1009 49 10000 0.45 28 10:41 04.05.2022
3902 Clouds 13 1019 64 10000 0.6 357 09:43 04.05.2022
3903 Clouds 11 1019 68 10000 1.56 348 08:46 04.05.2022
3904 Clouds 8 1009 75 10000 1.89 336 06:41 04.05.2022
3905 Clouds 11 1008 67 10000 0.89 359 02:58 04.05.2022
3906 Clouds 11 1008 68 10000 0.45 299 00:38 04.05.2022
3907 Clouds 9 1018 82 10000 2 2 22:37 03.05.2022
3908 Clouds 10 1018 83 10000 2.69 12 21:46 03.05.2022
3909 Clouds 10 1018 82 10000 3.06 7 20:54 03.05.2022
3910 Clouds 12 1017 76 10000 3.01 0 19:59 03.05.2022
3911 Clouds 14 1016 67 10000 2.85 5 18:54 03.05.2022
3912 Clouds 15 1016 61 10000 4.04 3 18:21 03.05.2022
3913 Clouds 15 1016 59 10000 4.69 356 16:44 03.05.2022
3914 Clouds 16 1016 53 10000 4.23 339 15:38 03.05.2022
3915 Clouds 17 1008 35 10000 2.68 262 12:47 03.05.2022
3916 Clouds 17 1008 37 10000 3.13 311 12:27 03.05.2022
3917 Clouds 16 1008 45 10000 3.02 323 10:57 03.05.2022
3918 Clouds 14 1008 49 10000 0.89 310 09:46 03.05.2022
3919 Clouds 9 1018 73 10000 2.98 320 07:58 03.05.2022
3920 Clouds 9 1007 66 10000 2.68 258 06:45 03.05.2022
3921 Clear 8 1017 90 10000 2.25 323 01:52 03.05.2022
3922 Clouds 9 1018 84 10000 1.39 13 22:44 02.05.2022
3923 Clouds 10 1018 81 10000 1.88 28 21:55 02.05.2022
3924 Clouds 11 1017 78 10000 2.61 30 21:24 02.05.2022
3925 Clouds 16 1016 65 10000 2.69 15 18:57 02.05.2022
3926 Clouds 19 1006 41 10000 0.89 295 18:25 02.05.2022
3927 Clouds 17 1016 55 10000 2.3 360 17:37 02.05.2022
3928 Clouds 17 1017 52 10000 1.99 338 16:24 02.05.2022
3929 Clouds 17 1017 53 10000 2.22 316 15:40 02.05.2022
3930 Clouds 20 1009 38 10000 1.79 306 14:19 02.05.2022
3931 Clouds 18 1010 40 10000 0.45 237 12:45 02.05.2022
3932 Clouds 14 1020 62 10000 1.8 72 11:24 02.05.2022
3933 Clouds 12 1020 68 10000 1.64 55 09:32 02.05.2022
3934 Clouds 11 1011 70 10000 1.36 43 07:57 02.05.2022
3935 Clouds 9 1011 75 10000 1.53 34 05:37 02.05.2022
3936 Clouds 8 1022 87 10000 1.9 37 00:40 02.05.2022
3937 Clouds 8 1022 85 10000 2.1 31 00:21 02.05.2022
3938 Clouds 12 1012 70 10000 2.23 27 22:49 01.05.2022
3939 Clouds 12 1012 65 10000 2.41 22 21:41 01.05.2022
3940 Clouds 13 1011 55 10000 2.67 355 20:23 01.05.2022
3941 Clouds 15 1011 49 10000 0.89 49 19:20 01.05.2022
3942 Clouds 16 1011 48 10000 3.58 347 18:52 01.05.2022
3943 Clouds 17 1011 45 10000 1.79 292 17:47 01.05.2022
3944 Clouds 17 1012 43 10000 2.68 7 16:26 01.05.2022
3945 Clouds 17 1012 43 10000 3.71 340 15:45 01.05.2022
3946 Clouds 17 1012 41 10000 1.79 5 14:45 01.05.2022
3947 Clouds 16 1013 45 10000 3.13 323 12:22 01.05.2022
3948 Clouds 11 1014 64 10000 0.89 327 09:34 01.05.2022
3949 Clouds 11 1013 61 10000 3.13 335 08:49 01.05.2022
3950 Clouds 10 1012 67 10000 2.24 310 05:42 01.05.2022
3951 Clouds 11 1013 62 10000 2.24 359 01:56 01.05.2022
3952 Clouds 12 1012 63 10000 3.13 323 22:18 30.04.2022
3953 Clouds 9 1023 80 10000 2.81 334 21:32 30.04.2022
3954 Clouds 15 1011 51 10000 2.95 350 19:53 30.04.2022
3955 Clouds 16 1011 49 10000 2.68 244 18:53 30.04.2022
3956 Clouds 17 1012 46 10000 0.89 359 17:26 30.04.2022
3957 Clouds 18 1012 43 10000 1.79 302 15:51 30.04.2022
3958 Clouds 16 1022 57 10000 3.2 358 15:18 30.04.2022
3959 Clouds 18 1013 43 10000 3.13 359 13:52 30.04.2022
3960 Clouds 16 1014 47 10000 2.24 295 11:48 30.04.2022
3961 Clouds 15 1014 50 10000 2.24 359 11:26 30.04.2022
3962 Clouds 11 1025 68 10000 3.77 350 09:57 30.04.2022
3963 Clouds 9 1014 69 10000 2.24 228 07:47 30.04.2022
3964 Clouds 9 1014 75 10000 1.79 297 03:58 30.04.2022
3965 Clouds 12 1015 61 10000 6.26 320 23:57 29.04.2022
3966 Clouds 13 1015 59 10000 0.45 309 22:51 29.04.2022
3967 Clouds 14 1015 54 10000 1.63 27 21:56 29.04.2022
3968 Clouds 14 1015 52 10000 1.04 26 21:25 29.04.2022
3969 Clouds 15 1014 47 10000 0.75 59 20:18 29.04.2022
3970 Clouds 17 1014 41 10000 0.7 78 19:28 29.04.2022
3971 Clouds 19 1015 30 10000 0.82 98 17:35 29.04.2022
3972 Clouds 17 1025 42 10000 0.88 114 16:38 29.04.2022
3973 Clouds 19 1017 32 10000 1.79 42 14:37 29.04.2022
3974 Clouds 19 1018 35 10000 1.19 120 13:42 29.04.2022
3975 Clouds 18 1018 40 10000 0.99 111 12:37 29.04.2022
3976 Clouds 16 1019 49 10000 1.24 99 10:44 29.04.2022
3977 Clouds 9 1019 71 10000 0.8 15 07:57 29.04.2022
3978 Clouds 8 1019 74 10000 0.83 352 07:26 29.04.2022
3979 Clouds 6 1019 79 10000 0.83 352 06:32 29.04.2022
3980 Clouds 7 1019 77 10000 1.35 338 02:50 29.04.2022
3981 Clouds 8 1019 73 10000 0.89 268 00:18 29.04.2022
3982 Clear 9 1019 71 10000 1.75 298 23:26 28.04.2022
3983 Clear 10 1019 70 10000 1.75 298 22:37 28.04.2022
3984 Clear 11 1019 64 10000 1.67 294 21:44 28.04.2022
3985 Clear 9 1029 71 10000 1.82 303 20:49 28.04.2022
3986 Clouds 11 1029 69 10000 2.19 303 19:57 28.04.2022
3987 Clouds 12 1028 69 10000 2.09 310 19:38 28.04.2022
3988 Clouds 16 1017 43 10000 1.79 223 19:19 28.04.2022
3989 Clouds 17 1017 41 10000 2.68 7 17:55 28.04.2022
3990 Clouds 18 1018 38 10000 1.34 359 16:58 28.04.2022
3991 Clouds 18 1018 37 10000 0.89 12 16:21 28.04.2022
3992 Clouds 18 1018 40 10000 4.47 309 15:52 28.04.2022
3993 Clouds 18 1018 41 10000 3.58 324 15:18 28.04.2022
3994 Clouds 18 1019 41 10000 0.89 201 13:43 28.04.2022
3995 Clouds 17 1019 43 10000 1.34 287 12:32 28.04.2022
3996 Clouds 16 1019 45 10000 2.91 310 11:38 28.04.2022
3997 Clouds 11 1029 72 10000 2.95 331 10:28 28.04.2022
3998 Clouds 11 1029 72 10000 2.95 331 09:50 28.04.2022
3999 Clouds 9 1018 67 10000 1.79 343 07:44 28.04.2022
4000 Clouds 7 1018 79 10000 2.29 321 06:53 28.04.2022
4001 Clouds 6 1017 82 10000 2.61 319 05:54 28.04.2022
4002 Clouds 7 1017 78 10000 2.56 319 04:43 28.04.2022
4003 Clouds 5 1027 90 10000 2.15 322 03:28 28.04.2022
4004 Clouds 9 1016 71 10000 1.34 239 23:43 27.04.2022
4005 Clouds 11 1015 66 10000 1.29 343 22:25 27.04.2022
4006 Clouds 8 1026 82 10000 1.29 343 21:47 27.04.2022
4007 Clouds 9 1026 79 10000 1.79 4 20:51 27.04.2022
4008 Clouds 9 1026 79 10000 1.79 4 20:32 27.04.2022
4009 Clouds 12 1025 71 10000 2.11 330 19:36 27.04.2022
4010 Clouds 13 1024 67 10000 2.58 315 18:45 27.04.2022
4011 Clouds 18 1014 38 10000 1.34 324 18:21 27.04.2022
4012 Clouds 16 1024 49 10000 2.14 321 16:23 27.04.2022
4013 Clouds 18 1014 37 10000 2.68 220 13:51 27.04.2022
4014 Clouds 16 1015 42 10000 1.34 60 11:39 27.04.2022
4015 Clouds 15 1015 44 10000 0.89 22 11:18 27.04.2022
4016 Clouds 9 1024 62 10000 1.6 349 08:58 27.04.2022
4017 Clouds 8 1013 70 10000 2.35 340 06:45 27.04.2022
4018 Clouds 8 1013 70 10000 2.35 340 06:45 27.04.2022
4019 Clouds 9 1011 66 10000 0.89 307 03:41 27.04.2022
4020 Clouds 8 1021 76 10000 2.22 11 01:30 27.04.2022
4021 Clouds 8 1020 75 10000 2.24 19 00:36 27.04.2022
4022 Clouds 7 1020 80 10000 2.35 26 23:25 26.04.2022
4023 Clouds 7 1020 80 10000 2.35 26 22:57 26.04.2022
4024 Clouds 7 1020 80 10000 2.35 26 22:38 26.04.2022
4025 Clouds 9 1018 75 10000 2.74 24 21:26 26.04.2022
4026 Clouds 9 1018 75 10000 2.74 24 20:40 26.04.2022
4027 Clouds 11 1017 67 10000 2.47 31 19:49 26.04.2022
4028 Clouds 12 1017 67 10000 1.9 37 19:30 26.04.2022
4029 Clouds 16 1007 40 10000 2.68 358 18:44 26.04.2022
4030 Clouds 17 1006 41 10000 1.34 355 17:50 26.04.2022
4031 Clouds 17 1006 45 10000 2.68 344 16:28 26.04.2022
4032 Clouds 16 1007 45 10000 0.45 22 13:59 26.04.2022
4033 Clouds 16 1007 43 10000 4.02 33 13:31 26.04.2022
4034 Clouds 16 1007 48 10000 3.13 42 11:48 26.04.2022
4035 Clouds 15 1006 56 10000 1.34 118 10:34 26.04.2022
4036 Clouds 10 1016 82 10000 1.29 102 08:54 26.04.2022
4037 Clouds 6 1006 91 10000 1.4 116 06:57 26.04.2022
4038 Clouds 6 1005 90 10000 0.81 136 04:23 26.04.2022
4039 Clouds 8 1005 87 10000 1.9 77 01:22 26.04.2022
4040 Clouds 9 1004 85 10000 2.08 69 00:25 26.04.2022
4041 Clouds 11 1004 79 10000 1.83 55 22:33 25.04.2022
4042 Clouds 8 1014 82 10000 1.37 25 21:39 25.04.2022
4043 Clouds 9 1014 78 10000 1.43 351 20:39 25.04.2022
4044 Clouds 15 1003 53 10000 1.63 3 18:55 25.04.2022
4045 Clouds 16 1002 44 10000 2.33 357 17:52 25.04.2022
4046 Clouds 14 1012 54 10000 2.49 351 16:55 25.04.2022
4047 Clouds 15 1003 54 10000 1.34 314 15:29 25.04.2022
4048 Clouds 14 1003 58 10000 2.24 33 14:38 25.04.2022
4049 Clouds 14 1002 57 10000 0.45 142 13:33 25.04.2022
4050 Clouds 11 1002 75 10000 2.68 300 11:38 25.04.2022
4051 Clouds 9 1001 80 10000 2.68 16 10:26 25.04.2022
4052 Clouds 8 1000 86 10000 1.79 311 08:39 25.04.2022
4053 Clouds 7 999 93 10000 1.34 335 06:39 25.04.2022
4054 Clouds 7 998 97 10000 2.24 32 04:27 25.04.2022
4055 Clouds 9 997 87 10000 0.89 345 00:57 25.04.2022
4056 Rain 10 996 89 10000 2.68 310 23:51 24.04.2022
4057 Clouds 8 1006 83 10000 4.43 41 22:45 24.04.2022
4058 Clouds 12 995 70 10000 2.24 352 22:26 24.04.2022
4059 Clouds 13 995 52 10000 3.13 62 21:26 24.04.2022
4060 Clouds 11 1005 71 10000 6.03 45 20:54 24.04.2022
4061 Clouds 11 1005 69 10000 5.51 49 20:35 24.04.2022
4062 Clouds 12 1004 64 10000 5.08 41 19:46 24.04.2022
4063 Clouds 16 993 42 10000 2.68 39 18:20 24.04.2022
4064 Clouds 17 993 40 10000 4.02 66 17:29 24.04.2022
4065 Clouds 17 993 38 10000 4.92 46 16:59 24.04.2022
4066 Clouds 17 993 39 10000 2.68 26 16:35 24.04.2022
4067 Clouds 18 993 39 10000 2.68 2 15:55 24.04.2022
4068 Clouds 18 993 37 10000 2.24 359 15:31 24.04.2022
4069 Clouds 18 993 37 10000 2.24 359 15:31 24.04.2022
4070 Clouds 14 1004 54 10000 6.01 48 13:57 24.04.2022
4071 Clouds 17 994 40 10000 1.79 64 13:25 24.04.2022
4072 Clouds 17 994 45 10000 2.24 57 12:30 24.04.2022
4073 Clouds 15 994 51 10000 3.13 21 11:28 24.04.2022
4074 Clouds 13 994 56 10000 8.05 345 10:25 24.04.2022
4075 Clouds 13 995 52 10000 5.81 334 09:23 24.04.2022
4076 Clear 6 995 81 10000 1.79 359 06:45 24.04.2022
4077 Clear 7 995 74 10000 3.13 341 03:55 24.04.2022
4078 Clouds 8 996 70 10000 2.68 32 01:38 24.04.2022
4079 Clouds 9 996 66 10000 2.24 46 00:24 24.04.2022
4080 Clouds 10 996 65 10000 1.34 40 23:44 23.04.2022
4081 Clouds 11 996 62 10000 6.29 62 23:21 23.04.2022
4082 Clouds 12 996 59 10000 0.45 307 21:51 23.04.2022
4083 Clouds 12 997 58 10000 5.83 59 21:33 23.04.2022
4084 Clouds 13 996 49 10000 4.07 61 20:51 23.04.2022
4085 Clouds 12 1007 61 10000 3.34 75 19:47 23.04.2022
4086 Clouds 16 997 41 10000 1.79 64 19:19 23.04.2022
4087 Clouds 16 997 38 10000 3.13 39 18:52 23.04.2022
4088 Clouds 17 997 35 10000 6.26 105 17:51 23.04.2022
4089 Clear 18 997 35 10000 3.13 47 17:26 23.04.2022
4090 Clear 18 997 35 10000 2.24 56 16:41 23.04.2022
4091 Clear 18 998 34 10000 4.92 111 15:20 23.04.2022
4092 Clear 16 1000 42 10000 4.02 94 12:44 23.04.2022
4093 Clear 13 1001 47 10000 9.39 69 10:44 23.04.2022
4094 Clear 11 1011 58 10000 6.29 95 09:33 23.04.2022
4095 Clear 6 1001 85 10000 0.89 25 06:41 23.04.2022
4096 Clear 7 1000 79 10000 0.45 358 03:54 23.04.2022
4097 Clouds 11 1000 63 10000 3.13 63 01:20 23.04.2022
4098 Clouds 12 1000 66 10000 1.34 42 23:30 22.04.2022
4099 Clouds 12 999 67 10000 2.24 71 22:20 22.04.2022
4100 Clouds 9 1010 82 10000 5.46 76 21:44 22.04.2022
4101 Clear 9 1009 83 10000 5.14 78 20:48 22.04.2022
4102 Clouds 13 999 68 10000 0.89 39 20:27 22.04.2022
4103 Clouds 13 998 67 10000 3.13 278 19:20 22.04.2022
4104 Clouds 14 998 64 10000 3.58 81 18:42 22.04.2022
4105 Clouds 15 998 60 10000 1.34 80 17:48 22.04.2022
4106 Clouds 15 998 58 10000 4.47 53 16:46 22.04.2022
4107 Clouds 16 998 56 10000 3.13 25 15:44 22.04.2022
4108 Clouds 16 998 56 10000 1.79 15 15:18 22.04.2022
4109 Clouds 14 1008 66 10000 6.05 76 13:54 22.04.2022
4110 Clouds 15 999 60 10000 1.79 11 12:58 22.04.2022
4111 Clouds 14 1000 64 10000 1.34 15 11:52 22.04.2022
4112 Clouds 12 1000 68 10000 1.34 0 11:22 22.04.2022
4113 Clouds 11 1000 70 10000 1.34 14 10:50 22.04.2022
4114 Clouds 11 1000 70 10000 2.68 330 10:30 22.04.2022
4115 Clouds 11 1000 73 10000 1.34 39 09:53 22.04.2022
4116 Clouds 9 1000 78 10000 2.24 341 08:51 22.04.2022
4117 Clouds 8 1000 85 10000 1.34 8 07:33 22.04.2022
4118 Clouds 9 1001 95 10000 0.45 340 04:24 22.04.2022
4119 Clouds 9 1002 96 10000 2.41 52 00:52 22.04.2022
4120 Rain 10 1003 96 10000 0.45 14 23:26 21.04.2022
4121 Clouds 10 1003 96 10000 1.34 23 22:29 21.04.2022
4122 Rain 10 1003 95 10000 2.24 23 20:46 21.04.2022
4123 Rain 10 1003 93 10000 0.89 95 20:26 21.04.2022
4124 Clouds 12 1003 72 10000 3.13 80 18:47 21.04.2022
4125 Clouds 12 1003 73 10000 0.45 29 18:19 21.04.2022
4126 Clouds 11 1004 76 10000 3.36 65 16:49 21.04.2022
4127 Clouds 12 1004 70 10000 1.34 12 15:23 21.04.2022
4128 Clouds 10 1014 78 10000 3.31 54 14:50 21.04.2022
4129 Clouds 10 1014 78 10000 3.32 56 13:52 21.04.2022
4130 Clouds 9 1014 80 10000 2.8 46 13:19 21.04.2022
4131 Clouds 8 1014 82 10000 2.7 28 11:25 21.04.2022
4132 Clouds 8 1004 83 10000 2.68 290 08:59 21.04.2022
4133 Clouds 8 1004 76 10000 2.24 5 07:55 21.04.2022
4134 Clouds 8 1004 73 10000 2.34 3 06:25 21.04.2022
4135 Clouds 5 1014 82 10000 2.68 15 03:35 21.04.2022
4136 Clouds 4 1014 89 10000 2.99 11 02:56 21.04.2022
4137 Clouds 4 1014 89 10000 2.99 11 02:38 21.04.2022
4138 Rain 5 1015 86 10000 3.6 360 23:53 20.04.2022
4139 Clouds 7 1015 81 10000 3.7 9 23:23 20.04.2022
4140 Clouds 7 1015 81 10000 3.7 9 22:52 20.04.2022
4141 Clouds 7 1015 81 10000 3.7 9 22:32 20.04.2022
4142 Clouds 7 1015 81 10000 3.7 9 22:32 20.04.2022
4143 Clouds 9 1015 76 10000 4.2 14 21:35 20.04.2022
4144 Clouds 12 1005 60 10000 2.68 22 20:43 20.04.2022
4145 Clouds 12 1004 55 10000 0.89 296 19:55 20.04.2022
4146 Clouds 13 1005 54 10000 0.89 326 19:29 20.04.2022
4147 Clouds 13 1005 49 10000 3.13 304 18:33 20.04.2022
4148 Clouds 14 1006 44 10000 0.45 359 16:59 20.04.2022
4149 Clouds 13 1006 49 10000 0.45 345 16:39 20.04.2022
4150 Clouds 15 1007 42 10000 2.68 52 14:52 20.04.2022
4151 Clouds 14 1008 49 10000 2.24 5 11:57 20.04.2022
4152 Clouds 14 1008 50 10000 4.02 0 11:33 20.04.2022
4153 Clouds 11 1008 63 10000 2.24 309 10:30 20.04.2022
4154 Clouds 8 1008 70 10000 1.34 8 09:27 20.04.2022
4155 Clouds 7 1008 74 10000 1.34 304 08:25 20.04.2022
4156 Clouds 7 1008 74 10000 1.34 304 08:25 20.04.2022
4157 Clouds 6 1008 77 10000 1.34 307 07:44 20.04.2022
4158 Clouds 4 1007 80 10000 2.15 12 05:19 20.04.2022
4159 Clouds 7 1007 72 10000 2.57 30 01:20 20.04.2022
4160 Clouds 7 1007 67 10000 0.89 355 00:21 20.04.2022
4161 Clouds 8 1007 64 10000 3 44 22:44 19.04.2022
4162 Clouds 9 1006 59 10000 2.98 48 22:23 19.04.2022
4163 Clouds 9 1006 62 10000 2.98 48 21:46 19.04.2022
4164 Clouds 10 1006 54 10000 2.92 56 20:57 19.04.2022
4165 Clouds 7 1017 73 10000 2.92 56 20:37 19.04.2022
4166 Clouds 9 1016 68 10000 3.41 56 19:32 19.04.2022
4167 Clouds 14 1005 38 10000 2.68 93 18:27 19.04.2022
4168 Clouds 13 1015 48 10000 4.91 44 16:50 19.04.2022
4169 Clouds 16 1005 32 10000 2.24 317 16:25 19.04.2022
4170 Clouds 16 1005 33 10000 2.68 359 15:57 19.04.2022
4171 Clouds 16 1005 32 10000 4.02 7 14:44 19.04.2022
4172 Clouds 14 1006 33 10000 4.02 2 12:53 19.04.2022
4173 Clouds 13 1006 33 10000 1.34 316 12:31 19.04.2022
4174 Clouds 12 1006 36 10000 3.58 352 11:34 19.04.2022
4175 Clouds 12 1006 45 10000 6.26 29 09:35 19.04.2022
4176 Clouds 7 1006 61 10000 0.89 16 07:43 19.04.2022
4177 Clouds 6 1005 67 10000 0.89 338 04:25 19.04.2022
4178 Clouds 4 1017 75 10000 2.7 34 01:42 19.04.2022
4179 Clouds 6 1017 77 10000 3.02 45 23:49 18.04.2022
4180 Clouds 10 1006 57 10000 0.89 337 22:53 18.04.2022
4181 Clouds 11 1007 54 10000 2.35 3 21:26 18.04.2022
4182 Clouds 9 1017 68 10000 2.35 3 20:39 18.04.2022
4183 Clouds 13 1007 46 10000 2.21 25 20:19 18.04.2022
4184 Clouds 10 1017 66 10000 2.21 25 19:33 18.04.2022
4185 Clouds 15 1007 38 10000 2.4 29 18:45 18.04.2022
4186 Clouds 16 1007 36 10000 2.99 30 17:49 18.04.2022
4187 Clouds 17 1008 33 10000 0.45 104 17:19 18.04.2022
4188 Clouds 17 1008 32 10000 0.89 350 16:39 18.04.2022
4189 Clouds 16 1009 37 10000 0.89 166 15:32 18.04.2022
4190 Clouds 16 1010 39 10000 1.79 310 14:27 18.04.2022
4191 Clouds 14 1011 38 10000 3.58 2 13:24 18.04.2022
4192 Clouds 14 1011 39 10000 1.34 62 12:27 18.04.2022
4193 Clouds 12 1012 51 10000 0.89 163 10:58 18.04.2022
4194 Clouds 9 1022 49 10000 2.25 57 09:53 18.04.2022
4195 Clouds 7 1022 58 10000 1.79 57 09:27 18.04.2022
4196 Clouds 4 1013 82 10000 1.71 54 07:29 18.04.2022
4197 Clear 4 1013 81 10000 1.46 89 03:51 18.04.2022
4198 Clear 7 1014 70 10000 2.08 41 23:30 17.04.2022
4199 Clear 8 1014 65 10000 1.58 28 22:37 17.04.2022
4200 Clouds 9 1015 61 10000 1.63 35 21:34 17.04.2022
4201 Clouds 10 1015 52 10000 2.14 35 20:53 17.04.2022
4202 Clouds 11 1015 48 10000 1.93 20 20:25 17.04.2022
4203 Clouds 13 1015 40 10000 1.6 35 19:20 17.04.2022
4204 Clear 15 1016 36 10000 1.34 351 17:38 17.04.2022
4205 Clouds 16 1018 34 10000 4.02 95 15:37 17.04.2022
4206 Clouds 15 1019 36 10000 1.34 206 14:53 17.04.2022
4207 Clouds 14 1029 100 10000 1.79 180 13:41 17.04.2022
4208 Clouds 13 1021 39 10000 2.68 142 12:56 17.04.2022
4209 Clouds 9 1031 41 10000 2.18 100 11:22 17.04.2022
4210 Clouds 11 1023 37 10000 1.34 84 10:38 17.04.2022
4211 Clouds 7 1032 43 10000 2.05 101 10:19 17.04.2022
4212 Clouds 6 1032 48 10000 1.85 107 09:23 17.04.2022
4213 Clouds 6 1032 48 10000 1.85 107 08:41 17.04.2022
4214 Clouds 1 1023 84 10000 1.45 91 06:52 17.04.2022
4215 Clouds 2 1023 78 10000 1.52 91 03:20 17.04.2022
4216 Clouds 4 1024 70 10000 2.24 66 00:53 17.04.2022
4217 Clouds 3 1035 60 10000 2.47 64 23:48 16.04.2022
4218 Clouds 7 1024 62 10000 0.45 16 22:27 16.04.2022
4219 Clouds 8 1023 57 10000 0.89 290 21:29 16.04.2022
4220 Clouds 7 1034 58 10000 3.12 46 19:54 16.04.2022
4221 Clouds 12 1023 39 10000 2.8 51 18:54 16.04.2022
4222 Clouds 13 1023 34 10000 3.13 84 17:40 16.04.2022
4223 Clouds 14 1024 37 10000 1.34 15 16:32 16.04.2022
4224 Clouds 14 1024 39 10000 2.24 327 15:40 16.04.2022
4225 Clouds 13 1025 42 10000 1.34 335 14:51 16.04.2022
4226 Clear 12 1025 44 10000 0.89 86 13:57 16.04.2022
4227 Clear 11 1025 48 10000 0.45 321 13:26 16.04.2022
4228 Clear 10 1026 51 10000 2.24 84 12:18 16.04.2022
4229 Clear 8 1026 62 10000 4.02 45 10:49 16.04.2022
4230 Clouds 8 1025 59 10000 6.26 38 09:44 16.04.2022
4231 Clouds 7 1025 65 10000 2.24 35 08:57 16.04.2022
4232 Clouds 4 1025 84 10000 1.34 317 07:32 16.04.2022
4233 Clouds 2 1024 90 10000 0.89 23 06:46 16.04.2022
4234 Clouds 5 1022 80 10000 5.81 335 02:33 16.04.2022
4235 Clouds 7 1021 81 10000 2.24 29 00:23 16.04.2022
4236 Clouds 8 1020 82 10000 4.02 337 22:57 15.04.2022
4237 Clouds 8 1020 81 10000 1.34 0 22:31 15.04.2022
4238 Clouds 8 1020 81 10000 3.13 32 21:47 15.04.2022
4239 Clouds 9 1019 80 10000 4.02 289 20:56 15.04.2022
4240 Clouds 9 1018 79 10000 2.68 22 19:59 15.04.2022
4241 Clouds 9 1018 79 10000 2.68 5 19:39 15.04.2022
4242 Clouds 10 1017 80 10000 2.68 345 18:53 15.04.2022
4243 Clouds 11 1017 79 10000 2.68 293 18:25 15.04.2022
4244 Clouds 11 1017 77 10000 1.79 323 17:34 15.04.2022
4245 Clouds 11 1016 76 10000 5.48 352 16:37 15.04.2022
4246 Clouds 11 1016 75 10000 5.81 319 16:18 15.04.2022
4247 Clouds 12 1016 73 10000 4.47 283 14:44 15.04.2022
4248 Clouds 11 1016 73 10000 3.13 350 13:34 15.04.2022
4249 Clouds 11 1016 74 10000 5.36 317 12:40 15.04.2022
4250 Clouds 11 1015 76 10000 2.24 319 11:55 15.04.2022
4251 Clouds 11 1015 75 10000 5.81 289 11:30 15.04.2022
4252 Clouds 11 1015 79 10000 2.24 251 10:40 15.04.2022
4253 Clouds 9 1014 81 10000 6.26 289 09:44 15.04.2022
4254 Clouds 9 1014 85 10000 1.79 221 09:19 15.04.2022
4255 Clouds 8 1013 92 10000 1.34 285 07:28 15.04.2022
4256 Clouds 8 1013 92 10000 1.79 300 06:28 15.04.2022
4257 Clouds 9 1011 97 10000 4.12 302 02:39 15.04.2022
4258 Clouds 11 1011 96 10000 0.45 224 23:31 14.04.2022
4259 Clouds 11 1011 97 10000 0.45 199 22:49 14.04.2022
4260 Clouds 11 1011 97 10000 3.31 284 22:29 14.04.2022
4261 Clouds 12 1011 97 10000 0.45 189 21:59 14.04.2022
4262 Clouds 12 1010 97 10000 2.68 285 20:43 14.04.2022
4263 Clouds 13 1009 97 10000 0.89 179 19:23 14.04.2022
4264 Clouds 16 1009 71 10000 2.6 238 18:22 14.04.2022
4265 Clouds 17 1009 69 10000 2.6 238 17:40 14.04.2022
4266 Clouds 17 1010 65 10000 1.34 179 16:46 14.04.2022
4267 Clouds 16 1010 70 10000 1.79 252 15:26 14.04.2022
4268 Rain 14 1010 85 10000 1.13 273 13:47 14.04.2022
4269 Rain 14 1011 84 10000 2.24 252 12:57 14.04.2022
4270 Rain 14 1011 82 10000 1.55 291 12:31 14.04.2022
4271 Clouds 13 1011 82 7525 1.34 306 11:29 14.04.2022
4272 Rain 14 1010 78 7524 1.79 297 10:54 14.04.2022
4273 Clouds 14 1010 79 7872 1.79 328 10:27 14.04.2022
4274 Clouds 14 1010 77 10000 1.79 333 09:25 14.04.2022
4275 Rain 12 1009 81 10000 2.59 349 07:33 14.04.2022
4276 Clouds 13 1008 79 10000 1.79 304 04:28 14.04.2022
4277 Clouds 13 1007 69 10000 1.04 213 23:45 13.04.2022
4278 Clouds 14 1007 64 10000 1.12 145 22:24 13.04.2022
4279 Clouds 15 1007 59 10000 1.12 145 21:42 13.04.2022
4280 Clouds 17 1006 51 10000 1.51 137 20:25 13.04.2022
4281 Clouds 15 1016 68 10000 1.52 133 19:39 13.04.2022
4282 Clouds 17 1016 65 10000 1.96 121 18:36 13.04.2022
4283 Clouds 17 1016 65 10000 1.96 121 18:36 13.04.2022
4284 Clouds 20 1016 51 10000 1.91 148 17:24 13.04.2022
4285 Clouds 22 1006 31 10000 2.68 166 16:44 13.04.2022
4286 Clouds 22 1006 33 10000 1.34 138 15:44 13.04.2022
4287 Clouds 22 1006 32 10000 4.47 118 15:19 13.04.2022
4288 Clouds 19 1016 49 10000 2.38 160 14:30 13.04.2022
4289 Clouds 20 1007 39 10000 1.34 193 13:36 13.04.2022
4290 Clouds 18 1007 42 10000 2.68 125 12:41 13.04.2022
4291 Clouds 16 1007 45 10000 1.79 52 11:24 13.04.2022
4292 Clouds 14 1007 48 10000 1.34 165 09:45 13.04.2022
4293 Clouds 13 1006 49 10000 2.68 132 08:43 13.04.2022
4294 Clouds 8 1006 65 10000 2.68 158 07:38 13.04.2022
4295 Clouds 7 1006 71 10000 3.44 137 06:46 13.04.2022
4296 Clouds 7 1005 70 10000 3.13 179 06:23 13.04.2022
4297 Clouds 8 1016 73 10000 3.6 126 00:28 13.04.2022
4298 Clouds 8 1016 73 10000 3.6 126 23:55 12.04.2022
4299 Clouds 8 1016 72 10000 3.54 126 22:31 12.04.2022
4300 Clouds 9 1016 69 10000 3.91 123 21:42 12.04.2022
4301 Clouds 9 1016 68 10000 4.22 115 20:44 12.04.2022
4302 Clouds 11 1015 66 10000 3.92 111 20:18 12.04.2022
4303 Clouds 10 1016 66 10000 3.85 111 19:39 12.04.2022
4304 Clouds 13 1015 58 10000 4.37 117 18:52 12.04.2022
4305 Clouds 15 1016 50 10000 4.86 124 17:37 12.04.2022
4306 Clouds 16 1016 42 10000 5.37 131 16:34 12.04.2022
4307 Clouds 18 1007 29 10000 5.36 73 15:33 12.04.2022
4308 Clouds 18 1007 33 10000 3.13 79 14:41 12.04.2022
4309 Clouds 17 1008 35 10000 2.68 163 13:45 12.04.2022
4310 Clouds 13 1017 45 10000 5.18 128 13:23 12.04.2022
4311 Clouds 13 1009 44 10000 2.24 139 11:49 12.04.2022
4312 Clouds 11 1018 51 10000 4.98 127 11:28 12.04.2022
4313 Clouds 11 1009 52 10000 4.02 115 09:32 12.04.2022
4314 Clouds 7 1018 61 10000 4.64 125 08:32 12.04.2022
4315 Clouds 2 1008 84 10000 3 120 06:34 12.04.2022
4316 Clouds 2 1008 83 10000 3.07 119 05:38 12.04.2022
4317 Clouds 4 1008 81 10000 2.49 125 01:48 12.04.2022
4318 Clouds 6 1008 73 10000 2 121 23:20 11.04.2022
4319 Clouds 7 1008 66 10000 1.96 107 21:51 11.04.2022
4320 Clouds 8 1008 61 10000 1.53 89 21:18 11.04.2022
4321 Clouds 9 1008 54 10000 1.53 89 20:30 11.04.2022
4322 Clouds 11 1007 46 10000 1.18 55 19:58 11.04.2022
4323 Clouds 11 1007 44 10000 0.45 93 19:26 11.04.2022
4324 Clouds 12 1007 41 10000 1.36 349 18:53 11.04.2022
4325 Clouds 14 1008 35 10000 1.83 314 17:58 11.04.2022
4326 Clouds 14 1008 34 10000 2.24 262 17:33 11.04.2022
4327 Clouds 15 1009 33 10000 1.79 314 16:26 11.04.2022
4328 Clouds 15 1010 35 10000 4.92 256 14:42 11.04.2022
4329 Clouds 14 1010 36 10000 2.24 296 13:34 11.04.2022
4330 Clouds 12 1011 40 10000 0.45 26 12:38 11.04.2022
4331 Clouds 12 1011 42 10000 2.68 296 12:19 11.04.2022
4332 Clouds 11 1011 51 10000 0.45 23 10:36 11.04.2022
4333 Clouds 8 1020 57 10000 2.14 252 09:41 11.04.2022
4334 Clouds 3 1021 75 10000 1.48 248 07:58 11.04.2022
4335 Clouds 1 1011 90 10000 1.79 280 04:18 11.04.2022
4336 Clouds 3 1010 81 10000 2.24 234 23:27 10.04.2022
4337 Clouds 4 1010 77 10000 3.32 273 22:26 10.04.2022
4338 Clouds 5 1010 79 10000 3.32 273 21:49 10.04.2022
4339 Clouds 5 1009 78 10000 3.26 286 20:50 10.04.2022
4340 Clouds 5 1009 78 10000 3.26 286 20:50 10.04.2022
4341 Clouds 6 1009 68 10000 3.94 312 19:56 10.04.2022
4342 Clouds 7 1009 62 10000 1.34 316 19:34 10.04.2022
4343 Clouds 8 1009 62 10000 3.58 285 18:48 10.04.2022
4344 Clouds 8 1008 70 10000 3.13 272 18:24 10.04.2022
4345 Clouds 7 1008 76 10000 0.89 249 17:42 10.04.2022
4346 Rain 10 1001 58 10000 7.4 299 16:52 10.04.2022
4347 Clouds 11 1008 52 10000 2.68 293 15:38 10.04.2022
4348 Clouds 11 1008 48 10000 5.36 304 14:40 10.04.2022
4349 Clouds 8 1008 67 10000 5.81 295 13:22 10.04.2022
4350 Clouds 9 1007 57 10000 3.13 276 12:26 10.04.2022
4351 Clouds 8 1008 60 10000 2.68 29 11:36 10.04.2022
4352 Clouds 8 1008 60 10000 1.79 266 10:58 10.04.2022
4353 Clouds 7 1007 63 10000 3.13 293 10:23 10.04.2022
4354 Clouds 8 1007 62 10000 4.47 289 09:41 10.04.2022
4355 Clouds 4 1007 81 10000 2.24 317 08:26 10.04.2022
4356 Clouds 4 1006 81 10000 1.34 292 07:53 10.04.2022
4357 Clouds 3 1005 85 10000 1.34 255 06:48 10.04.2022
4358 Clouds 3 1004 90 10000 0.45 252 03:36 10.04.2022
4359 Clouds 3 1004 90 10000 0.45 252 03:36 10.04.2022
4360 Clouds 3 1004 90 10000 0.45 252 03:36 10.04.2022
4361 Clouds 2 1004 91 10000 1.79 218 01:30 10.04.2022
4362 Clouds 3 1003 89 10000 1.34 261 23:53 09.04.2022
4363 Clouds 3 1002 89 10000 1.79 255 22:52 09.04.2022
4364 Clouds 3 1001 85 10000 3.13 248 21:51 09.04.2022
4365 Clouds 4 1001 82 10000 2.24 334 21:18 09.04.2022
4366 Clouds 5 1000 79 10000 2.68 238 20:27 09.04.2022
4367 Clouds 6 1000 75 10000 4.02 296 19:49 09.04.2022
4368 Clouds 6 999 77 10000 2.24 248 19:30 09.04.2022
4369 Clouds 8 999 66 10000 4.47 359 18:23 09.04.2022
4370 Clouds 8 999 65 10000 0.45 359 17:43 09.04.2022
4371 Clouds 8 998 76 10000 1.34 359 16:56 09.04.2022
4372 Clouds 6 998 85 10000 1.34 244 16:29 09.04.2022
4373 Clouds 8 998 86 10000 4.47 184 15:48 09.04.2022
4374 Rain 9 1006 58 10000 9.5 281 15:25 09.04.2022
4375 Clouds 8 1006 62 10000 8.54 276 14:25 09.04.2022
4376 Clouds 12 997 46 10000 4.92 295 13:26 09.04.2022
4377 Clouds 11 997 50 10000 6.71 289 12:53 09.04.2022
4378 Clouds 9 997 52 10000 2.24 244 11:44 09.04.2022
4379 Clouds 9 996 56 10000 5.36 279 10:41 09.04.2022
4380 Clouds 9 996 56 10000 1.79 186 10:18 09.04.2022
4381 Clouds 7 995 68 10000 4.02 311 09:22 09.04.2022
4382 Clouds 4 1003 74 10000 7.68 284 07:49 09.04.2022
4383 Clouds 4 989 82 10000 1.79 302 03:57 09.04.2022
4384 Clouds 6 987 76 10000 3.79 286 00:34 09.04.2022
4385 Clouds 6 986 75 10000 3.58 309 23:22 08.04.2022
4386 Clouds 7 986 62 10000 3.08 268 21:43 08.04.2022
4387 Clouds 7 986 64 10000 3.38 263 20:43 08.04.2022
4388 Clouds 8 986 57 10000 0.89 261 19:46 08.04.2022
4389 Clouds 9 986 51 10000 0.89 265 18:46 08.04.2022
4390 Clouds 10 986 47 10000 2.68 258 18:20 08.04.2022
4391 Clouds 11 986 44 10000 1.79 1 17:28 08.04.2022
4392 Clouds 11 986 45 10000 0.89 261 16:55 08.04.2022
4393 Clouds 12 986 42 10000 4.47 256 16:27 08.04.2022
4394 Clouds 12 986 45 10000 1.34 337 15:36 08.04.2022
4395 Clouds 12 987 46 10000 3.13 163 14:52 08.04.2022
4396 Clouds 12 987 44 10000 2.68 134 14:19 08.04.2022
4397 Clouds 12 988 46 10000 2.24 155 13:31 08.04.2022
4398 Clouds 11 988 49 10000 2.68 258 12:55 08.04.2022
4399 Clouds 9 988 59 10000 4.92 249 11:35 08.04.2022
4400 Clouds 6 997 72 10000 8.41 268 09:59 08.04.2022
4401 Clouds 4 997 80 10000 7.69 271 09:20 08.04.2022
4402 Clouds 6 986 81 10000 1.79 279 07:44 08.04.2022
4403 Clouds 6 985 84 8883 3.13 273 06:46 08.04.2022
4404 Clouds 7 981 86 10000 3.58 259 03:35 08.04.2022
4405 Clouds 8 977 73 10000 6.71 359 00:31 08.04.2022
4406 Clouds 7 977 78 10000 6.26 230 23:52 07.04.2022
4407 Clouds 7 977 85 10000 4.92 255 22:55 07.04.2022
4408 Clouds 6 976 85 10000 4.02 221 22:36 07.04.2022
4409 Clouds 7 976 83 10000 2.68 254 22:18 07.04.2022
4410 Clouds 7 977 82 10000 2.24 286 21:33 07.04.2022
4411 Clouds 9 975 70 10000 4.92 248 20:56 07.04.2022
4412 Clouds 9 974 62 10000 6.26 310 20:26 07.04.2022
4413 Clouds 12 973 62 10000 6.71 201 17:45 07.04.2022
4414 Clouds 12 973 67 10000 2.68 199 17:23 07.04.2022
4415 Clouds 12 973 71 10000 1.79 208 16:42 07.04.2022
4416 Clouds 8 973 85 10000 4.02 235 15:58 07.04.2022
4417 Clouds 11 981 76 10000 13.08 207 14:29 07.04.2022
4418 Clouds 11 981 76 10000 13.08 207 13:41 07.04.2022
4419 Clouds 14 975 54 10000 4.47 184 12:28 07.04.2022
4420 Clouds 14 978 58 10000 7.6 190 10:57 07.04.2022
4421 Clouds 12 988 67 10000 9.81 217 09:36 07.04.2022
4422 Clouds 11 981 72 10000 1.34 265 08:35 07.04.2022
4423 Clouds 9 982 76 10000 4.02 239 06:29 07.04.2022
4424 Clouds 8 985 78 10000 1.79 187 02:40 07.04.2022
4425 Clouds 9 985 75 10000 2.24 160 01:52 07.04.2022
4426 Clouds 10 987 70 10000 1.34 272 23:56 06.04.2022
4427 Clouds 11 987 67 10000 0.45 237 22:46 06.04.2022
4428 Clouds 11 987 66 10000 1.34 207 22:24 06.04.2022
4429 Clouds 11 988 66 10000 1.34 177 21:31 06.04.2022
4430 Clouds 11 988 64 10000 0.45 214 20:28 06.04.2022
4431 Clouds 12 988 62 10000 4.47 194 19:53 06.04.2022
4432 Clouds 13 988 60 10000 1.34 76 18:51 06.04.2022
4433 Clouds 13 989 57 10000 2.24 230 17:57 06.04.2022
4434 Clouds 13 989 56 10000 0.89 261 17:35 06.04.2022
4435 Clouds 14 990 52 10000 3.58 249 16:36 06.04.2022
4436 Clouds 13 991 58 10000 1.34 259 15:48 06.04.2022
4437 Clouds 13 991 56 10000 3.13 175 14:35 06.04.2022
4438 Clouds 12 992 61 10000 4.02 265 12:58 06.04.2022
4439 Clouds 12 992 67 10000 5.36 265 12:22 06.04.2022
4440 Clouds 12 992 70 10000 1.34 241 10:47 06.04.2022
4441 Clouds 11 992 71 10000 0.89 220 10:25 06.04.2022
4442 Clouds 11 992 75 10000 4.02 242 09:40 06.04.2022
4443 Clouds 11 992 78 10000 6.61 244 08:32 06.04.2022
4444 Clouds 10 992 82 10000 1.34 306 07:49 06.04.2022
4445 Clouds 9 992 90 10000 2.68 269 03:53 06.04.2022
4446 Clouds 10 993 91 10000 1.34 311 23:52 05.04.2022
4447 Clouds 9 993 91 10000 4.47 238 22:57 05.04.2022
4448 Clouds 9 992 91 10000 3.58 272 21:23 05.04.2022
4449 Clouds 9 992 88 10000 1.79 196 20:26 05.04.2022
4450 Clouds 9 992 85 10000 0.45 184 19:42 05.04.2022
4451 Clouds 6 1003 93 10000 2.76 259 18:18 05.04.2022
4452 Clouds 6 1003 93 10000 3.22 256 16:54 05.04.2022
4453 Clouds 6 1003 91 10000 4.27 254 15:57 05.04.2022
4454 Clouds 6 1003 91 10000 4.27 254 15:34 05.04.2022
4455 Clouds 9 995 77 10000 2.68 317 14:36 05.04.2022
4456 Clouds 7 1004 84 10000 5.76 253 13:37 05.04.2022
4457 Clouds 8 1004 74 10000 6.37 278 11:51 05.04.2022
4458 Clouds 8 1004 74 10000 6.37 278 11:51 05.04.2022
4459 Clouds 9 995 63 10000 6.26 289 11:32 05.04.2022
4460 Clouds 9 995 66 10000 3.13 296 10:41 05.04.2022
4461 Clouds 6 994 80 10000 4.47 359 08:55 05.04.2022
4462 Clouds 6 993 96 10000 0.45 211 07:22 05.04.2022
4463 Clouds 7 991 88 10000 8.05 237 02:39 05.04.2022
4464 Clouds 7 990 82 10000 6.71 259 22:48 04.04.2022
4465 Clouds 7 990 82 10000 4.92 272 22:29 04.04.2022
4466 Clouds 7 990 75 10000 10.73 263 21:22 04.04.2022
4467 Clouds 7 990 75 10000 2.68 235 20:53 04.04.2022
4468 Clouds 7 990 75 10000 6.26 271 20:35 04.04.2022
4469 Clouds 6 990 79 10000 4.47 289 19:26 04.04.2022
4470 Clouds 6 991 80 10000 0.89 354 18:39 04.04.2022
4471 Clouds 6 993 80 10000 5.81 217 16:41 04.04.2022
4472 Clouds 6 993 78 10000 3.13 128 16:23 04.04.2022
4473 Clouds 6 994 70 10000 3.13 278 15:33 04.04.2022
4474 Clouds 7 995 63 10000 3.13 244 14:46 04.04.2022
4475 Clouds 7 996 63 10000 3.13 223 13:40 04.04.2022
4476 Clouds 7 998 54 10000 4.02 300 12:41 04.04.2022
4477 Clouds 6 1009 55 10000 9.18 232 11:29 04.04.2022
4478 Clouds 5 1010 59 10000 8.11 231 09:53 04.04.2022
4479 Clouds 1 1005 87 10000 0.45 286 05:33 04.04.2022
4480 Clouds 0 1007 87 10000 3.85 248 02:47 04.04.2022
4481 Clouds 3 1007 81 10000 1.79 261 22:54 03.04.2022
4482 Clouds 3 1008 83 10000 4.47 254 21:59 03.04.2022
4483 Clouds 3 1008 80 10000 3.13 248 21:25 03.04.2022
4484 Clouds 4 1008 78 10000 2.24 259 20:30 03.04.2022
4485 Clouds 6 1008 67 10000 3.13 280 18:46 03.04.2022
4486 Clouds 8 1008 52 10000 1.34 289 17:55 03.04.2022
4487 Clouds 9 1008 50 10000 3.13 254 17:35 03.04.2022
4488 Clouds 7 1008 61 10000 6.63 291 16:49 03.04.2022
4489 Clouds 9 1009 44 10000 0.45 249 15:46 03.04.2022
4490 Clouds 8 1010 45 10000 1.34 285 14:25 03.04.2022
4491 Clouds 8 1010 42 10000 2.68 314 13:28 03.04.2022
4492 Clouds 7 1011 37 10000 2.68 304 11:50 03.04.2022
4493 Clear 3 1020 46 10000 4.04 284 09:57 03.04.2022
4494 Clear 1 1020 56 10000 3.74 284 08:57 03.04.2022
4495 Clouds -3 1010 73 10000 2.59 299 06:28 03.04.2022
4496 Clouds -2 1010 68 10000 2.65 342 02:55 03.04.2022
4497 Clouds 1 1009 63 10000 1.34 323 23:48 02.04.2022
4498 Clouds 2 1009 59 10000 2.68 344 22:51 02.04.2022
4499 Clouds 2 1008 57 10000 4.02 331 21:56 02.04.2022
4500 Clouds 3 1008 54 10000 1.79 0 21:21 02.04.2022
4501 Clouds 3 1007 53 10000 2.24 293 20:36 02.04.2022
4502 Clouds 3 1007 53 10000 2.24 293 20:36 02.04.2022
4503 Clouds 4 1006 54 10000 4.47 358 18:49 02.04.2022
4504 Clouds 5 1006 53 10000 6.26 311 18:20 02.04.2022
4505 Clouds 5 1006 57 10000 4.92 359 17:23 02.04.2022
4506 Clouds 5 1006 59 10000 5.36 12 15:55 02.04.2022
4507 Clouds 6 1006 55 10000 3.58 7 15:20 02.04.2022
4508 Clouds 5 1006 57 10000 4.47 19 14:31 02.04.2022
4509 Clouds 6 1005 52 10000 5.36 359 13:34 02.04.2022
4510 Clouds 6 1005 50 10000 4.92 326 12:21 02.04.2022
4511 Clouds 5 1005 52 10000 3.58 38 10:46 02.04.2022
4512 Clouds 2 1004 67 10000 4.47 352 08:33 02.04.2022
4513 Clouds 1 1003 70 10000 3.13 319 05:58 02.04.2022
4514 Clouds 2 1002 62 10000 4.02 25 03:28 02.04.2022
4515 Clouds 3 1001 59 10000 6.26 7 23:55 01.04.2022
4516 Clouds 3 1001 58 10000 4.47 5 22:51 01.04.2022
4517 Clouds 4 1000 54 10000 2.24 29 21:30 01.04.2022
4518 Clouds 4 999 51 10000 3.13 47 20:50 01.04.2022
4519 Clouds 5 998 49 10000 7.15 50 19:51 01.04.2022
4520 Clouds 6 998 47 10000 6.26 12 19:27 01.04.2022
4521 Clouds 6 997 43 10000 4.92 22 18:44 01.04.2022
4522 Clouds 7 997 33 10000 1.79 32 17:46 01.04.2022
4523 Clouds 7 997 32 10000 3.58 32 16:42 01.04.2022
4524 Clouds 8 997 30 10000 4.92 359 15:23 01.04.2022
4525 Clouds 8 997 33 10000 3.13 25 14:19 01.04.2022
4526 Clouds 7 997 34 10000 2.68 8 13:33 01.04.2022
4527 Clouds 6 997 40 10000 2.24 19 12:32 01.04.2022
4528 Clouds 5 997 48 10000 2.24 62 11:33 01.04.2022
4529 Clouds 3 996 59 10000 2.68 5 10:18 01.04.2022
4530 Clouds 1 995 75 10000 2.24 335 07:59 01.04.2022
4531 Clouds 1 995 85 10000 3.58 9 06:39 01.04.2022
4532 Clouds 1 994 85 10000 1.79 348 04:47 01.04.2022
4533 Clouds 1 994 84 10000 3.58 29 04:28 01.04.2022
4534 Clouds 3 994 64 10000 7.2 60 01:54 01.04.2022
4535 Clouds 6 993 44 10000 3.13 88 22:58 31.03.2022
4536 Clouds 6 993 44 10000 6.71 25 21:50 31.03.2022
4537 Clouds 6 993 44 10000 3.58 40 21:31 31.03.2022
4538 Clouds 6 993 51 10000 5.36 35 20:29 31.03.2022
4539 Clouds 6 993 60 10000 2.24 25 19:48 31.03.2022
4540 Clouds 6 992 61 10000 4.47 46 18:43 31.03.2022
4541 Clouds 6 992 58 10000 6.71 64 17:49 31.03.2022
4542 Clouds 6 992 55 10000 4.02 93 16:37 31.03.2022
4543 Clouds 7 993 53 10000 3.58 70 15:37 31.03.2022
4544 Clouds 7 993 52 10000 4.92 84 15:19 31.03.2022
4545 Clouds 7 993 50 10000 4.47 70 14:34 31.03.2022
4546 Clouds 6 994 56 10000 2.68 69 11:43 31.03.2022
4547 Clouds 6 994 59 10000 4.47 16 10:55 31.03.2022
4548 Clouds 4 994 61 10000 2.24 5 09:44 31.03.2022
4549 Clouds 2 994 75 10000 2.24 39 07:55 31.03.2022
4550 Clouds 2 994 89 10000 3.81 98 04:46 31.03.2022
4551 Clouds 5 994 64 10000 3.23 89 23:37 30.03.2022
4552 Clouds 6 994 60 10000 3.37 70 22:32 30.03.2022
4553 Clouds 6 994 63 10000 1.79 56 21:38 30.03.2022
4554 Clouds 7 994 61 10000 2.24 40 20:53 30.03.2022
4555 Clouds 7 994 59 10000 2.24 23 19:59 30.03.2022
4556 Clouds 8 993 61 10000 6.26 354 19:19 30.03.2022
4557 Clouds 9 993 50 10000 1.79 66 18:18 30.03.2022
4558 Clouds 10 993 49 10000 1.34 45 17:44 30.03.2022
4559 Clouds 11 993 47 10000 1.79 69 16:56 30.03.2022
4560 Clouds 12 994 45 10000 1.79 1 16:32 30.03.2022
4561 Clouds 12 995 43 10000 1.34 172 14:59 30.03.2022
4562 Clouds 11 996 42 10000 1.79 21 13:35 30.03.2022
4563 Clouds 11 996 45 10000 2.34 45 12:42 30.03.2022
4564 Clouds 8 997 59 10000 2.24 48 10:58 30.03.2022
4565 Clouds 6 997 66 10000 0.89 338 09:59 30.03.2022
4566 Clouds 6 997 68 10000 1.37 45 09:20 30.03.2022
4567 Clouds 1 997 83 10000 1.32 21 07:31 30.03.2022
4568 Clouds 1 998 84 10000 1.57 356 05:40 30.03.2022
4569 Clouds 2 998 82 10000 1.66 332 03:39 30.03.2022
4570 Clouds 5 999 71 10000 1.79 293 00:31 30.03.2022
4571 Clouds 6 999 70 10000 0.89 271 22:20 29.03.2022
4572 Clouds 7 999 68 10000 0.45 287 21:44 29.03.2022
4573 Clouds 7 999 68 10000 3.08 311 20:49 29.03.2022
4574 Clouds 9 999 61 10000 3.16 307 19:53 29.03.2022
4575 Clouds 11 999 52 10000 1.34 302 18:55 29.03.2022
4576 Clouds 12 999 51 10000 2.24 310 18:19 29.03.2022
4577 Clouds 14 999 44 10000 1.34 197 17:21 29.03.2022
4578 Clouds 14 1000 44 10000 4.02 210 16:56 29.03.2022
4579 Clouds 13 1000 47 10000 3.13 273 15:57 29.03.2022
4580 Clouds 13 1001 50 10000 2.24 242 14:50 29.03.2022
4581 Clouds 12 1002 54 10000 3.58 289 13:53 29.03.2022
4582 Clouds 12 1003 55 10000 2.24 290 12:51 29.03.2022
4583 Clouds 10 1004 63 10000 1.79 273 11:43 29.03.2022
4584 Clouds 8 1004 69 10000 0.89 7 10:28 29.03.2022
4585 Clouds 8 1004 70 10000 2.24 279 09:33 29.03.2022
4586 Clouds 3 1014 97 10000 3.11 290 06:56 29.03.2022
4587 Clouds 6 1005 82 10000 2.24 280 03:49 29.03.2022
4588 Clouds 7 1006 80 10000 2.68 307 00:33 29.03.2022
4589 Clouds 8 1006 76 10000 1.79 230 23:22 28.03.2022
4590 Clouds 9 1006 73 10000 3.13 199 22:51 28.03.2022
4591 Clear 9 1006 70 10000 3.36 314 22:23 28.03.2022
4592 Clear 11 1006 61 10000 0.89 204 20:54 28.03.2022
4593 Clear 12 1006 54 10000 1.79 304 20:20 28.03.2022
4594 Clear 13 1006 46 10000 3.13 316 19:41 28.03.2022
4595 Clear 14 1006 55 10000 0.89 316 18:55 28.03.2022
4596 Clear 15 1007 55 10000 5.81 204 18:36 28.03.2022
4597 Clear 17 1007 51 10000 5.36 297 17:38 28.03.2022
4598 Clear 18 1008 49 10000 4.47 327 16:19 28.03.2022
4599 Clear 18 1010 52 10000 1.34 326 14:27 28.03.2022
4600 Clear 17 1011 52 10000 4.47 306 13:58 28.03.2022
4601 Clear 15 1012 61 10000 3.13 296 12:20 28.03.2022
4602 Clear 13 1013 66 10000 1.34 15 11:23 28.03.2022
4603 Clear 10 1024 70 10000 2.3 295 09:42 28.03.2022
4604 Clear 9 1024 78 10000 2.08 298 09:19 28.03.2022
4605 Clear 6 1025 88 10000 2.07 294 08:22 28.03.2022
4606 Clear 5 1015 92 10000 2.17 290 07:28 28.03.2022
4607 Clear 5 1016 88 10000 2.51 293 03:43 28.03.2022
4608 Clear 8 1018 81 10000 1.99 285 23:28 27.03.2022
4609 Clear 9 1018 77 10000 0.89 203 22:24 27.03.2022
4610 Clear 9 1018 75 10000 1.65 291 21:41 27.03.2022
4611 Clear 11 1018 72 10000 1.45 300 20:54 27.03.2022
4612 Clear 11 1018 72 10000 1.45 300 20:54 27.03.2022
4613 Clouds 12 1018 65 10000 1.54 281 19:47 27.03.2022
4614 Clouds 14 1018 55 10000 1.5 283 18:55 27.03.2022
4615 Clouds 16 1018 51 10000 0.89 340 18:27 27.03.2022
4616 Clouds 16 1018 51 10000 0.89 340 18:27 27.03.2022
4617 Clouds 16 1018 51 10000 0.89 340 18:27 27.03.2022
4618 Clouds 17 1019 45 10000 1.79 309 17:38 27.03.2022
4619 Clouds 17 1020 45 10000 2.23 251 16:21 27.03.2022
4620 Clouds 18 1020 44 10000 1.79 276 15:18 27.03.2022
4621 Clouds 16 1021 51 10000 0.89 224 13:55 27.03.2022
4622 Clouds 14 1022 60 10000 2.68 14 12:20 27.03.2022
4623 Clouds 12 1022 67 10000 0.45 69 10:53 27.03.2022
4624 Clouds 12 1022 66 10000 0.45 172 08:43 27.03.2022
4625 Clouds 9 1022 82 10000 1.6 83 05:54 27.03.2022
4626 Clouds 11 1021 76 10000 1.22 91 00:47 27.03.2022
4627 Clouds 12 1021 74 10000 0.99 69 23:40 26.03.2022
4628 Clouds 12 1021 72 10000 1.25 56 22:36 26.03.2022
4629 Clouds 13 1020 67 10000 4.02 350 21:33 26.03.2022
4630 Clouds 14 1019 66 10000 1.34 316 20:20 26.03.2022
4631 Clouds 14 1019 64 10000 0.89 319 19:21 26.03.2022
4632 Clouds 16 1019 58 10000 1.79 338 17:51 26.03.2022
4633 Clouds 17 1019 56 10000 0.89 355 17:30 26.03.2022
4634 Clouds 18 1019 50 10000 6.71 12 16:27 26.03.2022
4635 Clouds 17 1019 47 10000 5.34 310 14:57 26.03.2022
4636 Clouds 15 1029 51 10000 5.48 311 13:52 26.03.2022
4637 Clouds 17 1020 40 10000 4.92 249 12:47 26.03.2022
4638 Clear 16 1020 47 10000 5.36 310 11:33 26.03.2022
4639 Clear 14 1020 54 10000 3.13 299 10:18 26.03.2022
4640 Clear 11 1030 62 10000 4.85 295 08:33 26.03.2022
4641 Clear 3 1020 86 10000 3.23 283 05:54 26.03.2022
4642 Clouds 3 1020 83 10000 2.86 296 04:21 26.03.2022
4643 Clear 6 1020 74 10000 0.45 186 23:51 25.03.2022
4644 Clear 8 1019 67 10000 1.9 320 21:35 25.03.2022
4645 Clear 8 1019 67 10000 1.9 320 21:35 25.03.2022
4646 Clear 9 1019 64 10000 1.79 323 20:46 25.03.2022
4647 Clear 11 1019 57 10000 1.78 332 19:28 25.03.2022
4648 Clear 12 1019 53 10000 1.71 332 18:47 25.03.2022
4649 Clear 16 1019 40 10000 1.34 87 17:37 25.03.2022
4650 Clear 17 1019 36 10000 2.24 36 16:50 25.03.2022
4651 Clear 17 1019 35 10000 1.79 5 16:18 25.03.2022
4652 Clear 17 1020 34 10000 1.34 196 14:22 25.03.2022
4653 Clear 16 1021 38 10000 1.79 8 12:33 25.03.2022
4654 Clear 12 1021 42 10000 1.41 15 09:57 25.03.2022
4655 Clear 11 1021 44 10000 0.98 16 09:27 25.03.2022
4656 Clear 11 1020 46 10000 0.81 16 07:53 25.03.2022
4657 Clear 5 1030 69 10000 1.23 355 07:27 25.03.2022
4658 Clear 4 1029 69 10000 1.42 347 05:35 25.03.2022
4659 Clear 4 1019 65 10000 0.89 29 00:46 25.03.2022
4660 Clear 6 1019 63 10000 1.31 29 22:39 24.03.2022
4661 Clear 7 1019 56 10000 1.64 32 21:42 24.03.2022
4662 Clear 9 1019 44 10000 2.49 24 19:51 24.03.2022
4663 Clear 9 1018 44 10000 2.49 24 19:33 24.03.2022
4664 Clear 14 1018 33 10000 2.07 25 17:47 24.03.2022
4665 Clear 15 1018 29 10000 1.56 22 17:19 24.03.2022
4666 Clear 17 1019 27 10000 1.34 327 15:21 24.03.2022
4667 Clear 17 1019 30 10000 1.18 27 14:48 24.03.2022
4668 Clear 17 1019 30 10000 1.22 41 14:18 24.03.2022
4669 Clear 15 1020 36 10000 0.89 111 12:52 24.03.2022
4670 Clear 13 1021 42 10000 3.13 55 11:44 24.03.2022
4671 Clear 9 1021 54 10000 1.34 77 09:53 24.03.2022
4672 Clear 11 1020 45 10000 0.45 359 08:41 24.03.2022
4673 Clear 3 1020 73 10000 1.33 63 06:49 24.03.2022
4674 Clear 4 1020 67 10000 1.91 59 02:24 24.03.2022
4675 Clear 7 1020 56 10000 2.46 56 23:20 23.03.2022
4676 Clear 7 1020 56 10000 2.46 56 23:20 23.03.2022
4677 Clear 9 1020 47 10000 0.45 330 21:39 23.03.2022
4678 Clear 11 1020 44 10000 0.45 344 21:18 23.03.2022
4679 Clear 10 1019 46 10000 2.81 12 19:46 23.03.2022
4680 Clear 12 1019 38 10000 2.51 10 18:45 23.03.2022
4681 Clear 16 1019 28 10000 2.44 9 17:36 23.03.2022
4682 Clear 18 1019 21 10000 0.45 335 16:39 23.03.2022
4683 Clear 18 1020 21 10000 0.45 14 14:51 23.03.2022
4684 Clear 18 1020 20 10000 1.77 358 14:26 23.03.2022
4685 Clear 17 1021 25 10000 1.67 356 12:54 23.03.2022
4686 Clear 9 1022 42 10000 0.45 8 09:45 23.03.2022
4687 Clear 5 1031 65 10000 0.8 11 06:55 23.03.2022
4688 Clear 5 1031 65 10000 1.52 32 05:27 23.03.2022
4689 Clear 3 1021 67 10000 0.59 71 00:35 23.03.2022
4690 Clear 4 1021 63 10000 0.94 115 23:41 22.03.2022
4691 Clear 6 1022 54 10000 1.69 124 21:30 22.03.2022
4692 Clear 7 1022 50 10000 2.01 122 20:49 22.03.2022
4693 Clear 8 1021 49 10000 2.25 111 19:52 22.03.2022
4694 Clear 9 1021 45 10000 2.06 97 19:25 22.03.2022
4695 Clear 11 1021 36 10000 2.22 99 18:45 22.03.2022
4696 Clear 14 1021 23 10000 1.79 119 17:38 22.03.2022
4697 Clear 16 1022 20 10000 2.24 81 16:32 22.03.2022
4698 Clear 17 1023 20 10000 3.13 111 15:23 22.03.2022
4699 Clear 17 1023 22 10000 2.68 104 14:59 22.03.2022
4700 Clear 17 1023 22 10000 2.6 127 14:41 22.03.2022
4701 Clear 16 1023 24 10000 2.24 77 13:37 22.03.2022
4702 Clear 13 1024 33 10000 1.34 203 11:52 22.03.2022
4703 Clear 11 1025 37 10000 2.24 79 10:51 22.03.2022
4704 Clear 9 1025 38 10000 2.24 43 08:40 22.03.2022
4705 Clear 4 1025 51 10000 2.24 105 06:58 22.03.2022
4706 Clear 1 1024 69 10000 2.83 141 03:54 22.03.2022
4707 Clear 2 1024 69 10000 2.98 143 00:46 22.03.2022
4708 Clear 3 1024 65 10000 2.77 145 22:46 21.03.2022
4709 Clear 4 1024 61 10000 2.92 134 21:20 21.03.2022
4710 Clear 5 1024 58 10000 2.92 134 20:42 21.03.2022
4711 Clear 6 1024 56 10000 2.96 126 20:21 21.03.2022
4712 Clear 6 1024 51 10000 2.96 126 19:35 21.03.2022
4713 Clear 8 1023 44 10000 2.66 120 18:47 21.03.2022
4714 Clear 12 1023 32 10000 1.34 156 17:35 21.03.2022
4715 Clear 13 1024 30 10000 0.89 105 16:58 21.03.2022
4716 Clear 13 1024 28 10000 2.24 122 16:26 21.03.2022
4717 Clear 13 1024 27 10000 4.47 87 15:37 21.03.2022
4718 Clear 13 1024 29 10000 4.47 86 14:29 21.03.2022
4719 Clear 12 1025 31 10000 4.02 135 12:58 21.03.2022
4720 Clear 11 1025 35 10000 3.13 117 11:57 21.03.2022
4721 Clear 10 1026 38 10000 4.47 124 11:20 21.03.2022
4722 Clear 8 1026 41 10000 4.47 142 09:42 21.03.2022
4723 Clear 1 1036 58 10000 4.15 132 07:22 21.03.2022
4724 Clear 2 1025 60 10000 0.89 139 05:56 21.03.2022
4725 Clear 4 1025 50 10000 1.79 119 01:39 21.03.2022
4726 Clear 7 1024 40 10000 2.24 128 22:57 20.03.2022
4727 Clear 7 1024 38 10000 2.68 145 22:25 20.03.2022
4728 Clear 8 1024 37 10000 4.47 88 21:37 20.03.2022
4729 Clear 8 1024 35 10000 4.47 129 20:55 20.03.2022
4730 Clear 9 1024 33 10000 4.02 90 20:29 20.03.2022
4731 Clear 9 1024 31 10000 5.81 115 19:49 20.03.2022
4732 Clear 9 1024 31 10000 2.24 84 19:24 20.03.2022
4733 Clear 12 1024 28 10000 5.36 122 17:48 20.03.2022
4734 Clear 12 1024 26 10000 3.58 90 17:26 20.03.2022
4735 Clear 13 1024 24 10000 3.13 101 16:36 20.03.2022
4736 Clear 13 1024 23 10000 6.26 60 14:50 20.03.2022
4737 Clear 13 1025 25 10000 10.28 84 13:39 20.03.2022
4738 Clear 12 1026 28 10000 9.83 73 12:19 20.03.2022
4739 Clear 9 1027 37 10000 5.36 80 10:28 20.03.2022
4740 Clear 3 1037 55 10000 6.77 102 08:26 20.03.2022
4741 Clear 2 1027 54 10000 1.79 36 06:39 20.03.2022
4742 Clear 3 1028 51 10000 3.13 97 03:25 20.03.2022
4743 Clear 3 1029 50 10000 1.79 1 00:54 20.03.2022
4744 Clear 3 1029 50 10000 1.79 1 00:54 20.03.2022
4745 Clear 3 1029 50 10000 6.13 83 00:34 20.03.2022
4746 Clear 4 1029 52 10000 3.13 94 22:39 19.03.2022
4747 Clear 6 1030 60 10000 4.02 47 21:27 19.03.2022
4748 Clear 7 1030 63 10000 2.68 50 19:42 19.03.2022
4749 Clouds 8 1030 57 10000 2.68 29 18:44 19.03.2022
4750 Clouds 9 1030 52 10000 8.05 69 17:57 19.03.2022
4751 Clouds 9 1030 48 10000 6.26 12 17:33 19.03.2022
4752 Clouds 11 1030 48 10000 5.36 357 15:43 19.03.2022
4753 Clouds 12 1031 38 10000 8.94 29 14:21 19.03.2022
4754 Clouds 11 1032 42 10000 5.81 90 12:56 19.03.2022
4755 Clouds 11 1032 43 10000 7.6 33 12:38 19.03.2022
4756 Clear 11 1033 55 10000 4.47 4 11:49 19.03.2022
4757 Clear 8 1034 67 10000 0.89 311 10:41 19.03.2022
4758 Clear 3 1035 94 10000 0.89 314 05:59 19.03.2022
4759 Clouds 5 1036 87 10000 1.34 359 02:48 19.03.2022
4760 Clouds 6 1036 86 10000 2.24 307 01:32 19.03.2022
4761 Clouds 6 1035 80 10000 1.34 341 23:26 18.03.2022
4762 Clear 6 1035 80 10000 3.4 23 22:25 18.03.2022
4763 Clear 6 1035 78 10000 3.36 22 20:56 18.03.2022
4764 Clear 7 1034 72 10000 3.19 16 19:50 18.03.2022
4765 Clear 7 1034 69 10000 3.15 10 19:21 18.03.2022
4766 Clear 11 1033 47 10000 0.45 7 17:42 18.03.2022
4767 Clear 13 1033 41 10000 3.58 333 16:47 18.03.2022
4768 Clear 13 1033 41 10000 3.13 12 14:51 18.03.2022
4769 Clear 13 1033 48 10000 2.68 304 14:21 18.03.2022
4770 Clear 10 1034 59 10000 0.89 55 12:26 18.03.2022
4771 Clear 8 1034 67 10000 2.68 314 10:47 18.03.2022
4772 Clear 7 1033 76 10000 1.34 321 09:28 18.03.2022
4773 Clear 3 1042 85 10000 2.81 343 07:59 18.03.2022
4774 Clear 2 1031 94 10000 2.77 333 06:34 18.03.2022
4775 Clear 3 1028 92 10000 1.79 323 02:51 18.03.2022
4776 Clouds 5 1027 90 10000 0.45 297 00:22 18.03.2022
4777 Clouds 5 1027 90 10000 0.45 297 00:22 18.03.2022
4778 Clouds 6 1026 89 10000 3.51 327 23:22 17.03.2022
4779 Clouds 6 1026 88 10000 1.34 320 22:24 17.03.2022
4780 Clouds 7 1025 86 10000 0.89 293 21:48 17.03.2022
4781 Clouds 7 1025 85 10000 4.02 320 21:21 17.03.2022
4782 Clouds 8 1024 82 10000 4.92 321 20:42 17.03.2022
4783 Clouds 8 1024 84 10000 1.34 341 19:47 17.03.2022
4784 Clouds 8 1023 85 10000 2.24 350 18:57 17.03.2022
4785 Clouds 8 1023 86 10000 1.79 23 18:39 17.03.2022
4786 Clouds 9 1021 79 10000 3.13 283 16:49 17.03.2022
4787 Clouds 11 1020 76 10000 1.34 292 15:44 17.03.2022
4788 Clouds 11 1020 74 10000 5.81 289 15:24 17.03.2022
4789 Clouds 13 1019 61 10000 1.34 186 14:28 17.03.2022
4790 Clouds 13 1018 57 10000 0.89 160 12:54 17.03.2022
4791 Clouds 13 1018 59 10000 3.13 146 12:23 17.03.2022
4792 Clouds 11 1018 65 10000 3.13 152 11:27 17.03.2022
4793 Clouds 9 1018 69 10000 1.34 148 10:30 17.03.2022
4794 Clouds 7 1017 81 10000 1.79 112 08:37 17.03.2022
4795 Clouds 6 1017 85 10000 1.34 139 07:34 17.03.2022
4796 Clouds 5 1017 89 10000 0.89 163 05:47 17.03.2022
4797 Clouds 5 1017 89 10000 0.89 163 05:47 17.03.2022
4798 Clouds 6 1017 86 10000 1.79 112 01:30 17.03.2022
4799 Clouds 6 1017 83 10000 0.89 128 23:56 16.03.2022
4800 Clouds 7 1018 79 10000 1.34 166 22:50 16.03.2022
4801 Clouds 7 1018 77 10000 2.24 118 22:32 16.03.2022
4802 Clouds 8 1018 75 10000 1.34 138 21:42 16.03.2022
4803 Clouds 8 1017 71 10000 2.68 111 20:26 16.03.2022
4804 Clouds 9 1017 66 10000 3.57 101 19:21 16.03.2022
4805 Clouds 10 1017 63 10000 0.89 129 18:38 16.03.2022
4806 Clouds 12 1017 56 10000 0.45 110 17:43 16.03.2022
4807 Clouds 12 1017 51 10000 0.45 141 17:25 16.03.2022
4808 Clouds 13 1018 49 10000 2.24 156 15:56 16.03.2022
4809 Clouds 15 1018 48 10000 2.24 151 14:28 16.03.2022
4810 Clouds 14 1018 54 10000 2.68 152 13:32 16.03.2022
4811 Clouds 13 1019 57 10000 3.58 153 11:58 16.03.2022
4812 Clouds 12 1019 63 10000 3.58 33 11:21 16.03.2022
4813 Clouds 11 1019 66 10000 0.45 93 10:27 16.03.2022
4814 Clouds 9 1019 72 10000 3.13 98 09:55 16.03.2022
4815 Clouds 2 1018 93 10000 2.12 45 06:33 16.03.2022
4816 Clouds 4 1016 92 10000 2.48 350 02:29 16.03.2022
4817 Clouds 7 1014 82 10000 0.89 310 22:51 15.03.2022
4818 Clouds 7 1014 81 10000 2.41 344 22:32 15.03.2022
4819 Clouds 9 1014 80 10000 1.41 29 20:42 15.03.2022
4820 Clouds 9 1014 80 10000 0.45 18 19:27 15.03.2022
4821 Clouds 11 1014 76 10000 2.3 95 17:35 15.03.2022
4822 Clouds 11 1014 72 10000 1.34 98 16:34 15.03.2022
4823 Clouds 11 1015 72 10000 1.79 50 15:26 15.03.2022
4824 Clouds 12 1015 70 10000 1.79 119 14:47 15.03.2022
4825 Clouds 12 1016 70 10000 2.68 101 13:55 15.03.2022
4826 Clouds 12 1017 70 10000 3.13 86 12:46 15.03.2022
4827 Clouds 11 1018 73 10000 3.58 40 11:32 15.03.2022
4828 Clouds 9 1020 80 10000 2.54 159 10:21 15.03.2022
4829 Clouds 7 1020 91 10000 2.13 164 08:50 15.03.2022
4830 Clouds 4 1020 94 10000 1.86 162 07:53 15.03.2022
4831 Clouds 4 1020 95 10000 1.86 162 07:35 15.03.2022
4832 Clouds 3 1020 94 10000 1.29 201 05:45 15.03.2022
4833 Clouds 6 1019 92 10000 2.75 244 00:25 15.03.2022
4834 Clouds 6 1019 91 10000 2.65 235 23:26 14.03.2022
4835 Clouds 7 1019 90 10000 2.65 235 22:44 14.03.2022
4836 Clouds 8 1019 90 10000 0.45 203 21:51 14.03.2022
4837 Clouds 8 1019 90 10000 1.34 206 20:55 14.03.2022
4838 Clouds 8 1019 90 10000 0.89 138 20:24 14.03.2022
4839 Clouds 8 1018 91 10000 3.9 256 19:22 14.03.2022
4840 Clouds 9 1018 87 10000 0.45 223 17:55 14.03.2022
4841 Clouds 9 1017 86 10000 1.34 199 17:33 14.03.2022
4842 Clouds 9 1017 81 10000 1.34 248 16:27 14.03.2022
4843 Clouds 8 1026 80 10000 4.51 269 14:42 14.03.2022
4844 Clouds 13 1015 44 10000 2.24 324 13:20 14.03.2022
4845 Clouds 9 1015 39 10000 3.2 271 10:59 14.03.2022
4846 Clouds 7 1014 45 10000 2.01 247 09:56 14.03.2022
4847 Clouds 6 1014 47 10000 2.33 187 09:24 14.03.2022
4848 Clouds 5 1014 46 10000 1.34 159 08:57 14.03.2022
4849 Clear 2 1023 58 10000 2.5 150 08:24 14.03.2022
4850 Clear -1 1013 71 10000 3.13 128 06:19 14.03.2022
4851 Clear 2 1012 56 10000 3.33 115 02:58 14.03.2022
4852 Clear 4 1011 47 10000 4.47 84 01:36 14.03.2022
4853 Clear 5 1011 45 10000 3.58 112 23:41 13.03.2022
4854 Clear 6 1010 37 10000 1.34 128 21:46 13.03.2022
4855 Clear 7 1010 36 10000 2.24 88 21:21 13.03.2022
4856 Clear 7 1010 35 10000 3.58 80 20:46 13.03.2022
4857 Clear 7 1010 35 10000 1.79 125 20:21 13.03.2022
4858 Clear 7 1010 36 10000 0.45 94 19:41 13.03.2022
4859 Clear 7 1010 35 10000 4.67 120 19:22 13.03.2022
4860 Clear 6 1020 46 10000 4.81 120 18:41 13.03.2022
4861 Clear 10 1010 28 10000 2.24 98 18:22 13.03.2022
4862 Clear 8 1020 42 10000 5.65 124 17:36 13.03.2022
4863 Clear 13 1010 19 10000 3.58 108 16:45 13.03.2022
4864 Clear 13 1010 19 10000 4.02 74 16:21 13.03.2022
4865 Clear 13 1010 19 10000 4.47 104 15:39 13.03.2022
4866 Clear 13 1010 22 10000 4.92 79 14:36 13.03.2022
4867 Clear 12 1010 24 10000 4.47 105 13:28 13.03.2022
4868 Clear 10 1011 28 10000 5.36 104 12:22 13.03.2022
4869 Clear 8 1011 32 10000 6.26 108 11:38 13.03.2022
4870 Clear 7 1012 33 10000 4.47 134 10:49 13.03.2022
4871 Clear 7 1011 33 10000 4.92 112 10:28 13.03.2022
4872 Clear 5 1011 38 10000 4.92 146 09:42 13.03.2022
4873 Clear 4 1012 42 10000 3.13 169 08:49 13.03.2022
4874 Clear 1 1021 47 10000 4.29 127 08:29 13.03.2022
4875 Clear -2 1012 63 10000 3.41 126 06:41 13.03.2022
4876 Clear -1 1011 60 10000 3.64 130 04:51 13.03.2022
4877 Clear -1 1012 59 10000 3.78 125 01:47 13.03.2022
4878 Clear 2 1012 47 10000 3.7 126 23:26 12.03.2022
4879 Clear 4 1012 38 10000 1.79 115 21:32 12.03.2022
4880 Clear 6 1012 36 10000 2.24 110 20:19 12.03.2022
4881 Clear 6 1012 34 10000 2.24 110 19:46 12.03.2022
4882 Clear 4 1022 49 10000 3.85 116 18:40 12.03.2022
4883 Clear 6 1022 44 10000 4.2 122 17:49 12.03.2022
4884 Clear 12 1012 19 10000 2.68 87 16:28 12.03.2022
4885 Clear 12 1011 18 10000 6.26 128 15:50 12.03.2022
4886 Clear 12 1012 17 10000 4.02 152 15:21 12.03.2022
4887 Clear 11 1013 19 10000 4.47 128 13:53 12.03.2022
4888 Clear 10 1014 24 10000 4.47 196 12:28 12.03.2022
4889 Clear 9 1014 26 10000 6.58 147 11:53 12.03.2022
4890 Clear 8 1014 26 10000 7.15 145 11:33 12.03.2022
4891 Clear 6 1015 30 10000 2.68 97 10:26 12.03.2022
4892 Clear 5 1015 35 10000 2.68 146 09:43 12.03.2022
4893 Clear 3 1015 40 10000 4.02 73 07:58 12.03.2022
4894 Clear -1 1014 54 10000 2.68 91 06:40 12.03.2022
4895 Clear 2 1014 46 10000 2.24 64 00:31 12.03.2022
4896 Clear 2 1014 44 10000 5.36 122 23:43 11.03.2022
4897 Clear 2 1014 44 10000 5.36 122 23:43 11.03.2022
4898 Clear 3 1014 42 10000 3.13 129 22:32 11.03.2022
4899 Clear 4 1014 39 10000 5.36 67 21:24 11.03.2022
4900 Clear 4 1014 38 10000 5.81 121 20:46 11.03.2022
4901 Clear 5 1014 36 10000 3.58 104 20:26 11.03.2022
4902 Clear 6 1014 35 10000 7.15 33 19:33 11.03.2022
4903 Clear 7 1014 32 10000 4.47 25 18:30 11.03.2022
4904 Clear 8 1014 29 10000 5.81 111 17:24 11.03.2022
4905 Clear 9 1014 25 10000 12.52 94 16:25 11.03.2022
4906 Clear 9 1014 25 10000 8.05 127 15:36 11.03.2022
4907 Clear 9 1015 25 10000 4.47 121 13:42 11.03.2022
4908 Clouds 8 1016 30 10000 8.05 103 12:39 11.03.2022
4909 Clouds 7 1016 32 10000 9.83 87 12:19 11.03.2022
4910 Clouds 5 1017 38 10000 5.81 90 10:53 11.03.2022
4911 Clouds 3 1017 44 10000 5.81 90 09:35 11.03.2022
4912 Clouds 0 1027 46 10000 6.34 118 08:28 11.03.2022
4913 Clouds 0 1027 46 10000 6.34 118 07:48 11.03.2022
4914 Clouds -1 1018 64 10000 5.59 112 06:44 11.03.2022
4915 Clouds -1 1018 64 10000 5.36 118 04:40 11.03.2022
4916 Clouds 1 1018 62 10000 2.68 112 01:48 11.03.2022
4917 Clouds 3 1018 53 10000 1.34 158 22:33 10.03.2022
4918 Clouds 4 1018 53 10000 4.02 33 21:54 10.03.2022
4919 Clouds 4 1018 56 10000 4.47 29 21:25 10.03.2022
4920 Clouds 4 1019 62 10000 2.68 25 20:37 10.03.2022
4921 Clear 6 1019 62 10000 1.79 63 19:22 10.03.2022
4922 Clear 9 1018 60 10000 4.02 124 17:55 10.03.2022
4923 Clear 11 1018 48 10000 5.36 122 16:53 10.03.2022
4924 Clear 12 1019 46 10000 4.47 129 15:34 10.03.2022
4925 Clear 12 1019 46 10000 4.47 74 13:51 10.03.2022
4926 Clear 11 1020 45 10000 4.47 74 12:43 10.03.2022
4927 Clear 9 1020 46 10000 4.92 121 11:33 10.03.2022
4928 Clear 5 1021 64 10000 1.79 167 09:54 10.03.2022
4929 Clear 4 1021 60 10000 0.89 64 08:39 10.03.2022
4930 Clear 0 1029 83 10000 3.1 127 05:33 10.03.2022
4931 Clear 1 1028 80 10000 2.82 128 03:22 10.03.2022
4932 Clear 3 1028 78 10000 2.43 137 00:22 10.03.2022
4933 Clear 4 1028 76 10000 2.26 140 22:32 09.03.2022
4934 Clear 4 1028 73 10000 2.25 134 21:47 09.03.2022
4935 Clear 5 1027 70 10000 2.42 120 20:53 09.03.2022
4936 Clear 6 1026 59 10000 2.27 120 19:23 09.03.2022
4937 Clear 10 1026 50 10000 2.04 119 17:29 09.03.2022
4938 Clear 10 1026 50 10000 2.04 119 16:48 09.03.2022
4939 Clear 11 1025 40 10000 2.32 123 15:41 09.03.2022
4940 Clear 12 1026 37 10000 2.35 142 14:27 09.03.2022
4941 Clear 11 1026 37 10000 2.35 142 13:50 09.03.2022
4942 Clear 9 1026 41 10000 2.74 141 12:25 09.03.2022
4943 Clear 9 1026 41 10000 2.74 141 11:48 09.03.2022
4944 Clear 7 1027 44 10000 2.7 143 10:59 09.03.2022
4945 Clear 5 1026 48 10000 2.46 148 09:40 09.03.2022
4946 Clear 4 1026 54 10000 2.37 152 08:45 09.03.2022
4947 Clouds -1 1026 71 10000 2.08 149 06:25 09.03.2022
4948 Clouds -1 1016 85 10000 2.14 170 01:53 09.03.2022
4949 Clouds 0 1016 82 10000 2.21 162 00:22 09.03.2022
4950 Clouds 1 1015 78 10000 2.33 157 22:46 08.03.2022
4951 Clouds 2 1015 76 10000 2.4 148 21:52 08.03.2022
4952 Clear 2 1015 75 10000 2.46 125 21:21 08.03.2022
4953 Clear 3 1015 71 10000 2.37 120 20:22 08.03.2022
4954 Clear 4 1015 66 10000 2.07 133 19:24 08.03.2022
4955 Clear 6 1015 58 10000 2.48 121 18:22 08.03.2022
4956 Clear 9 1015 45 10000 2.68 57 16:44 08.03.2022
4957 Clear 10 1015 43 10000 5.81 103 14:57 08.03.2022
4958 Clear 10 1016 45 10000 1.79 42 13:48 08.03.2022
4959 Clear 9 1017 47 10000 1.79 159 12:23 08.03.2022
4960 Clear 8 1017 52 10000 2.24 93 11:42 08.03.2022
4961 Clear 5 1017 67 10000 1.92 125 10:28 08.03.2022
4962 Clear 3 1017 68 10000 1.76 124 08:57 08.03.2022
4963 Clear -2 1017 87 10000 1.52 114 06:30 08.03.2022
4964 Clear -1 1017 83 10000 1.22 86 02:50 08.03.2022
4965 Clear 1 1017 78 10000 1.71 37 22:53 07.03.2022
4966 Clear 1 1017 77 10000 2.53 23 21:45 07.03.2022
4967 Clear 2 1016 75 10000 2.57 8 21:23 07.03.2022
4968 Clear 2 1016 73 10000 2.57 8 20:34 07.03.2022
4969 Clear 3 1016 68 10000 2.57 351 19:50 07.03.2022
4970 Clouds 3 1016 65 10000 2.44 342 19:24 07.03.2022
4971 Clouds 5 1016 57 10000 2.51 356 18:33 07.03.2022
4972 Clouds 7 1026 65 10000 2.5 354 17:31 07.03.2022
4973 Clouds 8 1015 44 10000 1.79 16 16:54 07.03.2022
4974 Clouds 9 1016 45 10000 4.47 22 14:57 07.03.2022
4975 Clear 8 1017 55 10000 2.24 359 12:35 07.03.2022
4976 Clear 6 1018 59 10000 1.34 316 11:36 07.03.2022
4977 Clouds 4 1018 64 10000 1.34 352 10:34 07.03.2022
4978 Clouds 0 1028 69 10000 2.08 340 08:35 07.03.2022
4979 Clouds 0 1027 73 10000 2.06 302 02:56 07.03.2022
4980 Clouds 0 1027 80 10000 2.02 9 00:21 07.03.2022
4981 Clouds 0 1027 80 10000 1.76 27 23:28 06.03.2022
4982 Clouds 0 1027 80 10000 1.75 27 22:30 06.03.2022
4983 Clouds 0 1027 78 10000 2.16 31 21:45 06.03.2022
4984 Clouds 1 1016 66 10000 2.27 28 20:29 06.03.2022
4985 Clouds 1 1016 64 10000 2.27 28 19:48 06.03.2022
4986 Clouds 2 1016 62 10000 2.24 11 18:51 06.03.2022
4987 Clouds 2 1016 61 10000 0.89 324 17:49 06.03.2022
4988 Clouds 2 1016 60 10000 3.58 335 17:20 06.03.2022
4989 Clouds 2 1016 58 10000 4.02 21 16:40 06.03.2022
4990 Clouds 2 1016 58 10000 4.02 21 16:40 06.03.2022
4991 Clouds 3 1016 56 10000 1.79 310 15:37 06.03.2022
4992 Clouds 3 1016 55 10000 3.58 326 14:48 06.03.2022
4993 Clouds 3 1016 54 10000 5.81 29 14:28 06.03.2022
4994 Clouds 2 1017 56 10000 0.89 38 12:43 06.03.2022
4995 Clouds 2 1017 56 10000 3.58 350 11:56 06.03.2022
4996 Clouds 2 1017 60 10000 2.24 359 10:45 06.03.2022
4997 Clouds 2 1017 63 10000 1.34 19 09:34 06.03.2022
4998 Clouds 0 1026 73 10000 1.96 23 08:28 06.03.2022
4999 Clouds 1 1016 73 10000 0.89 1 07:33 06.03.2022
5000 Clouds -1 1025 89 10000 1.72 34 04:45 06.03.2022
5001 Clouds 1 1015 77 10000 1.5 96 00:42 06.03.2022
5002 Clouds 1 1015 76 10000 1.42 108 00:23 06.03.2022
5003 Clouds 1 1015 75 10000 0.45 57 23:19 05.03.2022
5004 Clouds -1 1025 89 10000 1.74 115 22:42 05.03.2022
5005 Clouds 1 1014 73 10000 2.01 107 21:44 05.03.2022
5006 Clouds 2 1014 71 10000 0.45 21 21:19 05.03.2022
5007 Clouds 2 1014 73 10000 1.92 81 19:24 05.03.2022
5008 Clouds 2 1014 70 10000 1.92 81 18:50 05.03.2022
5009 Clouds 5 1014 56 10000 2.42 96 17:43 05.03.2022
5010 Clouds 7 1014 47 10000 3.58 108 16:26 05.03.2022
5011 Clouds 7 1014 45 10000 2.24 64 15:30 05.03.2022
5012 Clouds 6 1023 45 10000 2.16 86 14:44 05.03.2022
5013 Clouds 8 1014 45 10000 3.13 155 14:24 05.03.2022
5014 Clear 6 1024 48 10000 2.43 97 13:20 05.03.2022
5015 Clear 7 1015 52 10000 2.55 93 11:46 05.03.2022
5016 Clear 6 1015 59 10000 4.02 115 11:18 05.03.2022
5017 Clear 3 1016 71 10000 2.24 98 09:59 05.03.2022
5018 Clear 2 1016 75 10000 0.45 100 08:59 05.03.2022
5019 Clear -3 1025 86 10000 1.41 106 07:37 05.03.2022
5020 Clouds -2 1015 89 10000 2.01 103 05:43 05.03.2022
5021 Clouds -2 1025 90 10000 2.29 64 02:27 05.03.2022
5022 Clouds 1 1025 86 10000 1.86 58 23:37 04.03.2022
5023 Clouds 1 1025 84 10000 1.66 60 22:42 04.03.2022
5024 Clouds 2 1025 83 10000 1.16 73 21:48 04.03.2022
5025 Clouds 2 1025 81 10000 0.64 122 20:52 04.03.2022
5026 Clouds 2 1024 79 10000 1.06 171 20:24 04.03.2022
5027 Clouds 2 1024 79 10000 1.06 171 19:36 04.03.2022
5028 Clouds 3 1024 78 10000 1.46 163 18:44 04.03.2022
5029 Clouds 4 1024 70 10000 2.09 124 17:32 04.03.2022
5030 Clouds 5 1014 70 10000 0.89 52 16:46 04.03.2022
5031 Clouds 5 1014 73 10000 3.13 15 15:29 04.03.2022
5032 Clouds 6 1015 74 10000 1.34 163 14:29 04.03.2022
5033 Clouds 5 1015 79 10000 2.24 22 13:26 04.03.2022
5034 Clouds 5 1015 73 10000 0.89 56 11:41 04.03.2022
5035 Clouds 2 1024 65 10000 4.02 64 10:50 04.03.2022
5036 Clouds 1 1015 81 10000 1.79 25 09:52 04.03.2022
5037 Clouds 1 1015 87 10000 0.89 293 08:39 04.03.2022
5038 Clouds 2 1015 84 10000 1.99 37 07:36 04.03.2022
5039 Clear 1 1014 84 10000 2.16 37 03:56 04.03.2022
5040 Clear 1 1013 83 10000 1.79 84 00:28 04.03.2022
5041 Clear 1 1013 84 10000 2.68 359 22:27 03.03.2022
5042 Clear 1 1013 84 10000 2.49 42 21:44 03.03.2022
5043 Clear 1 1013 84 10000 1.34 14 21:26 03.03.2022
5044 Clear 2 1012 86 10000 2.68 36 19:55 03.03.2022
5045 Clear 2 1012 86 10000 2.24 359 18:54 03.03.2022
5046 Clear 3 1012 77 10000 5.81 352 18:24 03.03.2022
5047 Clear 3 1012 78 10000 1.34 331 17:31 03.03.2022
5048 Clear 6 1020 64 10000 3.67 38 16:25 03.03.2022
5049 Clear 7 1020 50 10000 3.8 34 15:24 03.03.2022
5050 Clear 7 1020 50 10000 3.8 34 14:43 03.03.2022
5051 Clear 7 1020 49 10000 3.41 33 14:20 03.03.2022
5052 Clear 7 1012 63 10000 4.02 310 12:23 03.03.2022
5053 Clear 4 1012 66 10000 0.89 23 10:49 03.03.2022
5054 Clear 2 1012 75 10000 1.34 302 09:45 03.03.2022
5055 Clear -2 1022 76 10000 1.96 17 08:19 03.03.2022
5056 Clouds -2 1012 75 10000 1.11 2 06:38 03.03.2022
5057 Clouds -2 1012 74 10000 1.62 24 04:46 03.03.2022
5058 Clouds 0 1013 70 10000 0.72 62 23:41 02.03.2022
5059 Clear 0 1013 67 10000 0.68 72 22:53 02.03.2022
5060 Clear 0 1013 67 10000 0.68 72 22:53 02.03.2022
5061 Clear 1 1013 67 10000 0.68 72 22:31 02.03.2022
5062 Clear 1 1013 73 10000 1.2 115 20:59 02.03.2022
5063 Clear 1 1013 70 10000 1.6 96 20:25 02.03.2022
5064 Clear 2 1013 68 10000 1.6 96 19:37 02.03.2022
5065 Clear 3 1013 63 10000 1.92 75 18:58 02.03.2022
5066 Clear 3 1013 60 10000 1.92 75 18:31 02.03.2022
5067 Clear 5 1013 47 10000 1.98 63 17:41 02.03.2022
5068 Clouds 7 1014 37 10000 0.45 16 16:52 02.03.2022
5069 Clouds 9 1014 43 10000 1.79 25 15:59 02.03.2022
5070 Clouds 9 1015 42 10000 0.45 136 14:29 02.03.2022
5071 Clouds 7 1016 48 10000 0.89 129 12:56 02.03.2022
5072 Clouds 7 1016 53 10000 0.45 141 12:34 02.03.2022
5073 Clouds 4 1016 65 10000 0.45 134 11:27 02.03.2022
5074 Clouds 4 1017 66 10000 1.78 94 10:39 02.03.2022
5075 Clouds 3 1017 70 10000 0.45 32 09:37 02.03.2022
5076 Clouds 1 1017 77 10000 1.63 121 08:36 02.03.2022
5077 Clouds 0 1017 81 10000 1.95 114 07:23 02.03.2022
5078 Clouds 0 1017 81 10000 1.61 117 05:42 02.03.2022
5079 Clouds 0 1019 79 10000 2.06 158 00:40 02.03.2022
5080 Clouds 0 1019 77 10000 2.18 164 23:35 01.03.2022
5081 Clouds 0 1019 79 10000 2.64 156 22:40 01.03.2022
5082 Clouds 0 1019 77 10000 2.63 156 21:53 01.03.2022
5083 Clouds 1 1019 74 10000 2.45 160 20:41 01.03.2022
5084 Clouds 2 1019 73 10000 2.48 155 20:20 01.03.2022
5085 Clouds 2 1019 67 10000 2.46 150 18:59 01.03.2022
5086 Clouds 3 1019 63 10000 2.7 148 18:25 01.03.2022
5087 Clouds 4 1019 58 10000 2.7 148 17:54 01.03.2022
5088 Clouds 6 1020 49 10000 1.34 166 16:39 01.03.2022
5089 Clouds 8 1020 44 10000 3.13 127 15:49 01.03.2022
5090 Clouds 8 1020 43 10000 4.02 159 14:54 01.03.2022
5091 Clouds 8 1021 43 10000 1.79 132 14:33 01.03.2022
5092 Clear 7 1021 43 10000 2.24 134 13:26 01.03.2022
5093 Clear 7 1021 48 10000 5.32 179 12:38 01.03.2022
5094 Clear 5 1022 54 10000 4.92 91 11:44 01.03.2022
5095 Clear 2 1023 65 10000 2.24 121 09:53 01.03.2022
5096 Clear 1 1023 66 10000 5.5 158 08:31 01.03.2022
5097 Clear -1 1023 77 10000 2.24 165 07:32 01.03.2022
5098 Clear -2 1023 83 10000 3.13 132 03:29 01.03.2022
5099 Clear -2 1024 80 10000 3.89 145 00:58 01.03.2022
5100 Clear -1 1024 81 10000 3.71 138 23:47 28.02.2022
5101 Clear -1 1024 78 10000 0.89 128 22:51 28.02.2022
5102 Clear 0 1024 76 10000 2.24 95 21:48 28.02.2022
5103 Clear 0 1024 76 10000 2.24 95 21:48 28.02.2022
5104 Clear 1 1024 75 10000 2.68 101 20:56 28.02.2022
5105 Clear 2 1025 76 10000 1.34 107 19:52 28.02.2022
5106 Clear 2 1025 78 10000 3.31 123 19:22 28.02.2022
5107 Clear 1 1024 85 10000 3.34 120 18:35 28.02.2022
5108 Clear 4 1024 77 10000 3.51 121 17:23 28.02.2022
5109 Clear 5 1024 72 10000 3.51 121 16:32 28.02.2022
5110 Clear 5 1025 68 10000 1.34 112 15:23 28.02.2022
5111 Clear 5 1026 70 10000 2.24 162 14:30 28.02.2022
5112 Clear 6 1026 61 10000 4.18 126 13:34 28.02.2022
5113 Clear 5 1035 36 10000 3.9 124 12:31 28.02.2022
5114 Clear 8 1035 54 10000 3.72 127 11:40 28.02.2022
5115 Clear 2 1035 46 10000 3.83 128 10:44 28.02.2022
5116 Clear 1 1026 86 10000 4.02 103 10:19 28.02.2022
5117 Clear 0 1026 88 10000 3.13 93 09:30 28.02.2022
5118 Clear 0 1026 89 10000 0.89 105 08:29 28.02.2022
5119 Clear 0 1026 90 10000 1.79 166 07:19 28.02.2022
5120 Clear -1 1025 93 10000 2.24 69 04:31 28.02.2022
5121 Clear -1 1025 93 10000 2.36 131 03:58 28.02.2022
5122 Clear 0 1025 86 10000 0.45 142 23:27 27.02.2022
5123 Clear 1 1025 85 10000 1.34 110 22:33 27.02.2022
5124 Clear 1 1025 83 10000 2.9 114 21:49 27.02.2022
5125 Clear 2 1025 78 10000 0.89 55 20:55 27.02.2022
5126 Clear 3 1025 76 10000 1.34 23 20:27 27.02.2022
5127 Clear 3 1025 74 10000 0.89 8 19:57 27.02.2022
5128 Clear 3 1025 73 10000 1.34 21 19:26 27.02.2022
5129 Clear 4 1025 68 10000 3.2 108 18:47 27.02.2022
5130 Clear 5 1025 62 10000 0.45 108 17:55 27.02.2022
5131 Clear 7 1025 53 10000 4.47 119 16:45 27.02.2022
5132 Clear 8 1025 50 10000 4.47 105 16:21 27.02.2022
5133 Clear 8 1026 61 10000 1.34 60 13:25 27.02.2022
5134 Clear 8 1027 69 10000 3.58 107 12:32 27.02.2022
5135 Clear 4 1028 82 10000 2.24 129 10:56 27.02.2022
5136 Clear 3 1028 86 10000 0.45 69 10:19 27.02.2022
5137 Clear 2 1027 86 10000 1.34 12 09:49 27.02.2022
5138 Clear 1 1028 87 10000 2.68 99 09:19 27.02.2022
5139 Clear -1 1027 91 10000 2.08 90 07:37 27.02.2022
5140 Clouds -2 1026 90 10000 2.45 81 05:38 27.02.2022
5141 Clouds -1 1026 90 10000 2.42 112 01:53 27.02.2022
5142 Clouds 1 1026 89 10000 1.53 112 23:23 26.02.2022
5143 Clouds 1 1026 87 10000 1.74 108 21:58 26.02.2022
5144 Clouds 2 1025 85 10000 2.15 83 20:59 26.02.2022
5145 Clouds 3 1025 83 10000 2.58 53 20:20 26.02.2022
5146 Clouds 3 1025 82 10000 2.58 53 19:50 26.02.2022
5147 Clear 4 1024 80 10000 2.53 24 19:29 26.02.2022
5148 Clear 6 1024 68 10000 2.76 9 17:52 26.02.2022
5149 Clear 7 1024 64 10000 2.68 359 17:28 26.02.2022
5150 Clear 8 1023 59 10000 3.13 7 16:19 26.02.2022
5151 Clear 9 1023 56 10000 4.02 350 15:25 26.02.2022
5152 Clear 9 1023 54 10000 4.08 352 14:56 26.02.2022
5153 Clear 9 1023 57 10000 4.08 352 14:38 26.02.2022
5154 Clear 9 1023 57 10000 4.02 330 13:40 26.02.2022
5155 Clouds 9 1024 59 10000 4.92 293 12:52 26.02.2022
5156 Clear 7 1024 66 10000 2.68 327 11:38 26.02.2022
5157 Clear 6 1023 71 10000 1.79 279 10:56 26.02.2022
5158 Clouds 5 1023 76 10000 3.58 269 09:21 26.02.2022
5159 Clouds 4 1022 83 10000 1.34 309 07:57 26.02.2022
5160 Clouds 4 1017 83 10000 2.24 295 03:21 26.02.2022
5161 Clouds 3 1015 86 10000 4.47 289 23:32 25.02.2022
5162 Clouds 4 1014 86 10000 4.02 247 22:18 25.02.2022
5163 Clouds 4 1013 87 10000 3.13 287 21:29 25.02.2022
5164 Clouds 4 1012 86 10000 0.89 221 20:33 25.02.2022
5165 Clouds 4 1011 89 10000 2.68 283 19:53 25.02.2022
5166 Clouds 4 1009 89 10000 5.81 254 17:48 25.02.2022
5167 Clouds 5 1009 85 10000 0.89 262 16:47 25.02.2022
5168 Clouds 6 1008 69 10000 3.13 245 15:49 25.02.2022
5169 Clouds 6 1008 68 10000 3.13 279 15:23 25.02.2022
5170 Clouds 6 1008 68 10000 3.13 279 15:23 25.02.2022
5171 Clouds 6 1008 69 10000 9.39 254 14:50 25.02.2022
5172 Clouds 5 1017 91 5984 6.9 246 14:18 25.02.2022
5173 Clouds 6 1008 72 10000 5.81 256 13:23 25.02.2022
5174 Clouds 7 1007 60 10000 3.58 213 11:56 25.02.2022
5175 Clouds 6 1017 60 10000 7.37 242 11:20 25.02.2022
5176 Clouds 6 1007 65 10000 1.79 206 10:23 25.02.2022
5177 Clouds 5 1007 68 10000 1.79 237 09:45 25.02.2022
5178 Clouds 2 1016 76 10000 5.36 241 08:22 25.02.2022
5179 Clear 2 1006 82 10000 0.45 125 06:56 25.02.2022
5180 Clear 2 1006 83 10000 4.02 266 05:41 25.02.2022
5181 Clear 3 1004 84 10000 2.68 221 02:43 25.02.2022
5182 Clouds 4 1000 82 10000 1.34 182 22:47 24.02.2022
5183 Clouds 4 998 85 10000 5.36 249 21:51 24.02.2022
5184 Clouds 5 998 86 10000 4.02 224 21:30 24.02.2022
5185 Clouds 5 997 85 10000 3.13 303 20:47 24.02.2022
5186 Clouds 9 994 72 10000 3.58 208 19:32 24.02.2022
5187 Clouds 10 994 69 10000 3.58 200 18:21 24.02.2022
5188 Clouds 10 995 68 10000 4.92 193 17:58 24.02.2022
5189 Clouds 10 995 69 10000 1.79 193 17:21 24.02.2022
5190 Clouds 11 996 66 10000 3.13 101 16:28 24.02.2022
5191 Clouds 10 996 64 10000 1.79 251 15:44 24.02.2022
5192 Clouds 11 996 61 10000 4.02 204 14:48 24.02.2022
5193 Clouds 11 998 60 10000 4.02 191 14:19 24.02.2022
5194 Clouds 10 998 64 10000 4.47 127 13:39 24.02.2022
5195 Clouds 8 1001 70 10000 2.24 142 11:56 24.02.2022
5196 Clouds 7 1002 73 10000 4.92 163 10:39 24.02.2022
5197 Clouds 6 1005 76 10000 3.13 165 08:46 24.02.2022
5198 Clouds 5 1005 76 10000 0.89 204 08:22 24.02.2022
5199 Clouds 3 1006 84 10000 3.58 183 05:50 24.02.2022
5200 Clouds 2 1010 85 10000 0.89 146 00:32 24.02.2022
5201 Clouds 2 1010 85 10000 0.89 146 00:32 24.02.2022
5202 Clear 4 1016 78 10000 3.64 195 22:29 23.02.2022
5203 Clear 4 1016 78 10000 3.64 195 21:34 23.02.2022
5204 Clear 5 1017 75 10000 1.79 211 20:30 23.02.2022
5205 Clear 6 1017 74 10000 2.24 359 19:44 23.02.2022
5206 Clear 7 1017 71 10000 2.76 213 18:32 23.02.2022
5207 Clear 9 1018 61 10000 0.89 225 17:21 23.02.2022
5208 Clear 10 1019 54 10000 1.34 225 14:34 23.02.2022
5209 Clouds 9 1020 62 10000 1.34 225 12:37 23.02.2022
5210 Clouds 8 1019 66 10000 3.58 313 11:24 23.02.2022
5211 Clouds 8 1019 68 10000 2.68 271 10:31 23.02.2022
5212 Clouds 6 1023 80 10000 1.34 225 08:58 23.02.2022
5213 Clouds 6 1017 78 10000 2.68 254 07:58 23.02.2022
5214 Clouds 6 1013 79 10000 4.47 307 03:48 23.02.2022
5215 Clouds 7 1009 77 10000 1.34 225 00:28 23.02.2022
5216 Clouds 8 1008 74 10000 4.47 283 23:36 22.02.2022
5217 Clouds 8 1006 86 10000 4.47 359 22:31 22.02.2022
5218 Clouds 8 1005 84 10000 1.79 225 21:49 22.02.2022
5219 Clouds 7 1005 84 10000 4.47 359 21:30 22.02.2022
5220 Clouds 7 1005 84 10000 4.47 359 21:30 22.02.2022
5221 Clouds 7 1005 85 10000 4.92 359 20:55 22.02.2022
5222 Clouds 7 1006 84 10000 1.79 225 20:29 22.02.2022
5223 Clouds 7 1006 79 10000 1.79 225 19:42 22.02.2022
5224 Clouds 7 1007 78 10000 2.68 179 19:19 22.02.2022
5225 Clouds 8 1008 70 10000 3.13 204 17:48 22.02.2022
5226 Clouds 8 1008 69 10000 2.24 204 17:21 22.02.2022
5227 Clouds 8 1009 67 10000 2.68 167 16:37 22.02.2022
5228 Clouds 8 1010 66 10000 1.34 225 15:40 22.02.2022
5229 Clouds 8 1011 62 10000 2.68 303 14:44 22.02.2022
5230 Clouds 7 1016 68 10000 1.34 225 12:31 22.02.2022
5231 Clouds 7 1010 71 10000 3.13 254 10:50 22.02.2022
5232 Clouds 4 1009 81 10000 1.79 200 08:41 22.02.2022
5233 Clouds 4 1008 85 10000 2.24 314 07:26 22.02.2022
5234 Clouds 4 1005 81 10000 4.47 269 04:59 22.02.2022
5235 Clouds 5 1001 85 10000 0.89 225 01:45 22.02.2022
5236 Clouds 5 998 85 10000 2.24 218 22:46 21.02.2022
5237 Clouds 5 997 83 10000 0.89 248 21:42 21.02.2022
5238 Clouds 5 995 80 10000 1.79 23 20:35 21.02.2022
5239 Clouds 5 991 85 6923 3.58 359 18:46 21.02.2022
5240 Clouds 5 989 82 10000 3.13 225 16:58 21.02.2022
5241 Clouds 6 990 73 10000 3.13 225 15:22 21.02.2022
5242 Clouds 8 991 56 10000 2.68 225 14:21 21.02.2022
5243 Clouds 8 991 56 10000 2.68 225 14:21 21.02.2022
5244 Clouds 8 991 59 10000 2.68 225 13:22 21.02.2022
5245 Clouds 7 991 62 10000 2.68 225 12:23 21.02.2022
5246 Clouds 6 992 65 10000 2.24 225 11:19 21.02.2022
5247 Clouds 5 991 76 10000 6.71 359 09:34 21.02.2022
5248 Clouds 6 988 79 10000 2.68 225 05:35 21.02.2022
5249 Clouds 10 988 80 10000 3.13 159 23:44 20.02.2022
5250 Clouds 9 991 81 10000 4.47 153 22:25 20.02.2022
5251 Clouds 9 991 81 10000 2.68 221 21:42 20.02.2022
5252 Clouds 10 993 78 10000 8.94 180 20:53 20.02.2022
5253 Clouds 10 993 78 10000 4.02 230 20:35 20.02.2022
5254 Clouds 10 994 80 10000 2.24 225 19:36 20.02.2022
5255 Clouds 10 995 79 10000 2.68 234 18:51 20.02.2022
5256 Clouds 10 995 79 10000 2.68 210 18:31 20.02.2022
5257 Clouds 10 995 79 10000 2.68 210 18:31 20.02.2022
5258 Clouds 10 996 79 10000 2.68 151 17:49 20.02.2022
5259 Clouds 10 998 78 10000 5.36 194 15:41 20.02.2022
5260 Clouds 9 999 85 10000 2.68 206 14:47 20.02.2022
5261 Clouds 7 1000 88 10000 2.24 80 13:23 20.02.2022
5262 Clouds 6 1001 89 10000 2.68 165 12:28 20.02.2022
5263 Clouds 6 1004 80 10000 4.02 359 10:47 20.02.2022
5264 Clouds 6 1004 80 10000 1.79 265 10:19 20.02.2022
5265 Clouds 5 1005 91 10000 1.34 304 08:51 20.02.2022
5266 Clouds 5 1003 82 10000 2.68 166 00:54 20.02.2022
5267 Clouds 5 1003 81 10000 3.58 190 00:30 20.02.2022
5268 Clouds 5 1005 76 10000 2.24 81 23:18 19.02.2022
5269 Clouds 6 1005 64 10000 2.24 225 22:22 19.02.2022
5270 Clouds 6 1006 62 10000 4.92 172 21:34 19.02.2022
5271 Clouds 5 1007 62 10000 2.68 199 19:53 19.02.2022
5272 Clouds 5 1007 62 10000 1.34 191 19:30 19.02.2022
5273 Clouds 5 1007 61 10000 0.89 225 18:33 19.02.2022
5274 Clouds 6 1007 59 10000 1.79 297 17:37 19.02.2022
5275 Clear 7 1007 56 10000 1.79 225 16:28 19.02.2022
5276 Clear 7 1007 53 10000 2.24 225 15:18 19.02.2022
5277 Clear 8 1007 52 10000 2.24 225 14:49 19.02.2022
5278 Clear 8 1006 52 10000 2.24 225 13:45 19.02.2022
5279 Clouds 7 1005 56 10000 3.13 225 11:38 19.02.2022
5280 Clouds 7 1002 58 10000 2.68 225 09:57 19.02.2022
5281 Clouds 5 997 66 10000 3.58 225 06:58 19.02.2022
5282 Clouds 6 994 60 10000 3.13 225 04:32 19.02.2022
5283 Clouds 7 991 63 10000 3.58 225 23:38 18.02.2022
5284 Clouds 9 988 57 10000 4.02 225 21:53 18.02.2022
5285 Clouds 10 986 56 10000 2.68 225 20:51 18.02.2022
5286 Clouds 11 985 62 10000 6.26 256 19:54 18.02.2022
5287 Clouds 12 985 85 10000 5.36 11 18:50 18.02.2022
5288 Clouds 11 985 83 10000 4.92 244 18:22 18.02.2022
5289 Clouds 10 986 89 10000 2.68 193 17:55 18.02.2022
5290 Clouds 8 991 93 10000 4.02 166 15:22 18.02.2022
5291 Clouds 7 994 92 10000 5.36 191 13:55 18.02.2022
5292 Clouds 7 997 89 10000 5.81 165 12:55 18.02.2022
5293 Clouds 7 997 89 10000 4.92 180 12:36 18.02.2022
5294 Clouds 8 999 78 10000 0.45 225 11:29 18.02.2022
5295 Clouds 7 1001 77 10000 2.24 167 10:23 18.02.2022
5296 Clouds 4 1004 86 10000 0.45 225 06:57 18.02.2022
5297 Clouds 5 1004 83 10000 0.89 225 05:41 18.02.2022
5298 Clouds 7 1002 65 10000 1.79 225 23:34 17.02.2022
5299 Clouds 7 1001 66 10000 2.24 225 21:46 17.02.2022
5300 Clouds 7 1001 67 10000 3.58 324 21:20 17.02.2022
5301 Clouds 7 1001 70 10000 6.26 252 20:39 17.02.2022
5302 Clouds 7 999 68 10000 2.68 278 19:50 17.02.2022
5303 Clouds 7 999 63 10000 4.47 307 18:52 17.02.2022
5304 Clouds 8 997 64 10000 4.02 269 17:55 17.02.2022
5305 Clouds 9 996 55 10000 2.68 225 16:43 17.02.2022
5306 Clouds 10 990 50 10000 11.79 282 15:38 17.02.2022
5307 Clouds 10 994 50 10000 2.68 225 14:28 17.02.2022
5308 Clouds 10 992 58 10000 12.07 300 12:50 17.02.2022
5309 Clouds 10 989 53 10000 12.96 290 11:27 17.02.2022
5310 Clouds 10 987 56 10000 3.58 225 09:18 17.02.2022
5311 Clouds 10 981 79 10000 1.79 225 04:20 17.02.2022
5312 Clouds 12 981 82 10000 5.36 170 23:21 16.02.2022
5313 Clouds 11 984 82 10000 6.26 173 21:45 16.02.2022
5314 Clouds 11 987 82 10000 6.71 359 19:57 16.02.2022
5315 Clouds 11 988 81 10000 3.58 359 18:43 16.02.2022
5316 Clouds 11 989 80 10000 2.68 359 17:53 16.02.2022
5317 Clouds 11 989 77 10000 1.79 225 15:55 16.02.2022
5318 Clouds 11 990 76 10000 1.79 225 15:19 16.02.2022
5319 Clouds 10 990 77 10000 7.6 214 13:31 16.02.2022
5320 Clouds 8 991 86 10000 4.47 359 12:20 16.02.2022
5321 Clouds 8 992 88 10000 1.34 225 11:31 16.02.2022
5322 Clouds 7 993 88 10000 1.34 225 10:34 16.02.2022
5323 Clouds 7 996 89 10000 1.79 359 08:58 16.02.2022
5324 Clouds 7 998 87 10000 2.24 359 06:43 16.02.2022
5325 Clouds 7 1002 68 10000 2.68 199 23:45 15.02.2022
5326 Clouds 6 1003 74 10000 1.79 156 22:34 15.02.2022
5327 Clouds 6 1004 76 10000 0.89 225 21:49 15.02.2022
5328 Clouds 6 1004 77 10000 2.68 76 21:29 15.02.2022
5329 Clouds 6 1004 77 10000 2.24 165 20:56 15.02.2022
5330 Clouds 6 1005 76 10000 1.34 91 19:59 15.02.2022
5331 Clouds 7 1005 76 10000 0.89 165 19:26 15.02.2022
5332 Clouds 8 1005 72 10000 1.79 225 18:24 15.02.2022
5333 Clouds 8 1000 73 10000 1.79 165 17:52 15.02.2022
5334 Clouds 8 1000 69 10000 1.34 237 17:26 15.02.2022
5335 Clouds 10 1005 64 10000 1.79 182 15:34 15.02.2022
5336 Clouds 10 1006 65 10000 2.68 268 13:29 15.02.2022
5337 Clouds 10 1006 65 10000 3.58 275 12:59 15.02.2022
5338 Clouds 9 1006 70 10000 2.68 254 11:41 15.02.2022
5339 Clouds 8 1006 75 10000 1.34 225 09:54 15.02.2022
5340 Clouds 6 1004 82 10000 0.45 225 07:00 15.02.2022
5341 Clouds 5 1004 84 10000 0.45 225 06:19 15.02.2022
5342 Clouds 9 1001 76 10000 3.13 184 23:34 14.02.2022
5343 Clouds 9 1001 73 10000 4.48 207 21:55 14.02.2022
5344 Clouds 9 1001 73 10000 1.79 70 20:51 14.02.2022
5345 Clouds 9 1000 73 10000 4.02 196 19:46 14.02.2022
5346 Clouds 9 1000 72 10000 1.79 179 19:28 14.02.2022
5347 Clouds 10 1000 70 10000 1.34 134 18:23 14.02.2022
5348 Clouds 11 999 68 10000 0.45 225 17:27 14.02.2022
5349 Clouds 12 999 61 10000 0.89 225 16:27 14.02.2022
5350 Clouds 14 999 52 10000 2.68 169 14:43 14.02.2022
5351 Clouds 13 999 55 10000 4.02 172 13:34 14.02.2022
5352 Clouds 12 999 55 10000 0.45 225 12:58 14.02.2022
5353 Clouds 11 1000 56 10000 3.13 211 11:57 14.02.2022
5354 Clouds 10 1000 56 10000 3.58 124 11:38 14.02.2022
5355 Clouds 7 1000 65 10000 3.58 101 09:37 14.02.2022
5356 Clouds 4 1001 71 10000 1.34 97 07:49 14.02.2022
5357 Clouds 4 1001 72 10000 3.58 146 07:24 14.02.2022
5358 Clouds 4 1005 81 10000 1.34 186 22:48 13.02.2022
5359 Clouds 5 1005 79 10000 6.13 186 22:30 13.02.2022
5360 Clouds 5 1005 78 10000 0.45 225 21:57 13.02.2022
5361 Clouds 6 1006 75 10000 1.79 169 21:20 13.02.2022
5362 Clouds 6 1006 77 10000 2.68 104 20:27 13.02.2022
5363 Clouds 6 1007 79 10000 0.89 5 19:18 13.02.2022
5364 Clouds 5 1007 78 10000 5.85 191 18:41 13.02.2022
5365 Clouds 7 1008 70 10000 0.45 110 17:22 13.02.2022
5366 Clouds 9 1009 57 10000 2.24 179 15:51 13.02.2022
5367 Clouds 10 1010 51 10000 0.89 225 14:50 13.02.2022
5368 Clouds 8 1010 52 10000 4.92 172 13:28 13.02.2022
5369 Clouds 7 1011 56 10000 2.68 208 12:42 13.02.2022
5370 Clouds 4 1008 70 10000 2.68 177 10:44 13.02.2022
5371 Clouds 3 1013 78 10000 1.34 159 10:25 13.02.2022
5372 Clouds 1 1013 83 10000 2.24 158 08:56 13.02.2022
5373 Clouds 0 1016 88 10000 1.79 136 02:50 13.02.2022
5374 Clouds 0 1018 88 10000 2.24 187 00:33 13.02.2022
5375 Clouds 0 1019 85 10000 2.68 208 22:56 12.02.2022
5376 Clouds 1 1019 83 10000 0.45 131 22:32 12.02.2022
5377 Clouds 1 1020 81 10000 3.39 179 21:18 12.02.2022
5378 Clouds 2 1020 79 10000 0.89 112 20:24 12.02.2022
5379 Clouds 2 1021 77 10000 1.79 107 18:54 12.02.2022
5380 Clouds 2 1021 77 10000 0.89 169 18:36 12.02.2022
5381 Clouds 2 1022 73 10000 2.24 124 17:40 12.02.2022
5382 Clouds 4 1023 65 10000 5.81 175 16:54 12.02.2022
5383 Clouds 5 1023 62 10000 2.68 173 16:18 12.02.2022
5384 Clouds 6 1024 56 10000 4.02 191 15:23 12.02.2022
5385 Clouds 6 1025 61 10000 2.24 146 14:30 12.02.2022
5386 Clouds 5 1027 62 10000 4.92 173 12:26 12.02.2022
5387 Clouds 2 1028 79 10000 0.45 238 10:34 12.02.2022
5388 Clouds 0 1028 88 10000 3.41 195 09:38 12.02.2022
5389 Clear -1 1023 87 10000 2.79 183 08:48 12.02.2022
5390 Clear -2 1029 91 10000 2.6 186 07:50 12.02.2022
5391 Clear -2 1029 89 10000 0.45 249 05:31 12.02.2022
5392 Clear 0 1029 90 10000 2.48 273 02:20 12.02.2022
5393 Clouds 0 1028 89 10000 2.65 284 00:31 12.02.2022
5394 Clouds 1 1028 85 10000 0.45 225 22:27 11.02.2022
5395 Clouds 2 1027 84 10000 0.45 45 21:45 11.02.2022
5396 Clouds 3 1026 86 10000 1.79 313 20:38 11.02.2022
5397 Clouds 4 1025 85 10000 6.26 293 19:33 11.02.2022
5398 Clouds 4 1024 85 91 5.81 302 18:58 11.02.2022
5399 Clouds 5 1022 86 10000 5.81 275 17:28 11.02.2022
5400 Clouds 5 1021 86 10000 2.68 316 16:58 11.02.2022
5401 Clouds 5 1018 87 5434 1.79 330 15:33 11.02.2022
5402 Clouds 5 1017 89 4812 2.24 293 14:38 11.02.2022
5403 Clouds 5 1017 88 166 2.24 313 14:20 11.02.2022
5404 Rain 5 1016 88 166 2.68 276 13:50 11.02.2022
5405 Rain 5 1016 88 166 2.68 252 13:31 11.02.2022
5406 Clouds 4 1015 87 2907 0.45 225 11:27 11.02.2022
5407 Rain 4 1015 81 10000 1.34 225 09:45 11.02.2022
5408 Clouds 4 1015 82 10000 2.68 203 08:40 11.02.2022
5409 Clouds 4 1019 82 10000 0.89 225 08:22 11.02.2022
5410 Clouds 4 1014 84 10000 0.89 225 06:33 11.02.2022
5411 Clouds 6 1019 82 10000 0.45 225 02:26 11.02.2022
5412 Rain 5 1014 83 10000 2.68 271 00:47 11.02.2022
5413 Rain 6 1014 84 10000 4.02 262 22:45 10.02.2022
5414 Rain 6 1014 82 10000 0.89 225 21:45 10.02.2022
5415 Clouds 6 1014 84 10000 2.68 234 20:57 10.02.2022
5416 Clouds 6 1014 84 10000 0.89 225 20:30 10.02.2022
5417 Clouds 7 1014 82 10000 1.34 234 19:25 10.02.2022
5418 Clouds 7 1014 82 10000 1.79 297 18:44 10.02.2022
5419 Clouds 7 1013 79 10000 2.68 276 17:26 10.02.2022
5420 Clouds 7 1013 81 10000 0.45 225 16:50 10.02.2022
5421 Clouds 8 1013 78 10000 2.24 293 15:49 10.02.2022
5422 Clouds 8 1012 81 10000 1.34 310 15:29 10.02.2022
5423 Clouds 8 1012 85 10000 3.58 359 14:47 10.02.2022
5424 Clouds 8 1012 83 10000 0.89 225 14:23 10.02.2022
5425 Clouds 10 1012 73 10000 1.34 225 13:26 10.02.2022
5426 Clouds 10 1012 72 10000 2.68 276 12:27 10.02.2022
5427 Clouds 11 1012 72 10000 0.89 225 11:33 10.02.2022
5428 Clouds 11 1012 71 10000 1.34 225 10:44 10.02.2022
5429 Clouds 8 1017 82 10000 1.34 225 09:50 10.02.2022
5430 Clouds 8 1018 83 10000 0.45 225 09:18 10.02.2022
5431 Clouds 8 1013 80 10000 0.45 225 07:19 10.02.2022
5432 Clouds 8 1015 80 10000 2.3 227 04:23 10.02.2022
5433 Clouds 9 1017 79 10000 0.45 225 01:48 10.02.2022
5434 Clouds 9 1017 78 10000 0.45 225 00:44 10.02.2022
5435 Clouds 9 1017 77 10000 0.89 225 00:26 10.02.2022
5436 Clouds 9 1017 78 10000 0.89 225 23:22 09.02.2022
5437 Clouds 9 1018 78 10000 4.47 261 22:35 09.02.2022
5438 Clouds 9 1018 78 10000 0.89 225 21:50 09.02.2022
5439 Clouds 9 1018 78 10000 1.79 258 21:28 09.02.2022
5440 Clouds 9 1018 79 10000 2.24 207 20:47 09.02.2022
5441 Clouds 9 1018 80 10000 3.58 249 20:24 09.02.2022
5442 Clouds 9 1018 79 10000 2.24 210 19:45 09.02.2022
5443 Clouds 9 1018 79 10000 1.34 232 19:22 09.02.2022
5444 Clouds 10 1018 77 10000 4.47 225 17:35 09.02.2022
5445 Clouds 10 1018 76 10000 6.26 359 16:34 09.02.2022
5446 Clouds 11 1018 72 10000 3.13 359 15:40 09.02.2022
5447 Clouds 11 1018 73 10000 6.26 235 14:28 09.02.2022
5448 Clouds 11 1018 73 10000 1.34 225 12:28 09.02.2022
5449 Clouds 10 1018 76 10000 5.36 278 10:51 09.02.2022
5450 Clouds 10 1019 76 10000 1.79 215 10:26 09.02.2022
5451 Clouds 9 1019 77 10000 5.36 269 09:35 09.02.2022
5452 Clouds 9 1019 77 10000 1.34 225 08:59 09.02.2022
5453 Clouds 9 1020 79 10000 0.89 225 07:47 09.02.2022
5454 Clouds 9 1020 82 10000 1.34 266 05:30 09.02.2022
5455 Clouds 9 1020 87 10000 3.58 232 03:50 09.02.2022
5456 Clouds 9 1020 89 10000 4.92 249 00:39 09.02.2022
5457 Clouds 9 1020 86 10000 1.34 225 23:31 08.02.2022
5458 Clouds 10 1020 85 10000 3.58 129 22:46 08.02.2022
5459 Clouds 9 1020 85 10000 3.13 244 22:21 08.02.2022
5460 Clouds 9 1020 85 10000 3.13 244 22:21 08.02.2022
5461 Clouds 9 1020 85 10000 3.13 244 22:21 08.02.2022
5462 Clouds 10 1019 85 10000 2.68 276 21:39 08.02.2022
5463 Clouds 10 1019 84 10000 2.24 238 21:20 08.02.2022
5464 Clouds 10 1019 84 10000 4.02 235 20:42 08.02.2022
5465 Clouds 10 1018 84 10000 4.02 208 19:46 08.02.2022
5466 Clouds 9 1018 89 10000 3.13 241 18:35 08.02.2022
5467 Clouds 9 1018 88 10000 3.58 279 17:40 08.02.2022
5468 Clouds 10 1017 84 10000 3.13 269 16:29 08.02.2022
5469 Clouds 11 1017 77 10000 2.68 201 15:29 08.02.2022
5470 Clouds 11 1017 74 10000 3.58 292 14:31 08.02.2022
5471 Clouds 11 1017 75 10000 7.6 249 13:20 08.02.2022
5472 Clouds 8 1017 81 10000 3.13 191 11:33 08.02.2022
5473 Clouds 7 1017 84 10000 3.13 215 10:23 08.02.2022
5474 Clouds 7 1017 84 10000 3.13 215 10:23 08.02.2022
5475 Clouds 6 1018 84 10000 4.02 296 09:44 08.02.2022
5476 Clouds 5 1018 83 10000 1.34 225 07:46 08.02.2022
5477 Clouds 4 1018 81 10000 1.34 221 05:40 08.02.2022
5478 Clouds 4 1019 79 10000 1.34 193 04:39 08.02.2022
5479 Clouds 4 1019 81 10000 0.89 225 04:21 08.02.2022
5480 Clouds 3 1019 81 10000 0.89 225 03:36 08.02.2022
5481 Clouds 3 1019 82 10000 1.79 189 03:18 08.02.2022
5482 Clouds 3 1019 85 10000 0.89 225 02:58 08.02.2022
5483 Clouds 3 1020 86 10000 0.89 225 02:36 08.02.2022
5484 Clouds 3 1020 86 10000 0.89 225 02:18 08.02.2022
5485 Clouds 3 1020 85 10000 0.89 225 01:43 08.02.2022
5486 Clouds 3 1020 85 10000 0.89 225 01:43 08.02.2022
5487 Clouds 2 1019 88 10000 4.02 252 01:24 08.02.2022
5488 Clouds 2 1019 87 10000 1.34 302 00:53 08.02.2022
5489 Clouds 3 1019 87 10000 0.89 225 23:54 07.02.2022
5490 Clouds 3 1019 86 10000 0.89 225 23:36 07.02.2022
5491 Clouds 3 1019 86 10000 1.79 247 23:18 07.02.2022
5492 Clouds 4 1019 84 10000 0.89 248 22:19 07.02.2022
5493 Clouds 4 1019 84 10000 3.13 254 21:55 07.02.2022
5494 Clouds 4 1019 84 10000 1.34 259 21:29 07.02.2022
5495 Clouds 3 1018 84 10000 0.89 23 20:56 07.02.2022
5496 Clouds 4 1018 84 10000 3.13 300 20:38 07.02.2022
5497 Clouds 3 1017 86 10000 3.58 283 19:50 07.02.2022
5498 Clouds 3 1017 86 10000 2.68 296 19:32 07.02.2022
5499 Clouds 5 1016 75 10000 1.34 225 17:52 07.02.2022
5500 Clouds 5 1015 77 10000 4.92 303 16:53 07.02.2022
5501 Clouds 5 1014 76 10000 2.24 293 15:49 07.02.2022
5502 Clouds 6 1012 75 10000 4.92 227 14:55 07.02.2022
5503 Clouds 4 1011 85 10000 6.71 297 13:28 07.02.2022
5504 Rain 7 1010 68 10000 2.24 23 12:42 07.02.2022
5505 Clouds 6 1010 71 10000 1.79 225 11:58 07.02.2022
5506 Clouds 6 1009 72 10000 1.79 225 11:35 07.02.2022
5507 Clouds 5 1008 76 10000 1.34 225 10:50 07.02.2022
5508 Clouds 5 1008 78 10000 1.34 248 10:30 07.02.2022
5509 Clouds 5 1007 82 10000 0.89 225 09:53 07.02.2022
5510 Clouds 3 1006 87 10000 0.89 248 09:18 07.02.2022
5511 Clouds 3 1005 87 10000 1.34 248 08:36 07.02.2022
5512 Rain 3 1002 86 10000 1.34 225 06:58 07.02.2022
5513 Clouds 3 1002 85 10000 1.34 225 06:34 07.02.2022
5514 Clouds 2 995 90 10000 0.89 225 02:59 07.02.2022
5515 Clouds 4 992 84 10000 1.34 225 00:45 07.02.2022
5516 Clouds 4 992 87 3353 1.34 225 23:48 06.02.2022
5517 Clouds 4 991 92 10000 1.34 225 22:48 06.02.2022
5518 Rain 6 991 88 10000 1.34 225 21:56 06.02.2022
5519 Rain 6 990 85 10000 1.34 225 21:35 06.02.2022
5520 Clouds 5 990 83 10000 1.79 225 20:55 06.02.2022
5521 Clouds 5 990 83 10000 1.79 225 20:55 06.02.2022
5522 Clouds 5 990 83 10000 1.79 225 20:31 06.02.2022
5523 Clouds 6 991 85 10000 1.34 225 19:40 06.02.2022
5524 Clouds 6 991 88 10000 1.34 225 18:41 06.02.2022
5525 Clouds 6 990 87 10000 1.79 248 17:56 06.02.2022
5526 Clouds 7 990 84 10000 2.24 225 17:21 06.02.2022
5527 Clouds 7 988 80 10000 3.13 225 16:48 06.02.2022
5528 Rain 7 989 80 10000 3.13 225 15:49 06.02.2022
5529 Rain 8 990 77 10000 3.13 225 15:27 06.02.2022
5530 Rain 8 996 75 10000 3.13 225 14:47 06.02.2022
5531 Clouds 9 998 73 10000 3.58 225 13:28 06.02.2022
5532 Clouds 9 999 73 10000 3.13 225 12:59 06.02.2022
5533 Clouds 9 1001 73 10000 2.24 225 11:38 06.02.2022
5534 Clouds 8 998 74 10000 2.24 225 10:31 06.02.2022
5535 Clouds 8 998 74 10000 2.24 225 10:31 06.02.2022
5536 Clouds 7 999 77 10000 1.34 225 09:25 06.02.2022
5537 Clouds 6 1000 78 10000 1.79 225 08:40 06.02.2022
5538 Clouds 6 1002 77 10000 2.24 225 05:36 06.02.2022
5539 Clouds 6 1004 78 10000 2.68 225 03:31 06.02.2022
5540 Clouds 5 1005 75 10000 1.79 225 02:24 06.02.2022
5541 Clouds 5 1007 74 10000 2.24 225 00:30 06.02.2022
5542 Clouds 6 1008 69 10000 2.24 225 23:18 05.02.2022
5543 Clouds 6 1009 68 10000 2.24 225 21:33 05.02.2022
5544 Clouds 5 1011 70 10000 1.34 225 20:25 05.02.2022
5545 Clouds 5 1011 71 10000 1.34 225 19:49 05.02.2022
5546 Clouds 5 1011 72 10000 1.34 225 19:27 05.02.2022
5547 Clouds 6 1011 69 10000 0.89 225 18:23 05.02.2022
5548 Clouds 6 1012 66 10000 1.34 225 17:31 05.02.2022
5549 Clouds 7 1012 65 10000 1.79 225 15:42 05.02.2022
5550 Clouds 7 1012 65 10000 1.34 225 15:24 05.02.2022
5551 Clouds 7 1012 65 10000 1.34 225 13:22 05.02.2022
5552 Clouds 7 1012 69 10000 1.34 225 12:42 05.02.2022
5553 Clouds 5 1012 77 10000 1.34 225 10:57 05.02.2022
5554 Clouds 5 1012 78 10000 1.34 225 10:38 05.02.2022
5555 Clouds 4 1011 85 10000 1.34 225 09:47 05.02.2022
5556 Clouds 3 1011 93 10000 0.89 225 08:21 05.02.2022
5557 Clouds 3 1011 93 10000 0.89 225 08:21 05.02.2022
5558 Rain 4 1009 84 10000 1.34 248 06:58 05.02.2022
5559 Clouds 4 1009 86 10000 1.34 225 05:38 05.02.2022
5560 Clouds 4 1006 81 10000 1.34 225 01:40 05.02.2022
5561 Clouds 4 1006 82 10000 1.34 248 01:18 05.02.2022
5562 Clouds 4 1005 85 10000 1.34 248 00:36 05.02.2022
5563 Rain 4 1004 86 10000 1.79 225 23:33 04.02.2022
5564 Clouds 5 1002 85 1342 2.24 225 22:28 04.02.2022
5565 Clouds 7 1006 89 1342 10.84 292 21:36 04.02.2022
5566 Rain 7 998 82 10000 1.34 225 21:18 04.02.2022
5567 Rain 7 998 82 10000 0.89 225 20:21 04.02.2022
5568 Clouds 7 999 80 10000 0.89 225 18:30 04.02.2022
5569 Clouds 9 1001 76 10000 0.89 225 15:57 04.02.2022
5570 Clouds 9 1002 76 10000 0.89 225 14:56 04.02.2022
5571 Clouds 9 1002 76 10000 1.79 225 14:24 04.02.2022
5572 Clouds 8 1004 79 10000 2.24 225 12:43 04.02.2022
5573 Clouds 8 1005 80 10000 0.89 225 11:43 04.02.2022
5574 Clouds 8 1005 82 10000 0.89 225 10:51 04.02.2022
5575 Clouds 7 1006 87 10000 0.89 225 09:31 04.02.2022
5576 Clouds 6 1007 86 10000 0.89 225 07:35 04.02.2022
5577 Clouds 6 1007 90 10000 0.45 225 02:54 04.02.2022
5578 Clouds 6 1007 89 10000 0.89 225 02:20 04.02.2022
5579 Clouds 7 1007 91 10000 0.89 225 23:34 03.02.2022
5580 Clouds 7 1006 89 10000 0.45 225 22:48 03.02.2022
5581 Clouds 6 1007 94 10000 0.45 225 21:51 03.02.2022
5582 Clouds 7 1007 93 10000 0.89 225 20:50 03.02.2022
5583 Clouds 7 1007 92 10000 0.45 225 20:21 03.02.2022
5584 Clouds 7 1007 92 10000 0.45 225 19:34 03.02.2022
5585 Clouds 7 1007 92 10000 0.45 191 18:48 03.02.2022
5586 Clouds 7 1008 92 10000 3.66 219 17:47 03.02.2022
5587 Clouds 8 1008 92 10000 3.77 217 16:46 03.02.2022
5588 Clouds 8 1009 91 10000 1.34 175 14:54 03.02.2022
5589 Rain 7 1015 93 10000 0.89 225 13:19 03.02.2022
5590 Rain 7 1011 91 10000 0.89 225 11:43 03.02.2022
5591 Rain 4 1013 95 10000 1.34 132 08:40 03.02.2022
5592 Rain 4 1013 93 10000 3.49 197 07:40 03.02.2022
5593 Clouds 2 1016 89 10000 0.45 225 00:34 03.02.2022
5594 Clouds 2 1015 88 10000 0.45 225 23:45 02.02.2022
5595 Clouds 3 1015 87 10000 0.45 225 22:36 02.02.2022
5596 Clouds 3 1015 86 10000 0.45 225 21:37 02.02.2022
5597 Clouds 3 1014 83 10000 0.45 225 20:56 02.02.2022
5598 Clouds 3 1014 82 10000 0.45 248 20:19 02.02.2022
5599 Clouds 4 1014 80 10000 0.45 225 19:45 02.02.2022
5600 Clouds 4 1013 79 10000 0.89 248 18:53 02.02.2022
5601 Clouds 4 1013 79 10000 0.89 225 18:22 02.02.2022
5602 Clouds 5 1012 82 10000 1.34 248 17:20 02.02.2022
5603 Rain 6 1012 73 10000 0.89 225 16:47 02.02.2022
5604 Clouds 7 1008 71 10000 1.34 23 14:21 02.02.2022
5605 Clouds 7 1007 67 10000 2.24 23 12:26 02.02.2022
5606 Clouds 7 1006 69 10000 1.79 23 11:42 02.02.2022
5607 Clouds 7 1006 71 10000 1.79 248 11:23 02.02.2022
5608 Clouds 5 1002 80 10000 1.79 248 07:59 02.02.2022
5609 Clouds 6 999 84 10000 1.79 225 01:36 02.02.2022
5610 Clouds 6 998 89 10000 1.79 248 22:29 01.02.2022
5611 Clouds 6 997 86 10000 1.34 225 20:49 01.02.2022
5612 Clouds 6 997 91 10000 1.79 225 18:55 01.02.2022
5613 Clouds 5 997 88 10000 2.24 225 16:44 01.02.2022
5614 Rain 5 998 87 5305 1.79 225 15:44 01.02.2022
5615 Clouds 5 1004 75 10000 1.79 225 12:49 01.02.2022
5616 Clouds 5 1006 81 10000 1.34 225 11:51 01.02.2022
5617 Clouds 3 1009 87 10000 0.89 225 08:37 01.02.2022
5618 Clouds 2 1009 92 10000 0.45 248 00:28 01.02.2022
5619 Clouds 3 1008 94 10000 0.45 23 23:36 31.01.2022
5620 Clouds 2 1007 93 10000 0.45 23 22:33 31.01.2022
5621 Clouds 2 1007 93 10000 1.79 272 21:34 31.01.2022
5622 Clouds 3 1005 93 10000 0.89 295 20:34 31.01.2022
5623 Clouds 3 1004 93 10000 0.89 295 19:52 31.01.2022
5624 Clouds 2 1003 92 26 0.45 45 18:31 31.01.2022
5625 Clouds 3 1002 92 32 0.45 23 17:55 31.01.2022
5626 Clouds 3 1001 92 37 0.45 45 16:58 31.01.2022
5627 Clouds 3 1000 92 49 0.45 45 16:20 31.01.2022
5628 Clouds 3 999 91 127 2.92 316 14:50 31.01.2022
5629 Clouds 2 1002 93 5118 3.4 293 13:29 31.01.2022
5630 Clouds 3 997 89 5118 0.45 225 12:37 31.01.2022
5631 Clouds 2 997 91 27 0.45 175 10:59 31.01.2022
5632 Clouds 2 998 92 27 0.45 118 10:38 31.01.2022
5633 Rain 2 998 92 25 0.89 160 09:36 31.01.2022
5634 Rain 2 999 87 48 3.95 178 08:56 31.01.2022
5635 Rain 2 1000 83 630 1.34 119 08:20 31.01.2022
5636 Rain 2 1001 81 630 2.24 166 07:37 31.01.2022
5637 Clouds 3 1004 77 10000 1.79 204 05:24 31.01.2022
5638 Clouds 4 1013 69 10000 0.89 225 00:24 31.01.2022
5639 Clouds 5 1019 66 10000 0.89 248 22:33 30.01.2022
5640 Clouds 5 1015 65 10000 0.89 225 21:46 30.01.2022
5641 Clouds 5 1021 65 10000 0.89 225 21:24 30.01.2022
5642 Clouds 5 1016 67 10000 0.89 225 20:53 30.01.2022
5643 Clouds 5 1016 66 10000 0.89 225 20:31 30.01.2022
5644 Clouds 5 1015 65 10000 0.89 23 19:56 30.01.2022
5645 Clouds 6 1016 61 10000 1.34 225 18:52 30.01.2022
5646 Clear 6 1016 62 10000 0.89 248 18:22 30.01.2022
5647 Clear 6 1016 58 10000 1.79 23 17:31 30.01.2022
5648 Clear 6 1016 58 10000 1.79 225 16:43 30.01.2022
5649 Clear 6 1015 58 10000 1.34 225 16:23 30.01.2022
5650 Clear 6 1015 58 10000 1.34 225 16:23 30.01.2022
5651 Clear 6 1015 57 10000 1.79 23 15:55 30.01.2022
5652 Clear 7 1015 59 10000 1.79 23 15:33 30.01.2022
5653 Clouds 7 1015 57 10000 1.79 23 14:48 30.01.2022
5654 Clouds 7 1014 58 10000 2.24 23 13:49 30.01.2022
5655 Clouds 7 1014 59 10000 1.79 225 12:46 30.01.2022
5656 Clouds 7 1014 60 10000 1.79 23 11:49 30.01.2022
5657 Clouds 6 1013 63 10000 1.79 225 10:26 30.01.2022
5658 Clouds 6 1012 70 10000 1.79 225 09:26 30.01.2022
5659 Clouds 5 1011 71 10000 2.24 225 08:32 30.01.2022
5660 Clouds 6 1009 75 10000 1.79 225 02:55 30.01.2022
5661 Clouds 7 1009 72 10000 2.24 248 01:54 30.01.2022
5662 Clouds 7 1008 70 10000 1.79 225 23:49 29.01.2022
5663 Clouds 8 1008 69 10000 2.24 225 22:58 29.01.2022
5664 Clouds 8 1007 73 10000 2.24 248 21:44 29.01.2022
5665 Clouds 8 1007 76 10000 2.24 225 21:20 29.01.2022
5666 Clouds 10 1006 77 10000 2.68 225 20:21 29.01.2022
5667 Clouds 10 1005 82 10000 2.24 225 19:33 29.01.2022
5668 Clouds 9 1006 88 10000 2.24 225 18:51 29.01.2022
5669 Clouds 9 1006 89 10000 1.79 225 18:18 29.01.2022
5670 Clouds 9 1006 86 10000 2.24 225 17:27 29.01.2022
5671 Clouds 10 1008 80 10000 1.79 225 15:42 29.01.2022
5672 Clouds 10 1010 80 10000 2.24 225 13:58 29.01.2022
5673 Clouds 10 1010 80 10000 2.24 225 13:38 29.01.2022
5674 Clouds 9 1015 84 10000 2.24 225 13:20 29.01.2022
5675 Clouds 8 1012 84 10000 2.24 225 11:40 29.01.2022
5676 Clouds 8 1012 84 10000 2.24 225 11:40 29.01.2022
5677 Clouds 8 1013 88 10000 1.79 225 10:38 29.01.2022
5678 Clouds 6 1015 93 10000 1.34 225 08:42 29.01.2022
5679 Clouds 5 1020 79 10000 2.24 135 03:53 29.01.2022
5680 Clouds 4 1023 79 10000 1.34 187 00:34 29.01.2022
5681 Clouds 4 1024 78 10000 0.89 225 23:43 28.01.2022
5682 Rain 4 1025 78 10000 0.89 225 22:48 28.01.2022
5683 Clouds 4 1025 78 10000 0.45 225 22:20 28.01.2022
5684 Clouds 4 1025 78 10000 0.45 225 20:42 28.01.2022
5685 Clouds 4 1026 77 10000 0.45 225 19:59 28.01.2022
5686 Clouds 4 1026 77 10000 0.45 225 19:28 28.01.2022
5687 Clouds 4 1026 74 10000 0.45 248 18:38 28.01.2022
5688 Clouds 6 1024 69 10000 0.89 23 16:39 28.01.2022
5689 Clouds 7 1023 63 10000 1.34 225 14:59 28.01.2022
5690 Clouds 6 1023 65 10000 1.34 23 13:34 28.01.2022
5691 Clouds 6 1023 69 10000 1.34 23 12:26 28.01.2022
5692 Clouds 5 1021 73 10000 1.34 23 10:32 28.01.2022
5693 Clouds 4 1020 80 10000 0.89 225 09:48 28.01.2022
5694 Clouds 4 1019 82 10000 1.79 23 07:43 28.01.2022
5695 Clouds 4 1017 81 10000 1.34 225 06:32 28.01.2022
5696 Clouds 5 1015 80 10000 1.34 248 03:52 28.01.2022
5697 Clouds 5 1014 78 10000 1.79 225 02:30 28.01.2022
5698 Clouds 5 1013 78 10000 1.34 248 01:57 28.01.2022
5699 Clouds 5 1013 79 10000 1.34 248 01:30 28.01.2022
5700 Clouds 5 1011 80 10000 1.34 225 22:40 27.01.2022
5701 Clouds 5 1011 84 10000 1.34 225 21:45 27.01.2022
5702 Clouds 5 1011 84 10000 1.34 225 21:26 27.01.2022
5703 Clouds 6 1011 86 10000 1.34 225 20:23 27.01.2022
5704 Clouds 6 1010 88 10000 1.34 225 18:23 27.01.2022
5705 Rain 7 1010 89 10000 1.34 225 17:26 27.01.2022
5706 Clouds 6 1011 88 10000 1.79 225 14:25 27.01.2022
5707 Clouds 7 1012 84 10000 1.79 225 13:19 27.01.2022
5708 Clouds 6 1012 81 10000 1.79 225 12:25 27.01.2022
5709 Clouds 4 1013 81 10000 0.89 225 09:56 27.01.2022
5710 Clouds 4 1014 81 10000 1.34 225 08:41 27.01.2022
5711 Clouds 4 1014 80 10000 1.79 225 08:18 27.01.2022
5712 Clouds 4 1018 84 10000 1.79 225 03:47 27.01.2022
5713 Clouds 3 1020 85 10000 0.89 225 00:25 27.01.2022
5714 Clouds 3 1020 85 10000 0.89 225 00:25 27.01.2022
5715 Clouds 3 1021 86 10000 1.34 225 22:38 26.01.2022
5716 Clouds 3 1021 89 10000 1.34 225 21:45 26.01.2022
5717 Clouds 3 1021 89 10000 1.34 225 21:26 26.01.2022
5718 Clouds 3 1021 89 10000 1.34 225 20:35 26.01.2022
5719 Clouds 3 1022 88 10000 0.89 225 19:52 26.01.2022
5720 Clouds 3 1022 88 10000 0.89 225 19:18 26.01.2022
5721 Clouds 3 1022 88 10000 1.34 225 18:26 26.01.2022
5722 Clouds 2 1022 88 10000 0.89 225 17:49 26.01.2022
5723 Clouds 2 1022 88 10000 0.89 225 17:19 26.01.2022
5724 Clouds 2 1023 87 10000 0.89 225 16:26 26.01.2022
5725 Clouds 2 1023 87 10000 0.89 225 15:45 26.01.2022
5726 Clouds 2 1025 87 10000 0.89 225 12:54 26.01.2022
5727 Clouds 2 1025 86 10000 0.89 225 11:34 26.01.2022
5728 Clouds 3 1024 89 10000 0.45 225 10:19 26.01.2022
5729 Clouds 3 1024 90 10000 0.89 225 09:42 26.01.2022
5730 Clouds 2 1025 91 10000 0.89 225 07:31 26.01.2022
5731 Clouds 3 1026 92 10000 3.09 271 00:48 26.01.2022
5732 Clouds 3 1026 92 10000 3.09 271 00:48 26.01.2022
5733 Rain 4 1027 92 10000 1.34 307 23:48 25.01.2022
5734 Clouds 4 1027 92 10000 2.74 268 22:50 25.01.2022
5735 Clouds 4 1027 92 10000 2.74 268 22:50 25.01.2022
5736 Clouds 4 1027 92 10000 2.74 268 22:50 25.01.2022
5737 Clouds 4 1027 91 10000 0.45 225 22:21 25.01.2022
5738 Clouds 4 1027 90 10000 0.45 225 21:37 25.01.2022
5739 Clouds 4 1027 90 10000 0.45 225 20:46 25.01.2022
5740 Clouds 4 1027 90 10000 0.45 225 20:21 25.01.2022
5741 Clouds 4 1027 89 10000 0.45 225 19:44 25.01.2022
5742 Clouds 4 1027 88 10000 2.83 276 18:22 25.01.2022
5743 Clouds 5 1027 88 10000 0.89 279 17:42 25.01.2022
5744 Clouds 5 1027 88 10000 0.45 225 16:35 25.01.2022
5745 Clouds 5 1027 85 10000 0.45 225 15:47 25.01.2022
5746 Clouds 5 1032 86 10000 3.28 271 15:28 25.01.2022
5747 Clouds 4 1032 87 10000 0.45 225 14:57 25.01.2022
5748 Clouds 4 1032 87 10000 0.45 225 14:57 25.01.2022
5749 Clouds 4 1032 87 10000 0.45 225 14:57 25.01.2022
5750 Clouds 5 1027 81 10000 0.45 225 13:28 25.01.2022
5751 Clouds 4 1028 85 10000 2.87 263 10:35 25.01.2022
5752 Clouds 4 1028 83 10000 0.89 328 08:33 25.01.2022
5753 Clouds 4 1028 84 10000 0.45 23 07:28 25.01.2022
5754 Clouds 4 1028 83 10000 0.45 23 06:29 25.01.2022
5755 Clouds 5 1029 87 10000 2.62 296 01:36 25.01.2022
5756 Clouds 5 1029 86 10000 0.45 214 23:37 24.01.2022
5757 Clouds 5 1029 86 10000 1.79 307 23:18 24.01.2022
5758 Clouds 6 1029 86 10000 1.34 310 22:59 24.01.2022
5759 Clouds 6 1029 86 10000 1.34 287 22:41 24.01.2022
5760 Clouds 6 1029 86 10000 2.27 297 21:49 24.01.2022
5761 Clouds 6 1029 86 10000 0.89 314 21:28 24.01.2022
5762 Clouds 6 1029 89 10000 1.23 280 20:29 24.01.2022
5763 Clouds 6 1028 89 10000 1.23 280 19:39 24.01.2022
5764 Clouds 6 1029 88 10000 0.92 250 19:20 24.01.2022
5765 Clouds 6 1029 91 10000 1.21 206 17:45 24.01.2022
5766 Clouds 7 1029 91 10000 1.45 190 17:23 24.01.2022
5767 Clouds 7 1029 91 10000 1.45 190 17:23 24.01.2022
5768 Clouds 7 1029 91 10000 1.45 190 16:40 24.01.2022
5769 Clouds 7 1029 90 10000 1.71 191 16:18 24.01.2022
5770 Clouds 7 1029 89 10000 2.23 193 14:35 24.01.2022
5771 Clouds 7 1030 92 10000 1.34 197 12:40 24.01.2022
5772 Clouds 7 1030 92 10000 0.96 213 12:22 24.01.2022
5773 Clouds 6 1030 94 10000 0.85 256 10:27 24.01.2022
5774 Clouds 6 1030 95 10000 0.85 256 09:48 24.01.2022
5775 Clouds 6 1030 96 10000 1 276 08:30 24.01.2022
5776 Clouds 6 1030 96 10000 1.48 294 06:19 24.01.2022
5777 Clouds 6 1030 96 10000 1.62 307 01:30 24.01.2022
5778 Clouds 7 1030 95 10000 1.83 295 00:35 24.01.2022
5779 Clouds 7 1030 95 10000 2.07 284 23:49 23.01.2022
5780 Clouds 7 1030 95 10000 0.45 299 23:49 23.01.2022
5781 Clouds 7 1030 96 10000 2.44 285 22:28 23.01.2022
5782 Clouds 7 1030 96 10000 2.44 285 21:49 23.01.2022
5783 Clouds 7 1030 96 10000 1.34 280 21:25 23.01.2022
5784 Clouds 7 1030 96 10000 1.34 290 20:44 23.01.2022
5785 Clouds 7 1029 95 10000 2.64 290 19:44 23.01.2022
5786 Clouds 7 1029 95 10000 2.94 289 18:51 23.01.2022
5787 Clouds 7 1029 95 10000 1.34 280 17:44 23.01.2022
5788 Clouds 7 1029 94 10000 0.45 310 16:47 23.01.2022
5789 Clouds 7 1029 89 10000 1.79 306 14:59 23.01.2022
5790 Clouds 7 1028 89 10000 0.45 23 14:25 23.01.2022
5791 Clouds 7 1029 91 10000 0.45 23 12:59 23.01.2022
5792 Clouds 7 1029 90 10000 0.45 23 12:36 23.01.2022
5793 Clouds 7 1029 90 10000 0.45 45 12:18 23.01.2022
5794 Clouds 6 1029 91 10000 0.45 23 11:23 23.01.2022
5795 Clouds 6 1029 93 10000 0.45 225 10:28 23.01.2022
5796 Clouds 5 1029 93 10000 0.45 248 09:51 23.01.2022
5797 Clouds 5 1028 93 10000 0.45 225 08:59 23.01.2022
5798 Clouds 5 1027 93 10000 0.45 225 05:58 23.01.2022
5799 Clouds 5 1027 93 10000 0.45 225 01:53 23.01.2022
5800 Clouds 5 1027 93 10000 0.45 225 01:33 23.01.2022
5801 Clouds 5 1026 93 10000 0.45 225 00:31 23.01.2022
5802 Clouds 5 1026 92 10000 0.45 23 23:57 22.01.2022
5803 Clouds 6 1026 89 10000 0.45 23 22:46 22.01.2022
5804 Clouds 6 1025 93 10000 0.45 248 21:38 22.01.2022
5805 Clouds 6 1025 91 10000 0.45 23 20:24 22.01.2022
5806 Clouds 6 1025 92 10000 0.89 359 19:27 22.01.2022
5807 Clouds 6 1025 94 10000 1.34 234 18:29 22.01.2022
5808 Clouds 6 1024 94 10000 4.41 303 17:41 22.01.2022
5809 Clouds 6 1024 93 10000 0.45 23 16:57 22.01.2022
5810 Clouds 6 1024 92 10000 0.45 23 16:20 22.01.2022
5811 Clouds 7 1024 92 10000 1.51 284 15:42 22.01.2022
5812 Clouds 7 1024 87 10000 2.78 320 13:59 22.01.2022
5813 Clouds 7 1024 87 10000 0.45 45 12:58 22.01.2022
5814 Clouds 6 1024 88 10000 0.45 45 12:30 22.01.2022
5815 Clouds 6 1024 89 10000 0.45 23 11:57 22.01.2022
5816 Clouds 6 1024 91 10000 0.45 23 10:39 22.01.2022
5817 Clouds 6 1024 91 10000 0.45 23 10:19 22.01.2022
5818 Clouds 5 1023 93 10000 0.45 23 08:54 22.01.2022
5819 Clouds 5 1023 93 10000 0.45 23 08:31 22.01.2022
5820 Clouds 5 1021 95 10000 0.45 23 05:20 22.01.2022
5821 Clouds 6 1019 95 10000 0.89 23 02:27 22.01.2022
5822 Rain 5 1019 95 10000 0.89 248 23:49 21.01.2022
5823 Clouds 5 1019 96 10000 0.89 225 22:58 21.01.2022
5824 Clouds 3 1020 92 186 0.89 225 20:48 21.01.2022
5825 Clouds 2 1021 88 10000 0.45 225 19:21 21.01.2022
5826 Clouds 2 1022 84 10000 0.45 225 17:50 21.01.2022
5827 Clear 4 1022 70 10000 0.89 225 15:54 21.01.2022
5828 Clear 4 1022 63 10000 0.89 23 14:41 21.01.2022
5829 Clouds 2 1027 55 10000 6.13 311 12:43 21.01.2022
5830 Clouds 2 1022 75 10000 0.89 23 11:29 21.01.2022
5831 Clouds 2 1022 82 10000 0.89 23 10:33 21.01.2022
5832 Clouds 1 1021 86 10000 0.45 248 08:58 21.01.2022
5833 Clouds 0 1022 88 10000 0.45 225 07:58 21.01.2022
5834 Clear -1 1022 69 10000 0.45 225 01:52 21.01.2022
5835 Clear 0 1019 69 10000 0.89 23 22:51 20.01.2022
5836 Clouds 0 1018 71 10000 0.89 23 21:49 20.01.2022
5837 Clouds 0 1018 72 10000 0.89 23 21:25 20.01.2022
5838 Clouds 0 1016 76 10000 0.45 23 19:55 20.01.2022
5839 Clouds 0 1016 82 10000 0.89 23 19:18 20.01.2022
5840 Clouds 0 1014 88 10000 1.34 23 17:37 20.01.2022
5841 Clouds 1 1013 77 10000 0.89 225 16:32 20.01.2022
5842 Clouds 3 1013 74 10000 1.34 225 15:32 20.01.2022
5843 Clouds 3 1014 78 10000 1.34 225 14:37 20.01.2022
5844 Clouds 3 1014 72 10000 1.34 225 13:18 20.01.2022
5845 Clouds 3 1014 72 10000 1.34 248 12:30 20.01.2022
5846 Clouds 3 1014 71 10000 1.34 248 11:20 20.01.2022
5847 Clouds 2 1014 76 10000 0.89 248 10:19 20.01.2022
5848 Clouds 2 1013 76 10000 0.89 225 09:19 20.01.2022
5849 Clouds 3 1011 81 8718 1.79 23 07:24 20.01.2022
5850 Clouds 5 1010 88 10000 1.34 225 00:41 20.01.2022
5851 Clouds 5 1010 86 728 1.79 225 22:50 19.01.2022
5852 Clouds 5 1010 84 10000 1.34 225 21:44 19.01.2022
5853 Clouds 5 1010 83 10000 1.79 225 21:22 19.01.2022
5854 Clouds 4 1010 83 10000 1.79 225 20:45 19.01.2022
5855 Clouds 5 1011 79 10000 1.34 225 19:26 19.01.2022
5856 Clouds 5 1013 78 10000 0.89 225 17:52 19.01.2022
5857 Clouds 4 1013 79 10000 0.89 225 17:32 19.01.2022
5858 Clouds 5 1014 79 10000 0.89 225 15:44 19.01.2022
5859 Clouds 6 1016 79 10000 0.45 248 13:42 19.01.2022
5860 Clouds 5 1018 84 10000 0.89 225 12:24 19.01.2022
5861 Clouds 4 1019 87 10000 0.45 225 11:38 19.01.2022
5862 Clouds 2 1020 94 10000 0.45 225 10:20 19.01.2022
5863 Clouds 1 1020 95 10000 1.34 179 09:33 19.01.2022
5864 Clouds 1 1023 92 10000 2.34 185 06:35 19.01.2022
5865 Clouds 4 1028 89 10000 0.45 225 01:55 19.01.2022
5866 Clouds 6 1030 83 10000 0.45 225 23:19 18.01.2022
5867 Clouds 6 1030 83 10000 0.45 225 22:18 18.01.2022
5868 Clouds 6 1031 84 10000 0.45 235 20:55 18.01.2022
5869 Clouds 5 1036 94 10000 2.95 274 19:54 18.01.2022
5870 Clouds 5 1036 94 10000 2.95 274 19:36 18.01.2022
5871 Clouds 5 1036 95 10000 2.83 276 18:38 18.01.2022
5872 Clouds 6 1031 86 10000 2.94 277 17:57 18.01.2022
5873 Clouds 6 1036 86 10000 2.71 279 16:38 18.01.2022
5874 Clouds 7 1031 86 10000 2.6 285 15:40 18.01.2022
5875 Clouds 7 1031 86 10000 2.74 290 15:21 18.01.2022
5876 Clouds 7 1031 86 10000 2.74 290 15:21 18.01.2022
5877 Clouds 7 1031 82 10000 0.45 23 12:30 18.01.2022
5878 Clouds 6 1032 86 10000 2.98 291 10:47 18.01.2022
5879 Clouds 5 1031 88 10000 3.29 296 08:49 18.01.2022
5880 Clouds 5 1031 86 10000 0.45 286 07:49 18.01.2022
5881 Clouds 2 1029 89 10000 3.53 297 02:33 18.01.2022
5882 Clear 1 1028 90 10000 4.08 288 23:38 17.01.2022
5883 Clear 2 1027 89 10000 4.08 289 22:26 17.01.2022
5884 Clear 2 1027 88 10000 4.08 289 21:34 17.01.2022
5885 Clear 3 1026 85 10000 0.45 225 20:24 17.01.2022
5886 Clouds 4 1024 89 10000 0.45 23 18:30 17.01.2022
5887 Clouds 5 1023 86 10000 0.89 23 17:25 17.01.2022
5888 Clouds 5 1021 84 10000 0.89 23 16:40 17.01.2022
5889 Clouds 6 1020 87 10000 1.34 23 15:19 17.01.2022
5890 Clouds 6 1019 88 10000 1.79 23 14:55 17.01.2022
5891 Clouds 7 1017 91 10000 1.34 225 13:22 17.01.2022
5892 Rain 7 1017 90 10000 1.34 225 12:55 17.01.2022
5893 Clouds 7 1016 85 10000 2.24 225 11:49 17.01.2022
5894 Clouds 6 1016 83 10000 1.79 225 10:21 17.01.2022
5895 Clouds 6 1016 85 10000 1.79 225 09:34 17.01.2022
5896 Clouds 6 1017 84 10000 1.34 225 07:24 17.01.2022
5897 Clouds 6 1017 82 10000 1.79 225 06:56 17.01.2022
5898 Clouds 6 1017 88 10000 1.34 225 00:55 17.01.2022
5899 Clouds 5 1017 86 10000 1.34 225 22:29 16.01.2022
5900 Clouds 5 1017 84 10000 1.34 225 20:36 16.01.2022
5901 Clouds 5 1017 88 10000 0.89 225 18:52 16.01.2022
5902 Clouds 5 1016 88 10000 0.89 225 17:59 16.01.2022
5903 Clouds 4 1016 89 10000 0.89 225 17:23 16.01.2022
5904 Clouds 4 1016 89 10000 0.45 225 16:38 16.01.2022
5905 Clouds 4 1015 86 10000 1.34 225 14:31 16.01.2022
5906 Clouds 4 1015 86 10000 0.89 225 13:49 16.01.2022
5907 Clouds 3 1016 86 10000 1.34 225 12:49 16.01.2022
5908 Clouds 3 1016 88 10000 0.89 225 11:43 16.01.2022
5909 Clouds 2 1011 91 10000 3.58 263 10:55 16.01.2022
5910 Clouds 2 1010 94 10000 3.39 259 10:19 16.01.2022
5911 Clouds 1 1010 93 10000 3.39 259 09:52 16.01.2022
5912 Clouds 0 1015 93 10000 2.64 253 09:22 16.01.2022
5913 Clouds 0 1015 93 10000 2.64 253 08:37 16.01.2022
5914 Clouds 0 1018 93 10000 2 179 02:36 16.01.2022
5915 Clouds 1 1020 92 10000 2.53 169 23:49 15.01.2022
5916 Clouds 2 1021 88 10000 2.47 166 22:19 15.01.2022
5917 Clouds 3 1021 87 10000 2.51 163 21:19 15.01.2022
5918 Clouds 4 1021 87 10000 2.51 163 20:40 15.01.2022
5919 Clouds 4 1022 84 10000 0.89 134 19:30 15.01.2022
5920 Clouds 4 1022 84 10000 2.5 151 18:45 15.01.2022
5921 Clouds 4 1023 80 10000 1.85 150 17:29 15.01.2022
5922 Clouds 5 1024 75 10000 1.79 111 15:59 15.01.2022
5923 Clouds 6 1025 80 10000 0.97 221 13:55 15.01.2022
5924 Clouds 5 1026 91 10000 0.45 152 12:18 15.01.2022
5925 Clouds 3 1026 96 10000 1.41 295 10:38 15.01.2022
5926 Clouds 1 1026 96 10000 2.36 301 08:31 15.01.2022
5927 Clouds 3 1026 93 10000 3.24 308 00:28 15.01.2022
5928 Clouds 6 1027 92 10000 0.45 268 21:52 14.01.2022
5929 Clouds 6 1027 92 10000 0.45 268 21:52 14.01.2022
5930 Clouds 6 1027 91 10000 0.45 248 20:41 14.01.2022
5931 Clouds 6 1027 91 10000 0.45 248 20:21 14.01.2022
5932 Clouds 6 1026 92 10000 0.45 248 18:49 14.01.2022
5933 Clouds 6 1026 91 10000 0.89 23 18:20 14.01.2022
5934 Clouds 6 1026 89 10000 0.89 23 16:50 14.01.2022
5935 Clouds 6 1025 87 10000 1.34 248 15:39 14.01.2022
5936 Clouds 7 1025 85 10000 1.34 225 14:42 14.01.2022
5937 Clouds 7 1026 83 10000 1.34 225 13:36 14.01.2022
5938 Clouds 6 1026 82 10000 1.34 225 12:28 14.01.2022
5939 Clouds 5 1027 84 10000 0.89 225 10:53 14.01.2022
5940 Clouds 5 1027 86 10000 0.89 225 08:54 14.01.2022
5941 Clouds 4 1027 87 10000 0.89 225 08:34 14.01.2022
5942 Clouds 5 1027 90 10000 0.89 225 06:45 14.01.2022
5943 Clouds 4 1028 88 10000 0.89 225 01:20 14.01.2022
5944 Clouds 4 1029 86 10000 0.89 225 22:52 13.01.2022
5945 Clouds 4 1030 87 10000 0.89 225 21:31 13.01.2022
5946 Clear 5 1030 87 10000 0.89 225 20:57 13.01.2022
5947 Clear 4 1029 89 10000 0.45 225 19:40 13.01.2022
5948 Clear 4 1030 90 10000 0.45 225 19:22 13.01.2022
5949 Clear 4 1031 89 10000 5.9 276 17:52 13.01.2022
5950 Clear 5 1030 86 10000 6.16 277 16:21 13.01.2022
5951 Clear 6 1030 85 10000 0.45 225 15:37 13.01.2022
5952 Clear 6 1030 83 10000 0.45 225 14:46 13.01.2022
5953 Clouds 6 1032 86 10000 0.89 248 12:44 13.01.2022
5954 Clear 4 1032 89 10000 0.45 225 10:25 13.01.2022
5955 Clouds 4 1032 91 10000 0.89 225 09:20 13.01.2022
5956 Clouds 4 1032 91 10000 0.89 225 08:27 13.01.2022
5957 Clouds 4 1031 89 10000 0.89 225 07:23 13.01.2022
5958 Clouds 4 1031 89 10000 0.45 248 05:59 13.01.2022
5959 Clouds 4 1031 89 10000 0.45 248 05:59 13.01.2022
5960 Clouds 3 1031 87 10000 0.45 248 05:19 13.01.2022
5961 Clouds 4 1033 87 10000 0.45 225 01:58 13.01.2022
5962 Clouds 4 1033 87 10000 0.45 225 00:54 13.01.2022
5963 Clouds 4 1038 90 10000 3.79 258 23:49 12.01.2022
5964 Clouds 4 1038 90 10000 3.79 257 23:49 12.01.2022
5965 Clouds 4 1038 91 10000 3.63 260 23:20 12.01.2022
5966 Clouds 4 1038 89 10000 0.45 225 21:57 12.01.2022
5967 Clouds 4 1033 88 10000 0.45 225 21:22 12.01.2022
5968 Clouds 4 1033 87 10000 0.45 225 20:56 12.01.2022
5969 Clouds 4 1033 88 10000 0.45 225 19:45 12.01.2022
5970 Clouds 4 1033 88 10000 2.68 299 18:43 12.01.2022
5971 Clouds 4 1033 89 10000 0.45 225 17:38 12.01.2022
5972 Clouds 5 1032 87 10000 0.45 23 16:33 12.01.2022
5973 Clouds 5 1032 87 10000 0.45 23 14:48 12.01.2022
5974 Clouds 4 1037 88 10000 0.45 248 13:32 12.01.2022
5975 Clouds 4 1037 87 10000 3.04 265 11:59 12.01.2022
5976 Clouds 2 1031 92 10000 0.45 199 08:45 12.01.2022
5977 Clouds 2 1031 93 10000 2.1 252 07:52 12.01.2022
5978 Clouds 2 1031 93 10000 2.1 252 07:32 12.01.2022
5979 Clouds 2 1031 94 10000 1.99 180 23:53 11.01.2022
5980 Clouds 2 1031 94 10000 0.89 91 23:25 11.01.2022
5981 Clouds 2 1031 95 10000 2.46 166 22:24 11.01.2022
5982 Clouds 1 1031 95 10000 0.45 129 21:25 11.01.2022
5983 Clouds 1 1031 95 10000 0.45 149 20:33 11.01.2022
5984 Clouds 1 1031 94 10000 3.13 190 18:48 11.01.2022
5985 Clouds 2 1030 93 10000 0.45 115 17:46 11.01.2022
5986 Clouds 2 1030 93 10000 2.24 105 16:39 11.01.2022
5987 Clouds 2 1030 93 10000 2.28 140 16:18 11.01.2022
5988 Clouds 3 1030 91 10000 0.89 135 14:44 11.01.2022
5989 Clouds 3 1030 92 10000 2.24 107 14:18 11.01.2022
5990 Clouds 3 1030 93 10000 0.89 76 13:42 11.01.2022
5991 Clouds 2 1030 94 10000 1.34 115 13:24 11.01.2022
5992 Clouds 2 1030 94 10000 1.79 121 12:23 11.01.2022
5993 Clouds 3 1030 94 10000 0.45 94 10:26 11.01.2022
5994 Clouds 3 1029 93 10000 2.09 129 07:38 11.01.2022
5995 Clouds 3 1027 92 10000 1.34 21 03:47 11.01.2022
5996 Clouds 4 1026 93 10000 1.12 43 00:25 11.01.2022
5997 Clouds 4 1026 94 10000 1.12 43 23:38 10.01.2022
5998 Clouds 4 1025 94 10000 0.94 329 22:20 10.01.2022
5999 Clouds 4 1025 94 10000 0.94 329 21:57 10.01.2022
6000 Clouds 4 1025 93 10000 2.24 1 21:33 10.01.2022
6001 Clouds 4 1024 93 10000 1.06 340 20:58 10.01.2022
6002 Clouds 4 1024 93 10000 1.34 12 20:36 10.01.2022
6003 Clouds 4 1024 93 10000 1.29 338 20:18 10.01.2022
6004 Clouds 4 1023 94 10000 0.45 45 19:37 10.01.2022
6005 Clouds 4 1023 94 10000 2.68 31 19:18 10.01.2022
6006 Clouds 4 1022 93 10000 1.79 25 18:46 10.01.2022
6007 Clouds 5 1020 88 10000 1.79 261 16:48 10.01.2022
6008 Clouds 5 1019 88 10000 0.45 237 16:20 10.01.2022
6009 Clouds 5 1018 87 10000 0.45 45 14:42 10.01.2022
6010 Clouds 5 1016 87 10000 2.3 306 13:22 10.01.2022
6011 Clouds 5 1015 89 10000 0.45 23 11:56 10.01.2022
6012 Clouds 5 1014 89 10000 0.45 276 10:48 10.01.2022
6013 Clouds 4 1013 90 10000 2.51 300 09:33 10.01.2022
6014 Clouds 3 1014 95 10000 2.97 284 05:51 10.01.2022
6015 Clouds 4 1005 91 10000 0.45 225 02:32 10.01.2022
6016 Clouds 4 1004 91 10000 0.45 225 01:21 10.01.2022
6017 Clouds 4 1003 91 10000 0.45 225 00:21 10.01.2022
6018 Clouds 4 1001 90 10000 0.45 225 22:47 09.01.2022
6019 Clouds 4 1001 90 10000 0.45 225 22:21 09.01.2022
6020 Clouds 4 1000 91 10000 0.45 225 21:41 09.01.2022
6021 Clouds 4 1000 91 10000 0.45 225 21:41 09.01.2022
6022 Clouds 4 1000 90 10000 0.45 225 21:22 09.01.2022
6023 Clouds 4 999 91 10000 0.45 225 20:47 09.01.2022
6024 Clouds 4 999 92 10000 0.45 225 20:28 09.01.2022
6025 Clouds 4 998 93 10000 0.45 225 19:41 09.01.2022
6026 Clouds 4 997 93 10000 0.45 225 19:21 09.01.2022
6027 Clouds 4 997 93 10000 0.45 225 18:47 09.01.2022
6028 Rain 5 997 93 10000 0.89 248 18:28 09.01.2022
6029 Rain 4 996 93 10000 0.89 225 17:30 09.01.2022
6030 Rain 4 995 94 9045 0.45 225 16:50 09.01.2022
6031 Rain 4 994 94 1935 1.79 275 15:52 09.01.2022
6032 Rain 4 994 94 1935 6.47 273 15:33 09.01.2022
6033 Rain 4 987 93 84 3.13 239 14:39 09.01.2022
6034 Rain 4 992 88 44 0.89 225 13:50 09.01.2022
6035 Clouds 4 996 87 41 0.45 225 12:31 09.01.2022
6036 Clouds 4 991 88 2646 0.89 145 11:48 09.01.2022
6037 Clouds 2 990 90 10000 1.79 156 09:59 09.01.2022
6038 Clouds 2 990 90 10000 4.92 134 09:41 09.01.2022
6039 Clouds 1 989 94 10000 2.68 142 08:31 09.01.2022
6040 Clouds 2 990 83 10000 0.45 248 02:48 09.01.2022
6041 Clouds 1 992 86 10000 0.45 293 01:21 09.01.2022
6042 Clouds 1 994 84 10000 0.45 248 23:38 08.01.2022
6043 Clouds 1 995 83 10000 0.45 315 22:59 08.01.2022
6044 Clouds 2 997 81 10000 0.45 293 21:33 08.01.2022
6045 Clouds 2 998 81 10000 3.58 156 20:58 08.01.2022
6046 Clouds 2 998 81 10000 6.71 159 20:39 08.01.2022
6047 Clouds 1 999 83 10000 2.24 145 20:19 08.01.2022
6048 Clouds 2 1001 84 10000 2.68 159 18:34 08.01.2022
6049 Clouds 2 1003 83 10000 3.98 199 17:22 08.01.2022
6050 Clouds 4 1003 80 10000 0.45 225 15:52 08.01.2022
6051 Clouds 4 1004 80 10000 0.89 225 14:44 08.01.2022
6052 Clouds 5 1005 80 10000 1.34 225 13:25 08.01.2022
6053 Clouds 3 1005 86 10000 0.45 225 11:25 08.01.2022
6054 Clouds 2 1005 91 10000 3.02 242 10:25 08.01.2022
6055 Clouds 2 1005 92 10000 3.02 242 09:47 08.01.2022
6056 Clouds 1 1005 94 10000 2.9 234 07:50 08.01.2022
6057 Clouds 1 1005 94 10000 1.34 221 02:50 08.01.2022
6058 Clouds 2 1005 93 10000 0.89 172 00:42 08.01.2022
6059 Rain 3 1005 88 5563 0.89 225 22:49 07.01.2022
6060 Clouds 3 1006 85 10000 0.89 225 21:18 07.01.2022
6061 Clouds 3 1006 85 10000 0.89 225 20:20 07.01.2022
6062 Clouds 3 1006 84 10000 0.45 225 19:25 07.01.2022
6063 Clouds 3 1006 84 10000 0.89 225 18:45 07.01.2022
6064 Clouds 3 1006 84 10000 0.45 225 17:28 07.01.2022
6065 Clouds 3 1006 85 10000 0.45 225 16:41 07.01.2022
6066 Clouds 3 1006 85 10000 2.68 190 14:37 07.01.2022
6067 Clouds 3 1007 87 10000 0.45 23 13:41 07.01.2022
6068 Clouds 3 1007 88 10000 0.89 225 12:50 07.01.2022
6069 Clouds 2 1008 85 10000 0.45 0 09:46 07.01.2022
6070 Clouds 0 1013 90 10000 4.08 201 02:57 07.01.2022
6071 Clouds 0 1013 89 10000 1.34 231 02:19 07.01.2022
6072 Clouds -1 1013 90 10000 1.34 173 01:41 07.01.2022
6073 Clear -1 1013 90 10000 0.45 248 01:20 07.01.2022
6074 Clear 0 1013 90 10000 3.34 200 00:28 07.01.2022
6075 Clear 0 1014 88 10000 0.45 225 21:40 06.01.2022
6076 Clear 0 1014 88 10000 0.45 225 20:36 06.01.2022
6077 Clear 0 1014 89 10000 0.45 225 19:54 06.01.2022
6078 Clouds 0 1014 90 10000 0.45 225 19:28 06.01.2022
6079 Clouds 1 1014 89 10000 2.58 258 17:51 06.01.2022
6080 Clouds 1 1014 89 10000 2.58 258 17:51 06.01.2022
6081 Clouds 1 1014 88 10000 2.27 256 17:19 06.01.2022
6082 Clouds 3 1013 83 10000 0.45 225 16:22 06.01.2022
6083 Clouds 4 1013 79 10000 0.45 225 15:41 06.01.2022
6084 Clouds 4 1013 76 10000 0.45 225 15:20 06.01.2022
6085 Clouds 4 1012 74 10000 0.45 225 14:19 06.01.2022
6086 Clouds 4 1012 75 10000 0.45 225 13:30 06.01.2022
6087 Clouds 3 1012 79 10000 0.45 225 12:20 06.01.2022
6088 Clouds 2 1012 82 10000 2.24 214 11:29 06.01.2022
6089 Clouds 1 1011 82 10000 0.45 225 09:50 06.01.2022
6090 Clouds 0 1008 86 10000 3.58 268 06:37 06.01.2022
6091 Clouds 5 1001 85 10000 1.34 248 00:27 06.01.2022
6092 Clouds 5 1000 85 10000 1.34 225 23:22 05.01.2022
6093 Clouds 5 999 87 10000 1.34 225 22:42 05.01.2022
6094 Clouds 5 999 87 10000 1.34 225 22:21 05.01.2022
6095 Clouds 5 998 90 10000 1.34 225 21:25 05.01.2022
6096 Clouds 5 997 88 10000 0.89 225 20:30 05.01.2022
6097 Clouds 5 997 90 10000 1.34 225 20:30 05.01.2022
6098 Clouds 5 996 85 10000 1.79 225 19:28 05.01.2022
6099 Clouds 4 995 87 10000 1.79 225 17:56 05.01.2022
6100 Clouds 4 995 84 10000 1.79 225 16:56 05.01.2022
6101 Clouds 4 994 84 10000 1.79 225 16:18 05.01.2022
6102 Clouds 4 993 82 10000 2.68 225 14:54 05.01.2022
6103 Clouds 5 994 74 10000 2.24 225 13:34 05.01.2022
6104 Clouds 5 994 69 10000 2.24 225 12:20 05.01.2022
6105 Clouds 4 994 80 10000 1.34 225 08:29 05.01.2022
6106 Clouds 4 993 82 10000 0.89 225 06:37 05.01.2022
6107 Clouds 5 992 84 10000 0.45 225 01:24 05.01.2022
6108 Clouds 6 992 84 10000 1.34 296 23:42 04.01.2022
6109 Clouds 6 992 87 10000 3.22 286 23:19 04.01.2022
6110 Clouds 6 991 90 10000 0.45 225 21:41 04.01.2022
6111 Clouds 6 991 90 10000 0.45 225 20:42 04.01.2022
6112 Rain 7 990 85 10000 0.45 225 18:39 04.01.2022
6113 Clouds 7 989 86 10000 0.89 225 17:30 04.01.2022
6114 Clouds 8 989 87 10000 0.89 225 16:34 04.01.2022
6115 Clouds 8 989 86 10000 0.89 225 15:25 04.01.2022
6116 Clouds 8 988 87 10000 0.89 225 14:38 04.01.2022
6117 Clouds 8 989 89 10000 0.45 225 13:56 04.01.2022
6118 Clouds 8 990 91 10000 1.34 160 12:23 04.01.2022
6119 Clouds 7 991 89 10000 2.48 230 10:24 04.01.2022
6120 Clouds 7 992 89 10000 1.34 142 08:57 04.01.2022
6121 Clouds 7 993 90 10000 1.34 153 06:28 04.01.2022
6122 Clouds 7 998 88 10000 1.34 201 00:43 04.01.2022
6123 Clouds 7 999 89 10000 1.34 228 23:56 03.01.2022
6124 Clouds 7 1005 87 10000 5.28 239 22:28 03.01.2022
6125 Clouds 7 1000 86 10000 0.45 225 21:41 03.01.2022
6126 Clouds 8 1000 85 10000 0.89 225 20:42 03.01.2022
6127 Clouds 8 1000 85 10000 0.89 225 19:43 03.01.2022
6128 Clouds 7 1001 86 10000 5.99 249 18:32 03.01.2022
6129 Clouds 9 1001 82 10000 1.34 225 17:34 03.01.2022
6130 Clouds 8 1002 82 10000 0.89 225 16:56 03.01.2022
6131 Clouds 11 1003 72 10000 2.24 225 14:54 03.01.2022
6132 Clouds 11 1004 68 10000 1.34 225 13:25 03.01.2022
6133 Clouds 11 1004 69 10000 1.34 225 12:28 03.01.2022
6134 Clouds 10 1004 73 10000 1.34 225 11:31 03.01.2022
6135 Clouds 9 1004 80 10000 1.34 225 09:42 03.01.2022
6136 Clouds 9 1004 79 10000 1.34 225 08:18 03.01.2022
6137 Clouds 10 1003 78 10000 1.34 225 06:31 03.01.2022
6138 Clouds 11 1003 82 10000 0.89 225 23:45 02.01.2022
6139 Clouds 10 1004 81 10000 0.45 134 22:57 02.01.2022
6140 Clouds 11 1004 81 10000 0.89 162 22:38 02.01.2022
6141 Clouds 11 1004 80 10000 0.89 225 21:32 02.01.2022
6142 Clouds 11 1005 80 10000 0.89 225 20:31 02.01.2022
6143 Clouds 11 1005 80 10000 0.89 225 20:30 02.01.2022
6144 Clouds 11 1005 80 10000 0.89 225 20:30 02.01.2022
6145 Clouds 11 1005 80 10000 0.89 225 20:30 02.01.2022
6146 Clouds 12 1004 77 10000 1.34 225 19:31 02.01.2022
6147 Clouds 12 1004 76 10000 1.34 225 18:56 02.01.2022
6148 Clouds 12 1003 76 10000 1.79 225 17:58 02.01.2022
6149 Clouds 12 1004 76 10000 1.79 225 17:39 02.01.2022
6150 Clouds 12 1004 76 10000 1.79 225 17:21 02.01.2022
6151 Clouds 12 1004 75 10000 1.34 225 16:28 02.01.2022
6152 Clouds 13 1004 83 10000 0.89 225 15:18 02.01.2022
6153 Clouds 12 1005 83 10000 0.89 225 13:38 02.01.2022
6154 Clouds 12 1006 87 10000 0.45 225 12:32 02.01.2022
6155 Clouds 11 1007 87 10000 0.89 180 11:55 02.01.2022
6156 Clouds 12 1009 88 10000 4.35 188 10:55 02.01.2022
6157 Clouds 11 1010 87 10000 0.45 225 09:58 02.01.2022
6158 Clouds 10 1010 91 10000 3.17 210 07:44 02.01.2022
6159 Clouds 8 1013 93 10000 3.11 207 02:57 02.01.2022
6160 Clouds 9 1016 86 10000 0.89 179 23:50 01.01.2022
6161 Clouds 10 1016 86 10000 3.28 179 23:27 01.01.2022
6162 Clouds 10 1016 82 10000 0.45 225 22:39 01.01.2022
6163 Clouds 11 1017 82 10000 0.45 225 22:18 01.01.2022
6164 Clouds 11 1017 81 10000 0.45 225 21:42 01.01.2022
6165 Clouds 12 1018 80 10000 0.89 225 20:36 01.01.2022
6166 Clouds 12 1018 81 10000 2.24 204 19:45 01.01.2022
6167 Clouds 12 1018 81 10000 0.89 149 18:52 01.01.2022
6168 Clouds 13 1013 79 10000 3.04 207 17:45 01.01.2022
6169 Clouds 13 1023 81 10000 2.87 219 16:35 01.01.2022
6170 Clouds 13 1013 78 10000 1.79 170 15:45 01.01.2022
6171 Clouds 14 1018 78 10000 0.45 225 14:40 01.01.2022
6172 Clouds 14 1019 78 10000 0.89 225 13:42 01.01.2022
6173 Clouds 13 1019 80 10000 0.45 225 12:26 01.01.2022
6174 Clouds 13 1019 81 10000 0.45 225 11:30 01.01.2022
6175 Clouds 13 1019 82 10000 0.89 225 10:59 01.01.2022
6176 Clouds 13 1018 84 10000 0.45 225 09:48 01.01.2022
6177 Clouds 12 1018 85 10000 0.45 225 08:45 01.01.2022
6178 Clouds 12 1017 85 10000 0.45 225 08:18 01.01.2022
6179 Clouds 12 1017 85 10000 0.89 225 07:39 01.01.2022
6180 Clouds 12 1017 85 10000 0.89 225 06:44 01.01.2022
6181 Clouds 12 1016 85 10000 0.45 225 05:25 01.01.2022
6182 Clouds 12 1016 85 10000 0.89 225 04:36 01.01.2022
6183 Clouds 13 1014 87 10000 0.89 225 00:25 01.01.2022
6184 Clouds 13 1013 86 10000 1.34 225 22:40 31.12.2021
6185 Clouds 13 1012 88 10000 0.89 225 21:49 31.12.2021
6186 Clouds 13 1012 83 10000 0.89 225 20:28 31.12.2021
6187 Clouds 13 1010 90 10000 1.34 225 19:28 31.12.2021
6188 Rain 12 1016 86 10000 8.21 272 18:30 31.12.2021
6189 Clouds 14 1010 83 10000 1.34 225 17:37 31.12.2021
6190 Clouds 14 1010 82 10000 1.34 225 17:18 31.12.2021
6191 Clouds 14 1009 77 10000 1.34 225 16:19 31.12.2021
6192 Clouds 14 1009 76 10000 1.79 225 15:53 31.12.2021
6193 Clouds 14 1009 76 10000 1.79 225 15:28 31.12.2021
6194 Clouds 14 1010 76 10000 1.34 225 14:41 31.12.2021
6195 Clouds 14 1010 74 10000 1.79 225 14:18 31.12.2021
6196 Clouds 14 1010 76 10000 1.34 225 13:36 31.12.2021
6197 Clouds 14 1010 76 10000 1.79 225 12:44 31.12.2021
6198 Clouds 14 1011 79 10000 1.34 225 11:43 31.12.2021
6199 Clouds 14 1011 79 10000 1.34 225 11:20 31.12.2021
6200 Clouds 14 1011 79 10000 1.34 225 10:32 31.12.2021
6201 Clouds 13 1011 82 10000 0.89 225 09:52 31.12.2021
6202 Clouds 13 1011 83 10000 0.89 225 09:32 31.12.2021
6203 Clouds 13 1011 84 10000 0.45 225 08:25 31.12.2021
6204 Clouds 13 1011 84 10000 1.34 225 07:30 31.12.2021
6205 Clouds 13 1011 93 10000 0.89 225 23:23 30.12.2021
6206 Clouds 13 1011 93 10000 0.89 225 22:33 30.12.2021
6207 Clouds 13 1010 92 10000 1.34 225 21:56 30.12.2021
6208 Clouds 13 1010 92 10000 1.34 225 21:36 30.12.2021
6209 Clouds 13 1010 91 10000 1.34 225 20:46 30.12.2021
6210 Clouds 13 1010 92 10000 0.89 225 20:25 30.12.2021
6211 Clouds 13 1010 93 10000 0.89 225 19:45 30.12.2021
6212 Clouds 13 1009 91 10000 0.89 225 18:45 30.12.2021
6213 Rain 13 1009 90 10000 0.89 225 18:18 30.12.2021
6214 Clouds 13 1008 93 10000 0.89 225 16:20 30.12.2021
6215 Clouds 13 1008 93 10000 0.89 225 15:52 30.12.2021
6216 Clouds 12 1007 94 10000 0.89 225 14:40 30.12.2021
6217 Clouds 11 1007 94 10000 0.89 199 13:55 30.12.2021
6218 Clouds 11 1007 94 10000 0.89 199 13:55 30.12.2021
6219 Clouds 10 1007 94 10000 1.34 177 12:44 30.12.2021
6220 Clouds 9 1008 93 10000 0.45 225 10:59 30.12.2021
6221 Clouds 8 1008 95 10000 3.78 248 09:59 30.12.2021
6222 Clouds 8 1008 95 10000 4.33 246 09:21 30.12.2021
6223 Clouds 8 1007 95 10000 0.45 225 06:54 30.12.2021
6224 Clouds 8 1007 95 10000 0.45 225 06:54 30.12.2021
6225 Clouds 7 1005 96 10000 0.89 225 04:20 30.12.2021
6226 Clouds 7 1005 96 10000 0.89 225 04:20 30.12.2021
6227 Clouds 7 1005 97 10000 0.89 225 03:38 30.12.2021
6228 Clouds 6 1003 96 10000 3.32 192 00:35 30.12.2021
6229 Clouds 6 1003 96 10000 3.56 179 23:31 29.12.2021
6230 Clouds 6 1003 96 10000 2.12 182 22:24 29.12.2021
6231 Clouds 6 1003 96 10000 2.12 182 21:53 29.12.2021
6232 Clouds 6 1003 96 10000 2.47 190 20:40 29.12.2021
6233 Clouds 6 1003 96 10000 2.64 191 19:54 29.12.2021
6234 Clouds 6 1003 96 10000 0.45 139 19:25 29.12.2021
6235 Clouds 6 1003 96 10000 2.21 250 18:19 29.12.2021
6236 Clouds 6 1003 96 10000 0.45 225 17:29 29.12.2021
6237 Clouds 7 1003 95 10000 0.45 203 16:58 29.12.2021
6238 Clouds 7 1003 95 10000 2.87 268 16:19 29.12.2021
6239 Clouds 7 1002 94 10000 3.59 268 14:46 29.12.2021
6240 Clouds 7 1006 95 10000 0.45 225 12:50 29.12.2021
6241 Clouds 7 1005 95 9258 0.45 225 12:27 29.12.2021
6242 Clouds 6 1000 96 8781 0.45 225 10:38 29.12.2021
6243 Clouds 4 999 95 10000 0.45 225 08:56 29.12.2021
6244 Clouds 4 997 95 10000 2.38 251 06:49 29.12.2021
6245 Clouds 4 997 96 10000 2.22 256 06:28 29.12.2021
6246 Clouds 4 997 97 10000 2.22 256 05:50 29.12.2021
6247 Clouds 3 995 95 10000 2.38 250 03:47 29.12.2021
6248 Clouds 4 992 94 10000 2.9 224 00:32 29.12.2021
6249 Clouds 4 991 95 10000 3.31 228 23:57 28.12.2021
6250 Clouds 4 991 95 10000 3.47 215 22:56 28.12.2021
6251 Clouds 4 990 95 10000 3.07 203 22:24 28.12.2021
6252 Clouds 4 990 95 10000 3.07 203 21:54 28.12.2021
6253 Clouds 4 990 96 10000 3.07 203 21:34 28.12.2021
6254 Clouds 4 990 94 10000 3.13 160 19:53 28.12.2021
6255 Clouds 4 990 92 8125 0.45 142 18:53 28.12.2021
6256 Rain 5 989 92 8002 0.89 170 18:25 28.12.2021
6257 Clouds 5 989 91 8002 2.68 152 17:34 28.12.2021
6258 Clouds 5 990 91 10000 2.24 90 16:20 28.12.2021
6259 Clouds 5 990 90 10000 3.13 93 15:41 28.12.2021
6260 Clouds 5 991 89 10000 3.13 117 14:55 28.12.2021
6261 Clouds 5 991 89 10000 3.58 131 14:55 28.12.2021
6262 Clouds 5 991 90 10000 0.89 203 14:37 28.12.2021
6263 Clouds 5 991 89 10000 2.68 125 14:18 28.12.2021
6264 Clouds 5 992 88 10000 4.02 153 13:37 28.12.2021
6265 Clouds 5 992 88 10000 4.47 138 12:56 28.12.2021
6266 Clouds 4 993 90 10000 2.24 86 12:21 28.12.2021
6267 Clouds 3 995 91 10000 4.47 122 10:47 28.12.2021
6268 Clouds 3 995 93 10000 2.68 83 07:39 28.12.2021
6269 Clouds 1 997 93 10000 1.79 84 03:37 28.12.2021
6270 Clouds 1 999 92 10000 2.68 108 23:41 27.12.2021
6271 Clouds 1 999 91 10000 0.89 88 22:27 27.12.2021
6272 Clouds 2 999 89 10000 1.34 62 21:32 27.12.2021
6273 Clouds 2 999 91 10000 4.1 134 20:40 27.12.2021
6274 Clouds 1 999 90 10000 1.34 173 19:55 27.12.2021
6275 Clouds 1 999 90 10000 3.91 137 19:37 27.12.2021
6276 Clouds 1 1000 91 10000 1.79 160 17:55 27.12.2021
6277 Clouds 1 1000 91 10000 1.79 160 17:55 27.12.2021
6278 Clouds 2 999 91 10000 1.34 114 17:29 27.12.2021
6279 Clouds 2 999 90 10000 3.77 126 16:32 27.12.2021
6280 Clouds 2 1000 89 10000 0.89 125 15:50 27.12.2021
6281 Clouds 2 1000 88 10000 1.79 93 14:29 27.12.2021
6282 Clouds 2 1000 88 10000 4.47 135 13:32 27.12.2021
6283 Clouds 1 1001 87 10000 1.34 131 11:41 27.12.2021
6284 Clouds -1 1002 87 10000 3.58 91 10:28 27.12.2021
6285 Clouds -1 1002 88 10000 0.45 94 09:38 27.12.2021
6286 Snow -2 1002 87 10000 1.79 149 07:35 27.12.2021
6287 Clouds -2 1003 85 10000 2.24 104 06:30 27.12.2021
6288 Clouds -4 1004 82 10000 2.24 121 01:59 27.12.2021
6289 Clouds -5 1005 84 10000 0.89 160 23:57 26.12.2021
6290 Clouds -5 1006 84 10000 0.45 93 23:34 26.12.2021
6291 Clear -6 1006 86 10000 0.89 31 21:53 26.12.2021
6292 Clear -6 1007 85 10000 2.93 107 20:42 26.12.2021
6293 Clear -6 1007 86 10000 2.81 107 19:46 26.12.2021
6294 Clear -6 1007 87 10000 0.45 49 18:23 26.12.2021
6295 Clear -3 1013 79 10000 2.27 103 15:57 26.12.2021
6296 Clear -4 1008 81 10000 1.34 32 14:27 26.12.2021
6297 Clear -4 1008 78 10000 3.08 115 13:40 26.12.2021
6298 Clear -4 1009 79 10000 0.89 16 13:19 26.12.2021
6299 Clear -5 1004 87 10000 0.89 4 12:32 26.12.2021
6300 Clear -7 1005 84 10000 0.89 43 10:32 26.12.2021
6301 Clear -9 1005 81 10000 2.05 98 09:19 26.12.2021
6302 Clear -10 1005 88 10000 2.05 98 08:43 26.12.2021
6303 Clear -10 1005 87 10000 1.8 97 07:34 26.12.2021
6304 Clear -7 1015 71 10000 2.18 112 01:27 26.12.2021
6305 Clear -7 1015 71 10000 2.18 109 23:54 25.12.2021
6306 Clear -7 1015 71 10000 2.13 113 23:27 25.12.2021
6307 Clear -7 1015 71 10000 2.1 120 22:26 25.12.2021
6308 Clear -7 1005 89 10000 2.08 126 20:59 25.12.2021
6309 Clear -7 1010 88 10000 2.12 109 19:26 25.12.2021
6310 Clear -7 1010 88 10000 2.12 109 18:55 25.12.2021
6311 Clear -6 1010 87 10000 2.26 93 17:37 25.12.2021
6312 Snow -5 1009 86 10000 2.23 80 16:36 25.12.2021
6313 Clear -3 1009 78 10000 2.15 76 15:24 25.12.2021
6314 Clear -4 1009 79 10000 2.68 355 13:31 25.12.2021
6315 Clouds -4 1004 82 10000 1.34 340 11:53 25.12.2021
6316 Clouds -5 1004 87 10000 2.78 81 09:57 25.12.2021
6317 Clouds -5 1004 85 10000 2.78 81 09:37 25.12.2021
6318 Clouds -5 1007 88 10000 2.79 58 04:34 25.12.2021
6319 Clouds -3 1005 82 10000 2.24 2 01:25 25.12.2021
6320 Clouds -2 1004 80 10000 0.45 23 23:47 24.12.2021
6321 Snow 1 1000 96 225 1.34 23 19:50 24.12.2021
6322 Snow 1 999 96 34 1.79 359 19:24 24.12.2021
6323 Rain 2 998 95 27 0.89 279 16:59 24.12.2021
6324 Clouds 3 997 95 30 0.45 23 16:29 24.12.2021
6325 Clouds 3 997 95 30 0.89 23 15:48 24.12.2021
6326 Clouds 3 996 94 63 1.34 23 15:20 24.12.2021
6327 Rain 5 995 94 63 1.34 23 14:31 24.12.2021
6328 Clouds 7 994 92 4777 1.34 23 13:44 24.12.2021
6329 Clouds 9 993 85 10000 1.34 225 12:49 24.12.2021
6330 Clouds 9 993 88 10000 1.34 225 12:23 24.12.2021
6331 Clouds 9 993 91 10000 1.34 225 11:42 24.12.2021
6332 Clouds 8 993 93 10000 1.34 225 11:19 24.12.2021
6333 Clouds 8 994 95 10000 1.34 225 10:33 24.12.2021
6334 Clouds 7 994 96 10000 0.89 225 08:38 24.12.2021
6335 Clouds 6 994 96 10000 0.89 225 07:58 24.12.2021
6336 Clouds 6 995 95 10000 0.89 225 06:44 24.12.2021
6337 Rain 4 997 94 10000 0.45 225 00:21 24.12.2021
6338 Clouds 3 997 94 10000 0.45 225 23:39 23.12.2021
6339 Rain 3 997 94 10000 0.45 225 22:51 23.12.2021
6340 Clouds 2 998 93 10000 4.63 246 22:24 23.12.2021
6341 Clouds 2 998 92 10000 4.63 246 21:39 23.12.2021
6342 Clouds 2 998 90 10000 4.14 229 20:30 23.12.2021
6343 Rain 2 1000 90 10000 0.45 200 19:28 23.12.2021
6344 Rain 1 1001 93 10000 1.34 117 18:18 23.12.2021
6345 Rain 1 1001 92 10000 3.95 194 17:45 23.12.2021
6346 Rain 1 1002 88 10000 3.14 214 16:27 23.12.2021
6347 Snow 2 1002 86 10000 0.89 138 15:40 23.12.2021
6348 Rain 2 1003 85 6494 2.45 234 15:22 23.12.2021
6349 Rain 1 1004 84 6494 2.45 234 14:40 23.12.2021
6350 Clouds 1 1004 85 10000 2.76 222 13:31 23.12.2021
6351 Clouds 0 1007 85 10000 0.45 225 11:52 23.12.2021
6352 Clouds -1 1009 87 5395 2.68 94 09:53 23.12.2021
6353 Clouds -1 1009 87 5395 1.34 112 09:34 23.12.2021
6354 Clouds -1 1010 89 10000 0.45 131 08:38 23.12.2021
6355 Clouds -2 1012 90 10000 1.79 156 05:43 23.12.2021
6356 Clouds -3 1015 91 10000 2.24 95 02:56 23.12.2021
6357 Clouds -3 1017 92 10000 0.89 134 22:53 22.12.2021
6358 Clouds -4 1018 92 10000 0.89 117 22:22 22.12.2021
6359 Clouds -4 1018 92 10000 2.51 168 21:37 22.12.2021
6360 Clouds -4 1019 92 10000 2.49 172 21:19 22.12.2021
6361 Clouds -3 1019 91 10000 2.49 172 20:40 22.12.2021
6362 Clouds -3 1019 91 10000 2.5 174 19:57 22.12.2021
6363 Clouds -3 1020 92 10000 0.89 118 18:56 22.12.2021
6364 Clouds -2 1020 92 10000 2.47 175 17:38 22.12.2021
6365 Clouds -2 1021 91 10000 1.34 43 16:32 22.12.2021
6366 Clouds 0 1021 86 10000 1.34 127 15:21 22.12.2021
6367 Clouds 0 1022 86 10000 0.45 225 12:59 22.12.2021
6368 Clouds 0 1022 87 10000 0.45 74 11:50 22.12.2021
6369 Clouds -2 1018 92 10000 2.6 177 09:53 22.12.2021
6370 Clouds -3 1024 93 10000 2.75 179 08:58 22.12.2021
6371 Clouds -3 1023 93 10000 2.66 179 07:21 22.12.2021
6372 Clouds -2 1023 94 10000 2.53 174 05:39 22.12.2021
6373 Clouds -2 1024 94 10000 0.45 93 05:20 22.12.2021
6374 Clouds -1 1024 93 10000 2.53 170 04:42 22.12.2021
6375 Clouds -1 1024 94 10000 1.34 149 03:56 22.12.2021
6376 Clouds -1 1024 94 10000 0.89 190 03:31 22.12.2021
6377 Clouds -1 1023 92 10000 0.45 225 23:57 21.12.2021
6378 Clouds -1 1023 91 10000 0.45 225 22:49 21.12.2021
6379 Clouds 0 1023 91 10000 0.45 225 22:27 21.12.2021
6380 Clouds 0 1023 91 10000 0.45 225 21:43 21.12.2021
6381 Clouds 0 1023 90 10000 0.45 45 20:53 21.12.2021
6382 Clear 0 1022 91 10000 0.68 303 20:20 21.12.2021
6383 Clear 0 1022 92 10000 0.68 303 19:41 21.12.2021
6384 Clouds -1 1022 92 10000 0.76 303 18:38 21.12.2021
6385 Clouds -1 1022 90 10000 1.32 314 17:59 21.12.2021
6386 Clouds 0 1022 89 10000 1.32 314 17:40 21.12.2021
6387 Clouds 1 1022 88 10000 1.64 303 15:46 21.12.2021
6388 Clouds 1 1021 88 10000 1.52 291 15:19 21.12.2021
6389 Clouds 2 1022 86 10000 0.45 45 13:47 21.12.2021
6390 Clouds 2 1021 87 10000 0.45 23 13:29 21.12.2021
6391 Clouds 1 1023 92 10000 3.13 269 10:55 21.12.2021
6392 Clouds 0 1023 94 10000 1.44 284 09:59 21.12.2021
6393 Clouds -1 1023 93 10000 1.53 301 09:18 21.12.2021
6394 Clouds 0 1017 94 10000 1.77 314 07:54 21.12.2021
6395 Clouds 0 1017 93 10000 2.15 317 07:25 21.12.2021
6396 Clouds -1 1027 89 10000 1.98 313 05:31 21.12.2021
6397 Clouds -3 1022 89 10000 1.79 291 02:40 21.12.2021
6398 Clouds -2 1022 90 10000 1.93 297 23:58 20.12.2021
6399 Clouds -1 1022 91 10000 0.89 217 23:24 20.12.2021
6400 Clouds -1 1023 91 10000 2.12 310 22:28 20.12.2021
6401 Clouds -1 1023 92 10000 2.12 310 21:47 20.12.2021
6402 Clouds -1 1022 91 10000 2.27 313 21:23 20.12.2021
6403 Clouds -1 1022 91 10000 2.27 313 20:44 20.12.2021
6404 Clear -1 1022 91 10000 2.37 318 19:50 20.12.2021
6405 Clear -1 1022 91 10000 2.37 318 19:30 20.12.2021
6406 Clear -1 1022 90 10000 2.46 316 18:54 20.12.2021
6407 Clear 0 1022 88 10000 2.5 326 17:52 20.12.2021
6408 Clear 1 1022 87 10000 2.69 321 17:25 20.12.2021
6409 Clear 1 1022 86 10000 2.69 321 16:40 20.12.2021
6410 Clear 2 1022 82 10000 0.45 23 15:50 20.12.2021
6411 Clear 4 1022 78 10000 0.45 23 14:43 20.12.2021
6412 Clear 4 1021 77 10000 0.89 23 12:51 20.12.2021
6413 Clear 2 1022 80 10000 0.45 23 11:19 20.12.2021
6414 Clear 0 1021 86 10000 2.24 293 09:47 20.12.2021
6415 Clear 0 1021 87 10000 3.8 290 09:28 20.12.2021
6416 Clear 0 1021 88 10000 0.45 204 08:41 20.12.2021
6417 Clear 0 1021 88 10000 3.74 290 07:49 20.12.2021
6418 Clear 0 1021 88 10000 3.7 295 07:29 20.12.2021
6419 Clear 1 1019 86 10000 1.79 297 03:59 20.12.2021
6420 Clouds 3 1019 86 10000 2.68 304 23:58 19.12.2021
6421 Clouds 5 1018 86 10000 0.45 23 22:45 19.12.2021
6422 Clouds 6 1018 87 10000 0.89 23 21:50 19.12.2021
6423 Clouds 6 1017 86 10000 0.89 23 21:29 19.12.2021
6424 Clouds 6 1017 84 10000 0.89 23 20:31 19.12.2021
6425 Clouds 7 1017 80 10000 0.89 23 19:49 19.12.2021
6426 Clouds 7 1017 79 10000 0.89 23 18:59 19.12.2021
6427 Clouds 8 1017 81 10000 0.89 23 18:29 19.12.2021
6428 Clouds 8 1016 82 10000 0.89 23 17:52 19.12.2021
6429 Clouds 8 1016 83 10000 0.89 23 17:19 19.12.2021
6430 Clouds 7 1016 86 10000 0.89 248 16:26 19.12.2021
6431 Clouds 8 1016 85 10000 0.89 248 15:42 19.12.2021
6432 Clouds 8 1016 88 10000 0.89 225 15:20 19.12.2021
6433 Clouds 7 1017 89 10000 0.89 248 14:41 19.12.2021
6434 Clouds 7 1017 88 10000 1.34 23 13:22 19.12.2021
6435 Clouds 7 1018 84 10000 1.34 225 12:36 19.12.2021
6436 Clouds 8 1018 85 10000 0.89 248 12:18 19.12.2021
6437 Clouds 8 1019 83 10000 1.34 23 11:19 19.12.2021
6438 Clouds 8 1020 82 10000 0.89 225 10:25 19.12.2021
6439 Clouds 8 1020 83 10000 0.89 225 09:41 19.12.2021
6440 Clouds 7 1021 84 10000 0.89 225 08:25 19.12.2021
6441 Clouds 7 1022 84 10000 1.34 248 04:45 19.12.2021
6442 Clouds 7 1022 84 10000 1.34 248 04:45 19.12.2021
6443 Clouds 8 1024 83 10000 1.34 248 01:22 19.12.2021
6444 Clouds 8 1025 83 10000 0.89 225 00:52 19.12.2021
6445 Clouds 8 1026 85 10000 0.89 225 22:36 18.12.2021
6446 Clouds 8 1026 85 10000 0.89 225 21:57 18.12.2021
6447 Clouds 8 1026 85 10000 0.89 225 21:35 18.12.2021
6448 Clouds 8 1027 85 10000 0.89 23 20:44 18.12.2021
6449 Clouds 8 1027 86 10000 0.89 225 20:18 18.12.2021
6450 Clouds 8 1027 88 10000 0.45 248 19:20 18.12.2021
6451 Clouds 8 1028 90 10000 0.45 248 18:21 18.12.2021
6452 Clouds 8 1028 90 10000 0.45 248 17:48 18.12.2021
6453 Clouds 8 1029 90 10000 0.45 248 16:26 18.12.2021
6454 Clouds 7 1029 93 10000 0.45 225 15:27 18.12.2021
6455 Clouds 7 1029 93 10000 0.45 248 14:48 18.12.2021
6456 Clouds 8 1030 87 10000 0.89 225 13:28 18.12.2021
6457 Clouds 7 1031 89 10000 0.89 225 11:23 18.12.2021
6458 Clouds 7 1032 93 10000 0.45 248 09:40 18.12.2021
6459 Clouds 6 1032 94 10000 1.34 218 08:47 18.12.2021
6460 Clouds 6 1032 94 10000 2.71 262 08:24 18.12.2021
6461 Clouds 7 1032 93 10000 1.79 314 05:56 18.12.2021
6462 Clouds 7 1033 92 10000 2.73 298 00:30 18.12.2021
6463 Clouds 6 1033 91 10000 2.8 295 23:46 17.12.2021
6464 Clouds 7 1034 87 10000 0.45 23 21:58 17.12.2021
6465 Clouds 7 1033 87 10000 0.45 316 21:23 17.12.2021
6466 Clouds 7 1033 87 10000 0.45 292 20:42 17.12.2021
6467 Clouds 6 1038 88 10000 0.45 23 19:45 17.12.2021
6468 Clear 7 1038 88 10000 0.45 23 18:39 17.12.2021
6469 Clear 7 1033 86 10000 0.45 23 17:46 17.12.2021
6470 Clear 7 1038 87 10000 0.45 23 16:50 17.12.2021
6471 Clear 7 1033 85 10000 0.45 23 16:26 17.12.2021
6472 Clear 8 1033 83 10000 0.45 23 15:25 17.12.2021
6473 Clear 8 1033 84 10000 0.45 248 14:41 17.12.2021
6474 Clear 8 1033 84 10000 0.89 23 13:30 17.12.2021
6475 Clouds 7 1033 88 10000 0.45 23 12:28 17.12.2021
6476 Clouds 6 1033 92 10000 0.45 23 10:39 17.12.2021
6477 Clouds 5 1033 95 10000 1.79 251 09:47 17.12.2021
6478 Clouds 4 1033 92 10000 3 299 08:31 17.12.2021
6479 Clouds 5 1038 91 10000 0.45 225 07:21 17.12.2021
6480 Clear 4 1038 96 10000 3.02 295 04:40 17.12.2021
6481 Clear 3 1038 95 10000 3.7 288 23:58 16.12.2021
6482 Clear 5 1039 94 10000 3.35 287 22:24 16.12.2021
6483 Clear 5 1038 94 10000 3.35 287 21:51 16.12.2021
6484 Clear 5 1038 95 10000 3.35 287 21:33 16.12.2021
6485 Clear 5 1038 94 10000 3.4 286 20:31 16.12.2021
6486 Clear 5 1038 93 10000 3.17 294 19:51 16.12.2021
6487 Clouds 6 1037 92 10000 3.49 286 18:42 16.12.2021
6488 Clouds 6 1037 92 10000 3.39 291 18:22 16.12.2021
6489 Clouds 7 1037 92 10000 3.39 291 17:32 16.12.2021
6490 Clouds 8 1036 87 10000 1.34 248 16:23 16.12.2021
6491 Clouds 9 1036 85 10000 0.45 23 15:22 16.12.2021
6492 Clouds 9 1036 88 10000 0.45 23 13:44 16.12.2021
6493 Clouds 9 1035 91 10000 0.45 23 11:48 16.12.2021
6494 Clouds 9 1035 92 10000 0.45 23 11:18 16.12.2021
6495 Clouds 9 1034 90 10000 0.45 23 10:39 16.12.2021
6496 Clouds 9 1034 91 10000 0.45 0 09:39 16.12.2021
6497 Clouds 8 1032 86 10000 0.45 225 06:23 16.12.2021
6498 Clouds 9 1032 83 10000 0.45 225 03:19 16.12.2021
6499 Clouds 9 1031 85 10000 0.89 225 23:36 15.12.2021
6500 Clouds 9 1031 86 10000 0.45 225 22:49 15.12.2021
6501 Clouds 9 1031 86 10000 0.45 225 22:20 15.12.2021
6502 Clouds 9 1031 87 10000 0.45 225 21:31 15.12.2021
6503 Clouds 9 1031 85 10000 0.89 225 20:36 15.12.2021
6504 Clouds 9 1031 85 10000 0.45 225 19:53 15.12.2021
6505 Clouds 9 1030 86 10000 0.45 225 18:41 15.12.2021
6506 Clouds 10 1030 86 10000 0.45 225 18:18 15.12.2021
6507 Clouds 10 1030 86 10000 0.45 225 17:43 15.12.2021
6508 Clouds 10 1030 86 10000 0.89 225 16:59 15.12.2021
6509 Clouds 10 1029 85 10000 0.45 225 15:47 15.12.2021
6510 Clouds 10 1030 85 10000 0.89 225 15:29 15.12.2021
6511 Clouds 10 1029 86 10000 0.89 225 14:44 15.12.2021
6512 Clouds 10 1029 85 10000 0.89 225 13:28 15.12.2021
6513 Clouds 10 1030 85 10000 0.89 225 11:41 15.12.2021
6514 Clouds 9 1030 86 10000 0.89 225 10:18 15.12.2021
6515 Clouds 8 1029 90 10000 0.89 225 07:55 15.12.2021
6516 Clouds 8 1028 88 10000 0.45 225 04:22 15.12.2021
6517 Clouds 8 1028 92 10000 0.45 225 00:32 15.12.2021
6518 Clouds 8 1028 91 10000 0.45 225 23:21 14.12.2021
6519 Clouds 8 1028 90 10000 0.45 225 22:42 14.12.2021
6520 Clouds 8 1028 88 10000 0.45 225 21:40 14.12.2021
6521 Clouds 8 1028 90 10000 3.03 250 20:21 14.12.2021
6522 Clouds 8 1027 89 10000 0.45 225 19:26 14.12.2021
6523 Clouds 8 1027 90 10000 1.79 232 18:38 14.12.2021
6524 Clouds 8 1027 89 10000 0.45 225 17:53 14.12.2021
6525 Clouds 8 1026 86 10000 0.45 225 16:43 14.12.2021
6526 Clouds 9 1026 85 10000 0.45 225 16:21 14.12.2021
6527 Clouds 9 1025 80 10000 0.45 225 13:59 14.12.2021
6528 Clouds 9 1025 80 10000 0.45 225 12:50 14.12.2021
6529 Clouds 8 1026 80 10000 0.89 225 11:25 14.12.2021
6530 Clouds 8 1026 81 10000 0.45 225 10:59 14.12.2021
6531 Clouds 8 1026 83 10000 0.45 225 09:54 14.12.2021
6532 Clouds 8 1026 83 10000 0.45 225 08:58 14.12.2021
6533 Clouds 8 1025 83 10000 0.45 225 08:21 14.12.2021
6534 Clouds 8 1025 83 10000 0.89 225 07:23 14.12.2021
6535 Clouds 8 1027 85 10000 2.53 226 23:52 13.12.2021
6536 Clouds 9 1027 87 10000 0.45 220 22:26 13.12.2021
6537 Clouds 9 1028 88 10000 0.45 225 21:44 13.12.2021
6538 Clouds 9 1028 87 10000 0.45 225 20:54 13.12.2021
6539 Clouds 9 1027 88 10000 2.94 231 20:26 13.12.2021
6540 Clouds 9 1027 87 10000 2.94 231 19:49 13.12.2021
6541 Clouds 9 1027 87 10000 2.94 231 19:49 13.12.2021
6542 Clouds 9 1027 88 10000 0.45 248 17:28 13.12.2021
6543 Clouds 9 1027 87 10000 0.89 263 16:43 13.12.2021
6544 Clouds 9 1027 90 10000 2.74 257 15:43 13.12.2021
6545 Clouds 11 1026 87 10000 0.45 225 14:43 13.12.2021
6546 Clouds 10 1026 92 10000 2.86 266 13:37 13.12.2021
6547 Clouds 10 1026 90 10000 0.45 225 12:40 13.12.2021
6548 Clouds 10 1026 92 10000 0.45 225 11:53 13.12.2021
6549 Clouds 10 1026 92 10000 0.45 225 11:34 13.12.2021
6550 Clouds 9 1026 94 10000 0.45 225 10:37 13.12.2021
6551 Clouds 8 1026 97 10000 3.65 277 08:45 13.12.2021
6552 Clouds 8 1025 97 10000 2.24 316 06:55 13.12.2021
6553 Clouds 8 1024 97 10000 2.55 260 05:19 13.12.2021
6554 Clouds 7 1023 97 10000 0.45 259 00:41 13.12.2021
6555 Clouds 5 1023 96 10000 2.58 248 21:59 12.12.2021
6556 Clouds 5 1023 96 10000 2.58 248 21:30 12.12.2021
6557 Clouds 4 1022 96 10000 0.89 160 19:38 12.12.2021
6558 Clouds 4 1022 95 10000 2.67 206 18:24 12.12.2021
6559 Rain 4 1021 96 10000 2.54 205 16:54 12.12.2021
6560 Clouds 4 1021 96 10000 2.94 202 16:26 12.12.2021
6561 Clouds 4 1021 95 10000 3.85 211 15:28 12.12.2021
6562 Clouds 4 1021 94 10000 2.68 135 14:54 12.12.2021
6563 Clouds 4 1021 94 10000 1.79 204 14:22 12.12.2021
6564 Clouds 3 1022 95 10000 1.34 182 12:55 12.12.2021
6565 Clouds 3 1022 94 10000 3.58 173 12:24 12.12.2021
6566 Clouds 3 1023 95 10000 4.72 183 11:43 12.12.2021
6567 Rain 2 1023 94 10000 3.48 201 10:45 12.12.2021
6568 Rain 2 1023 94 10000 3.33 210 10:22 12.12.2021
6569 Clouds 1 1023 94 10000 3.19 199 08:53 12.12.2021
6570 Clouds 0 1023 95 10000 2.87 181 07:31 12.12.2021
6571 Clouds -1 1023 94 10000 2.39 191 05:56 12.12.2021
6572 Clouds -1 1023 94 10000 2.43 211 04:55 12.12.2021
6573 Clouds -1 1023 94 10000 2.26 219 02:56 12.12.2021
6574 Clouds -1 1021 91 10000 2.31 219 23:30 11.12.2021
6575 Clear -1 1021 93 10000 2.55 232 22:21 11.12.2021
6576 Clear -1 1020 94 10000 2.55 232 21:50 11.12.2021
6577 Clear 0 1020 96 10000 3.22 235 20:24 11.12.2021
6578 Clear 0 1019 95 10000 2.91 239 19:21 11.12.2021
6579 Clear -1 1019 95 10000 2.91 239 18:51 11.12.2021
6580 Clouds 0 1019 95 10000 2.62 250 18:19 11.12.2021
6581 Clouds 1 1018 93 10000 2.39 245 16:59 11.12.2021
6582 Clouds 2 1017 93 10000 2.17 234 15:48 11.12.2021
6583 Clouds 3 1016 88 10000 1.76 246 14:54 11.12.2021
6584 Clouds 2 1015 92 10000 1.34 244 12:49 11.12.2021
6585 Clouds 2 1014 93 10000 2.85 278 11:24 11.12.2021
6586 Clouds 0 1012 95 10000 2.34 275 09:45 11.12.2021
6587 Clouds -1 1010 95 10000 0.45 225 07:32 11.12.2021
6588 Clouds 0 1003 96 10000 0.41 336 00:51 11.12.2021
6589 Clouds -1 1003 96 10000 0.97 152 23:50 10.12.2021
6590 Clouds -1 1002 96 10000 1.46 155 23:18 10.12.2021
6591 Clouds -1 1001 94 10000 1.75 152 21:52 10.12.2021
6592 Clouds -1 1000 94 10000 1.68 144 20:57 10.12.2021
6593 Clouds 1 999 93 10000 2.25 116 19:21 10.12.2021
6594 Clouds 2 998 93 10000 2.29 115 17:59 10.12.2021
6595 Clouds 2 998 93 10000 2.55 115 16:56 10.12.2021
6596 Clouds 3 998 93 10000 2.81 108 16:28 10.12.2021
6597 Clouds 3 997 93 10000 2.81 108 15:40 10.12.2021
6598 Clouds 3 997 92 10000 0.45 124 15:21 10.12.2021
6599 Clouds 3 997 92 10000 1.79 111 13:51 10.12.2021
6600 Clouds 3 997 91 10000 0.89 108 13:26 10.12.2021
6601 Clouds 3 997 92 10000 0.89 79 12:39 10.12.2021
6602 Clouds 2 998 93 10000 3.02 138 11:28 10.12.2021
6603 Clouds 2 998 94 10000 3.02 138 10:37 10.12.2021
6604 Clouds 1 999 94 10000 2.66 138 08:57 10.12.2021
6605 Clouds 0 1000 95 10000 2.28 146 06:50 10.12.2021
6606 Clouds 0 1002 96 10000 2.4 166 02:48 10.12.2021
6607 Clouds 0 1002 96 10000 2.4 166 02:48 10.12.2021
6608 Clouds 1 1003 94 10000 2.21 208 00:38 10.12.2021
6609 Clouds 1 1004 93 10000 1.68 188 23:23 09.12.2021
6610 Snow 1 1005 94 10000 1.94 164 22:28 09.12.2021
6611 Clouds 1 1005 95 10000 1.94 165 21:59 09.12.2021
6612 Clouds 1 1005 94 10000 1.57 157 21:19 09.12.2021
6613 Clouds 1 1005 94 10000 1.37 153 20:29 09.12.2021
6614 Clouds 1 1005 94 10000 1.35 133 19:22 09.12.2021
6615 Snow 1 1006 94 10000 1.43 138 18:50 09.12.2021
6616 Clouds 1 1006 93 10000 1.81 142 17:57 09.12.2021
6617 Clouds 1 1006 93 10000 1.81 142 17:57 09.12.2021
6618 Clouds 1 1006 93 10000 1.77 164 17:27 09.12.2021
6619 Snow 1 1006 93 10000 1.77 164 16:57 09.12.2021
6620 Clouds 1 1006 93 10000 1.25 149 15:59 09.12.2021
6621 Clouds 1 1006 91 10000 2.06 148 14:51 09.12.2021
6622 Snow 1 1005 90 10000 0.84 207 13:39 09.12.2021
6623 Snow 2 1005 89 302 0.38 99 12:47 09.12.2021
6624 Rain 1 1006 89 679 1.11 70 11:25 09.12.2021
6625 Snow 0 1006 90 457 0.91 94 09:45 09.12.2021
6626 Clouds 1 1005 92 10000 1.39 86 06:51 09.12.2021
6627 Snow 1 1004 93 669 2.11 89 03:49 09.12.2021
6628 Clouds 1 1004 92 5082 0.89 101 23:50 08.12.2021
6629 Clouds 1 1004 92 5082 2.24 118 23:31 08.12.2021
6630 Snow 1 1004 93 4567 2.89 107 22:53 08.12.2021
6631 Rain 1 1004 94 144 1.79 87 21:49 08.12.2021
6632 Rain 1 1004 94 144 0.89 104 21:30 08.12.2021
6633 Rain 1 1004 90 55 2.68 115 20:30 08.12.2021
6634 Clouds 2 1004 86 389 2.68 121 19:48 08.12.2021
6635 Clouds 2 1003 88 4292 0.89 104 18:54 08.12.2021
6636 Clouds 2 1003 90 10000 0.89 118 18:22 08.12.2021
6637 Clouds 2 1002 89 10000 3.58 108 16:44 08.12.2021
6638 Clouds 2 1002 89 10000 3.13 79 16:44 08.12.2021
6639 Clouds 3 1002 87 10000 1.79 151 15:40 08.12.2021
6640 Clouds 3 1002 86 10000 4.02 117 15:21 08.12.2021
6641 Clou